<
# Wetter Temperatur Luftdruck Luftfeuchtigkeit Sichtweite Windgeschwindigkeit Windrichtung Zeit
1 Clouds 14 1013 58 10000 6 210 12:55 22.04.2021
2 Clouds 13 1013 62 10000 6 200 12:37 22.04.2021
3 Clouds 13 1013 62 10000 6 200 12:18 22.04.2021
4 Clouds 12 1013 66 10000 6 200 11:42 22.04.2021
5 Clouds 12 1013 66 10000 6 200 11:19 22.04.2021
6 Clouds 12 1012 71 10000 6 200 10:41 22.04.2021
7 Clouds 12 1012 71 10000 6 200 10:20 22.04.2021
8 Clouds 10 1012 71 10000 7 210 09:38 22.04.2021
9 Clouds 9 1012 76 10000 6 200 08:57 22.04.2021
10 Clear 8 1012 76 10000 6 210 08:38 22.04.2021
11 Clear 8 1011 76 10000 6 170 08:18 22.04.2021
12 Clear 7 1011 81 10000 5 180 07:36 22.04.2021
13 Clear 7 1011 81 10000 5 180 07:18 22.04.2021
14 Clouds 5 1011 81 10000 6 180 06:21 22.04.2021
15 Clear 4 1011 87 10000 4 190 05:24 22.04.2021
16 Rain 5 1010 81 10000 4 200 02:29 22.04.2021
17 Clear 5 1010 81 10000 5 200 00:25 22.04.2021
18 Rain 5 1010 81 10000 5 190 23:41 21.04.2021
19 Rain 5 1009 81 10000 5 190 23:21 21.04.2021
20 Rain 5 1009 81 10000 5 200 22:41 21.04.2021
21 Rain 5 1009 81 10000 4 190 22:21 21.04.2021
22 Clear 5 1009 87 10000 4 180 21:42 21.04.2021
23 Rain 5 1009 87 10000 4 180 21:23 21.04.2021
24 Clouds 5 1009 87 10000 4 200 20:38 21.04.2021
25 Clouds 5 1009 87 10000 4 190 20:18 21.04.2021
26 Rain 6 1008 87 10000 3 220 19:38 21.04.2021
27 Rain 6 1008 87 10000 3 220 19:20 21.04.2021
28 Rain 6 1008 87 10000 3 190 18:44 21.04.2021
29 Clouds 6 1008 87 10000 3 190 18:22 21.04.2021
30 Clouds 6 1007 87 10000 4 210 17:46 21.04.2021
31 Rain 6 1007 87 10000 4 210 17:23 21.04.2021
32 Clouds 6 1006 75 10000 5 220 16:42 21.04.2021
33 Rain 6 1006 81 10000 4 220 15:56 21.04.2021
34 Clouds 5 1006 87 10000 5 240 15:37 21.04.2021
35 Rain 6 1006 81 10000 4 210 14:47 21.04.2021
36 Rain 6 1005 81 10000 5 230 14:29 21.04.2021
37 Clouds 6 1005 81 10000 5 230 13:51 21.04.2021
38 Clouds 6 1005 81 10000 4 230 13:24 21.04.2021
39 Clouds 5 1004 81 10000 5 230 12:56 21.04.2021
40 Clouds 5 1004 81 10000 5 230 12:29 21.04.2021
41 Clouds 5 1003 81 10000 6 230 11:47 21.04.2021
42 Rain 5 1003 81 10000 6 230 11:25 21.04.2021
43 Rain 4 1003 87 10000 5 230 10:43 21.04.2021
44 Rain 3 1002 87 10000 4 210 10:18 21.04.2021
45 Rain 3 1002 87 10000 4 210 09:41 21.04.2021
46 Rain 3 1002 93 10000 2 230 08:56 21.04.2021
47 Rain 3 1002 93 10000 2 230 08:56 21.04.2021
48 Snow 2 1002 93 10000 2 320 08:37 21.04.2021
49 Snow 2 1002 93 10000 2 320 08:18 21.04.2021
50 Snow 2 1002 93 5000 2 310 07:31 21.04.2021
51 Snow 1 1002 93 1800 2 350 06:28 21.04.2021
52 Snow 2 1004 93 9000 5 40 04:46 21.04.2021
53 Rain 3 1009 93 9000 8 60 00:51 21.04.2021
54 Rain 3 1011 93 9000 8 80 23:48 20.04.2021
55 Rain 3 1011 93 8000 8 80 23:21 20.04.2021
56 Rain 3 1012 93 9000 7 80 22:40 20.04.2021
57 Rain 3 1012 93 9000 7 80 22:18 20.04.2021
58 Rain 4 1014 87 10000 7 60 21:46 20.04.2021
59 Rain 4 1014 87 10000 7 60 21:24 20.04.2021
60 Rain 3 1015 93 10000 5 30 20:43 20.04.2021
61 Rain 3 1015 93 10000 5 30 20:23 20.04.2021
62 Rain 3 1015 93 10000 5 50 19:55 20.04.2021
63 Rain 3 1016 93 9000 7 40 19:36 20.04.2021
64 Rain 3 1016 100 9000 6 40 19:18 20.04.2021
65 Clouds 3 1017 93 9000 5 40 18:35 20.04.2021
66 Rain 3 1018 100 9000 6 80 17:46 20.04.2021
67 Rain 3 1019 93 10000 6 80 17:25 20.04.2021
68 Rain 3 1019 93 10000 6 80 16:44 20.04.2021
69 Rain 3 1019 93 7000 8 90 15:51 20.04.2021
70 Rain 4 1019 93 7000 10 90 15:28 20.04.2021
71 Rain 4 1019 81 9000 11 80 14:57 20.04.2021
72 Rain 5 1019 57 10000 8 100 14:33 20.04.2021
73 Clear 7 1019 49 10000 9 90 13:44 20.04.2021
74 Rain 8 1019 43 10000 8 100 13:18 20.04.2021
75 Rain 9 1019 40 10000 9 90 12:41 20.04.2021
76 Rain 9 1019 40 10000 9 90 12:20 20.04.2021
77 Rain 9 1019 37 10000 10 70 11:41 20.04.2021
78 Rain 9 1020 39 10000 8 70 11:21 20.04.2021
79 Rain 9 1020 39 10000 6 60 10:43 20.04.2021
80 Rain 9 1020 39 10000 6 60 10:23 20.04.2021
81 Clear 8 1020 39 10000 6 70 09:23 20.04.2021
82 Clear 7 1020 42 10000 7 60 08:55 20.04.2021
83 Clear 6 1021 42 10000 7 80 08:20 20.04.2021
84 Clear 6 1021 41 10000 7 90 07:40 20.04.2021
85 Clear 6 1021 41 10000 7 90 07:40 20.04.2021
86 Clear 6 1021 41 10000 7 90 07:40 20.04.2021
87 Clear 5 1021 41 10000 7 90 06:37 20.04.2021
88 Clear 5 1021 41 10000 5 80 05:38 20.04.2021
89 Rain 5 1022 45 10000 7 70 04:41 20.04.2021
90 Rain 6 1022 42 10000 5 100 01:26 20.04.2021
91 Rain 7 1023 45 10000 6 80 00:34 20.04.2021
92 Rain 7 1023 52 10000 5 80 23:36 19.04.2021
93 Rain 7 1023 52 10000 5 70 22:56 19.04.2021
94 Rain 7 1023 52 10000 5 70 22:56 19.04.2021
95 Rain 7 1023 52 10000 6 80 22:32 19.04.2021
96 Rain 7 1023 52 10000 6 90 21:48 19.04.2021
97 Rain 7 1023 52 10000 6 90 21:28 19.04.2021
98 Rain 7 1024 49 10000 7 80 20:46 19.04.2021
99 Rain 7 1024 49 10000 7 80 20:25 19.04.2021
100 Rain 8 1023 46 10000 9 70 20:01 19.04.2021
101 Clear 8 1023 49 10000 9 80 19:40 19.04.2021
102 Clear 9 1023 46 10000 10 60 19:21 19.04.2021
103 Rain 9 1023 43 10000 9 70 18:45 19.04.2021
104 Clear 9 1023 43 10000 9 70 18:21 19.04.2021
105 Clear 10 1022 40 10000 9 80 17:54 19.04.2021
106 Clear 11 1022 40 10000 10 60 17:27 19.04.2021
107 Clear 12 1022 40 10000 10 70 16:51 19.04.2021
108 Clear 12 1022 37 10000 9 60 16:31 19.04.2021
109 Clear 13 1022 37 10000 8 60 15:52 19.04.2021
110 Clear 13 1022 37 10000 8 60 15:29 19.04.2021
111 Rain 13 1022 35 10000 8 40 14:53 19.04.2021
112 Clear 13 1022 35 10000 9 60 14:35 19.04.2021
113 Clear 13 1022 35 10000 8 70 13:54 19.04.2021
114 Clear 13 1022 35 10000 7 60 13:30 19.04.2021
115 Clear 13 1022 35 10000 9 70 12:56 19.04.2021
116 Clear 13 1022 37 10000 8 80 12:36 19.04.2021
117 Clear 13 1022 37 10000 7 60 12:18 19.04.2021
118 Clear 12 1022 37 10000 8 60 11:49 19.04.2021
119 Clear 12 1022 43 10000 7 50 11:20 19.04.2021
120 Clear 11 1022 43 10000 8 70 10:44 19.04.2021
121 Clear 11 1022 46 10000 7 40 10:20 19.04.2021
122 Clear 10 1022 49 10000 6 50 09:43 19.04.2021
123 Clear 10 1022 49 10000 6 50 09:43 19.04.2021
124 Clear 10 1022 49 10000 6 50 09:24 19.04.2021
125 Clear 9 1022 53 10000 6 70 08:41 19.04.2021
126 Clear 9 1022 53 10000 6 70 08:22 19.04.2021
127 Clear 8 1022 57 10000 6 60 07:45 19.04.2021
128 Clear 8 1022 57 10000 7 60 07:18 19.04.2021
129 Clear 7 1022 61 10000 4 60 05:41 19.04.2021
130 Clear 9 1021 49 10000 5 20 01:50 19.04.2021
131 Clear 9 1021 49 10000 4 20 00:42 19.04.2021
132 Clear 9 1021 46 10000 5 40 23:22 18.04.2021
133 Clear 9 1021 46 10000 5 40 22:58 18.04.2021
134 Rain 9 1021 46 10000 4 80 22:40 18.04.2021
135 Clear 9 1021 46 10000 4 80 22:22 18.04.2021
136 Clear 9 1022 50 10000 5 90 21:29 18.04.2021
137 Rain 9 1022 57 10000 4 100 20:55 18.04.2021
138 Rain 9 1022 57 10000 4 100 20:55 18.04.2021
139 Clear 9 1022 57 10000 5 110 20:37 18.04.2021
140 Clear 8 1021 57 10000 3 100 20:19 18.04.2021
141 Rain 8 1021 57 10000 3 100 19:41 18.04.2021
142 Rain 9 1021 53 10000 3 120 19:21 18.04.2021
143 Rain 9 1021 53 10000 6 130 18:45 18.04.2021
144 Rain 9 1021 53 10000 6 130 18:26 18.04.2021
145 Rain 9 1021 46 10000 5 140 17:49 18.04.2021
146 Rain 9 1021 46 10000 5 120 17:29 18.04.2021
147 Rain 10 1021 40 10000 6 130 16:53 18.04.2021
148 Rain 10 1020 37 10000 4 140 16:35 18.04.2021
149 Rain 10 1020 37 10000 6 170 15:51 18.04.2021
150 Rain 11 1020 24 10000 8 110 15:28 18.04.2021
151 Rain 11 1020 24 10000 9 90 14:54 18.04.2021
152 Rain 10 1020 26 10000 9 70 14:36 18.04.2021
153 Rain 10 1020 26 10000 9 70 14:18 18.04.2021
154 Clear 10 1020 24 10000 9 80 13:44 18.04.2021
155 Clear 10 1020 23 10000 9 90 13:24 18.04.2021
156 Clear 14 1020 24 10000 9 70 12:35 18.04.2021
157 Clear 13 1020 26 10000 7 80 11:51 18.04.2021
158 Clear 13 1020 26 10000 7 70 11:26 18.04.2021
159 Clear 13 1020 26 10000 10 60 10:51 18.04.2021
160 Clear 12 1020 28 10000 9 60 10:32 18.04.2021
161 Clear 12 1020 28 10000 10 70 09:57 18.04.2021
162 Clear 11 1020 30 10000 9 80 09:38 18.04.2021
163 Clear 11 1020 32 10000 9 60 09:19 18.04.2021
164 Clear 10 1020 34 10000 8 80 08:40 18.04.2021
165 Clear 9 1020 37 10000 8 70 08:19 18.04.2021
166 Clear 8 1020 36 10000 8 60 07:39 18.04.2021
167 Clear 7 1020 42 10000 5 50 05:45 18.04.2021
168 Clear 7 1020 42 10000 5 50 05:24 18.04.2021
169 Clear 8 1020 39 10000 6 50 03:37 18.04.2021
170 Clear 9 1020 34 10000 6 50 02:22 18.04.2021
171 Clear 11 1020 32 10000 7 50 00:41 18.04.2021
172 Clear 11 1021 28 10000 7 50 23:40 17.04.2021
173 Clear 12 1021 30 10000 7 60 23:18 17.04.2021
174 Clear 12 1020 30 10000 7 60 22:41 17.04.2021
175 Clear 13 1020 26 10000 7 60 22:20 17.04.2021
176 Clear 13 1020 26 10000 8 50 21:39 17.04.2021
177 Clear 13 1020 26 10000 8 50 21:21 17.04.2021
178 Clear 14 1020 23 10000 9 50 20:28 17.04.2021
179 Rain 14 1020 24 10000 9 50 19:46 17.04.2021
180 Rain 15 1020 26 10000 9 50 19:22 17.04.2021
181 Rain 15 1020 26 10000 9 50 18:58 17.04.2021
182 Rain 16 1020 29 10000 10 60 18:37 17.04.2021
183 Clear 16 1020 29 10000 11 50 18:18 17.04.2021
184 Clear 17 1020 31 10000 10 60 17:41 17.04.2021
185 Rain 17 1020 29 10000 10 60 16:55 17.04.2021
186 Rain 17 1020 29 10000 10 50 16:29 17.04.2021
187 Rain 17 1020 29 10000 10 50 16:29 17.04.2021
188 Rain 18 1020 34 10000 9 60 15:55 17.04.2021
189 Clear 18 1020 32 10000 6 50 14:51 17.04.2021
190 Clear 17 1020 34 10000 9 70 14:33 17.04.2021
191 Clear 17 1021 31 10000 9 60 13:50 17.04.2021
192 Clear 17 1021 36 10000 9 80 13:27 17.04.2021
193 Clear 16 1021 38 10000 7 60 12:42 17.04.2021
194 Clear 15 1021 41 10000 9 60 12:21 17.04.2021
195 Clear 15 1021 38 10000 7 50 11:50 17.04.2021
196 Clear 15 1021 38 10000 7 50 11:30 17.04.2021
197 Clear 14 1022 40 10000 8 60 10:46 17.04.2021
198 Clear 14 1022 40 10000 8 60 10:27 17.04.2021
199 Clear 12 1022 46 10000 5 60 09:44 17.04.2021
200 Clear 11 1022 43 10000 7 100 08:41 17.04.2021
201 Rain 9 1022 46 10000 7 70 08:22 17.04.2021
202 Rain 9 1021 49 10000 7 70 06:58 17.04.2021
203 Clear 9 1021 53 10000 6 80 03:55 17.04.2021
204 Rain 9 1021 49 10000 6 80 03:37 17.04.2021
205 Rain 11 1021 50 10000 7 70 00:49 17.04.2021
206 Rain 11 1021 50 10000 7 70 00:28 17.04.2021
207 Rain 11 1021 50 10000 7 70 23:48 16.04.2021
208 Rain 11 1021 50 10000 7 70 23:48 16.04.2021
209 Clear 11 1021 50 10000 7 70 23:25 16.04.2021
210 Clear 12 1021 50 10000 7 70 22:50 16.04.2021
211 Clear 12 1021 50 10000 8 60 22:21 16.04.2021
212 Clear 13 1020 47 10000 8 60 21:51 16.04.2021
213 Clear 13 1020 47 10000 8 60 21:30 16.04.2021
214 Clear 13 1020 47 10000 8 60 21:30 16.04.2021
215 Clear 13 1020 47 10000 8 60 20:50 16.04.2021
216 Clear 13 1020 47 10000 8 60 20:25 16.04.2021
217 Clear 14 1020 47 10000 8 60 19:54 16.04.2021
218 Clear 14 1020 44 10000 8 70 19:29 16.04.2021
219 Clear 15 1019 41 10000 10 60 18:40 16.04.2021
220 Clear 15 1019 41 10000 10 60 18:19 16.04.2021
221 Clear 16 1019 39 10000 9 70 17:43 16.04.2021
222 Clear 16 1019 39 10000 9 70 17:19 16.04.2021
223 Clear 17 1019 36 10000 10 70 16:42 16.04.2021
224 Clear 17 1019 36 10000 8 60 16:23 16.04.2021
225 Clear 17 1019 36 10000 8 60 15:45 16.04.2021
226 Clear 17 1019 36 10000 7 70 15:20 16.04.2021
227 Clear 17 1020 36 10000 8 70 14:42 16.04.2021
228 Clear 17 1020 36 10000 8 70 14:19 16.04.2021
229 Clear 16 1019 39 10000 7 60 13:46 16.04.2021
230 Rain 15 1019 41 10000 8 50 13:20 16.04.2021
231 Clear 15 1019 41 10000 7 70 12:47 16.04.2021
232 Clear 14 1019 41 10000 7 70 12:27 16.04.2021
233 Clear 14 1019 44 10000 7 40 11:54 16.04.2021
234 Rain 13 1019 44 10000 7 50 11:27 16.04.2021
235 Clear 13 1019 47 10000 6 60 10:55 16.04.2021
236 Rain 12 1019 50 10000 7 40 10:35 16.04.2021
237 Rain 11 1019 50 10000 7 60 09:53 16.04.2021
238 Rain 11 1020 53 10000 6 70 09:25 16.04.2021
239 Rain 11 1020 53 10000 6 70 09:25 16.04.2021
240 Rain 10 1019 53 10000 7 60 08:55 16.04.2021
241 Rain 9 1019 57 10000 7 60 08:36 16.04.2021
242 Rain 9 1019 57 10000 7 60 08:18 16.04.2021
243 Rain 9 1019 61 10000 8 60 07:35 16.04.2021
244 Rain 8 1019 65 10000 7 70 06:58 16.04.2021
245 Rain 7 1018 70 10000 8 50 05:34 16.04.2021
246 Rain 8 1018 70 10000 7 60 04:21 16.04.2021
247 Clear 10 1017 66 10000 7 50 00:59 16.04.2021
248 Clear 10 1017 66 10000 7 50 00:41 16.04.2021
249 Clear 10 1017 66 10000 7 40 00:20 16.04.2021
250 Clear 11 1017 71 10000 7 40 23:41 15.04.2021
251 Clear 11 1017 71 10000 7 40 23:23 15.04.2021
252 Clear 11 1017 66 10000 8 40 22:40 15.04.2021
253 Clear 11 1017 66 10000 7 40 22:21 15.04.2021
254 Clear 12 1017 62 10000 8 40 21:42 15.04.2021
255 Clear 13 1017 66 10000 8 40 21:22 15.04.2021
256 Rain 13 1017 62 10000 5 60 20:45 15.04.2021
257 Rain 14 1017 62 10000 5 60 20:24 15.04.2021
258 Rain 15 1017 62 10000 6 30 19:45 15.04.2021
259 Rain 15 1017 62 10000 6 30 19:27 15.04.2021
260 Clear 17 1016 62 10000 8 20 18:44 15.04.2021
261 Rain 17 1016 62 10000 8 20 18:21 15.04.2021
262 Rain 17 1016 62 10000 8 10 17:55 15.04.2021
263 Clear 18 1016 58 10000 4 20 17:37 15.04.2021
264 Clear 18 1016 58 10000 4 20 17:37 15.04.2021
265 Clear 19 1016 55 10000 7 10 17:18 15.04.2021
266 Clear 19 1016 59 10000 8 10 16:42 15.04.2021
267 Clear 19 1016 59 10000 8 10 16:22 15.04.2021
268 Rain 20 1016 51 10000 7 10 15:45 15.04.2021
269 Clear 20 1016 45 10000 8 10 15:26 15.04.2021
270 Clear 19 1016 48 10000 7 10 14:41 15.04.2021
271 Rain 19 1016 48 10000 7 10 14:23 15.04.2021
272 Clear 19 1016 48 10000 6 10 13:46 15.04.2021
273 Clear 19 1016 48 10000 6 10 13:46 15.04.2021
274 Clear 19 1016 51 10000 6 10 13:19 15.04.2021
275 Clear 18 1016 55 10000 6 30 12:46 15.04.2021
276 Clear 18 1016 55 10000 6 30 12:24 15.04.2021
277 Rain 18 1016 55 10000 6 360 11:47 15.04.2021
278 Rain 17 1016 54 10000 5 360 11:25 15.04.2021
279 Rain 17 1016 54 10000 7 20 10:55 15.04.2021
280 Rain 16 1016 58 10000 5 50 10:28 15.04.2021
281 Rain 16 1016 62 10000 6 20 09:50 15.04.2021
282 Rain 16 1016 62 10000 6 20 09:28 15.04.2021
283 Rain 15 1016 58 10000 5 20 08:49 15.04.2021
284 Rain 14 1016 62 10000 5 20 08:24 15.04.2021
285 Clear 11 1016 66 10000 6 20 07:30 15.04.2021
286 Rain 10 1016 62 10000 4 360 06:55 15.04.2021
287 Clear 10 1016 61 10000 3 360 06:33 15.04.2021
288 Rain 10 1015 57 10000 3 10 04:53 15.04.2021
289 Rain 11 1015 50 10000 3 360 02:58 15.04.2021
290 Clear 12 1016 57 10000 2 30 23:49 14.04.2021
291 Clear 12 1016 57 10000 2 30 23:29 14.04.2021
292 Clear 13 1016 58 10000 2 30 22:47 14.04.2021
293 Clear 13 1016 58 10000 1.97 134 22:28 14.04.2021
294 Clear 13 1016 50 10000 1 0 21:56 14.04.2021
295 Clear 15 1016 47 10000 1 0 21:37 14.04.2021
296 Clear 15 1016 47 10000 1 0 21:18 14.04.2021
297 Clear 15 1016 36 10000 2 330 20:36 14.04.2021
298 Clear 15 1016 36 10000 2 330 20:18 14.04.2021
299 Clear 17 1016 36 10000 2 160 19:38 14.04.2021
300 Clear 17 1016 36 10000 2 160 19:18 14.04.2021
301 Clear 18 1016 27 10000 1 0 18:49 14.04.2021
302 Clear 20 1016 27 10000 2 190 18:18 14.04.2021
303 Clear 20 1016 27 10000 2 190 17:51 14.04.2021
304 Clear 21 1016 24 10000 3 140 17:24 14.04.2021
305 Clear 21 1016 26 10000 3 130 16:43 14.04.2021
306 Clear 21 1016 32 10000 4 210 16:22 14.04.2021
307 Clear 21 1016 32 10000 4 190 15:40 14.04.2021
308 Clear 21 1016 32 10000 4 190 15:18 14.04.2021
309 Clear 21 1017 34 10000 5 150 14:42 14.04.2021
310 Clear 21 1017 34 10000 5 150 14:21 14.04.2021
311 Clear 21 1017 40 10000 5 150 13:47 14.04.2021
312 Clear 21 1017 40 10000 6 150 12:54 14.04.2021
313 Clear 20 1017 40 10000 6 130 12:32 14.04.2021
314 Clear 20 1018 42 10000 7 180 11:42 14.04.2021
315 Clear 19 1018 42 10000 5 180 11:23 14.04.2021
316 Clear 19 1018 48 10000 5 170 10:35 14.04.2021
317 Clear 18 1019 45 10000 5 180 09:57 14.04.2021
318 Clear 17 1019 51 10000 7 190 09:38 14.04.2021
319 Clear 16 1019 51 10000 6 180 09:18 14.04.2021
320 Clear 16 1019 51 10000 6 190 08:33 14.04.2021
321 Clear 15 1019 51 10000 6 180 07:53 14.04.2021
322 Clear 12 1019 50 10000 2 140 06:43 14.04.2021
323 Clear 12 1019 50 10000 2 140 06:22 14.04.2021
324 Clear 13 1019 41 10000 4 140 03:44 14.04.2021
325 Clear 15 1019 33 10000 5 150 01:40 14.04.2021
326 Clear 14 1019 36 10000 4 130 00:34 14.04.2021
327 Clear 15 1020 36 10000 5 120 23:39 13.04.2021
328 Clear 15 1020 34 10000 5 120 22:56 13.04.2021
329 Clear 16 1020 36 10000 4 110 22:37 13.04.2021
330 Clear 16 1020 39 10000 4 110 22:18 13.04.2021
331 Clear 16 1020 36 10000 5 110 21:44 13.04.2021
332 Clear 16 1020 36 10000 5 110 21:23 13.04.2021
333 Clear 17 1021 34 10000 3 140 20:40 13.04.2021
334 Clear 17 1021 34 10000 3 140 20:20 13.04.2021
335 Clouds 18 1021 32 9000 4 130 19:28 13.04.2021
336 Clouds 19 1021 30 9000 3 140 18:59 13.04.2021
337 Clouds 20 1020 28 9000 4 150 18:36 13.04.2021
338 Clouds 21 1021 24 10000 5 160 17:45 13.04.2021
339 Clouds 21 1021 24 10000 5 160 17:23 13.04.2021
340 Clear 21 1021 24 10000 6 160 16:59 13.04.2021
341 Clear 22 1021 24 10000 6 150 16:41 13.04.2021
342 Clear 22 1021 26 10000 7 160 16:20 13.04.2021
343 Clear 22 1021 28 10000 7 140 15:40 13.04.2021
344 Clear 22 1021 28 10000 7 140 15:18 13.04.2021
345 Clear 22 1022 24 10000 6 150 14:41 13.04.2021
346 Clear 22 1022 24 10000 6 150 14:41 13.04.2021
347 Clear 22 1022 26 10000 7 160 14:18 13.04.2021
348 Clear 22 1022 26 10000 7 160 13:45 13.04.2021
349 Clear 22 1022 26 10000 6 170 13:24 13.04.2021
350 Clear 22 1022 30 10000 6 160 12:55 13.04.2021
351 Clear 20 1023 39 10000 5 150 12:24 13.04.2021
352 Clear 20 1023 39 10000 5 150 11:52 13.04.2021
353 Clear 20 1023 39 10000 5 130 11:29 13.04.2021
354 Clear 18 1023 42 10000 5 140 10:45 13.04.2021
355 Clear 17 1024 48 10000 5 140 10:21 13.04.2021
356 Clear 17 1024 48 10000 5 140 09:56 13.04.2021
357 Clear 16 1024 51 10000 4 140 09:36 13.04.2021
358 Clear 15 1024 51 10000 5 140 08:54 13.04.2021
359 Clear 15 1024 54 10000 4 140 08:36 13.04.2021
360 Clear 13 1024 58 10000 4 140 08:18 13.04.2021
361 Clear 11 1024 76 10000 3 140 07:35 13.04.2021
362 Clear 9 1024 81 10000 3 100 06:31 13.04.2021
363 Clear 7 1024 87 10000 4 100 04:47 13.04.2021
364 Clear 7 1025 75 10000 4 100 01:39 13.04.2021
365 Clear 8 1026 70 10000 4 100 00:19 13.04.2021
366 Clear 9 1026 57 10000 4 90 23:44 12.04.2021
367 Clear 9 1026 57 10000 4 90 23:24 12.04.2021
368 Clear 10 1026 53 10000 5 110 22:38 12.04.2021
369 Clear 10 1027 50 10000 5 110 21:57 12.04.2021
370 Clear 11 1027 50 10000 6 110 21:38 12.04.2021
371 Clear 11 1027 47 10000 5 110 21:19 12.04.2021
372 Clear 11 1027 47 10000 6 110 20:38 12.04.2021
373 Clear 12 1027 47 10000 6 110 20:20 12.04.2021
374 Clear 12 1027 43 10000 6 110 19:43 12.04.2021
375 Clear 12 1027 43 10000 6 110 19:23 12.04.2021
376 Clear 12 1027 43 10000 6 110 19:23 12.04.2021
377 Clear 12 1027 43 10000 6 100 18:59 12.04.2021
378 Clear 13 1027 44 10000 7 100 18:40 12.04.2021
379 Rain 13 1027 44 10000 7 100 18:22 12.04.2021
380 Rain 14 1027 41 10000 9 100 17:43 12.04.2021
381 Clear 14 1027 41 10000 9 100 17:43 12.04.2021
382 Clear 14 1027 41 10000 9 100 17:22 12.04.2021
383 Rain 14 1028 41 10000 10 100 16:46 12.04.2021
384 Rain 14 1028 41 10000 10 100 16:46 12.04.2021
385 Clouds 14 1028 38 10000 9 110 16:27 12.04.2021
386 Rain 14 1028 38 10000 9 90 15:48 12.04.2021
387 Rain 14 1028 38 10000 9 90 15:27 12.04.2021
388 Rain 14 1030 33 10000 8 100 14:50 12.04.2021
389 Rain 14 1030 33 10000 8 100 14:30 12.04.2021
390 Rain 15 1030 29 10000 8 100 13:46 12.04.2021
391 Rain 15 1030 31 10000 9 100 13:27 12.04.2021
392 Clear 14 1031 31 10000 9 110 12:48 12.04.2021
393 Clear 14 1031 29 10000 11 100 12:26 12.04.2021
394 Clear 14 1031 31 10000 10 100 11:56 12.04.2021
395 Clear 14 1031 28 10000 11 90 11:20 12.04.2021
396 Clear 14 1032 30 10000 10 90 10:43 12.04.2021
397 Clear 13 1032 33 10000 9 90 10:23 12.04.2021
398 Clear 13 1032 33 10000 9 90 09:46 12.04.2021
399 Clear 12 1032 35 10000 8 100 09:18 12.04.2021
400 Clear 11 1032 46 10000 5 90 08:36 12.04.2021
401 Clear 11 1032 46 10000 5 90 08:36 12.04.2021
402 Clouds 9 1033 61 9000 3 80 07:40 12.04.2021
403 Clouds 9 1033 61 9000 3 80 07:20 12.04.2021
404 Clear 5 1032 81 10000 2 80 05:52 12.04.2021
405 Clear 4 1032 75 10000 3 70 04:48 12.04.2021
406 Clear 5 1031 75 10000 1 350 01:31 12.04.2021
407 Clear 6 1031 75 10000 1.51 121 00:25 12.04.2021
408 Clear 7 1031 65 9000 1 0 23:48 11.04.2021
409 Clear 7 1031 65 9000 1 0 23:29 11.04.2021
410 Clear 8 1030 53 9000 1.72 148 22:46 11.04.2021
411 Clear 8 1030 53 9000 2.1 151 22:25 11.04.2021
412 Clear 9 1030 57 9000 1 0 21:50 11.04.2021
413 Clear 10 1030 49 9000 2 80 21:30 11.04.2021
414 Clear 10 1030 49 9000 2 80 21:30 11.04.2021
415 Clear 10 1030 57 9000 2 100 20:58 11.04.2021
416 Clear 12 1030 40 10000 1 0 20:31 11.04.2021
417 Clear 12 1029 38 10000 1 0 19:58 11.04.2021
418 Clear 13 1029 33 10000 2 170 19:39 11.04.2021
419 Clear 13 1029 35 10000 2 210 19:19 11.04.2021
420 Clear 13 1029 33 10000 2 170 19:19 11.04.2021
421 Clear 15 1028 31 10000 3 210 18:45 11.04.2021
422 Clear 15 1028 31 10000 3 210 18:26 11.04.2021
423 Clear 15 1028 31 10000 2 200 17:49 11.04.2021
424 Clear 16 1028 31 10000 2 180 17:28 11.04.2021
425 Clear 16 1028 29 10000 3 200 16:52 11.04.2021
426 Clear 16 1028 27 10000 3 180 16:27 11.04.2021
427 Clear 16 1028 33 10000 3 230 15:58 11.04.2021
428 Clear 17 1028 31 10000 4 200 15:38 11.04.2021
429 Clear 17 1028 31 10000 4 200 15:20 11.04.2021
430 Clear 16 1028 27 10000 3 250 14:47 11.04.2021
431 Clear 16 1028 31 10000 5 210 14:18 11.04.2021
432 Clear 16 1028 29 10000 5 220 13:39 11.04.2021
433 Clear 16 1028 29 10000 5 220 13:21 11.04.2021
434 Clear 15 1027 33 10000 5 180 12:25 11.04.2021
435 Clear 15 1027 33 10000 5 180 11:53 11.04.2021
436 Clear 15 1027 38 10000 4 180 11:33 11.04.2021
437 Clear 14 1027 44 10000 3 180 10:58 11.04.2021
438 Clear 13 1027 37 10000 3 170 10:39 11.04.2021
439 Clear 13 1027 37 10000 3 170 10:20 11.04.2021
440 Clear 11 1027 40 10000 2 190 09:40 11.04.2021
441 Clear 11 1027 40 10000 2 190 09:22 11.04.2021
442 Clear 8 1026 46 10000 3 190 08:39 11.04.2021
443 Clear 5 1026 52 10000 4 220 07:38 11.04.2021
444 Clear 5 1026 52 10000 4 220 07:19 11.04.2021
445 Clear 3 1025 52 10000 3 210 05:46 11.04.2021
446 Clear 3 1025 52 10000 3 210 05:22 11.04.2021
447 Clear 3 1024 52 10000 3 220 04:35 11.04.2021
448 Clear 3 1024 52 10000 4 210 03:20 11.04.2021
449 Clear 4 1023 42 10000 4 210 00:51 11.04.2021
450 Clear 5 1023 42 10000 5 200 00:25 11.04.2021
451 Clear 5 1023 39 10000 4 190 23:33 10.04.2021
452 Clear 6 1023 39 10000 4 190 22:55 10.04.2021
453 Clear 6 1022 39 10000 3 180 22:26 10.04.2021
454 Clear 7 1022 36 10000 3 170 21:52 10.04.2021
455 Clear 7 1022 36 10000 3 170 21:24 10.04.2021
456 Clear 7 1022 39 10000 3 170 20:55 10.04.2021
457 Clear 8 1022 36 10000 3 170 20:34 10.04.2021
458 Clear 8 1022 36 10000 3 160 19:58 10.04.2021
459 Clear 8 1022 36 10000 3 160 19:40 10.04.2021
460 Clear 8 1022 36 10000 3 160 19:21 10.04.2021
461 Clear 10 1021 29 10000 5 190 18:41 10.04.2021
462 Clear 10 1021 29 10000 5 190 18:23 10.04.2021
463 Clear 11 1021 32 10000 6 190 17:35 10.04.2021
464 Clear 11 1021 30 10000 6 210 16:37 10.04.2021
465 Clear 11 1022 30 10000 7 180 16:19 10.04.2021
466 Clear 11 1022 32 10000 6 170 15:43 10.04.2021
467 Clear 11 1022 32 10000 7 160 14:52 10.04.2021
468 Clear 11 1022 30 10000 6 170 14:33 10.04.2021
469 Clear 11 1023 32 10000 7 160 13:55 10.04.2021
470 Clear 11 1023 32 10000 7 180 13:36 10.04.2021
471 Clear 11 1023 32 10000 8 180 12:41 10.04.2021
472 Clear 10 1024 37 10000 8 180 12:20 10.04.2021
473 Clear 10 1024 37 10000 7 190 11:45 10.04.2021
474 Clear 10 1024 37 10000 7 190 11:22 10.04.2021
475 Clear 10 1024 37 10000 8 190 10:51 10.04.2021
476 Clear 9 1024 42 10000 8 180 10:30 10.04.2021
477 Clear 8 1024 42 10000 8 180 09:44 10.04.2021
478 Clear 7 1024 45 10000 6 180 09:19 10.04.2021
479 Clear 7 1024 45 10000 6 180 09:19 10.04.2021
480 Clear 6 1024 49 10000 5 200 08:34 10.04.2021
481 Clear 6 1024 49 10000 5 190 07:56 10.04.2021
482 Clear 4 1024 52 10000 4 160 07:26 10.04.2021
483 Clear 2 1024 60 10000 4 160 06:42 10.04.2021
484 Clear 2 1024 60 10000 3 170 05:36 10.04.2021
485 Clear 1 1024 60 10000 3 170 03:42 10.04.2021
486 Clear 2 1024 52 10000 4 180 02:48 10.04.2021
487 Clear 3 1024 45 10000 3 180 01:28 10.04.2021
488 Clear 3 1024 48 10000 4 170 00:37 10.04.2021
489 Clear 3 1023 48 10000 4 170 23:55 09.04.2021
490 Clear 4 1023 48 10000 3 160 23:34 09.04.2021
491 Clear 4 1023 48 10000 4 160 22:56 09.04.2021
492 Clear 4 1023 48 10000 3 170 22:36 09.04.2021
493 Clear 4 1023 45 10000 4 170 21:41 09.04.2021
494 Clear 4 1023 45 10000 4 170 21:22 09.04.2021
495 Clear 5 1023 45 10000 4 170 20:59 09.04.2021
496 Clear 5 1022 45 10000 3 170 20:40 09.04.2021
497 Clear 5 1022 45 10000 3 170 20:21 09.04.2021
498 Clear 5 1022 45 10000 3 180 19:43 09.04.2021
499 Clear 5 1022 45 10000 3 180 19:22 09.04.2021
500 Clear 6 1022 49 10000 4 190 18:44 09.04.2021
501 Clear 6 1021 45 10000 4 190 18:25 09.04.2021
502 Clear 7 1021 45 10000 5 190 17:49 09.04.2021
503 Clear 7 1021 45 10000 5 190 17:31 09.04.2021
504 Rain 8 1021 36 10000 6 220 16:55 09.04.2021
505 Rain 8 1021 34 10000 5 230 16:32 09.04.2021
506 Rain 8 1021 34 10000 6 240 15:50 09.04.2021
507 Clear 8 1021 34 10000 6 210 15:25 09.04.2021
508 Clear 8 1020 39 10000 6 240 14:47 09.04.2021
509 Clear 8 1020 39 10000 6 240 14:29 09.04.2021
510 Clear 8 1020 42 10000 6 220 13:49 09.04.2021
511 Clear 7 1020 42 10000 7 220 13:23 09.04.2021
512 Clouds 7 1020 52 10000 5 220 12:49 09.04.2021
513 Clouds 6 1020 52 10000 5 220 12:30 09.04.2021
514 Clouds 6 1020 56 10000 5 210 11:44 09.04.2021
515 Clouds 6 1020 61 10000 5 210 11:21 09.04.2021
516 Clouds 5 1019 70 10000 5 200 10:45 09.04.2021
517 Clouds 5 1019 75 10000 5 220 10:18 09.04.2021
518 Clouds 3 1019 81 10000 4 220 09:29 09.04.2021
519 Clouds 3 1018 80 10000 4 230 08:56 09.04.2021
520 Clouds 2 1018 86 10000 3 210 08:37 09.04.2021
521 Clouds 1 1017 86 10000 4 220 07:35 09.04.2021
522 Clouds 1 1016 93 10000 5 240 06:34 09.04.2021
523 Clouds 1 1015 93 10000 5 230 05:47 09.04.2021
524 Clouds 1 1013 93 10000 5 230 03:50 09.04.2021
525 Clouds 1 1011 93 10000 4 210 01:27 09.04.2021
526 Clouds 1 1011 93 10000 3 210 00:36 09.04.2021
527 Clouds 1 1011 93 10000 3 210 00:18 09.04.2021
528 Clear 1 1010 86 10000 6 210 22:59 08.04.2021
529 Clear 1 1009 86 10000 5 200 22:40 08.04.2021
530 Clear 1 1009 86 10000 5 200 22:40 08.04.2021
531 Clear 1 1009 86 10000 6 220 22:20 08.04.2021
532 Clear 1 1009 86 10000 6 220 21:54 08.04.2021
533 Clear 1 1009 86 10000 5 210 21:36 08.04.2021
534 Clear 1 1008 86 10000 5 200 21:18 08.04.2021
535 Clear 1 1008 86 10000 6 200 20:45 08.04.2021
536 Clear 1 1008 86 10000 6 200 20:25 08.04.2021
537 Clear 2 1007 86 10000 5 200 19:42 08.04.2021
538 Clear 2 1007 86 10000 5 200 19:19 08.04.2021
539 Clear 2 1006 86 10000 4 200 18:45 08.04.2021
540 Clear 3 1006 80 10000 6 230 18:20 08.04.2021
541 Clear 3 1005 80 10000 7 220 17:49 08.04.2021
542 Clear 3 1005 80 10000 7 220 17:24 08.04.2021
543 Snow 4 1004 75 10000 9 250 16:49 08.04.2021
544 Rain 4 1003 75 10000 8 230 16:28 08.04.2021
545 Rain 5 1002 75 10000 9 240 15:47 08.04.2021
546 Rain 5 1002 75 10000 10 240 15:28 08.04.2021
547 Rain 4 1000 81 10000 10 240 14:45 08.04.2021
548 Rain 4 1000 81 10000 10 240 14:25 08.04.2021
549 Snow 4 999 87 6000 12 250 13:57 08.04.2021
550 Snow 3 998 86 2000 12 250 13:39 08.04.2021
551 Snow 2 997 100 1600 11 250 13:21 08.04.2021
552 Snow 2 996 100 1100 11 260 12:38 08.04.2021
553 Snow 1 995 100 1400 11 260 12:18 08.04.2021
554 Snow 1 994 93 2700 9 260 11:43 08.04.2021
555 Snow 1 993 100 1100 8 260 10:59 08.04.2021
556 Snow 1 992 100 1300 7 260 10:36 08.04.2021
557 Snow 1 992 100 1300 7 260 10:18 08.04.2021
558 Snow 1 991 100 900 5 250 09:41 08.04.2021
559 Snow 2 990 93 2400 4 250 08:46 08.04.2021
560 Snow 2 990 93 2400 4 250 08:28 08.04.2021
561 Rain 3 990 93 10000 3 220 07:57 08.04.2021
562 Rain 3 991 93 9000 3 200 07:35 08.04.2021
563 Mist 3 992 93 4500 4 210 03:48 08.04.2021
564 Rain 4 993 100 6000 2 310 01:19 08.04.2021
565 Clouds 4 994 93 9000 2 60 00:19 08.04.2021
566 Rain 4 995 100 8000 4 60 23:41 07.04.2021
567 Rain 4 995 100 8000 4 60 23:21 07.04.2021
568 Rain 4 996 93 6000 5 80 22:47 07.04.2021
569 Rain 4 996 93 6000 5 80 22:29 07.04.2021
570 Rain 4 997 93 8000 5 100 21:46 07.04.2021
571 Rain 4 997 93 7000 4 110 21:24 07.04.2021
572 Rain 4 998 87 9000 6 120 20:45 07.04.2021
573 Rain 4 998 87 8000 7 120 20:21 07.04.2021
574 Rain 5 999 81 9000 5 140 19:45 07.04.2021
575 Rain 5 999 81 9000 5 140 19:26 07.04.2021
576 Rain 6 999 76 10000 6 130 18:48 07.04.2021
577 Rain 7 999 70 10000 6 140 18:20 07.04.2021
578 Rain 7 999 65 10000 7 150 17:55 07.04.2021
579 Rain 8 1000 61 10000 6 150 17:37 07.04.2021
580 Rain 8 1000 61 10000 7 150 16:58 07.04.2021
581 Rain 9 1000 49 10000 7 130 16:38 07.04.2021
582 Rain 9 1000 49 10000 7 130 16:19 07.04.2021
583 Rain 9 1000 49 10000 7 130 16:19 07.04.2021
584 Rain 9 1000 43 10000 6 150 15:40 07.04.2021
585 Clouds 10 1000 43 10000 6 140 14:58 07.04.2021
586 Rain 10 1000 50 10000 6 150 14:32 07.04.2021
587 Rain 11 1000 50 10000 7 160 13:53 07.04.2021
588 Rain 11 1000 50 10000 7 160 13:53 07.04.2021
589 Rain 11 1001 50 10000 6 160 13:27 07.04.2021
590 Rain 11 1001 46 10000 6 150 12:56 07.04.2021
591 Clear 10 1001 50 10000 5 150 12:25 07.04.2021
592 Clouds 11 1002 53 10000 6 160 11:57 07.04.2021
593 Rain 9 1002 61 10000 6 140 11:28 07.04.2021
594 Rain 9 1001 71 10000 6 150 10:59 07.04.2021
595 Rain 9 1002 71 10000 4 150 10:30 07.04.2021
596 Clouds 8 1001 81 10000 5 120 09:46 07.04.2021
597 Rain 7 1002 75 9000 3 150 09:27 07.04.2021
598 Rain 7 1002 70 10000 4 130 08:47 07.04.2021
599 Rain 7 1002 75 10000 3 130 08:23 07.04.2021
600 Rain 6 1002 75 10000 3 90 07:44 07.04.2021
601 Rain 5 1002 81 10000 3 90 07:25 07.04.2021
602 Rain 4 1002 93 10000 3 80 06:33 07.04.2021
603 Rain 4 1002 93 10000 2 50 04:24 07.04.2021
604 Rain 5 1004 87 10000 3 10 00:45 07.04.2021
605 Rain 5 1004 75 10000 3 340 23:47 06.04.2021
606 Rain 5 1004 75 10000 3 340 23:22 06.04.2021
607 Rain 5 1004 75 10000 3 340 22:48 06.04.2021
608 Rain 6 1003 70 10000 2 330 22:21 06.04.2021
609 Rain 6 1003 65 10000 3 310 21:43 06.04.2021
610 Rain 7 1003 61 10000 4 280 21:23 06.04.2021
611 Rain 7 1003 61 10000 4 280 20:57 06.04.2021
612 Rain 7 1003 65 10000 4 280 20:36 06.04.2021
613 Clear 7 1003 65 10000 4 280 20:18 06.04.2021
614 Clear 9 1002 57 10000 5 300 19:41 06.04.2021
615 Clear 9 1002 49 10000 4 210 19:23 06.04.2021
616 Rain 10 1001 43 10000 5 180 18:43 06.04.2021
617 Rain 10 1001 43 10000 3 180 18:20 06.04.2021
618 Rain 10 1001 43 10000 4 190 17:45 06.04.2021
619 Rain 10 1001 43 10000 4 190 17:19 06.04.2021
620 Clear 10 1001 40 10000 6 180 16:49 06.04.2021
621 Clear 10 1001 40 10000 6 180 16:27 06.04.2021
622 Rain 10 1000 43 10000 9 170 15:27 06.04.2021
623 Clear 10 1000 40 10000 9 170 14:49 06.04.2021
624 Rain 10 1000 40 10000 7 180 14:31 06.04.2021
625 Rain 10 1000 40 10000 8 160 13:55 06.04.2021
626 Rain 10 1000 40 10000 8 160 13:37 06.04.2021
627 Rain 10 1000 40 10000 8 160 13:18 06.04.2021
628 Clear 10 1000 43 10000 8 170 12:38 06.04.2021
629 Rain 10 1000 40 10000 8 180 12:19 06.04.2021
630 Clear 10 1000 40 10000 8 180 11:45 06.04.2021
631 Clear 9 1000 43 10000 11 170 11:20 06.04.2021
632 Clear 9 1000 40 10000 9 180 10:46 06.04.2021
633 Clear 9 1000 46 10000 10 180 10:22 06.04.2021
634 Clear 7 1000 45 10000 9 170 09:47 06.04.2021
635 Clear 7 1000 45 10000 9 170 09:26 06.04.2021
636 Clear 6 1000 49 10000 7 170 08:38 06.04.2021
637 Clear 5 1000 52 10000 6 170 07:47 06.04.2021
638 Clear 3 1000 60 10000 6 160 06:55 06.04.2021
639 Clear 3 1000 60 10000 6 160 06:55 06.04.2021
640 Clear 2 1000 64 10000 4 160 05:22 06.04.2021
641 Clear 3 1000 56 10000 4 180 01:57 06.04.2021
642 Clear 3 1001 52 10000 5 180 00:44 06.04.2021
643 Clear 3 1001 52 10000 5 180 00:21 06.04.2021
644 Clear 3 1001 48 10000 6 190 23:42 05.04.2021
645 Clear 3 1001 48 10000 6 190 23:19 05.04.2021
646 Clear 3 1001 48 10000 6 190 23:19 05.04.2021
647 Clear 3 1001 48 10000 6 190 22:48 05.04.2021
648 Clear 4 1001 48 10000 6 190 22:25 05.04.2021
649 Clear 4 1001 48 10000 6 170 21:43 05.04.2021
650 Clear 4 1001 48 10000 6 170 21:20 05.04.2021
651 Clear 4 1001 48 10000 5 170 20:42 05.04.2021
652 Clear 5 1001 48 10000 5 170 20:23 05.04.2021
653 Clear 5 1000 45 10000 5 180 19:42 05.04.2021
654 Clear 5 1000 45 10000 5 180 19:21 05.04.2021
655 Clear 6 1000 42 10000 6 180 18:49 05.04.2021
656 Clear 6 1000 42 10000 6 180 18:31 05.04.2021
657 Clear 7 1000 42 10000 7 180 17:59 05.04.2021
658 Clear 7 1000 36 10000 7 180 17:41 05.04.2021
659 Clear 7 1001 36 10000 8 180 17:19 05.04.2021
660 Clear 8 1001 39 10000 7 200 16:42 05.04.2021
661 Clear 8 1001 39 10000 8 190 16:20 05.04.2021
662 Clear 8 1001 39 10000 8 190 15:50 05.04.2021
663 Clear 8 1001 39 10000 7 190 15:27 05.04.2021
664 Clear 8 1001 39 10000 8 190 14:47 05.04.2021
665 Clear 8 1002 39 10000 9 210 14:27 05.04.2021
666 Clear 8 1002 42 10000 8 200 13:31 05.04.2021
667 Clear 7 1003 45 10000 7 200 12:48 05.04.2021
668 Clear 7 1003 45 10000 7 200 12:26 05.04.2021
669 Clear 7 1004 60 10000 6 200 11:55 05.04.2021
670 Clouds 6 1004 60 10000 6 210 11:33 05.04.2021
671 Clouds 5 1004 65 10000 6 210 10:59 05.04.2021
672 Clouds 5 1004 65 10000 6 210 10:59 05.04.2021
673 Clouds 5 1004 65 10000 6 210 10:59 05.04.2021
674 Clouds 5 1004 65 10000 6 210 10:40 05.04.2021
675 Clouds 5 1004 65 10000 6 210 10:22 05.04.2021
676 Rain 4 1005 70 10000 5 220 09:47 05.04.2021
677 Rain 3 1005 70 10000 5 220 09:22 05.04.2021
678 Clear 3 1005 69 10000 5 210 08:42 05.04.2021
679 Clear 4 1005 69 10000 5 210 08:24 05.04.2021
680 Clear 2 1005 69 10000 5 200 07:36 05.04.2021
681 Clear 1 1005 69 10000 5 210 05:23 05.04.2021
682 Snow 0 1006 69 10000 3 220 01:35 05.04.2021
683 Clear 1 1007 69 10000 4 230 00:38 05.04.2021
684 Clear 0 1007 69 10000 4 230 23:47 04.04.2021
685 Clear 1 1007 64 10000 5 230 23:23 04.04.2021
686 Snow 1 1007 60 10000 5 220 22:50 04.04.2021
687 Clear 2 1007 65 10000 4 210 22:29 04.04.2021
688 Snow 2 1008 60 10000 3 200 21:27 04.04.2021
689 Rain 2 1008 65 10000 2 190 20:57 04.04.2021
690 Rain 3 1008 65 10000 2 230 20:30 04.04.2021
691 Rain 3 1008 65 10000 2 230 20:30 04.04.2021
692 Rain 3 1008 60 10000 3 290 19:57 04.04.2021
693 Rain 4 1008 60 10000 5 290 19:36 04.04.2021
694 Rain 4 1008 52 10000 4 260 19:18 04.04.2021
695 Rain 4 1008 52 10000 4 260 19:18 04.04.2021
696 Rain 5 1008 52 10000 4 260 18:42 04.04.2021
697 Rain 5 1008 52 10000 4 260 18:21 04.04.2021
698 Rain 5 1008 48 10000 5 270 17:44 04.04.2021
699 Rain 5 1008 48 10000 5 270 17:23 04.04.2021
700 Rain 5 1008 45 10000 5 280 16:43 04.04.2021
701 Rain 6 1008 42 10000 4 300 16:19 04.04.2021
702 Rain 6 1008 42 10000 6 280 15:34 04.04.2021
703 Rain 6 1008 45 10000 5 270 14:46 04.04.2021
704 Rain 6 1009 45 10000 6 290 14:27 04.04.2021
705 Rain 6 1009 45 10000 4 320 13:50 04.04.2021
706 Rain 6 1009 45 10000 4 280 13:24 04.04.2021
707 Rain 6 1009 48 10000 6 290 12:43 04.04.2021
708 Rain 6 1009 48 10000 6 290 12:24 04.04.2021
709 Rain 6 1009 60 10000 6 260 11:42 04.04.2021
710 Clouds 5 1009 56 10000 6 270 11:23 04.04.2021
711 Clouds 5 1009 56 10000 6 270 10:45 04.04.2021
712 Clouds 4 1009 65 10000 4 290 09:55 04.04.2021
713 Clear 3 1009 70 10000 3 300 09:26 04.04.2021
714 Clear 2 1009 80 10000 4 290 08:55 04.04.2021
715 Clear 1 1009 75 10000 4 290 08:37 04.04.2021
716 Clear 1 1009 75 10000 4 290 08:19 04.04.2021
717 Snow 1 1009 80 10000 3 270 06:38 04.04.2021
718 Snow -1 1009 75 10000 3 280 05:33 04.04.2021
719 Snow 0 1008 75 10000 3 290 01:30 04.04.2021
720 Snow 1 1008 86 10000 2 260 00:22 04.04.2021
721 Snow 1 1008 86 10000 2 260 23:51 03.04.2021
722 Clear 1 1008 86 10000 3 250 23:32 03.04.2021
723 Clear 1 1008 86 10000 3 260 22:53 03.04.2021
724 Clear 0 1008 86 10000 3 240 22:22 03.04.2021
725 Clear 1 1008 80 10000 2 220 21:54 03.04.2021
726 Clear 2 1008 86 10000 3 240 21:25 03.04.2021
727 Clear 2 1008 86 10000 3 230 20:59 03.04.2021
728 Clear 2 1008 80 10000 2 200 20:29 03.04.2021
729 Clear 3 1007 81 10000 2 170 19:51 03.04.2021
730 Rain 3 1007 81 10000 2 170 19:29 03.04.2021
731 Clouds 3 1007 81 10000 2 140 18:54 03.04.2021
732 Clouds 3 1007 75 10000 2 60 18:36 03.04.2021
733 Rain 4 1007 75 10000 2 270 17:57 03.04.2021
734 Rain 4 1007 75 10000 4 200 17:27 03.04.2021
735 Rain 5 1007 65 10000 3 200 16:58 03.04.2021
736 Rain 5 1007 65 10000 2 190 16:31 03.04.2021
737 Rain 6 1007 75 10000 2 170 15:53 03.04.2021
738 Rain 6 1007 75 10000 2 170 15:53 03.04.2021
739 Rain 6 1007 75 10000 2 170 15:32 03.04.2021
740 Rain 6 1006 60 10000 2 170 14:54 03.04.2021
741 Rain 6 1006 56 10000 1 0 14:27 03.04.2021
742 Rain 6 1006 65 10000 3 50 13:59 03.04.2021
743 Rain 5 1006 65 10000 4 10 13:36 03.04.2021
744 Rain 5 1006 65 10000 4 10 13:18 03.04.2021
745 Rain 6 1006 65 10000 4 20 12:36 03.04.2021
746 Rain 6 1006 56 10000 2 190 11:57 03.04.2021
747 Rain 5 1006 60 10000 2 100 11:32 03.04.2021
748 Rain 5 1006 56 10000 2 250 10:49 03.04.2021
749 Rain 5 1006 60 10000 1 0 10:29 03.04.2021
750 Rain 5 1006 75 10000 2 330 09:50 03.04.2021
751 Rain 4 1006 75 10000 2 330 09:27 03.04.2021
752 Rain 2 1005 80 10000 1 220 08:38 03.04.2021
753 Clear 1 1005 86 10000 2 230 08:19 03.04.2021
754 Clear 0 1005 86 10000 1 0 07:27 03.04.2021
755 Clear -1 1005 93 10000 1 0 04:27 03.04.2021
756 Clear -2 1005 93 10000 0.34 47 03:18 03.04.2021
757 Clear -1 1005 93 10000 0.17 338 02:35 03.04.2021
758 Clear -1 1005 86 10000 2 260 01:44 03.04.2021
759 Clear 0 1005 93 10000 0.57 245 00:19 03.04.2021
760 Clear 0 1005 93 10000 0.57 245 23:46 02.04.2021
761 Clear 0 1005 86 10000 1 0 23:21 02.04.2021
762 Clear 0 1005 86 10000 1 0 22:50 02.04.2021
763 Snow 1 1005 86 10000 2 300 22:30 02.04.2021
764 Clear 1 1005 80 10000 3 320 21:42 02.04.2021
765 Clear 1 1005 80 10000 3 320 21:20 02.04.2021
766 Clear 1 1005 80 10000 3 310 20:48 02.04.2021
767 Snow 2 1005 75 10000 3 310 20:26 02.04.2021
768 Rain 2 1005 75 10000 3 300 19:56 02.04.2021
769 Clear 3 1005 70 10000 2 280 19:37 02.04.2021
770 Clear 3 1005 70 10000 2 280 19:19 02.04.2021
771 Rain 4 1005 65 10000 3 330 18:38 02.04.2021
772 Rain 5 1005 60 10000 2 280 18:19 02.04.2021
773 Clear 5 1004 60 10000 3 310 17:37 02.04.2021
774 Rain 6 1004 56 10000 3 340 16:48 02.04.2021
775 Rain 6 1004 56 10000 3 330 15:54 02.04.2021
776 Rain 6 1004 56 10000 3 330 15:54 02.04.2021
777 Rain 6 1004 56 10000 3 360 15:32 02.04.2021
778 Clouds 5 1004 61 10000 3 360 14:48 02.04.2021
779 Clouds 5 1004 65 10000 4 340 14:27 02.04.2021
780 Clouds 4 1004 65 10000 4 350 13:42 02.04.2021
781 Clouds 4 1004 70 10000 3 350 13:19 02.04.2021
782 Rain 4 1004 81 10000 3 340 12:40 02.04.2021
783 Rain 4 1004 81 10000 3 340 12:20 02.04.2021
784 Rain 3 1004 87 10000 3 350 11:54 02.04.2021
785 Rain 3 1004 87 10000 3 350 11:20 02.04.2021
786 Rain 3 1005 87 10000 4 340 10:46 02.04.2021
787 Clouds 3 1005 93 10000 3 350 10:28 02.04.2021
788 Rain 3 1005 87 10000 3 20 09:53 02.04.2021
789 Rain 2 1004 93 10000 3 30 09:27 02.04.2021
790 Snow 1 1004 93 10000 4 70 08:54 02.04.2021
791 Rain 1 1004 93 10000 4 40 08:30 02.04.2021
792 Snow 1 1005 93 5000 4 360 07:30 02.04.2021
793 Snow 1 1005 93 5000 4 360 07:30 02.04.2021
794 Snow 1 1005 100 3400 4 20 06:52 02.04.2021
795 Snow 1 1005 100 3800 2 340 05:28 02.04.2021
796 Rain 3 1007 87 10000 5 90 02:30 02.04.2021
797 Rain 3 1007 93 10000 2 70 00:52 02.04.2021
798 Rain 3 1007 81 10000 3 40 00:22 02.04.2021
799 Rain 3 1007 81 10000 3 40 00:22 02.04.2021
800 Rain 3 1008 93 10000 3 340 23:39 01.04.2021
801 Rain 3 1008 93 10000 2 330 22:57 01.04.2021
802 Rain 3 1008 93 10000 2 350 22:20 01.04.2021
803 Rain 4 1008 93 10000 2 360 21:50 01.04.2021
804 Rain 4 1008 93 10000 2 360 21:27 01.04.2021
805 Rain 4 1008 93 10000 2 350 20:49 01.04.2021
806 Rain 4 1008 93 10000 2 310 20:26 01.04.2021
807 Rain 5 1008 87 10000 2 20 19:56 01.04.2021
808 Rain 5 1008 87 10000 2 340 19:35 01.04.2021
809 Rain 5 1008 87 10000 3 340 18:46 01.04.2021
810 Rain 5 1008 93 10000 4 340 18:19 01.04.2021
811 Rain 6 1007 93 10000 6 340 17:53 01.04.2021
812 Rain 7 1007 87 10000 7 320 17:33 01.04.2021
813 Rain 7 1006 93 9000 6 250 16:53 01.04.2021
814 Rain 7 1006 93 4700 5 250 16:34 01.04.2021
815 Rain 8 1006 93 9000 5 230 15:49 01.04.2021
816 Rain 7 1006 93 9000 5 230 15:20 01.04.2021
817 Rain 8 1006 93 9000 6 220 14:47 01.04.2021
818 Clouds 8 1006 81 10000 6 230 14:27 01.04.2021
819 Clouds 8 1007 87 10000 7 240 13:58 01.04.2021
820 Rain 8 1007 87 10000 6 240 13:31 01.04.2021
821 Rain 8 1007 87 8000 6 230 12:55 01.04.2021
822 Mist 8 1007 87 5000 6 220 12:33 01.04.2021
823 Clouds 8 1008 87 10000 5 210 11:58 01.04.2021
824 Clouds 7 1008 93 10000 6 230 11:40 01.04.2021
825 Clouds 7 1008 93 10000 5 220 11:18 01.04.2021
826 Clouds 7 1008 93 10000 5 220 10:45 01.04.2021
827 Clouds 7 1008 93 8000 5 210 10:24 01.04.2021
828 Drizzle 7 1009 93 3600 2 190 09:31 01.04.2021
829 Drizzle 6 1009 93 3000 2 180 08:54 01.04.2021
830 Drizzle 6 1009 100 2700 1 0 08:28 01.04.2021
831 Rain 5 1009 100 2500 2 210 07:21 01.04.2021
832 Rain 5 1010 93 2500 2 260 06:56 01.04.2021
833 Rain 5 1010 93 10000 3 270 05:34 01.04.2021
834 Rain 5 1010 100 3300 4 250 03:20 01.04.2021
835 Rain 5 1010 100 3700 6 220 00:19 01.04.2021
836 Mist 6 1010 100 3800 6 230 23:40 31.03.2021
837 Drizzle 6 1010 100 3400 7 220 22:45 31.03.2021
838 Rain 5 1010 100 3400 7 220 22:23 31.03.2021
839 Drizzle 5 1010 93 3300 7 220 21:57 31.03.2021
840 Mist 5 1010 93 2800 7 220 21:39 31.03.2021
841 Clouds 5 1011 93 7000 8 220 21:19 31.03.2021
842 Rain 5 1011 93 5000 8 220 20:40 31.03.2021
843 Drizzle 5 1011 93 5000 8 220 20:21 31.03.2021
844 Clouds 5 1011 93 6000 7 210 19:42 31.03.2021
845 Clouds 5 1011 93 6000 7 210 19:21 31.03.2021
846 Mist 5 1011 93 4400 6 220 18:55 31.03.2021
847 Clouds 5 1011 93 8000 6 210 18:35 31.03.2021
848 Rain 5 1012 93 9000 6 210 17:44 31.03.2021
849 Clouds 5 1012 93 8000 7 210 17:25 31.03.2021
850 Clouds 5 1012 93 10000 6 210 16:55 31.03.2021
851 Clouds 5 1012 93 8000 6 200 16:36 31.03.2021
852 Clouds 5 1013 93 10000 6 210 15:58 31.03.2021
853 Clouds 5 1013 93 9000 6 200 15:40 31.03.2021
854 Clouds 5 1013 93 9000 6 200 15:18 31.03.2021
855 Drizzle 5 1013 93 3200 6 200 14:41 31.03.2021
856 Drizzle 5 1013 93 3200 6 200 14:18 31.03.2021
857 Mist 5 1014 93 3600 6 210 13:35 31.03.2021
858 Clouds 5 1015 93 10000 6 220 12:41 31.03.2021
859 Clouds 5 1015 93 10000 6 220 12:19 31.03.2021
860 Clouds 4 1015 100 6000 5 220 11:39 31.03.2021
861 Drizzle 4 1015 100 7000 5 210 11:20 31.03.2021
862 Drizzle 4 1015 100 7000 5 210 10:46 31.03.2021
863 Drizzle 4 1015 100 7000 5 210 10:46 31.03.2021
864 Drizzle 4 1015 93 2900 5 210 10:24 31.03.2021
865 Mist 4 1015 100 2500 5 220 09:37 31.03.2021
866 Drizzle 4 1015 93 5000 5 220 08:54 31.03.2021
867 Rain 4 1015 93 4500 5 220 08:33 31.03.2021
868 Drizzle 4 1015 93 6000 5 220 07:43 31.03.2021
869 Mist 3 1015 100 4200 6 210 06:38 31.03.2021
870 Rain 2 1016 93 3100 7 210 03:46 31.03.2021
871 Rain 2 1017 93 5000 8 200 01:35 31.03.2021
872 Rain 2 1018 93 5000 8 200 00:48 31.03.2021
873 Rain 2 1018 93 5000 8 200 00:18 31.03.2021
874 Rain 2 1019 93 7000 8 200 23:29 30.03.2021
875 Rain 2 1020 93 7000 8 190 22:58 30.03.2021
876 Rain 2 1020 93 9000 7 190 22:39 30.03.2021
877 Snow 2 1021 93 6000 7 200 22:21 30.03.2021
878 Snow 2 1021 93 6000 7 200 21:46 30.03.2021
879 Snow 2 1022 93 5000 7 190 21:19 30.03.2021
880 Snow 2 1022 93 5000 7 190 20:51 30.03.2021
881 Snow 2 1022 93 8000 7 200 20:28 30.03.2021
882 Snow 3 1023 93 7000 7 200 19:50 30.03.2021
883 Snow 3 1023 87 5000 8 200 19:27 30.03.2021
884 Rain 5 1024 70 9000 9 200 18:38 30.03.2021
885 Rain 5 1024 65 10000 12 210 17:56 30.03.2021
886 Rain 6 1025 45 10000 8 210 17:38 30.03.2021
887 Rain 6 1025 45 10000 8 210 17:20 30.03.2021
888 Rain 7 1025 39 10000 7 190 16:44 30.03.2021
889 Rain 7 1025 39 10000 7 190 16:23 30.03.2021
890 Rain 7 1026 36 10000 7 190 15:20 30.03.2021
891 Rain 7 1026 34 10000 7 190 14:56 30.03.2021
892 Rain 7 1027 36 10000 7 200 14:22 30.03.2021
893 Rain 7 1027 31 10000 8 190 13:58 30.03.2021
894 Rain 7 1027 36 10000 7 190 13:36 30.03.2021
895 Rain 7 1028 39 10000 8 190 12:49 30.03.2021
896 Rain 7 1028 39 10000 8 190 12:49 30.03.2021
897 Clear 6 1028 42 10000 8 190 12:27 30.03.2021
898 Clear 6 1029 39 10000 7 170 11:56 30.03.2021
899 Clear 6 1029 39 10000 7 180 11:23 30.03.2021
900 Clear 5 1030 45 10000 7 190 10:46 30.03.2021
901 Clear 5 1030 45 10000 7 190 10:26 30.03.2021
902 Clear 4 1030 45 10000 6 180 09:50 30.03.2021
903 Clear 4 1030 48 10000 7 190 09:31 30.03.2021
904 Clear 3 1030 52 10000 5 200 08:56 30.03.2021
905 Clear 2 1030 52 10000 6 200 08:37 30.03.2021
906 Clear 1 1030 51 10000 6 190 07:51 30.03.2021
907 Clear 0 1031 55 10000 5 190 07:22 30.03.2021
908 Clear -2 1031 55 10000 5 190 05:40 30.03.2021
909 Clear -1 1031 55 10000 5 190 05:19 30.03.2021
910 Clear 1 1032 55 10000 4 180 00:33 30.03.2021
911 Clear 1 1032 44 10000 3 180 23:34 29.03.2021
912 Clear 2 1032 44 10000 3 180 22:52 29.03.2021
913 Clear 2 1032 41 10000 2 170 22:30 29.03.2021
914 Clear 3 1032 41 10000 2 170 21:47 29.03.2021
915 Clear 3 1032 41 10000 3 170 21:29 29.03.2021
916 Clear 3 1032 45 10000 4 150 20:48 29.03.2021
917 Clear 3 1032 45 10000 4 150 20:27 29.03.2021
918 Clear 4 1032 41 10000 3 150 19:49 29.03.2021
919 Clear 5 1031 38 10000 3 150 19:24 29.03.2021
920 Clear 6 1031 33 10000 3 160 18:44 29.03.2021
921 Clear 6 1031 33 10000 3 160 18:26 29.03.2021
922 Clear 6 1031 31 10000 2 160 17:51 29.03.2021
923 Clear 7 1031 29 10000 3 180 17:31 29.03.2021
924 Clear 7 1031 29 10000 3 180 17:30 29.03.2021
925 Clear 7 1031 25 10000 4 180 16:42 29.03.2021
926 Clear 7 1031 25 10000 4 180 16:23 29.03.2021
927 Clear 7 1031 29 10000 4 190 15:36 29.03.2021
928 Clear 7 1031 27 10000 3 200 15:18 29.03.2021
929 Clear 7 1031 27 10000 3 200 14:45 29.03.2021
930 Clear 7 1032 31 10000 4 200 13:55 29.03.2021
931 Clear 7 1032 33 10000 4 200 13:31 29.03.2021
932 Clear 6 1032 29 10000 3 180 12:54 29.03.2021
933 Clear 6 1031 33 10000 3 170 12:36 29.03.2021
934 Clear 5 1031 36 10000 4 150 11:43 29.03.2021
935 Clear 5 1031 36 10000 4 150 11:24 29.03.2021
936 Clear 4 1031 36 10000 5 120 10:43 29.03.2021
937 Clear 4 1031 36 10000 5 120 10:18 29.03.2021
938 Clear 3 1031 41 10000 6 140 09:25 29.03.2021
939 Clear 2 1031 52 10000 5 130 08:30 29.03.2021
940 Clear 1 1031 64 10000 3 90 07:54 29.03.2021
941 Clear -1 1030 74 10000 3 90 06:57 29.03.2021
942 Clear -1 1030 74 10000 3 90 05:45 29.03.2021
943 Clear 1 1028 74 10000 3 70 02:32 29.03.2021
944 Clear 1 1028 74 10000 3 80 00:27 29.03.2021
945 Clear 1 1028 74 10000 4 70 23:57 28.03.2021
946 Clear 2 1027 69 10000 3 70 23:25 28.03.2021
947 Clear 2 1027 69 10000 3 90 22:48 28.03.2021
948 Clear 2 1027 69 10000 3 90 22:28 28.03.2021
949 Clear 2 1027 69 10000 4 80 21:47 28.03.2021
950 Clear 2 1027 69 10000 4 80 21:25 28.03.2021
951 Clear 4 1026 60 10000 3 90 20:54 28.03.2021
952 Clear 4 1026 60 10000 3 80 20:35 28.03.2021
953 Rain 4 1026 65 10000 3 100 20:00 28.03.2021
954 Clear 5 1026 60 10000 4 100 19:41 28.03.2021
955 Clear 5 1026 60 10000 4 100 19:20 28.03.2021
956 Clear 6 1025 52 10000 4 90 18:49 28.03.2021
957 Rain 8 1025 53 10000 5 110 18:19 28.03.2021
958 Rain 9 1025 49 10000 5 90 17:41 28.03.2021
959 Clear 9 1025 31 10000 2 90 17:18 28.03.2021
960 Rain 9 1025 29 10000 1 0 16:39 28.03.2021
961 Rain 10 1025 32 10000 1 0 16:21 28.03.2021
962 Clear 9 1025 32 10000 1 0 15:24 28.03.2021
963 Clear 9 1025 34 10000 2 250 14:49 28.03.2021
964 Clear 10 1025 31 10000 2 250 14:25 28.03.2021
965 Clear 9 1025 34 10000 0.72 238 13:36 28.03.2021
966 Clear 9 1025 31 10000 1 0 12:58 28.03.2021
967 Clear 9 1025 36 10000 1 0 12:35 28.03.2021
968 Clear 8 1025 39 10000 1 0 11:59 28.03.2021
969 Clear 7 1025 42 10000 1 0 11:37 28.03.2021
970 Clear 7 1026 45 10000 2 60 10:54 28.03.2021
971 Clear 7 1026 42 10000 1 0 10:31 28.03.2021
972 Clear 5 1026 52 10000 1 0 09:53 28.03.2021
973 Clear 4 1025 65 10000 0.55 293 09:28 28.03.2021
974 Clear 4 1025 70 10000 1 270 08:56 28.03.2021
975 Clear 4 1025 65 10000 1 0 08:35 28.03.2021
976 Clear 1 1025 75 10000 2 360 07:43 28.03.2021
977 Clear -2 1025 93 10000 1 0 06:22 28.03.2021
978 Clear 0 1024 86 10000 2 310 03:50 28.03.2021
979 Clear 1 1024 80 10000 1 0 00:45 28.03.2021
980 Clear 0 1024 69 10000 2 320 23:59 27.03.2021
981 Clear 1 1024 69 10000 2 350 23:36 27.03.2021
982 Clear 1 1024 69 10000 2 340 22:49 27.03.2021
983 Clear 2 1023 69 10000 1 330 22:30 27.03.2021
984 Clear 2 1023 65 10000 2 300 21:45 27.03.2021
985 Clear 1 1023 69 10000 2 350 21:21 27.03.2021
986 Clear 1 1023 69 10000 2 350 20:59 27.03.2021
987 Clear 2 1023 64 10000 2 340 20:37 27.03.2021
988 Clear 3 1023 60 10000 2 330 19:59 27.03.2021
989 Clear 3 1022 56 10000 2 340 19:40 27.03.2021
990 Clear 5 1022 56 10000 3 340 19:22 27.03.2021
991 Clear 5 1022 56 10000 3 340 18:47 27.03.2021
992 Clear 6 1022 52 10000 3 350 18:22 27.03.2021
993 Clear 7 1021 45 10000 3 350 17:37 27.03.2021
994 Clear 7 1021 45 10000 3 350 17:18 27.03.2021
995 Clear 8 1021 42 10000 3 340 16:46 27.03.2021
996 Clear 8 1021 42 10000 3 340 16:25 27.03.2021
997 Clear 8 1021 42 10000 4 350 15:45 27.03.2021
998 Clear 8 1021 42 10000 3 350 15:19 27.03.2021
999 Clear 7 1021 42 10000 3 10 14:42 27.03.2021
1000 Clouds 8 1020 46 10000 4 10 13:40 27.03.2021
1001 Clouds 8 1020 46 10000 4 10 13:20 27.03.2021
1002 Clear 7 1020 49 10000 5 350 12:47 27.03.2021
1003 Clouds 7 1020 46 10000 5 360 11:53 27.03.2021
1004 Clouds 7 1020 57 10000 5 360 11:33 27.03.2021
1005 Clouds 7 1020 53 10000 5 330 10:58 27.03.2021
1006 Clouds 7 1020 57 10000 6 20 10:39 27.03.2021
1007 Clouds 6 1020 53 10000 5 360 09:58 27.03.2021
1008 Clear 6 1020 57 10000 5 20 09:21 27.03.2021
1009 Clear 4 1020 70 10000 4 20 08:40 27.03.2021
1010 Clear 3 1019 75 10000 4 20 07:54 27.03.2021
1011 Rain 3 1019 75 10000 2 30 07:22 27.03.2021
1012 Rain 2 1019 75 10000 4 350 06:43 27.03.2021
1013 Snow 1 1018 81 10000 4 340 04:42 27.03.2021
1014 Clear 2 1018 75 10000 4 340 02:58 27.03.2021
1015 Clear 3 1017 81 10000 2 310 00:45 27.03.2021
1016 Clear 3 1017 81 10000 3 300 00:25 27.03.2021
1017 Clear 3 1017 81 10000 3 300 23:38 26.03.2021
1018 Clouds 3 1017 81 10000 3 300 22:45 26.03.2021
1019 Clouds 3 1017 81 10000 3 300 22:24 26.03.2021
1020 Clear 4 1017 75 10000 3 300 21:25 26.03.2021
1021 Clear 4 1017 75 10000 3 300 20:58 26.03.2021
1022 Clouds 4 1017 75 10000 4 290 20:32 26.03.2021
1023 Clouds 4 1017 75 10000 3 300 19:53 26.03.2021
1024 Clear 4 1017 75 10000 4 300 19:35 26.03.2021
1025 Clouds 5 1017 70 10000 2 300 18:59 26.03.2021
1026 Clear 5 1016 70 10000 3 290 18:36 26.03.2021
1027 Clear 6 1016 65 10000 2 310 18:18 26.03.2021
1028 Clear 6 1016 57 10000 4 290 17:43 26.03.2021
1029 Clear 7 1016 53 10000 3 290 16:53 26.03.2021
1030 Clouds 7 1016 53 10000 3 290 16:23 26.03.2021
1031 Clouds 7 1016 53 10000 4 340 15:43 26.03.2021
1032 Rain 7 1016 49 10000 5 330 14:54 26.03.2021
1033 Rain 7 1016 49 10000 4 340 14:20 26.03.2021
1034 Clear 8 1016 57 10000 3 300 13:33 26.03.2021
1035 Clouds 7 1016 57 10000 3 320 12:48 26.03.2021
1036 Clear 7 1016 70 10000 5 250 11:50 26.03.2021
1037 Clear 7 1016 70 10000 5 250 11:31 26.03.2021
1038 Clear 7 1016 70 10000 4 230 10:46 26.03.2021
1039 Clear 7 1016 65 10000 3 240 10:27 26.03.2021
1040 Clouds 5 1016 70 10000 2 240 09:41 26.03.2021
1041 Clouds 4 1016 70 10000 1 0 08:59 26.03.2021
1042 Clouds 3 1016 75 10000 2 240 08:35 26.03.2021
1043 Clouds 2 1016 80 10000 2 250 07:58 26.03.2021
1044 Clouds 1 1016 75 10000 2 300 07:22 26.03.2021
1045 Clouds 1 1016 80 10000 2 230 06:57 26.03.2021
1046 Clouds -1 1016 86 10000 2 290 06:26 26.03.2021
1047 Clouds 0 1015 86 10000 2 240 05:21 26.03.2021
1048 Clear 1 1015 80 10000 2 240 01:50 26.03.2021
1049 Clear -1 1015 75 10000 3 310 00:23 26.03.2021
1050 Clear 0 1015 69 10000 3 300 23:44 25.03.2021
1051 Clear 0 1015 75 10000 3 300 22:51 25.03.2021
1052 Clear 1 1014 69 10000 2 300 22:28 25.03.2021
1053 Clear 1 1014 69 10000 3 300 21:49 25.03.2021
1054 Clear 2 1014 65 10000 3 300 21:31 25.03.2021
1055 Clear 3 1014 60 10000 2 290 20:43 25.03.2021
1056 Clear 3 1014 60 10000 2 290 20:25 25.03.2021
1057 Clear 4 1014 56 10000 3 260 19:45 25.03.2021
1058 Clear 4 1014 56 10000 3 260 19:45 25.03.2021
1059 Clear 5 1014 56 10000 3 260 19:26 25.03.2021
1060 Clear 5 1014 52 10000 4 270 18:47 25.03.2021
1061 Clear 6 1014 49 10000 3 270 18:26 25.03.2021
1062 Clear 6 1014 49 10000 3 270 18:26 25.03.2021
1063 Clear 6 1014 49 10000 3 270 18:26 25.03.2021
1064 Clear 7 1013 56 10000 5 240 17:45 25.03.2021
1065 Clear 7 1013 56 10000 5 240 17:27 25.03.2021
1066 Clear 8 1013 53 10000 4 240 16:50 25.03.2021
1067 Clear 8 1013 49 10000 5 260 16:29 25.03.2021
1068 Clear 9 1013 49 10000 6 260 15:43 25.03.2021
1069 Clear 8 1014 53 10000 5 250 15:20 25.03.2021
1070 Clear 8 1014 53 10000 5 250 14:46 25.03.2021
1071 Clear 9 1014 49 10000 5 240 13:49 25.03.2021
1072 Clear 9 1014 49 10000 5 240 13:24 25.03.2021
1073 Clear 9 1014 49 10000 5 240 13:24 25.03.2021
1074 Clear 9 1014 49 10000 5 240 12:44 25.03.2021
1075 Clear 7 1015 53 10000 6 240 12:20 25.03.2021
1076 Clear 7 1015 53 10000 6 240 11:52 25.03.2021
1077 Clear 7 1015 49 10000 3 250 11:30 25.03.2021
1078 Clear 7 1015 46 10000 2 260 10:55 25.03.2021
1079 Clear 5 1015 49 10000 2 250 10:26 25.03.2021
1080 Clear 5 1016 52 10000 3 250 09:57 25.03.2021
1081 Clear 4 1016 49 10000 2 220 09:38 25.03.2021
1082 Clear 3 1016 52 10000 2 210 08:57 25.03.2021
1083 Clear 3 1016 64 10000 2 230 08:29 25.03.2021
1084 Clear 1 1016 60 10000 2 230 07:24 25.03.2021
1085 Clouds 0 1016 64 10000 3 230 06:27 25.03.2021
1086 Clouds -1 1016 69 10000 2 220 05:49 25.03.2021
1087 Clouds -1 1016 69 10000 2 220 05:49 25.03.2021
1088 Clear 0 1016 64 10000 2 250 04:33 25.03.2021
1089 Clouds -1 1017 64 10000 3 230 00:44 25.03.2021
1090 Clouds -1 1017 64 10000 3 230 00:18 25.03.2021
1091 Clouds -2 1017 60 10000 3 200 23:33 24.03.2021
1092 Clouds -1 1017 60 10000 2 240 22:51 24.03.2021
1093 Clouds -1 1017 60 10000 3 230 22:32 24.03.2021
1094 Clouds -1 1017 51 10000 3 220 21:47 24.03.2021
1095 Clouds -1 1017 51 10000 3 220 21:47 24.03.2021
1096 Clouds -1 1017 51 10000 3 220 21:25 24.03.2021
1097 Clear -1 1017 51 10000 3 200 20:55 24.03.2021
1098 Clear 0 1017 60 10000 3 230 20:37 24.03.2021
1099 Clear 0 1017 60 10000 3 230 20:18 24.03.2021
1100 Clear 1 1017 51 10000 3 230 19:31 24.03.2021
1101 Clear 2 1017 55 10000 5 250 18:52 24.03.2021
1102 Clouds 1 1017 55 10000 4 250 18:24 24.03.2021
1103 Clouds 3 1017 48 10000 4 260 17:53 24.03.2021
1104 Clouds 3 1017 48 10000 4 260 17:53 24.03.2021
1105 Clouds 3 1017 52 10000 4 240 17:32 24.03.2021
1106 Clouds 4 1017 56 10000 5 250 16:56 24.03.2021
1107 Clouds 4 1017 48 10000 4 240 16:38 24.03.2021
1108 Clouds 4 1017 48 10000 4 240 16:18 24.03.2021
1109 Clouds 4 1017 48 10000 5 240 15:33 24.03.2021
1110 Clouds 4 1017 48 10000 5 240 14:59 24.03.2021
1111 Clouds 4 1018 36 10000 6 220 14:29 24.03.2021
1112 Clouds 4 1018 45 10000 5 240 13:58 24.03.2021
1113 Clouds 4 1018 41 10000 5 240 13:28 24.03.2021
1114 Clear 4 1018 41 10000 4 240 12:50 24.03.2021
1115 Clear 4 1018 48 10000 5 240 12:29 24.03.2021
1116 Clear 3 1018 44 10000 4 230 11:54 24.03.2021
1117 Clear 3 1018 44 10000 3 230 11:35 24.03.2021
1118 Clear 3 1018 44 10000 3 230 11:35 24.03.2021
1119 Clear 3 1019 48 10000 3 250 10:48 24.03.2021
1120 Clear 3 1019 51 10000 4 240 10:28 24.03.2021
1121 Clear 1 1019 51 10000 2 240 09:54 24.03.2021
1122 Clear 0 1019 51 10000 2 240 09:25 24.03.2021
1123 Clear -1 1019 59 10000 2 240 08:57 24.03.2021
1124 Clear -1 1019 64 10000 2 240 08:34 24.03.2021
1125 Clear -3 1019 68 10000 3 230 07:48 24.03.2021
1126 Clear -5 1019 74 10000 3 220 07:18 24.03.2021
1127 Clear -7 1018 79 10000 2 250 06:41 24.03.2021
1128 Clear -7 1017 79 10000 1 0 01:26 24.03.2021
1129 Clear -7 1017 79 10000 1 0 00:36 24.03.2021
1130 Clear -6 1017 80 10000 2 290 23:46 23.03.2021
1131 Clear -6 1017 74 10000 2 270 23:19 23.03.2021
1132 Clear -6 1017 80 10000 1 0 22:47 23.03.2021
1133 Clear -4 1016 74 10000 2 320 22:24 23.03.2021
1134 Clear -3 1016 74 10000 2 300 21:45 23.03.2021
1135 Clear -3 1016 74 10000 2 300 21:25 23.03.2021
1136 Clear -3 1016 68 10000 2 330 20:45 23.03.2021
1137 Clear -3 1016 68 10000 2 330 20:25 23.03.2021
1138 Clear -2 1015 64 10000 2 330 19:47 23.03.2021
1139 Clear -2 1015 64 10000 2 330 19:26 23.03.2021
1140 Clear -1 1014 64 10000 3 330 18:44 23.03.2021
1141 Clear -1 1014 64 10000 3 330 18:22 23.03.2021
1142 Clear -1 1014 59 10000 3 340 17:46 23.03.2021
1143 Clouds 0 1013 51 10000 5 350 17:21 23.03.2021
1144 Clouds 0 1013 55 10000 5 340 16:42 23.03.2021
1145 Clouds 0 1013 55 10000 5 340 16:19 23.03.2021
1146 Snow 1 1013 55 10000 5 340 15:40 23.03.2021
1147 Clouds 1 1013 55 10000 6 330 14:55 23.03.2021
1148 Clouds 1 1012 55 10000 6 340 14:37 23.03.2021
1149 Clouds 1 1012 55 10000 6 340 14:18 23.03.2021
1150 Clouds 1 1012 55 10000 5 350 13:41 23.03.2021
1151 Clouds 1 1012 55 10000 5 350 13:20 23.03.2021
1152 Clouds 1 1012 55 10000 5 30 12:43 23.03.2021
1153 Clouds 1 1012 59 10000 6 30 12:20 23.03.2021
1154 Clouds 0 1011 59 10000 5 340 11:45 23.03.2021
1155 Snow 1 1010 59 10000 4 360 10:45 23.03.2021
1156 Snow 0 1010 59 10000 4 360 10:26 23.03.2021
1157 Snow 0 1010 64 10000 5 360 09:58 23.03.2021
1158 Snow -1 1010 69 10000 6 30 09:39 23.03.2021
1159 Snow -1 1010 69 10000 6 30 09:20 23.03.2021
1160 Clouds -1 1009 74 10000 4 350 08:40 23.03.2021
1161 Clouds -1 1009 74 10000 4 350 08:22 23.03.2021
1162 Clouds -2 1009 80 10000 4 350 07:40 23.03.2021
1163 Clouds -2 1009 80 10000 4 350 07:19 23.03.2021
1164 Clouds -3 1008 86 10000 3 340 06:33 23.03.2021
1165 Clear -4 1005 86 10000 2 350 03:23 23.03.2021
1166 Snow -4 1005 86 10000 3 340 02:20 23.03.2021
1167 Clear -3 1004 74 10000 4 320 23:44 22.03.2021
1168 Clear -2 1003 69 10000 3 300 22:56 22.03.2021
1169 Snow -1 1003 74 10000 3 310 22:38 22.03.2021
1170 Snow -1 1003 74 10000 3 310 22:20 22.03.2021
1171 Snow -1 1003 69 10000 3 310 21:42 22.03.2021
1172 Snow -1 1003 74 10000 3 300 21:23 22.03.2021
1173 Snow -2 1002 74 10000 3 300 20:42 22.03.2021
1174 Snow -2 1002 74 10000 3 300 20:22 22.03.2021
1175 Snow -2 1002 69 10000 3 300 19:55 22.03.2021
1176 Snow -1 1002 69 10000 3 320 19:37 22.03.2021
1177 Snow -1 1001 69 10000 3 320 19:19 22.03.2021
1178 Snow -1 1001 74 10000 4 320 18:40 22.03.2021
1179 Snow -1 1001 74 10000 4 320 18:21 22.03.2021
1180 Snow -1 1001 69 10000 4 340 17:44 22.03.2021
1181 Snow -1 1000 80 10000 3 340 17:21 22.03.2021
1182 Snow 0 1000 86 10000 4 240 16:45 22.03.2021
1183 Snow 0 1000 86 9000 3 220 16:21 22.03.2021
1184 Snow 2 999 75 9000 4 240 15:39 22.03.2021
1185 Rain 2 999 75 10000 4 230 15:20 22.03.2021
1186 Snow 1 999 75 10000 4 230 14:57 22.03.2021
1187 Snow 1 999 80 10000 5 240 14:34 22.03.2021
1188 Snow 2 998 86 10000 6 230 13:49 22.03.2021
1189 Snow 1 998 86 10000 6 230 13:28 22.03.2021
1190 Snow 1 998 69 10000 5 240 12:56 22.03.2021
1191 Snow 1 998 69 10000 5 240 12:26 22.03.2021
1192 Snow 2 997 64 10000 7 240 11:50 22.03.2021
1193 Snow 2 997 64 10000 7 240 11:29 22.03.2021
1194 Rain 2 997 69 10000 6 240 10:46 22.03.2021
1195 Snow 2 997 69 10000 6 240 10:26 22.03.2021
1196 Snow 1 997 69 10000 7 240 09:53 22.03.2021
1197 Snow 1 997 75 10000 6 240 09:32 22.03.2021
1198 Snow 1 997 80 10000 6 240 08:47 22.03.2021
1199 Snow 1 997 80 10000 6 240 08:28 22.03.2021
1200 Snow 1 997 80 10000 6 240 07:54 22.03.2021
1201 Snow 0 997 80 10000 6 230 07:34 22.03.2021
1202 Snow 0 996 80 10000 5 220 06:51 22.03.2021
1203 Snow -1 996 86 5000 7 220 02:51 22.03.2021
1204 Snow -1 996 86 10000 6 210 00:49 22.03.2021
1205 Snow -1 996 86 10000 6 220 00:19 22.03.2021
1206 Snow -1 996 80 10000 7 220 23:40 21.03.2021
1207 Snow -1 996 80 10000 7 220 23:18 21.03.2021
1208 Snow -1 996 86 10000 6 220 22:53 21.03.2021
1209 Snow -1 996 86 10000 6 220 21:43 21.03.2021
1210 Snow -1 996 86 10000 6 220 21:25 21.03.2021
1211 Snow -1 996 86 10000 7 220 20:57 21.03.2021
1212 Snow -1 996 80 10000 6 220 20:39 21.03.2021
1213 Snow -1 997 80 10000 7 220 20:21 21.03.2021
1214 Snow -1 997 80 10000 7 220 19:48 21.03.2021
1215 Snow -1 997 86 6000 6 210 19:20 21.03.2021
1216 Snow -1 997 86 5000 7 210 18:44 21.03.2021
1217 Snow -1 997 86 5000 7 210 18:25 21.03.2021
1218 Snow -1 997 86 5000 7 210 17:43 21.03.2021
1219 Snow -1 997 86 5000 7 210 17:19 21.03.2021
1220 Snow -1 997 86 9000 5 200 16:51 21.03.2021
1221 Snow 0 997 86 9000 5 200 16:27 21.03.2021
1222 Snow 0 998 80 10000 6 210 15:49 21.03.2021
1223 Snow 0 998 80 10000 6 210 15:23 21.03.2021
1224 Snow 0 998 80 10000 8 210 14:58 21.03.2021
1225 Snow 0 998 80 3800 7 220 14:39 21.03.2021
1226 Snow 0 998 80 3800 7 220 14:20 21.03.2021
1227 Snow 0 998 74 5000 9 230 13:51 21.03.2021
1228 Snow 0 998 59 10000 8 210 12:46 21.03.2021
1229 Snow 0 998 59 10000 8 210 12:26 21.03.2021
1230 Snow 0 999 59 10000 9 220 11:49 21.03.2021
1231 Snow 0 999 59 10000 9 220 11:27 21.03.2021
1232 Clouds 0 999 55 10000 9 230 10:54 21.03.2021
1233 Clouds 0 999 59 10000 7 230 10:33 21.03.2021
1234 Clouds -1 999 59 10000 9 230 09:57 21.03.2021
1235 Clouds -1 1000 59 10000 8 230 09:38 21.03.2021
1236 Clouds -1 1000 59 10000 8 230 09:38 21.03.2021
1237 Clouds -1 1000 59 10000 8 230 09:38 21.03.2021
1238 Clouds -2 1000 59 10000 8 220 09:19 21.03.2021
1239 Clear -2 1000 64 10000 7 220 08:38 21.03.2021
1240 Clear -3 1001 68 10000 7 220 08:19 21.03.2021
1241 Clear -3 1001 68 10000 7 220 07:31 21.03.2021
1242 Clear -4 1002 80 10000 6 220 06:30 21.03.2021
1243 Clear -5 1003 80 10000 4 210 04:58 21.03.2021
1244 Clear -5 1006 86 10000 4 240 00:59 21.03.2021
1245 Clouds -4 1007 86 10000 4 220 00:39 21.03.2021
1246 Clouds -4 1007 86 10000 4 220 00:21 21.03.2021
1247 Clouds -4 1007 86 10000 3 200 23:47 20.03.2021
1248 Clouds -4 1007 86 10000 4 240 23:20 20.03.2021
1249 Clouds -3 1007 86 10000 4 240 22:50 20.03.2021
1250 Snow -2 1008 80 10000 4 260 22:21 20.03.2021
1251 Snow -2 1008 86 10000 5 240 21:45 20.03.2021
1252 Snow -2 1008 86 10000 5 240 21:24 20.03.2021
1253 Snow -2 1008 80 9000 6 260 20:44 20.03.2021
1254 Snow -2 1008 80 9000 6 260 20:22 20.03.2021
1255 Snow -2 1009 69 10000 4 250 19:48 20.03.2021
1256 Snow -3 1009 69 10000 4 250 19:26 20.03.2021
1257 Snow -3 1009 74 10000 4 250 18:49 20.03.2021
1258 Clear -3 1009 74 10000 5 250 18:26 20.03.2021
1259 Clouds -2 1010 64 10000 5 240 17:54 20.03.2021
1260 Clouds -2 1010 59 10000 3 240 17:32 20.03.2021
1261 Snow -2 1010 55 10000 3 280 16:46 20.03.2021
1262 Snow 0 1011 51 10000 3 280 16:21 20.03.2021
1263 Clouds -1 1011 55 10000 5 260 16:21 20.03.2021
1264 Snow 0 1011 51 10000 3 280 15:59 20.03.2021
1265 Snow -1 1012 51 10000 7 290 15:39 20.03.2021
1266 Snow 0 1012 47 10000 5 280 14:48 20.03.2021
1267 Clouds 0 1012 47 10000 5 280 14:28 20.03.2021
1268 Clouds 0 1013 55 10000 3 260 13:42 20.03.2021
1269 Clear 0 1013 51 10000 4 260 12:59 20.03.2021
1270 Clear -1 1014 51 10000 6 270 12:27 20.03.2021
1271 Clear -1 1014 51 10000 6 270 12:27 20.03.2021
1272 Clear -1 1014 51 10000 6 270 12:27 20.03.2021
1273 Clear -1 1014 59 10000 4 260 11:50 20.03.2021
1274 Clouds -1 1015 54 10000 5 290 11:30 20.03.2021
1275 Clouds -1 1015 59 10000 4 290 10:56 20.03.2021
1276 Clouds -2 1015 54 10000 4 290 10:37 20.03.2021
1277 Clouds -2 1015 54 10000 4 290 10:18 20.03.2021
1278 Clouds -2 1015 59 10000 3 320 09:42 20.03.2021
1279 Clouds -2 1015 59 10000 3 320 09:21 20.03.2021
1280 Clear -3 1016 59 10000 3 320 08:45 20.03.2021
1281 Clear -3 1016 68 10000 4 350 07:55 20.03.2021
1282 Clear -4 1016 74 10000 4 330 07:32 20.03.2021
1283 Clear -5 1016 79 10000 3 330 06:56 20.03.2021
1284 Clear -6 1016 79 10000 3 320 06:27 20.03.2021
1285 Clear -7 1016 86 10000 3 320 04:41 20.03.2021
1286 Clear -6 1015 79 10000 3 340 03:42 20.03.2021
1287 Clear -4 1015 80 10000 3 330 00:42 20.03.2021
1288 Clear -3 1015 86 10000 3 340 23:36 19.03.2021
1289 Clear -3 1015 86 10000 3 340 23:18 19.03.2021
1290 Clear -2 1015 86 10000 3 320 22:40 19.03.2021
1291 Clear -2 1015 86 10000 3 320 22:22 19.03.2021
1292 Snow -2 1015 86 10000 3 320 21:37 19.03.2021
1293 Snow -2 1015 86 10000 3 320 21:18 19.03.2021
1294 Clouds -2 1014 80 10000 3 330 20:42 19.03.2021
1295 Clouds -2 1014 80 10000 3 330 20:24 19.03.2021
1296 Clouds -2 1014 80 10000 3 320 19:47 19.03.2021
1297 Clear -2 1014 80 10000 3 310 19:22 19.03.2021
1298 Clouds -1 1014 80 10000 4 320 18:49 19.03.2021
1299 Clear -1 1014 80 10000 5 350 18:21 19.03.2021
1300 Clear -1 1014 80 10000 5 350 17:56 19.03.2021
1301 Snow 0 1013 69 10000 5 350 17:37 19.03.2021
1302 Clear 0 1013 64 10000 4 320 16:59 19.03.2021
1303 Snow 0 1013 59 10000 4 330 16:40 19.03.2021
1304 Snow 1 1013 59 10000 4 330 16:21 19.03.2021
1305 Snow 1 1013 59 10000 4 350 15:33 19.03.2021
1306 Clouds 1 1012 59 10000 4 350 14:51 19.03.2021
1307 Clouds 1 1012 59 10000 5 320 14:32 19.03.2021
1308 Clear 1 1012 55 10000 4 330 13:50 19.03.2021
1309 Clouds 1 1012 59 10000 5 330 13:19 19.03.2021
1310 Clouds 1 1012 59 10000 4 340 12:42 19.03.2021
1311 Clouds 1 1012 59 10000 4 340 12:18 19.03.2021
1312 Clouds 1 1012 64 10000 4 330 11:26 19.03.2021
1313 Clouds 1 1011 64 10000 4 350 10:42 19.03.2021
1314 Clouds 0 1011 64 10000 4 350 10:21 19.03.2021
1315 Clouds 0 1011 74 10000 3 340 09:44 19.03.2021
1316 Clouds 0 1011 74 10000 3 340 09:24 19.03.2021
1317 Snow 0 1011 74 10000 3 330 08:51 19.03.2021
1318 Snow -1 1011 80 10000 3 340 08:26 19.03.2021
1319 Snow -1 1011 80 10000 3 350 07:44 19.03.2021
1320 Snow -1 1010 86 10000 4 350 07:24 19.03.2021
1321 Snow -2 1010 93 10000 4 340 05:28 19.03.2021
1322 Snow -1 1009 93 10000 3 330 01:58 19.03.2021
1323 Snow -1 1008 86 9000 3 330 23:55 18.03.2021
1324 Snow -1 1008 86 10000 3 330 23:29 18.03.2021
1325 Snow -1 1008 86 10000 3 330 22:52 18.03.2021
1326 Snow 0 1008 93 9000 4 330 22:25 18.03.2021
1327 Snow 0 1008 93 9000 4 320 21:48 18.03.2021
1328 Snow 0 1008 93 9000 4 330 21:30 18.03.2021
1329 Snow 0 1008 93 9000 3 330 20:43 18.03.2021
1330 Snow 0 1008 93 9000 3 330 20:22 18.03.2021
1331 Snow 0 1008 93 4200 4 330 19:43 18.03.2021
1332 Snow 0 1008 93 4200 4 330 19:23 18.03.2021
1333 Snow 0 1008 93 6000 3 310 18:47 18.03.2021
1334 Snow 1 1008 86 5000 3 300 18:25 18.03.2021
1335 Snow 1 1008 86 5000 3 300 17:43 18.03.2021
1336 Snow 1 1007 80 5000 3 300 17:20 18.03.2021
1337 Snow 1 1007 80 9000 3 330 16:41 18.03.2021
1338 Snow 1 1007 80 9000 3 330 16:23 18.03.2021
1339 Snow 1 1007 80 9000 3 330 16:23 18.03.2021
1340 Rain 2 1007 69 10000 3 330 15:41 18.03.2021
1341 Rain 3 1007 69 10000 3 330 15:21 18.03.2021
1342 Rain 2 1007 69 10000 4 330 14:49 18.03.2021
1343 Rain 2 1007 69 10000 4 330 14:23 18.03.2021
1344 Clouds 3 1007 69 10000 3 340 13:43 18.03.2021
1345 Rain 3 1007 69 10000 3 340 13:25 18.03.2021
1346 Snow 2 1007 75 10000 4 300 12:40 18.03.2021
1347 Snow 2 1007 75 10000 4 300 12:22 18.03.2021
1348 Snow 2 1006 69 10000 5 330 11:46 18.03.2021
1349 Snow 2 1006 69 10000 5 330 11:25 18.03.2021
1350 Rain 2 1006 64 10000 1 0 10:44 18.03.2021
1351 Rain 2 1006 64 10000 1 0 10:23 18.03.2021
1352 Snow 1 1006 75 10000 1 0 09:54 18.03.2021
1353 Snow 1 1006 75 10000 2 320 09:28 18.03.2021
1354 Snow 0 1006 80 9000 1 0 08:46 18.03.2021
1355 Snow 0 1006 80 9000 1 0 08:27 18.03.2021
1356 Snow 0 1006 86 8000 1 280 07:50 18.03.2021
1357 Snow -1 1006 86 8000 1 0 06:54 18.03.2021
1358 Snow -1 1006 93 6000 1 0 06:27 18.03.2021
1359 Snow -2 1006 93 8000 2 200 05:42 18.03.2021
1360 Snow -1 1008 93 6000 1.05 300 00:57 18.03.2021
1361 Snow -1 1008 93 7000 1 80 23:58 17.03.2021
1362 Snow -1 1009 93 8000 2 80 22:47 17.03.2021
1363 Snow -1 1009 93 8000 2 80 22:25 17.03.2021
1364 Snow -1 1009 93 9000 2 80 21:55 17.03.2021
1365 Snow -1 1009 93 9000 2 80 21:34 17.03.2021
1366 Snow -1 1009 86 9000 3 70 20:59 17.03.2021
1367 Snow -1 1009 86 10000 3 70 20:40 17.03.2021
1368 Snow -1 1009 86 10000 3 70 20:40 17.03.2021
1369 Snow -1 1009 86 10000 3 70 20:22 17.03.2021
1370 Snow -1 1010 86 10000 3 90 19:44 17.03.2021
1371 Snow -1 1010 86 10000 3 90 19:21 17.03.2021
1372 Snow -1 1010 86 10000 5 90 18:54 17.03.2021
1373 Snow -1 1010 74 10000 4 80 18:36 17.03.2021
1374 Snow 0 1010 74 10000 4 90 17:48 17.03.2021
1375 Snow 0 1010 74 10000 4 90 17:26 17.03.2021
1376 Snow 0 1010 69 10000 5 90 16:46 17.03.2021
1377 Snow 1 1010 69 10000 4 70 16:25 17.03.2021
1378 Snow 1 1010 69 10000 4 80 15:53 17.03.2021
1379 Snow 1 1010 64 10000 4 80 15:35 17.03.2021
1380 Snow 2 1010 60 10000 4 80 14:45 17.03.2021
1381 Snow 2 1010 60 10000 4 80 14:27 17.03.2021
1382 Clear 2 1010 64 10000 3 80 13:55 17.03.2021
1383 Clear 1 1010 64 10000 4 80 13:30 17.03.2021
1384 Clear 1 1011 69 10000 4 90 12:54 17.03.2021
1385 Clear 1 1011 64 10000 5 80 12:34 17.03.2021
1386 Clear 1 1011 64 10000 4 80 11:51 17.03.2021
1387 Clear 1 1011 64 10000 4 80 11:23 17.03.2021
1388 Clear 1 1011 69 10000 4 80 10:55 17.03.2021
1389 Clear 0 1012 74 10000 5 80 10:31 17.03.2021
1390 Clear 0 1012 74 10000 4 90 09:49 17.03.2021
1391 Clear 0 1012 80 10000 4 80 09:28 17.03.2021
1392 Clear 0 1012 80 10000 4 80 08:59 17.03.2021
1393 Clear -1 1012 80 10000 4 80 08:39 17.03.2021
1394 Clouds -1 1012 86 10000 4 80 07:55 17.03.2021
1395 Clouds -1 1012 86 10000 5 90 07:35 17.03.2021
1396 Clouds -1 1012 86 10000 5 80 06:47 17.03.2021
1397 Clouds 0 1013 86 9000 5 80 04:26 17.03.2021
1398 Clouds 0 1013 93 8000 4 80 03:25 17.03.2021
1399 Clouds 1 1014 93 9000 4 80 00:40 17.03.2021
1400 Clouds 1 1014 93 9000 3 70 23:40 16.03.2021
1401 Clouds 1 1014 93 9000 2 90 23:18 16.03.2021
1402 Clouds 1 1014 86 10000 1 0 22:43 16.03.2021
1403 Clouds 1 1014 86 10000 1 0 22:24 16.03.2021
1404 Clouds 1 1014 86 10000 2 150 21:40 16.03.2021
1405 Clouds 1 1014 86 10000 5 150 21:21 16.03.2021
1406 Clouds 1 1014 93 7000 3 140 20:46 16.03.2021
1407 Clouds 1 1014 93 7000 3 140 20:19 16.03.2021
1408 Mist 1 1014 93 4900 4 120 19:43 16.03.2021
1409 Mist 2 1014 93 3200 2 100 19:24 16.03.2021
1410 Clouds 2 1014 93 3500 3 110 18:50 16.03.2021
1411 Clouds 2 1014 93 3500 3 110 18:29 16.03.2021
1412 Mist 2 1015 93 3200 3 100 17:51 16.03.2021
1413 Mist 2 1015 93 3800 3 90 17:33 16.03.2021
1414 Snow 2 1014 93 4700 3 90 16:54 16.03.2021
1415 Snow 2 1014 93 4700 3 90 16:54 16.03.2021
1416 Snow 2 1014 93 4700 3 90 16:54 16.03.2021
1417 Snow 2 1014 93 4700 3 90 16:54 16.03.2021
1418 Snow 2 1014 93 4700 3 90 16:54 16.03.2021
1419 Snow 2 1014 93 4700 3 90 16:54 16.03.2021
1420 Snow 2 1014 93 7000 4 80 16:31 16.03.2021
1421 Snow 2 1014 93 6000 4 90 15:58 16.03.2021
1422 Snow 2 1014 93 9000 5 90 15:37 16.03.2021
1423 Snow 2 1014 93 9000 5 90 15:19 16.03.2021
1424 Snow 2 1014 93 9000 5 90 15:19 16.03.2021
1425 Snow 2 1014 93 9000 4 90 14:41 16.03.2021
1426 Snow 2 1014 93 9000 4 90 14:22 16.03.2021
1427 Snow 2 1014 93 6000 4 80 13:58 16.03.2021
1428 Rain 1 1014 93 8000 5 70 13:29 16.03.2021
1429 Rain 1 1015 93 9000 5 70 12:56 16.03.2021
1430 Rain 2 1015 87 9000 4 90 12:37 16.03.2021
1431 Rain 2 1015 87 9000 4 70 11:56 16.03.2021
1432 Rain 2 1015 87 4400 3 70 11:34 16.03.2021
1433 Mist 2 1015 87 4800 4 70 10:50 16.03.2021
1434 Rain 2 1015 87 4300 3 90 10:21 16.03.2021
1435 Mist 2 1014 87 4400 1 0 09:40 16.03.2021
1436 Rain 2 1014 87 4400 1 0 09:21 16.03.2021
1437 Rain 2 1014 87 3900 1 0 08:56 16.03.2021
1438 Rain 1 1014 93 3900 1 0 08:37 16.03.2021
1439 Snow 2 1014 93 4000 1.27 63 07:55 16.03.2021
1440 Snow 1 1014 93 3500 2 190 07:29 16.03.2021
1441 Snow 1 1014 93 2700 1 220 06:38 16.03.2021
1442 Snow 1 1013 93 4100 1 0 05:37 16.03.2021
1443 Snow 1 1013 93 5000 1 0 04:28 16.03.2021
1444 Snow 1 1012 93 6000 2 210 02:29 16.03.2021
1445 Snow 2 1012 87 7000 3 180 01:23 16.03.2021
1446 Clouds 2 1012 87 7000 3 190 23:54 15.03.2021
1447 Clouds 2 1012 87 8000 4 200 23:28 15.03.2021
1448 Clouds 2 1012 87 8000 4 200 22:49 15.03.2021
1449 Clouds 2 1012 87 8000 4 200 22:29 15.03.2021
1450 Clouds 2 1011 87 9000 5 180 21:53 15.03.2021
1451 Clouds 2 1011 87 10000 5 190 21:33 15.03.2021
1452 Clouds 2 1011 87 9000 5 190 20:57 15.03.2021
1453 Clouds 2 1010 93 9000 5 190 20:38 15.03.2021
1454 Clouds 2 1010 93 9000 5 190 20:38 15.03.2021
1455 Clouds 2 1010 93 9000 5 190 20:20 15.03.2021
1456 Clouds 2 1010 93 9000 5 200 19:49 15.03.2021
1457 Clouds 2 1010 93 9000 5 200 19:30 15.03.2021
1458 Clouds 2 1009 93 10000 4 200 18:49 15.03.2021
1459 Clouds 2 1009 93 10000 4 200 18:26 15.03.2021
1460 Clear 3 1009 93 10000 5 200 17:55 15.03.2021
1461 Clouds 2 1009 93 10000 5 200 17:30 15.03.2021
1462 Clouds 3 1008 87 10000 5 200 16:50 15.03.2021
1463 Clouds 3 1008 87 10000 5 190 16:32 15.03.2021
1464 Clouds 3 1007 87 9000 5 190 15:45 15.03.2021
1465 Rain 3 1007 87 9000 5 190 15:26 15.03.2021
1466 Clouds 2 1007 93 9000 5 190 14:44 15.03.2021
1467 Clouds 2 1007 93 9000 5 200 14:23 15.03.2021
1468 Clouds 2 1007 93 9000 5 200 13:47 15.03.2021
1469 Clouds 2 1006 93 10000 5 180 13:25 15.03.2021
1470 Clouds 2 1006 93 9000 6 180 12:49 15.03.2021
1471 Clouds 2 1006 93 9000 6 190 12:20 15.03.2021
1472 Rain 2 1006 93 9000 6 190 11:52 15.03.2021
1473 Rain 2 1006 87 9000 6 180 11:33 15.03.2021
1474 Clouds 2 1006 93 9000 5 170 10:55 15.03.2021
1475 Snow 2 1006 93 8000 5 180 10:31 15.03.2021
1476 Snow 2 1006 93 8000 5 180 09:53 15.03.2021
1477 Snow 1 1006 93 6000 5 170 09:35 15.03.2021
1478 Snow 1 1006 93 4700 5 170 08:59 15.03.2021
1479 Snow 2 1005 87 5000 6 170 08:40 15.03.2021
1480 Rain 2 1005 93 9000 6 180 07:56 15.03.2021
1481 Rain 2 1005 93 9000 7 170 07:32 15.03.2021
1482 Rain 3 1005 93 7000 6 170 06:44 15.03.2021
1483 Rain 3 1005 93 9000 6 160 05:34 15.03.2021
1484 Rain 3 1005 81 10000 7 180 01:47 15.03.2021
1485 Rain 3 1006 87 9000 4 190 00:21 15.03.2021
1486 Rain 3 1006 93 9000 5 190 23:21 14.03.2021
1487 Rain 3 1006 87 10000 5 190 22:48 14.03.2021
1488 Rain 3 1006 87 10000 6 190 22:23 14.03.2021
1489 Rain 3 1006 87 10000 6 190 21:50 14.03.2021
1490 Rain 2 1006 87 10000 6 190 21:21 14.03.2021
1491 Clouds 2 1006 93 10000 6 190 20:50 14.03.2021
1492 Clouds 2 1006 93 10000 6 190 20:27 14.03.2021
1493 Clouds 2 1006 93 9000 5 200 19:50 14.03.2021
1494 Rain 2 1005 93 8000 7 190 19:27 14.03.2021
1495 Clouds 2 1005 93 7000 6 190 18:58 14.03.2021
1496 Clouds 2 1006 93 6000 5 180 18:31 14.03.2021
1497 Rain 2 1005 93 5000 4 170 17:42 14.03.2021
1498 Rain 3 1005 93 6000 5 160 17:23 14.03.2021
1499 Rain 2 1005 93 6000 5 160 16:52 14.03.2021
1500 Rain 2 1005 87 6000 5 160 16:33 14.03.2021
1501 Snow 2 1005 87 6000 4 150 15:57 14.03.2021
1502 Snow 2 1006 93 6000 5 160 15:39 14.03.2021
1503 Snow 2 1006 93 6000 5 160 14:45 14.03.2021
1504 Snow 2 1006 93 7000 5 140 14:26 14.03.2021
1505 Snow 2 1006 93 6000 4 140 13:50 14.03.2021
1506 Snow 1 1007 93 2300 4 160 13:31 14.03.2021
1507 Snow 1 1007 86 7000 6 160 12:48 14.03.2021
1508 Snow 1 1007 86 7000 6 160 12:29 14.03.2021
1509 Snow 2 1007 86 9000 5 160 11:59 14.03.2021
1510 Snow 1 1007 86 9000 5 160 11:37 14.03.2021
1511 Snow 1 1007 86 9000 5 160 10:59 14.03.2021
1512 Snow 1 1007 86 9000 5 150 10:38 14.03.2021
1513 Snow 1 1007 86 9000 5 150 10:38 14.03.2021
1514 Snow 1 1007 86 9000 5 150 10:19 14.03.2021
1515 Clouds 1 1007 93 8000 5 160 09:55 14.03.2021
1516 Clouds 0 1007 86 8000 5 160 09:36 14.03.2021
1517 Clouds 0 1007 86 8000 5 160 09:18 14.03.2021
1518 Clouds 0 1008 86 9000 5 170 08:36 14.03.2021
1519 Clouds 0 1008 86 9000 5 170 07:52 14.03.2021
1520 Clouds -1 1007 93 8000 5 170 07:22 14.03.2021
1521 Snow -1 1007 93 7000 5 150 05:33 14.03.2021
1522 Snow -2 1009 86 10000 4 170 00:59 14.03.2021
1523 Snow -2 1009 86 10000 4 180 00:20 14.03.2021
1524 Snow -2 1009 86 10000 4 180 00:20 14.03.2021
1525 Snow -2 1009 86 10000 4 180 23:57 13.03.2021
1526 Snow -2 1009 86 10000 5 180 23:36 13.03.2021
1527 Snow -2 1009 93 5000 4 180 22:58 13.03.2021
1528 Snow -2 1009 86 10000 4 180 22:40 13.03.2021
1529 Snow -2 1009 86 10000 5 180 21:50 13.03.2021
1530 Clouds -2 1009 80 10000 6 170 21:27 13.03.2021
1531 Clouds -2 1009 80 9000 5 180 20:55 13.03.2021
1532 Snow -2 1010 80 10000 5 180 20:32 13.03.2021
1533 Snow -2 1010 86 8000 6 180 19:56 13.03.2021
1534 Snow -2 1010 80 10000 5 180 19:36 13.03.2021
1535 Snow -2 1010 80 10000 6 170 19:18 13.03.2021
1536 Snow -2 1010 80 10000 6 170 19:18 13.03.2021
1537 Snow -2 1010 80 10000 6 170 18:40 13.03.2021
1538 Snow -2 1009 80 10000 5 170 18:19 13.03.2021
1539 Snow -2 1010 80 10000 5 170 17:44 13.03.2021
1540 Snow -2 1010 80 10000 5 170 17:25 13.03.2021
1541 Clouds -2 1009 74 10000 6 170 16:50 13.03.2021
1542 Clouds -2 1009 74 10000 6 170 16:29 13.03.2021
1543 Clouds -2 1009 80 10000 5 160 15:47 13.03.2021
1544 Clouds -2 1009 80 9000 5 170 14:54 13.03.2021
1545 Snow -2 1009 80 9000 6 170 14:36 13.03.2021
1546 Snow -3 1009 80 9000 5 160 13:55 13.03.2021
1547 Snow -3 1009 80 10000 7 160 13:25 13.03.2021
1548 Snow -3 1009 86 3100 6 160 12:48 13.03.2021
1549 Snow -3 1009 86 3100 6 160 12:28 13.03.2021
1550 Mist -3 1010 80 3500 6 160 11:51 13.03.2021
1551 Snow -3 1010 80 4500 6 170 11:31 13.03.2021
1552 Snow -4 1010 80 4100 5 170 10:51 13.03.2021
1553 Snow -4 1010 80 4100 5 170 10:30 13.03.2021
1554 Snow -4 1009 80 6000 6 160 09:56 13.03.2021
1555 Snow -4 1009 86 7000 6 170 09:24 13.03.2021
1556 Snow -5 1009 80 7000 6 170 08:44 13.03.2021
1557 Snow -5 1009 80 5000 7 170 08:20 13.03.2021
1558 Snow -5 1009 80 5000 7 170 07:56 13.03.2021
1559 Snow -6 1009 86 4800 6 170 07:20 13.03.2021
1560 Snow -6 1009 79 8000 6 170 03:33 13.03.2021
1561 Snow -6 1010 79 9000 7 170 01:21 13.03.2021
1562 Snow -6 1010 79 9000 7 170 01:21 13.03.2021
1563 Snow -7 1010 73 8000 8 170 00:23 13.03.2021
1564 Snow -7 1010 68 9000 8 170 23:33 12.03.2021
1565 Snow -7 1011 68 9000 6 170 22:56 12.03.2021
1566 Snow -7 1011 68 9000 6 170 22:29 12.03.2021
1567 Snow -7 1012 73 10000 7 170 21:56 12.03.2021
1568 Snow -7 1012 73 10000 7 170 21:37 12.03.2021
1569 Snow -8 1012 73 10000 8 170 21:18 12.03.2021
1570 Snow -8 1012 67 10000 7 160 20:46 12.03.2021
1571 Snow -8 1012 62 10000 7 170 20:21 12.03.2021
1572 Snow -8 1012 62 10000 7 170 19:44 12.03.2021
1573 Snow -8 1012 57 10000 7 170 19:25 12.03.2021
1574 Snow -8 1012 53 10000 9 170 18:43 12.03.2021
1575 Snow -8 1012 53 10000 9 160 18:24 12.03.2021
1576 Snow -8 1013 42 10000 8 160 17:43 12.03.2021
1577 Snow -8 1013 38 10000 8 160 17:24 12.03.2021
1578 Snow -7 1013 38 10000 8 160 16:44 12.03.2021
1579 Snow -7 1013 35 10000 8 160 16:23 12.03.2021
1580 Snow -7 1013 35 10000 8 160 15:38 12.03.2021
1581 Snow -6 1014 33 10000 7 150 14:53 12.03.2021
1582 Snow -6 1014 33 10000 8 160 14:22 12.03.2021
1583 Snow -6 1014 33 10000 7 160 13:58 12.03.2021
1584 Snow -5 1014 33 10000 7 160 13:58 12.03.2021
1585 Snow -5 1015 36 10000 8 150 13:37 12.03.2021
1586 Snow -5 1015 46 10000 7 150 13:18 12.03.2021
1587 Snow -6 1016 46 10000 8 160 12:48 12.03.2021
1588 Clear -6 1016 46 10000 8 160 12:27 12.03.2021
1589 Clear -5 1016 46 10000 7 160 11:54 12.03.2021
1590 Snow -7 1016 49 10000 8 160 11:24 12.03.2021
1591 Clear -7 1017 53 10000 7 160 10:57 12.03.2021
1592 Clear -7 1017 57 10000 7 170 10:28 12.03.2021
1593 Clear -7 1017 57 10000 7 170 10:28 12.03.2021
1594 Clear -8 1018 57 10000 7 160 09:57 12.03.2021
1595 Clear -9 1018 62 10000 5 160 09:27 12.03.2021
1596 Clear -11 1018 57 10000 5 170 08:50 12.03.2021
1597 Clear -11 1018 57 10000 5 170 08:30 12.03.2021
1598 Clear -13 1019 56 10000 5 160 07:41 12.03.2021
1599 Clear -15 1019 56 10000 4 160 06:59 12.03.2021
1600 Clear -15 1019 61 10000 4 150 06:39 12.03.2021
1601 Clear -16 1020 47 10000 4 160 03:28 12.03.2021
1602 Clear -15 1022 40 10000 3 190 00:52 12.03.2021
1603 Clear -14 1022 44 10000 4 190 23:40 11.03.2021
1604 Clear -13 1023 48 10000 3 190 22:58 11.03.2021
1605 Clear -13 1023 44 10000 4 190 22:36 11.03.2021
1606 Clear -13 1023 48 10000 3 180 21:59 11.03.2021
1607 Clear -13 1023 44 10000 3 190 21:41 11.03.2021
1608 Clear -13 1023 44 10000 3 190 21:20 11.03.2021
1609 Clear -12 1024 48 10000 3 190 20:48 11.03.2021
1610 Clear -12 1024 48 10000 3 190 20:21 11.03.2021
1611 Clear -11 1024 44 10000 3 200 19:47 11.03.2021
1612 Clear -11 1024 44 10000 3 200 19:28 11.03.2021
1613 Clear -11 1024 44 10000 3 200 18:49 11.03.2021
1614 Clear -11 1024 44 10000 3 200 18:31 11.03.2021
1615 Clear -10 1024 41 10000 3 200 17:45 11.03.2021
1616 Clear -9 1024 38 10000 2 200 17:27 11.03.2021
1617 Clear -9 1025 41 10000 4 250 16:31 11.03.2021
1618 Clear -8 1025 38 10000 3 240 15:49 11.03.2021
1619 Clear -8 1026 35 10000 4 230 15:26 11.03.2021
1620 Clear -7 1026 35 10000 3 230 14:57 11.03.2021
1621 Clear -7 1026 35 10000 4 220 14:37 11.03.2021
1622 Clear -7 1026 41 10000 3 230 14:18 11.03.2021
1623 Clear -7 1027 38 10000 3 250 13:42 11.03.2021
1624 Clear -7 1027 38 10000 3 250 13:20 11.03.2021
1625 Clear -8 1027 38 10000 3 250 12:44 11.03.2021
1626 Clear -8 1027 38 10000 3 250 12:26 11.03.2021
1627 Clear -8 1028 35 10000 2 240 11:45 11.03.2021
1628 Clear -8 1028 35 10000 2 240 11:27 11.03.2021
1629 Clear -8 1028 41 10000 3 280 10:48 11.03.2021
1630 Clear -9 1028 41 10000 3 280 10:22 11.03.2021
1631 Clear -12 1028 48 10000 3 240 09:45 11.03.2021
1632 Clear -12 1028 48 10000 3 240 09:25 11.03.2021
1633 Clear -13 1028 51 10000 3 230 08:48 11.03.2021
1634 Clear -15 1029 55 10000 3 230 08:23 11.03.2021
1635 Clear -17 1028 55 10000 2 230 07:44 11.03.2021
1636 Clear -21 1028 71 10000 3 230 06:51 11.03.2021
1637 Clear -21 1028 71 10000 3 230 06:32 11.03.2021
1638 Clear -21 1028 71 10000 2 260 05:45 11.03.2021
1639 Clear -20 1027 71 10000 2 250 01:39 11.03.2021
1640 Clear -19 1027 60 10000 2 250 23:53 10.03.2021
1641 Clear -19 1027 65 10000 3 240 23:22 10.03.2021
1642 Clear -18 1027 60 10000 2 300 22:39 10.03.2021
1643 Clear -17 1027 60 10000 2 290 21:57 10.03.2021
1644 Clear -17 1027 55 10000 1 310 21:38 10.03.2021
1645 Clear -17 1027 55 10000 1 310 21:20 10.03.2021
1646 Clear -17 1027 60 10000 3 290 20:42 10.03.2021
1647 Clear -17 1027 60 10000 3 290 20:21 10.03.2021
1648 Clear -16 1027 55 10000 2 300 19:40 10.03.2021
1649 Clear -16 1027 55 10000 2 300 19:21 10.03.2021
1650 Clear -14 1026 47 10000 3 300 18:42 10.03.2021
1651 Clear -14 1026 47 10000 3 300 18:23 10.03.2021
1652 Clear -14 1026 43 10000 2 270 17:42 10.03.2021
1653 Clear -14 1026 43 10000 2 330 17:21 10.03.2021
1654 Clear -13 1026 40 10000 2 330 16:55 10.03.2021
1655 Clear -13 1026 40 10000 3 340 16:37 10.03.2021
1656 Clear -13 1026 40 10000 3 340 16:18 10.03.2021
1657 Clear -13 1026 40 10000 5 340 15:39 10.03.2021
1658 Clear -13 1026 40 10000 4 340 15:21 10.03.2021
1659 Clear -13 1026 40 10000 4 340 15:21 10.03.2021
1660 Clear -13 1026 40 10000 5 340 14:40 10.03.2021
1661 Clear -13 1026 40 10000 5 340 14:19 10.03.2021
1662 Clear -13 1025 43 10000 4 340 13:43 10.03.2021
1663 Clear -13 1025 43 10000 4 340 13:18 10.03.2021
1664 Clear -14 1025 47 10000 4 340 12:41 10.03.2021
1665 Clear -14 1025 47 10000 4 360 11:59 10.03.2021
1666 Clear -14 1025 51 10000 4 330 11:31 10.03.2021
1667 Clear -15 1025 55 10000 4 320 10:57 10.03.2021
1668 Clear -16 1025 60 10000 4 350 10:34 10.03.2021
1669 Clear -17 1025 60 10000 4 340 09:59 10.03.2021
1670 Clear -17 1025 60 10000 3 340 09:41 10.03.2021
1671 Clear -17 1025 60 10000 3 340 09:21 10.03.2021
1672 Clear -18 1025 71 10000 3 320 08:46 10.03.2021
1673 Clear -18 1025 71 10000 3 320 08:28 10.03.2021
1674 Clear -19 1024 71 10000 4 350 07:55 10.03.2021
1675 Clear -20 1024 77 10000 5 350 07:29 10.03.2021
1676 Clear -21 1024 77 10000 4 340 06:54 10.03.2021
1677 Clear -21 1023 77 10000 5 350 06:23 10.03.2021
1678 Clear -20 1021 77 10000 3 310 02:26 10.03.2021
1679 Clear -18 1020 71 10000 2 330 23:49 09.03.2021
1680 Clear -17 1020 71 10000 2 350 23:19 09.03.2021
1681 Clear -16 1020 66 10000 3 350 22:39 09.03.2021
1682 Clear -16 1019 71 10000 2 320 22:18 09.03.2021
1683 Clear -16 1019 71 10000 2 320 21:45 09.03.2021
1684 Clear -16 1019 71 10000 2 330 21:24 09.03.2021
1685 Clear -15 1019 66 10000 2 360 20:58 09.03.2021
1686 Clear -15 1019 66 10000 3 340 20:39 09.03.2021
1687 Clear -15 1019 66 10000 3 340 20:20 09.03.2021
1688 Clear -14 1018 66 10000 3 330 19:46 09.03.2021
1689 Clear -14 1018 66 10000 3 330 19:26 09.03.2021
1690 Clear -13 1018 61 10000 4 330 18:48 09.03.2021
1691 Clear -13 1018 61 10000 4 330 18:25 09.03.2021
1692 Clear -13 1017 61 10000 3 330 17:51 09.03.2021
1693 Clear -12 1017 56 10000 4 330 17:30 09.03.2021
1694 Clear -12 1017 61 10000 4 330 16:55 09.03.2021
1695 Clouds -12 1016 66 10000 4 330 16:36 09.03.2021
1696 Clouds -12 1016 66 10000 4 330 16:18 09.03.2021
1697 Clouds -11 1016 61 10000 6 330 15:40 09.03.2021
1698 Clouds -11 1016 61 10000 6 330 15:20 09.03.2021
1699 Clouds -10 1015 61 10000 6 320 14:28 09.03.2021
1700 Snow -10 1015 57 10000 5 300 13:57 09.03.2021
1701 Clouds -10 1015 62 10000 4 310 13:36 09.03.2021
1702 Clouds -10 1015 67 10000 5 320 13:18 09.03.2021
1703 Clouds -10 1014 67 10000 5 320 12:39 09.03.2021
1704 Clouds -10 1014 67 10000 5 320 12:18 09.03.2021
1705 Clouds -11 1014 61 10000 5 320 11:41 09.03.2021
1706 Clouds -11 1014 61 10000 5 320 11:21 09.03.2021
1707 Clouds -11 1014 61 10000 6 330 10:54 09.03.2021
1708 Clouds -12 1014 61 10000 6 330 10:36 09.03.2021
1709 Clouds -12 1014 61 10000 6 330 10:18 09.03.2021
1710 Clouds -12 1013 66 10000 6 330 09:41 09.03.2021
1711 Clouds -12 1013 66 10000 6 330 09:22 09.03.2021
1712 Clear -13 1013 72 10000 3 320 08:36 09.03.2021
1713 Clear -14 1013 78 10000 4 330 07:52 09.03.2021
1714 Clear -14 1012 72 10000 4 330 07:31 09.03.2021
1715 Clear -15 1012 78 10000 4 320 06:59 09.03.2021
1716 Clear -16 1011 78 10000 4 310 05:54 09.03.2021
1717 Clouds -16 1011 85 10000 3 310 05:34 09.03.2021
1718 Clear -12 1009 78 10000 2 310 00:21 09.03.2021
1719 Clear -10 1009 73 10000 3 310 23:42 08.03.2021
1720 Clear -10 1009 73 10000 3 310 23:23 08.03.2021
1721 Clear -10 1008 79 10000 3 310 22:44 08.03.2021
1722 Clouds -10 1008 85 10000 3 310 22:26 08.03.2021
1723 Clouds -9 1008 79 10000 3 310 21:54 08.03.2021
1724 Clouds -9 1008 79 10000 4 320 21:35 08.03.2021
1725 Snow -9 1007 79 10000 3 310 20:45 08.03.2021
1726 Snow -9 1007 79 10000 3 310 20:25 08.03.2021
1727 Snow -9 1007 79 9000 2 310 19:59 08.03.2021
1728 Snow -9 1007 79 10000 3 310 19:28 08.03.2021
1729 Clouds -8 1006 73 10000 4 310 18:42 08.03.2021
1730 Clouds -8 1005 73 10000 4 310 18:20 08.03.2021
1731 Clouds -8 1005 73 10000 4 310 17:51 08.03.2021
1732 Clouds -7 1005 73 10000 4 310 17:26 08.03.2021
1733 Snow -7 1004 79 9000 4 300 16:48 08.03.2021
1734 Snow -7 1004 79 9000 4 300 16:29 08.03.2021
1735 Snow -6 1004 73 7000 5 290 15:51 08.03.2021
1736 Clouds -6 1003 73 10000 5 290 15:29 08.03.2021
1737 Snow -6 1003 63 9000 6 300 14:49 08.03.2021
1738 Snow -5 1002 73 10000 7 290 14:20 08.03.2021
1739 Snow -5 1001 68 9000 7 300 13:43 08.03.2021
1740 Snow -5 1001 68 9000 7 300 13:20 08.03.2021
1741 Snow -5 1000 63 10000 6 290 12:46 08.03.2021
1742 Snow -5 1000 63 10000 6 290 12:27 08.03.2021
1743 Snow -5 999 73 9000 6 310 11:44 08.03.2021
1744 Snow -5 999 73 9000 6 310 11:19 08.03.2021
1745 Snow -5 999 73 10000 7 290 10:44 08.03.2021
1746 Snow -5 998 68 10000 6 300 10:26 08.03.2021
1747 Snow -5 997 73 10000 5 300 09:42 08.03.2021
1748 Snow -5 997 73 9000 6 290 09:23 08.03.2021
1749 Snow -6 996 79 5000 6 300 08:29 08.03.2021
1750 Snow -7 995 86 8000 5 290 07:41 08.03.2021
1751 Snow -6 994 86 3800 2 290 07:20 08.03.2021
1752 Clear -7 993 79 10000 6 230 04:28 08.03.2021
1753 Snow -7 993 86 10000 5 220 00:45 08.03.2021
1754 Snow -7 993 86 9000 4 220 00:20 08.03.2021
1755 Clouds -8 993 79 10000 4 250 23:41 07.03.2021
1756 Clouds -8 993 79 10000 4 250 23:20 07.03.2021
1757 Clouds -6 993 79 10000 8 270 22:44 07.03.2021
1758 Clouds -6 993 79 10000 8 270 22:44 07.03.2021
1759 Clouds -6 993 79 10000 8 270 22:26 07.03.2021
1760 Clouds -6 992 80 10000 8 270 21:46 07.03.2021
1761 Clouds -6 992 80 10000 8 270 21:26 07.03.2021
1762 Snow -5 992 80 9000 7 270 20:49 07.03.2021
1763 Snow -6 991 93 350 7 260 20:31 07.03.2021
1764 Snow -6 991 93 650 6 230 19:58 07.03.2021
1765 Snow -6 991 93 9000 5 230 19:39 07.03.2021
1766 Snow -6 991 93 9000 5 230 19:20 07.03.2021
1767 Snow -6 991 93 550 6 240 18:47 07.03.2021
1768 Clear -5 991 74 10000 5 220 18:20 07.03.2021
1769 Clear -5 991 74 10000 5 220 17:44 07.03.2021
1770 Clear -5 991 74 10000 4 220 17:21 07.03.2021
1771 Clear -5 991 74 10000 4 220 16:59 07.03.2021
1772 Clear -5 991 74 10000 5 240 16:38 07.03.2021
1773 Clear -4 991 74 10000 5 240 16:19 07.03.2021
1774 Clear -4 991 74 10000 5 240 16:19 07.03.2021
1775 Clear -4 990 74 10000 5 240 15:45 07.03.2021
1776 Snow -3 990 68 10000 5 240 15:23 07.03.2021
1777 Snow -3 991 74 10000 6 260 14:39 07.03.2021
1778 Snow -3 991 74 10000 6 260 14:20 07.03.2021
1779 Snow -3 991 93 4700 6 280 13:41 07.03.2021
1780 Snow -3 991 93 4700 6 280 13:21 07.03.2021
1781 Snow -3 991 86 2000 8 220 12:47 07.03.2021
1782 Snow -3 991 86 2000 8 220 12:28 07.03.2021
1783 Snow -3 991 86 2300 8 220 11:49 07.03.2021
1784 Snow -3 991 80 2300 8 220 11:22 07.03.2021
1785 Snow -4 992 86 1200 7 210 10:44 07.03.2021
1786 Snow -4 992 86 1200 7 210 10:26 07.03.2021
1787 Snow -4 992 86 2000 8 210 09:44 07.03.2021
1788 Snow -4 992 86 2000 8 210 09:25 07.03.2021
1789 Snow -5 994 86 1500 7 200 08:46 07.03.2021
1790 Snow -5 994 86 1500 7 200 08:24 07.03.2021
1791 Snow -5 994 93 900 7 190 07:51 07.03.2021
1792 Snow -8 1002 86 8000 6 190 02:43 07.03.2021
1793 Clear -8 1005 67 10000 6 200 01:42 07.03.2021
1794 Clear -9 1007 79 10000 5 200 23:54 06.03.2021
1795 Clear -9 1008 79 10000 4 200 23:35 06.03.2021
1796 Clear -9 1009 79 10000 4 210 22:48 06.03.2021
1797 Clear -9 1009 79 10000 5 210 22:29 06.03.2021
1798 Clear -8 1010 79 10000 5 220 21:59 06.03.2021
1799 Clear -9 1010 73 10000 5 210 21:25 06.03.2021
1800 Clear -9 1011 79 10000 4 210 20:55 06.03.2021
1801 Clear -8 1011 73 10000 4 210 20:36 06.03.2021
1802 Clear -8 1012 73 10000 4 230 19:50 06.03.2021
1803 Clear -8 1012 73 10000 4 230 19:23 06.03.2021
1804 Clear -8 1012 73 10000 3 220 18:57 06.03.2021
1805 Clear -7 1012 73 10000 3 240 18:38 06.03.2021
1806 Clear -7 1012 73 10000 3 240 18:18 06.03.2021
1807 Clouds -7 1012 68 10000 4 270 17:45 06.03.2021
1808 Clouds -7 1012 68 10000 4 270 17:25 06.03.2021
1809 Clouds -6 1012 68 10000 3 260 16:52 06.03.2021
1810 Clouds -6 1012 68 10000 4 290 16:29 06.03.2021
1811 Clouds -5 1013 68 10000 3 280 15:54 06.03.2021
1812 Clouds -5 1013 63 10000 5 300 15:34 06.03.2021
1813 Clouds -4 1013 68 10000 5 330 14:54 06.03.2021
1814 Snow -4 1013 58 10000 3 320 14:30 06.03.2021
1815 Snow -4 1013 50 10000 4 280 13:44 06.03.2021
1816 Snow -4 1013 63 10000 4 290 13:23 06.03.2021
1817 Snow -4 1013 50 9000 6 280 12:46 06.03.2021
1818 Clouds -4 1013 54 10000 5 280 12:20 06.03.2021
1819 Clouds -4 1014 58 10000 6 290 11:58 06.03.2021
1820 Clouds -4 1014 58 10000 4 280 11:23 06.03.2021
1821 Clouds -4 1014 63 10000 5 300 10:54 06.03.2021
1822 Clouds -5 1014 68 10000 5 280 10:35 06.03.2021
1823 Clear -5 1014 73 10000 6 290 09:51 06.03.2021
1824 Clouds -6 1014 73 10000 6 280 09:21 06.03.2021
1825 Clouds -7 1014 68 10000 4 250 08:53 06.03.2021
1826 Clouds -8 1014 73 10000 4 250 08:29 06.03.2021
1827 Clear -9 1014 85 10000 3 230 07:43 06.03.2021
1828 Clear -10 1014 85 10000 3 230 07:21 06.03.2021
1829 Clear -12 1014 92 10000 2 260 05:40 06.03.2021
1830 Clear -11 1013 92 10000 2 280 03:36 06.03.2021
1831 Clear -10 1013 86 10000 3 300 01:32 06.03.2021
1832 Clear -9 1013 86 10000 2 300 00:45 06.03.2021
1833 Clear -8 1012 79 10000 3 310 23:41 05.03.2021
1834 Clear -8 1012 79 10000 3 310 23:19 05.03.2021
1835 Clear -8 1012 79 10000 3 310 22:43 05.03.2021
1836 Clear -8 1012 79 10000 3 310 22:20 05.03.2021
1837 Clear -7 1012 68 10000 3 300 21:43 05.03.2021
1838 Clear -7 1012 73 10000 3 300 21:23 05.03.2021
1839 Clear -7 1011 73 10000 3 310 20:47 05.03.2021
1840 Clear -7 1011 73 10000 3 310 20:24 05.03.2021
1841 Clear -6 1011 63 10000 4 290 19:48 05.03.2021
1842 Clear -6 1010 68 10000 4 250 19:22 05.03.2021
1843 Clear -6 1010 68 10000 3 250 18:45 05.03.2021
1844 Clear -5 1010 68 10000 3 250 18:26 05.03.2021
1845 Clear -5 1010 68 10000 3 250 18:26 05.03.2021
1846 Clear -5 1010 58 10000 3 290 17:51 05.03.2021
1847 Clear -5 1009 58 10000 4 290 17:33 05.03.2021
1848 Clouds -3 1009 63 10000 5 280 16:44 05.03.2021
1849 Snow -3 1009 63 10000 5 280 16:24 05.03.2021
1850 Clouds -3 1008 68 10000 4 280 15:55 05.03.2021
1851 Snow -3 1008 80 10000 4 230 15:27 05.03.2021
1852 Snow -3 1008 80 9000 4 260 14:52 05.03.2021
1853 Snow -2 1008 63 9000 6 330 14:34 05.03.2021
1854 Clouds -1 1007 54 10000 6 260 13:45 05.03.2021
1855 Clouds -1 1007 54 10000 6 260 13:21 05.03.2021
1856 Snow -2 1007 63 10000 7 290 12:46 05.03.2021
1857 Snow -2 1006 80 8000 5 320 11:40 05.03.2021
1858 Snow -2 1006 80 8000 5 320 11:40 05.03.2021
1859 Snow -2 1006 80 8000 5 320 11:21 05.03.2021
1860 Clouds -3 1006 86 10000 3 230 10:57 05.03.2021
1861 Snow -3 1006 93 9000 5 330 10:37 05.03.2021
1862 Clouds -2 1005 54 10000 6 260 10:19 05.03.2021
1863 Clouds -3 1005 54 10000 5 280 09:42 05.03.2021
1864 Clouds -3 1005 54 10000 5 280 09:23 05.03.2021
1865 Clear -4 1005 74 10000 5 280 08:39 05.03.2021
1866 Snow -4 1005 74 10000 5 280 08:20 05.03.2021
1867 Clear -5 1004 80 10000 5 270 07:35 05.03.2021
1868 Clear -6 1004 80 10000 4 260 06:44 05.03.2021
1869 Clear -7 1004 80 10000 5 270 06:26 05.03.2021
1870 Clouds -5 1001 80 10000 4 290 01:40 05.03.2021
1871 Clear -3 1001 74 10000 2 310 00:19 05.03.2021
1872 Clear -3 1000 74 10000 3 300 23:25 04.03.2021
1873 Clear -2 1000 68 10000 2 320 22:31 04.03.2021
1874 Snow -2 1000 68 10000 4 340 21:56 04.03.2021
1875 Clear -2 1000 64 10000 2 330 21:34 04.03.2021
1876 Snow -1 999 59 10000 3 330 20:59 04.03.2021
1877 Snow -1 999 64 10000 3 330 20:40 04.03.2021
1878 Snow -1 999 55 10000 4 320 20:21 04.03.2021
1879 Snow -1 999 55 10000 4 320 19:53 04.03.2021
1880 Snow -1 999 59 10000 3 330 19:26 04.03.2021
1881 Snow -1 999 59 10000 3 340 18:52 04.03.2021
1882 Snow -1 999 64 10000 3 340 18:30 04.03.2021
1883 Snow -1 999 59 10000 3 340 17:57 04.03.2021
1884 Snow -1 998 55 10000 4 320 17:39 04.03.2021
1885 Snow -1 998 55 10000 3 310 17:18 04.03.2021
1886 Snow 0 998 55 10000 3 300 16:42 04.03.2021
1887 Snow 0 998 55 10000 3 300 16:23 04.03.2021
1888 Snow 1 998 64 10000 3 310 15:45 04.03.2021
1889 Snow 1 998 55 10000 3 310 15:25 04.03.2021
1890 Snow 1 998 60 10000 3 330 14:42 04.03.2021
1891 Snow 1 998 60 10000 3 330 14:18 04.03.2021
1892 Snow 1 998 64 10000 4 330 13:40 04.03.2021
1893 Snow 1 998 64 10000 4 330 13:19 04.03.2021
1894 Snow 1 998 74 10000 5 330 12:42 04.03.2021
1895 Snow 1 998 74 10000 5 320 11:58 04.03.2021
1896 Snow 2 998 86 10000 5 330 11:40 04.03.2021
1897 Snow 2 998 86 9000 5 330 11:19 04.03.2021
1898 Snow 2 997 93 6000 4 310 10:37 04.03.2021
1899 Snow 2 997 87 9000 7 260 09:55 04.03.2021
1900 Snow 2 997 93 10000 8 250 09:28 04.03.2021
1901 Snow 1 997 93 10000 7 250 08:53 04.03.2021
1902 Rain 1 997 93 10000 7 250 08:28 04.03.2021
1903 Snow 1 997 93 9000 8 250 07:45 04.03.2021
1904 Snow 2 998 93 10000 9 250 06:48 04.03.2021
1905 Snow 2 998 93 9000 8 240 06:21 04.03.2021
1906 Snow 2 1000 80 10000 8 240 02:39 04.03.2021
1907 Clouds 2 1003 80 10000 7 240 00:31 04.03.2021
1908 Clear 1 1005 75 10000 7 240 22:39 03.03.2021
1909 Clear 1 1005 75 10000 7 240 22:21 03.03.2021
1910 Clear 1 1006 74 10000 7 240 21:41 03.03.2021
1911 Clear 1 1006 74 10000 7 240 21:23 03.03.2021
1912 Clear 1 1006 74 10000 6 250 20:55 03.03.2021
1913 Clear 0 1007 69 10000 6 250 20:36 03.03.2021
1914 Clear 0 1007 69 10000 6 250 20:36 03.03.2021
1915 Clear 0 1007 69 10000 6 250 20:36 03.03.2021
1916 Clear 1 1008 74 10000 7 250 19:54 03.03.2021
1917 Clear 1 1008 74 10000 7 250 19:36 03.03.2021
1918 Clear 1 1008 69 10000 7 250 19:18 03.03.2021
1919 Clear 1 1008 69 10000 7 250 19:18 03.03.2021
1920 Clear 2 1009 69 10000 7 240 18:40 03.03.2021
1921 Clear 2 1009 64 10000 6 250 17:59 03.03.2021
1922 Clear 2 1009 64 10000 7 250 17:36 03.03.2021
1923 Clear 2 1009 64 10000 7 250 17:18 03.03.2021
1924 Clouds 3 1010 64 10000 8 260 16:39 03.03.2021
1925 Clear 3 1010 60 10000 8 260 16:21 03.03.2021
1926 Clear 3 1010 60 10000 9 270 15:33 03.03.2021
1927 Clouds 3 1011 60 10000 7 260 14:52 03.03.2021
1928 Clouds 3 1011 60 10000 7 260 14:28 03.03.2021
1929 Clouds 3 1011 64 10000 9 250 13:52 03.03.2021
1930 Clouds 2 1012 64 10000 7 250 13:30 03.03.2021
1931 Clouds 2 1012 64 10000 8 260 12:44 03.03.2021
1932 Clouds 2 1012 64 10000 7 260 12:24 03.03.2021
1933 Clouds 2 1012 64 10000 7 260 11:46 03.03.2021
1934 Clouds 2 1013 64 10000 6 280 11:28 03.03.2021
1935 Clouds 2 1013 69 10000 7 270 10:47 03.03.2021
1936 Clouds 2 1013 69 10000 7 270 10:25 03.03.2021
1937 Clear 0 1013 69 10000 6 280 09:46 03.03.2021
1938 Clear 0 1013 69 10000 6 280 09:24 03.03.2021
1939 Clear -1 1014 69 10000 7 280 08:39 03.03.2021
1940 Clear -2 1014 69 10000 5 290 08:20 03.03.2021
1941 Clear -2 1014 69 10000 5 290 07:39 03.03.2021
1942 Clear -3 1013 64 10000 6 290 06:50 03.03.2021
1943 Clear -3 1013 63 10000 7 300 05:46 03.03.2021
1944 Clear -3 1013 68 10000 6 290 04:57 03.03.2021
1945 Clear -3 1013 68 10000 5 290 04:25 03.03.2021
1946 Clouds -1 1012 69 10000 5 310 01:46 03.03.2021
1947 Snow 0 1011 64 10000 7 330 23:56 02.03.2021
1948 Snow 0 1010 64 10000 7 340 23:22 02.03.2021
1949 Clouds 0 1010 60 10000 6 310 22:41 02.03.2021
1950 Clouds 1 1009 64 10000 6 310 22:18 02.03.2021
1951 Clear 0 1009 80 10000 5 290 21:40 02.03.2021
1952 Clear 1 1009 75 10000 6 290 21:21 02.03.2021
1953 Clear 1 1009 75 10000 6 290 20:46 02.03.2021
1954 Clear 1 1009 75 10000 6 290 20:22 02.03.2021
1955 Clear 1 1008 75 10000 7 300 19:53 02.03.2021
1956 Clear 1 1008 80 10000 6 290 19:33 02.03.2021
1957 Snow 1 1008 75 10000 7 290 18:58 02.03.2021
1958 Clear 2 1007 69 10000 5 280 18:40 02.03.2021
1959 Clear 2 1007 69 10000 5 280 18:21 02.03.2021
1960 Clear 2 1007 69 10000 7 290 17:49 02.03.2021
1961 Clouds 2 1007 69 10000 5 290 17:29 02.03.2021
1962 Clouds 3 1007 75 10000 5 340 16:54 02.03.2021
1963 Clouds 3 1006 56 10000 6 290 16:22 02.03.2021
1964 Clouds 4 1006 56 10000 9 290 15:49 02.03.2021
1965 Clouds 4 1006 56 10000 9 290 15:22 02.03.2021
1966 Clouds 4 1006 56 10000 9 300 14:23 02.03.2021
1967 Clear 4 1006 60 10000 7 290 13:49 02.03.2021
1968 Clear 4 1006 60 10000 7 290 13:31 02.03.2021
1969 Rain 4 1006 60 10000 7 290 12:55 02.03.2021
1970 Clouds 4 1006 60 10000 7 290 12:29 02.03.2021
1971 Rain 4 1006 56 10000 8 290 11:53 02.03.2021
1972 Clouds 4 1006 56 10000 8 310 11:32 02.03.2021
1973 Clouds 4 1006 60 10000 8 290 10:58 02.03.2021
1974 Clouds 3 1007 60 10000 8 290 10:32 02.03.2021
1975 Clouds 3 1007 75 10000 7 290 09:57 02.03.2021
1976 Clouds 3 1007 70 10000 7 290 09:39 02.03.2021
1977 Clouds 3 1007 70 10000 7 290 09:18 02.03.2021
1978 Clouds 3 1007 75 10000 6 290 08:38 02.03.2021
1979 Clouds 3 1007 75 10000 7 280 07:53 02.03.2021
1980 Clouds 3 1007 81 10000 7 270 07:26 02.03.2021
1981 Clouds 3 1007 81 10000 7 270 06:32 02.03.2021
1982 Clouds 3 1008 81 10000 7 270 05:44 02.03.2021
1983 Clouds 3 1008 81 10000 7 270 05:24 02.03.2021
1984 Clouds 3 1009 87 10000 7 240 01:44 02.03.2021
1985 Clouds 3 1009 87 10000 7 240 01:44 02.03.2021
1986 Clouds 3 1009 87 10000 6 240 01:25 02.03.2021
1987 Clouds 3 1011 87 10000 6 240 00:21 02.03.2021
1988 Clouds 3 1011 87 10000 7 230 23:22 01.03.2021
1989 Clouds 3 1012 87 10000 7 240 22:40 01.03.2021
1990 Clouds 3 1012 87 10000 8 240 22:21 01.03.2021
1991 Clouds 3 1012 87 10000 8 240 21:45 01.03.2021
1992 Rain 2 1012 87 10000 8 240 21:23 01.03.2021
1993 Clouds 2 1013 87 10000 8 250 20:47 01.03.2021
1994 Clouds 2 1013 87 10000 8 240 20:27 01.03.2021
1995 Clouds 2 1014 87 10000 7 240 19:53 01.03.2021
1996 Clouds 2 1014 87 10000 7 240 19:33 01.03.2021
1997 Clouds 2 1015 80 10000 8 240 18:45 01.03.2021
1998 Clouds 2 1015 80 10000 8 240 18:24 01.03.2021
1999 Clouds 2 1016 80 10000 9 230 17:52 01.03.2021
2000 Clouds 2 1016 80 10000 9 240 17:28 01.03.2021
2001 Clouds 2 1016 80 10000 9 240 16:59 01.03.2021
2002 Clouds 2 1016 75 10000 8 230 16:40 01.03.2021
2003 Clouds 2 1017 75 10000 9 230 16:22 01.03.2021
2004 Clouds 2 1018 80 10000 8 240 15:39 01.03.2021
2005 Clouds 2 1018 80 10000 7 240 15:18 01.03.2021
2006 Clouds 2 1019 75 10000 8 250 14:43 01.03.2021
2007 Clouds 2 1019 75 10000 8 250 14:25 01.03.2021
2008 Clouds 2 1019 75 10000 8 250 13:39 01.03.2021
2009 Clouds 2 1020 75 10000 9 240 13:20 01.03.2021
2010 Clouds 2 1020 75 10000 9 240 12:44 01.03.2021
2011 Clouds 2 1020 75 10000 9 240 12:25 01.03.2021
2012 Clouds 1 1021 75 10000 6 240 11:57 01.03.2021
2013 Clouds 1 1021 69 10000 5 240 11:32 01.03.2021
2014 Clouds 1 1021 69 10000 6 240 10:44 01.03.2021
2015 Clouds 1 1021 69 10000 5 230 10:22 01.03.2021
2016 Clouds 1 1021 69 10000 5 230 09:56 01.03.2021
2017 Clouds 1 1022 74 10000 3 240 09:38 01.03.2021
2018 Clouds 0 1022 74 10000 3 250 09:19 01.03.2021
2019 Clouds 0 1022 74 10000 4 260 08:41 01.03.2021
2020 Clouds -1 1022 80 10000 3 250 07:44 01.03.2021
2021 Clouds -1 1021 93 10000 4 270 06:51 01.03.2021
2022 Clouds -1 1021 93 10000 2 320 02:49 01.03.2021
2023 Snow -1 1020 93 10000 1 320 00:37 01.03.2021
2024 Snow -1 1019 93 10000 2 360 23:26 28.02.2021
2025 Snow -1 1019 93 10000 3 340 22:45 28.02.2021
2026 Snow 0 1019 86 10000 2 350 22:21 28.02.2021
2027 Snow -1 1019 93 10000 3 330 22:21 28.02.2021
2028 Snow -1 1018 93 10000 1 0 21:49 28.02.2021
2029 Snow -1 1018 93 10000 1 0 21:27 28.02.2021
2030 Snow 0 1018 86 10000 2 330 20:55 28.02.2021
2031 Snow 0 1018 86 10000 2 340 20:35 28.02.2021
2032 Snow 0 1017 93 10000 2 320 19:47 28.02.2021
2033 Snow 0 1017 93 10000 2 320 19:28 28.02.2021
2034 Snow 0 1017 93 10000 2 350 18:49 28.02.2021
2035 Snow 0 1016 86 10000 2 340 18:28 28.02.2021
2036 Snow 0 1016 86 9000 2 310 17:59 28.02.2021
2037 Snow 0 1016 86 10000 2 340 17:41 28.02.2021
2038 Snow 0 1016 86 10000 2 340 17:21 28.02.2021
2039 Clouds 1 1015 86 10000 2 320 16:50 28.02.2021
2040 Snow 1 1015 86 10000 2 320 16:30 28.02.2021
2041 Snow 0 1014 86 10000 1 0 15:52 28.02.2021
2042 Snow 1 1014 86 10000 1 0 15:29 28.02.2021
2043 Snow 1 1014 80 10000 2 350 14:58 28.02.2021
2044 Snow 1 1014 86 10000 2 340 14:39 28.02.2021
2045 Snow 1 1014 86 10000 2 340 14:39 28.02.2021
2046 Snow 1 1014 86 10000 2 340 14:20 28.02.2021
2047 Snow 1 1014 93 9000 3 350 13:41 28.02.2021
2048 Snow 1 1014 93 9000 3 350 13:41 28.02.2021
2049 Snow 1 1014 86 800 4 340 13:19 28.02.2021
2050 Snow 0 1014 86 800 4 340 12:55 28.02.2021
2051 Snow 1 1014 86 10000 1 0 12:36 28.02.2021
2052 Snow 1 1013 86 9000 1 0 12:18 28.02.2021
2053 Snow 1 1013 93 2000 2 80 11:42 28.02.2021
2054 Snow 1 1013 93 2000 2 80 11:22 28.02.2021
2055 Snow 1 1013 93 9000 4 10 10:49 28.02.2021
2056 Snow 1 1013 93 9000 4 10 10:26 28.02.2021
2057 Snow 1 1013 93 3700 3 310 09:42 28.02.2021
2058 Snow 1 1013 93 3700 3 310 09:42 28.02.2021
2059 Snow 1 1013 93 3700 3 310 09:24 28.02.2021
2060 Snow 0 1013 93 3500 3 240 08:47 28.02.2021
2061 Snow 0 1013 93 3500 3 240 08:29 28.02.2021
2062 Snow 0 1013 93 6000 2 220 07:52 28.02.2021
2063 Snow 0 1013 93 9000 1 0 07:30 28.02.2021
2064 Snow -1 1013 86 10000 2 300 06:29 28.02.2021
2065 Clouds -1 1013 86 10000 3 320 05:24 28.02.2021
2066 Snow 0 1013 80 10000 5 320 03:26 28.02.2021
2067 Snow 0 1013 86 10000 5 330 01:41 28.02.2021
2068 Snow 0 1013 86 10000 5 330 00:50 28.02.2021
2069 Snow 0 1013 86 10000 5 330 00:26 28.02.2021
2070 Snow 0 1013 86 10000 5 310 23:45 27.02.2021
2071 Snow 0 1012 86 10000 4 330 23:19 27.02.2021
2072 Snow 0 1012 86 10000 4 330 22:45 27.02.2021
2073 Snow 0 1012 80 10000 6 330 22:19 27.02.2021
2074 Clouds 0 1012 74 10000 7 320 21:46 27.02.2021
2075 Clouds 0 1012 74 10000 7 320 21:24 27.02.2021
2076 Snow 0 1012 80 10000 6 320 20:49 27.02.2021
2077 Snow 0 1012 80 10000 6 320 20:28 27.02.2021
2078 Snow 0 1012 86 10000 4 320 19:46 27.02.2021
2079 Snow 0 1011 93 10000 5 330 19:27 27.02.2021
2080 Snow 1 1011 80 10000 6 340 18:46 27.02.2021
2081 Snow 1 1011 80 10000 6 340 18:22 27.02.2021
2082 Snow 1 1011 80 10000 5 320 17:58 27.02.2021
2083 Snow 1 1010 86 10000 5 310 17:38 27.02.2021
2084 Snow 1 1010 86 10000 3 300 17:19 27.02.2021
2085 Snow 1 1010 86 10000 3 300 16:49 27.02.2021
2086 Snow 1 1010 86 10000 5 310 16:28 27.02.2021
2087 Snow 1 1010 86 10000 5 310 15:46 27.02.2021
2088 Snow 1 1009 80 10000 6 310 15:20 27.02.2021
2089 Snow 2 1009 75 10000 6 320 14:41 27.02.2021
2090 Snow 2 1009 75 10000 6 320 14:21 27.02.2021
2091 Clouds 2 1009 69 10000 5 330 13:46 27.02.2021
2092 Clear 1 1008 69 10000 6 340 13:21 27.02.2021
2093 Clear 1 1008 69 10000 7 340 12:45 27.02.2021
2094 Clear 1 1008 69 10000 7 340 12:25 27.02.2021
2095 Clear 1 1007 69 10000 6 340 11:52 27.02.2021
2096 Clouds 0 1007 69 10000 5 330 11:31 27.02.2021
2097 Clouds 0 1007 74 10000 6 320 10:53 27.02.2021
2098 Clouds 0 1007 74 10000 6 320 10:35 27.02.2021
2099 Clouds -1 1006 80 10000 6 330 09:54 27.02.2021
2100 Clouds -1 1006 80 10000 6 340 09:33 27.02.2021
2101 Snow 0 1005 80 10000 8 340 08:44 27.02.2021
2102 Snow 0 1005 80 10000 8 340 08:24 27.02.2021
2103 Snow 0 1005 80 10000 7 340 07:58 27.02.2021
2104 Snow 0 1004 86 9000 7 340 07:25 27.02.2021
2105 Rain 3 999 87 9000 10 270 01:30 27.02.2021
2106 Rain 3 999 87 10000 10 270 00:32 27.02.2021
2107 Rain 3 999 87 10000 9 270 23:41 26.02.2021
2108 Clouds 3 999 87 10000 9 270 23:23 26.02.2021
2109 Rain 3 999 81 10000 9 270 22:38 26.02.2021
2110 Rain 3 999 81 10000 9 270 22:19 26.02.2021
2111 Rain 4 1000 81 10000 10 270 21:36 26.02.2021
2112 Rain 4 1000 81 10000 9 270 20:56 26.02.2021
2113 Clouds 4 1000 70 10000 9 270 20:37 26.02.2021
2114 Rain 4 1000 70 10000 9 270 20:19 26.02.2021
2115 Clouds 4 1000 70 10000 9 270 19:27 26.02.2021
2116 Clouds 4 1000 70 10000 9 270 18:57 26.02.2021
2117 Clouds 4 1000 75 10000 11 270 18:38 26.02.2021
2118 Rain 4 1000 75 10000 11 270 18:19 26.02.2021
2119 Rain 4 1000 75 10000 11 260 17:38 26.02.2021
2120 Rain 4 1000 75 10000 9 260 17:19 26.02.2021
2121 Clouds 4 1000 75 10000 9 260 16:48 26.02.2021
2122 Clouds 5 1000 70 10000 8 270 16:30 26.02.2021
2123 Clouds 5 1000 70 10000 9 270 15:48 26.02.2021
2124 Clouds 5 1000 70 10000 9 270 15:29 26.02.2021
2125 Rain 5 1000 81 10000 9 270 14:59 26.02.2021
2126 Clouds 5 1000 81 10000 6 260 14:37 26.02.2021
2127 Clouds 5 1000 81 10000 6 260 14:18 26.02.2021
2128 Clouds 5 1000 93 10000 9 250 13:39 26.02.2021
2129 Clouds 5 1000 93 10000 9 250 13:20 26.02.2021
2130 Rain 5 1000 87 10000 8 250 12:33 26.02.2021
2131 Drizzle 5 1000 93 10000 9 250 11:49 26.02.2021
2132 Clouds 5 1001 93 9000 9 250 11:28 26.02.2021
2133 Rain 5 1001 93 4700 7 250 10:45 26.02.2021
2134 Mist 5 1002 93 4600 7 240 09:49 26.02.2021
2135 Mist 5 1002 93 4600 7 240 09:29 26.02.2021
2136 Mist 5 1002 100 4200 7 240 08:51 26.02.2021
2137 Mist 5 1003 100 4400 7 230 08:19 26.02.2021
2138 Mist 4 1004 93 3600 7 230 07:41 26.02.2021
2139 Mist 4 1005 100 2500 6 240 06:36 26.02.2021
2140 Mist 4 1006 100 4800 6 240 05:26 26.02.2021
2141 Drizzle 4 1008 100 5000 6 230 03:28 26.02.2021
2142 Rain 3 1009 100 1900 4 230 01:37 26.02.2021
2143 Rain 3 1011 100 1100 3 220 23:49 25.02.2021
2144 Rain 3 1011 100 350 4 240 23:28 25.02.2021
2145 Rain 3 1011 93 300 4 240 22:49 25.02.2021
2146 Mist 3 1011 100 2100 5 240 21:59 25.02.2021
2147 Rain 2 1012 100 1500 5 240 21:38 25.02.2021
2148 Fog 2 1012 100 1500 5 240 21:19 25.02.2021
2149 Fog 2 1012 100 1500 5 240 21:19 25.02.2021
2150 Rain 2 1012 100 1000 4 240 20:40 25.02.2021
2151 Mist 2 1012 100 1800 5 250 20:22 25.02.2021
2152 Mist 2 1012 100 1800 5 250 19:51 25.02.2021
2153 Mist 2 1012 100 3700 5 240 19:22 25.02.2021
2154 Drizzle 2 1012 93 3500 4 250 18:57 25.02.2021
2155 Mist 2 1012 93 5000 4 250 18:24 25.02.2021
2156 Clouds 2 1012 93 6000 4 240 17:47 25.02.2021
2157 Clouds 2 1012 100 6000 4 250 17:25 25.02.2021
2158 Rain 3 1012 93 5000 4 260 16:43 25.02.2021
2159 Rain 3 1012 93 5000 4 260 16:25 25.02.2021
2160 Rain 3 1012 93 8000 5 270 15:30 25.02.2021
2161 Rain 2 1012 93 7000 5 270 14:57 25.02.2021
2162 Rain 2 1012 93 5000 5 280 14:22 25.02.2021
2163 Rain 2 1012 93 6000 5 280 13:53 25.02.2021
2164 Mist 2 1012 93 5000 5 270 13:26 25.02.2021
2165 Rain 2 1012 93 5000 5 270 12:53 25.02.2021
2166 Snow 2 1011 100 4800 5 250 12:21 25.02.2021
2167 Mist 2 1011 100 4800 5 250 11:47 25.02.2021
2168 Mist 1 1011 93 5000 5 250 11:20 25.02.2021
2169 Mist 1 1011 100 3700 6 250 10:45 25.02.2021
2170 Mist 0 1011 93 3700 7 250 10:26 25.02.2021
2171 Mist -1 1012 93 4700 7 250 09:43 25.02.2021
2172 Mist -2 1011 100 4600 7 250 08:56 25.02.2021
2173 Rain -3 1011 93 4000 7 250 08:25 25.02.2021
2174 Drizzle -4 1011 93 3300 6 240 07:56 25.02.2021
2175 Drizzle -4 1011 93 3200 6 240 07:34 25.02.2021
2176 Rain -5 1012 93 10000 5 230 06:55 25.02.2021
2177 Snow -11 1016 85 2100 4 200 02:59 25.02.2021
2178 Snow -12 1019 85 2500 5 200 01:38 25.02.2021
2179 Snow -12 1020 85 4200 5 190 00:42 25.02.2021
2180 Snow -12 1020 85 4200 5 190 00:42 25.02.2021
2181 Snow -13 1021 85 1900 5 200 23:53 24.02.2021
2182 Snow -13 1022 79 2500 4 200 23:28 24.02.2021
2183 Snow -13 1023 85 1900 5 200 22:45 24.02.2021
2184 Snow -13 1024 85 3200 4 200 22:26 24.02.2021
2185 Snow -13 1024 85 3200 4 200 21:46 24.02.2021
2186 Snow -13 1024 85 3200 4 200 21:19 24.02.2021
2187 Snow -13 1025 85 6000 5 200 20:41 24.02.2021
2188 Snow -13 1025 85 6000 5 200 20:22 24.02.2021
2189 Snow -13 1026 78 10000 5 190 19:36 24.02.2021
2190 Snow -13 1026 78 10000 5 200 19:18 24.02.2021
2191 Snow -13 1027 78 10000 5 190 18:42 24.02.2021
2192 Snow -13 1027 78 10000 5 190 18:22 24.02.2021
2193 Snow -13 1027 78 10000 4 180 17:39 24.02.2021
2194 Snow -13 1027 78 10000 4 180 17:20 24.02.2021
2195 Snow -13 1028 78 8000 5 180 16:45 24.02.2021
2196 Snow -13 1028 78 8000 5 180 16:20 24.02.2021
2197 Snow -13 1029 78 9000 5 190 15:47 24.02.2021
2198 Snow -13 1029 78 8000 4 190 15:25 24.02.2021
2199 Snow -13 1029 78 7000 6 170 14:43 24.02.2021
2200 Snow -13 1029 78 7000 6 170 14:25 24.02.2021
2201 Snow -13 1030 78 7000 4 180 13:41 24.02.2021
2202 Snow -13 1030 78 7000 4 180 13:22 24.02.2021
2203 Snow -13 1029 72 9000 6 170 12:46 24.02.2021
2204 Snow -13 1029 72 9000 6 170 12:27 24.02.2021
2205 Snow -13 1031 72 9000 5 130 11:51 24.02.2021
2206 Snow -13 1031 72 9000 5 130 11:24 24.02.2021
2207 Snow -14 1032 78 4500 5 140 10:32 24.02.2021
2208 Snow -15 1032 72 2600 5 150 09:56 24.02.2021
2209 Snow -16 1033 72 2800 4 140 09:22 24.02.2021
2210 Snow -16 1033 72 2800 4 140 09:22 24.02.2021
2211 Snow -16 1033 78 2500 4 140 08:41 24.02.2021
2212 Snow -16 1033 78 2500 4 140 08:22 24.02.2021
2213 Snow -17 1033 72 2000 5 140 07:21 24.02.2021
2214 Snow -17 1034 72 2200 5 150 06:52 24.02.2021
2215 Snow -17 1036 55 10000 3 170 04:23 24.02.2021
2216 Clear -17 1038 60 10000 3 160 00:44 24.02.2021
2217 Snow -18 1039 60 10000 2 190 23:32 23.02.2021
2218 Clear -18 1040 66 10000 2 200 22:42 23.02.2021
2219 Clear -18 1040 66 10000 2 200 22:21 23.02.2021
2220 Clear -18 1040 66 10000 2 170 21:47 23.02.2021
2221 Clear -18 1040 66 10000 2 170 21:24 23.02.2021
2222 Clear -18 1040 71 10000 3 120 20:50 23.02.2021
2223 Clear -18 1040 65 10000 3 90 20:30 23.02.2021
2224 Clear -18 1041 65 10000 4 90 19:57 23.02.2021
2225 Clear -18 1041 71 10000 4 90 19:38 23.02.2021
2226 Clear -18 1041 71 10000 4 90 19:19 23.02.2021
2227 Clear -19 1042 71 10000 2 80 18:43 23.02.2021
2228 Clear -19 1042 71 10000 2 80 18:21 23.02.2021
2229 Clear -18 1042 71 10000 3 70 17:48 23.02.2021
2230 Clear -19 1042 65 10000 3 70 17:25 23.02.2021
2231 Clear -18 1042 60 10000 3 70 16:43 23.02.2021
2232 Clear -18 1042 60 10000 2 80 16:21 23.02.2021
2233 Clear -18 1042 60 10000 2 80 16:21 23.02.2021
2234 Clear -18 1042 60 10000 2 80 15:44 23.02.2021
2235 Clear -17 1042 55 10000 0.63 161 15:25 23.02.2021
2236 Clear -17 1042 55 10000 1 0 14:46 23.02.2021
2237 Clear -17 1042 55 10000 1 0 14:27 23.02.2021
2238 Clear -18 1043 55 10000 2 130 13:59 23.02.2021
2239 Clear -18 1043 55 10000 1 0 13:34 23.02.2021
2240 Clear -18 1042 55 10000 2 70 12:57 23.02.2021
2241 Clear -18 1043 55 10000 2 70 12:23 23.02.2021
2242 Clear -17 1043 55 10000 2 70 11:52 23.02.2021
2243 Clear -18 1043 50 10000 2 70 11:25 23.02.2021
2244 Clear -18 1043 50 10000 2 40 10:54 23.02.2021
2245 Clear -19 1043 54 10000 3 80 10:36 23.02.2021
2246 Clear -20 1043 54 10000 2 100 09:55 23.02.2021
2247 Clear -21 1043 59 10000 2 90 09:36 23.02.2021
2248 Clear -22 1043 64 10000 3 90 09:18 23.02.2021
2249 Clear -22 1043 70 10000 2 80 08:40 23.02.2021
2250 Clear -23 1043 77 10000 3 60 08:20 23.02.2021
2251 Clear -24 1042 76 10000 3 70 06:52 23.02.2021
2252 Clear -24 1041 76 10000 4 60 05:22 23.02.2021
2253 Clear -23 1039 70 10000 3 50 02:36 23.02.2021
2254 Clear -23 1039 70 10000 4 50 01:55 23.02.2021
2255 Clear -21 1038 70 10000 4 60 00:19 23.02.2021
2256 Clear -21 1037 70 10000 4 60 23:25 22.02.2021
2257 Clear -20 1036 71 10000 5 60 22:42 22.02.2021
2258 Clear -20 1036 71 10000 5 60 22:42 22.02.2021
2259 Clear -20 1035 71 10000 6 60 22:21 22.02.2021
2260 Clear -20 1035 71 10000 6 60 21:55 22.02.2021
2261 Clear -19 1035 71 10000 6 60 21:36 22.02.2021
2262 Clear -19 1035 71 10000 6 60 21:18 22.02.2021
2263 Clear -18 1034 71 10000 5 60 20:42 22.02.2021
2264 Clear -18 1034 71 10000 5 60 20:23 22.02.2021
2265 Clear -17 1033 71 10000 5 50 19:39 22.02.2021
2266 Clear -16 1033 78 10000 5 50 19:21 22.02.2021
2267 Clear -16 1033 78 10000 5 50 18:46 22.02.2021
2268 Clear -16 1032 78 10000 5 50 18:28 22.02.2021
2269 Clear -15 1031 71 10000 5 70 17:43 22.02.2021
2270 Clear -14 1030 72 10000 6 60 17:18 22.02.2021
2271 Clear -14 1030 72 10000 6 60 16:47 22.02.2021
2272 Clear -14 1030 66 10000 6 60 16:25 22.02.2021
2273 Clouds -13 1029 66 10000 5 40 15:31 22.02.2021
2274 Clouds -13 1028 72 10000 5 80 14:50 22.02.2021
2275 Clouds -13 1028 72 10000 5 80 14:32 22.02.2021
2276 Clouds -13 1027 72 10000 5 80 13:51 22.02.2021
2277 Snow -13 1027 72 10000 6 60 13:29 22.02.2021
2278 Snow -13 1026 78 7000 5 70 12:45 22.02.2021
2279 Snow -13 1026 78 7000 5 70 12:22 22.02.2021
2280 Snow -12 1026 78 4800 5 70 11:48 22.02.2021
2281 Snow -13 1026 78 4800 5 70 11:28 22.02.2021
2282 Snow -12 1026 78 2900 5 70 10:50 22.02.2021
2283 Snow -12 1026 78 2900 5 70 10:32 22.02.2021
2284 Snow -13 1025 78 3000 6 70 09:57 22.02.2021
2285 Snow -13 1025 78 2600 6 70 09:36 22.02.2021
2286 Snow -13 1025 78 2500 6 60 09:18 22.02.2021
2287 Snow -13 1025 78 2500 6 70 08:40 22.02.2021
2288 Snow -13 1025 78 10000 6 70 08:19 22.02.2021
2289 Snow -12 1025 85 10000 6 70 07:39 22.02.2021
2290 Snow -12 1025 85 10000 6 70 07:18 22.02.2021
2291 Clouds -12 1024 85 10000 6 60 06:24 22.02.2021
2292 Snow -10 1023 85 10000 4 60 03:49 22.02.2021
2293 Snow -10 1022 85 9000 5 60 03:20 22.02.2021
2294 Snow -9 1021 85 9000 4 60 00:53 22.02.2021
2295 Snow -8 1021 79 9000 5 70 00:28 22.02.2021
2296 Snow -8 1020 79 7000 5 70 23:50 21.02.2021
2297 Snow -8 1019 86 6000 5 60 22:55 21.02.2021
2298 Snow -8 1019 92 5000 5 60 22:27 21.02.2021
2299 Snow -7 1018 86 4000 5 50 21:51 21.02.2021
2300 Fog -7 1018 86 3300 5 50 21:32 21.02.2021
2301 Mist -7 1017 93 3200 5 60 20:55 21.02.2021
2302 Snow -7 1017 93 3400 5 70 20:22 21.02.2021
2303 Snow -7 1017 93 3600 5 60 19:59 21.02.2021
2304 Snow -7 1016 93 3700 5 60 19:40 21.02.2021
2305 Snow -7 1016 93 3700 5 60 19:21 21.02.2021
2306 Snow -7 1015 93 2500 3 80 18:28 21.02.2021
2307 Mist -7 1015 93 2500 3 80 17:57 21.02.2021
2308 Snow -7 1015 93 2800 3 100 17:25 21.02.2021
2309 Snow -7 1015 93 2800 2 120 16:53 21.02.2021
2310 Snow -7 1015 93 2800 2 120 16:31 21.02.2021
2311 Snow -6 1015 93 2000 2 140 15:43 21.02.2021
2312 Snow -6 1014 93 1000 3 170 15:19 21.02.2021
2313 Snow -7 1015 86 1300 3 170 14:40 21.02.2021
2314 Snow -6 1015 86 3200 4 160 14:19 21.02.2021
2315 Snow -6 1015 79 3100 4 170 13:43 21.02.2021
2316 Snow -6 1016 86 3000 4 170 13:22 21.02.2021
2317 Snow -7 1016 86 2600 3 170 12:29 21.02.2021
2318 Snow -8 1017 86 2100 3 190 11:43 21.02.2021
2319 Snow -7 1018 86 2300 3 160 10:58 21.02.2021
2320 Snow -8 1018 86 3200 3 200 10:23 21.02.2021
2321 Snow -8 1018 86 3200 3 200 09:55 21.02.2021
2322 Snow -8 1018 79 2700 2 200 09:29 21.02.2021
2323 Snow -8 1019 79 3900 3 200 08:54 21.02.2021
2324 Snow -8 1019 86 3500 3 170 08:20 21.02.2021
2325 Snow -9 1020 86 2000 2 180 07:35 21.02.2021
2326 Snow -10 1020 92 2500 2 170 06:55 21.02.2021
2327 Snow -9 1021 85 9000 3 90 03:39 21.02.2021
2328 Snow -10 1021 85 9000 2 90 02:30 21.02.2021
2329 Snow -10 1022 92 8000 3 70 00:44 21.02.2021
2330 Clouds -10 1022 92 8000 3 70 00:19 21.02.2021
2331 Clouds -10 1022 92 9000 3 90 23:25 20.02.2021
2332 Snow -10 1023 85 8000 4 80 22:46 20.02.2021
2333 Clouds -10 1023 85 8000 3 90 22:27 20.02.2021
2334 Snow -10 1023 85 6000 3 100 21:45 20.02.2021
2335 Snow -10 1023 85 6000 3 100 21:26 20.02.2021
2336 Snow -9 1023 86 4300 3 90 20:49 20.02.2021
2337 Snow -9 1023 86 4300 3 90 20:28 20.02.2021
2338 Snow -9 1023 86 2700 2 90 19:53 20.02.2021
2339 Snow -9 1023 86 8000 3 80 19:31 20.02.2021
2340 Snow -9 1023 86 9000 2 80 18:45 20.02.2021
2341 Snow -8 1023 86 3500 2 100 18:24 20.02.2021
2342 Snow -9 1023 86 10000 3 80 17:43 20.02.2021
2343 Snow -9 1023 86 10000 2 100 17:25 20.02.2021
2344 Snow -9 1023 86 10000 2 100 16:43 20.02.2021
2345 Snow -8 1023 86 9000 2 100 16:22 20.02.2021
2346 Snow -8 1023 79 9000 2 240 15:37 20.02.2021
2347 Snow -7 1023 73 8000 2 240 14:49 20.02.2021
2348 Snow -7 1023 67 9000 4 250 14:24 20.02.2021
2349 Snow -7 1023 62 9000 2 220 13:53 20.02.2021
2350 Snow -7 1023 57 10000 2 210 13:27 20.02.2021
2351 Snow -7 1023 57 10000 2 210 12:53 20.02.2021
2352 Snow -8 1023 62 10000 1 0 12:32 20.02.2021
2353 Snow -8 1023 58 10000 1.32 229 11:48 20.02.2021
2354 Snow -8 1024 67 10000 1 0 11:30 20.02.2021
2355 Snow -10 1024 62 10000 1 0 10:50 20.02.2021
2356 Snow -10 1024 62 10000 1 0 10:21 20.02.2021
2357 Snow -11 1024 67 10000 1.44 251 09:45 20.02.2021
2358 Snow -13 1024 72 9000 1 0 08:51 20.02.2021
2359 Mist -14 1024 85 9000 1 100 08:23 20.02.2021
2360 Clear -19 1023 84 10000 1 230 04:37 20.02.2021
2361 Clear -18 1022 78 10000 1.1 276 02:32 20.02.2021
2362 Clear -18 1022 84 10000 1 260 01:54 20.02.2021
2363 Clear -17 1022 84 10000 1.2 285 00:55 20.02.2021
2364 Clear -17 1022 84 10000 1 0 00:36 20.02.2021
2365 Clear -16 1022 84 10000 1.74 280 23:26 19.02.2021
2366 Clear -16 1022 85 10000 1 340 22:43 19.02.2021
2367 Clear -14 1022 78 10000 1 0 22:19 19.02.2021
2368 Clear -14 1021 72 10000 2 330 21:43 19.02.2021
2369 Clear -14 1021 72 10000 2 330 21:23 19.02.2021
2370 Clear -12 1021 72 10000 3 260 20:42 19.02.2021
2371 Clear -12 1021 72 10000 3 260 20:24 19.02.2021
2372 Clear -11 1021 67 10000 3 260 19:47 19.02.2021
2373 Clear -11 1021 67 10000 4 270 19:20 19.02.2021
2374 Clear -11 1021 67 10000 4 270 18:50 19.02.2021
2375 Clear -11 1021 67 10000 4 270 18:26 19.02.2021
2376 Clear -11 1020 67 10000 4 290 17:39 19.02.2021
2377 Clear -11 1020 61 10000 4 290 16:43 19.02.2021
2378 Clear -11 1020 57 10000 4 280 16:22 19.02.2021
2379 Snow -11 1020 57 10000 7 270 15:55 19.02.2021
2380 Snow -11 1020 57 10000 5 270 15:30 19.02.2021
2381 Snow -11 1020 61 10000 6 280 14:52 19.02.2021
2382 Clear -11 1020 56 10000 6 260 14:33 19.02.2021
2383 Clear -11 1020 52 10000 5 270 13:56 19.02.2021
2384 Clear -11 1020 52 10000 6 260 13:36 19.02.2021
2385 Clear -11 1020 52 10000 5 270 12:54 19.02.2021
2386 Clear -12 1020 52 10000 6 280 12:28 19.02.2021
2387 Clear -12 1020 56 10000 6 280 11:59 19.02.2021
2388 Clear -13 1020 61 10000 6 280 11:34 19.02.2021
2389 Clear -14 1020 66 10000 6 290 10:55 19.02.2021
2390 Clear -15 1020 72 10000 6 290 10:33 19.02.2021
2391 Clear -16 1020 66 10000 5 280 09:58 19.02.2021
2392 Clear -17 1020 78 10000 6 290 09:27 19.02.2021
2393 Clear -18 1020 78 10000 5 290 08:55 19.02.2021
2394 Clear -18 1020 78 10000 5 290 08:28 19.02.2021
2395 Clear -18 1020 78 10000 5 290 08:28 19.02.2021
2396 Clear -19 1020 78 10000 5 280 07:56 19.02.2021
2397 Clear -20 1020 78 10000 5 280 07:36 19.02.2021
2398 Clear -20 1020 78 10000 5 280 06:59 19.02.2021
2399 Clear -21 1020 78 10000 5 270 06:31 19.02.2021
2400 Clear -19 1020 78 10000 5 270 04:42 19.02.2021
2401 Clear -17 1020 71 10000 5 280 02:31 19.02.2021
2402 Clear -17 1020 78 10000 6 290 01:26 19.02.2021
2403 Clear -17 1020 78 10000 5 270 00:27 19.02.2021
2404 Clear -17 1020 78 10000 5 260 23:45 18.02.2021
2405 Clear -17 1020 78 10000 5 260 23:27 18.02.2021
2406 Clear -18 1021 78 10000 4 240 22:37 18.02.2021
2407 Clear -18 1021 78 10000 4 240 22:18 18.02.2021
2408 Clear -18 1021 78 10000 4 260 21:37 18.02.2021
2409 Clear -18 1021 78 10000 3 280 21:19 18.02.2021
2410 Clear -18 1021 78 10000 4 260 20:39 18.02.2021
2411 Clear -18 1021 85 10000 4 250 20:20 18.02.2021
2412 Clear -18 1021 85 10000 3 250 19:43 18.02.2021
2413 Clear -18 1021 85 10000 3 250 19:19 18.02.2021
2414 Clear -17 1021 78 10000 4 260 18:48 18.02.2021
2415 Clear -17 1021 78 10000 3 260 18:26 18.02.2021
2416 Clear -16 1021 78 10000 4 290 17:46 18.02.2021
2417 Clear -16 1021 78 10000 4 290 17:24 18.02.2021
2418 Clear -15 1021 78 10000 5 300 16:46 18.02.2021
2419 Clear -16 1021 78 10000 5 300 16:28 18.02.2021
2420 Clear -14 1021 72 10000 4 310 15:42 18.02.2021
2421 Clear -14 1021 72 10000 4 310 15:23 18.02.2021
2422 Clouds -13 1021 66 10000 5 320 14:52 18.02.2021
2423 Clouds -13 1021 66 10000 3 310 14:32 18.02.2021
2424 Clouds -13 1021 66 10000 4 330 13:50 18.02.2021
2425 Clouds -13 1021 66 10000 4 330 13:50 18.02.2021
2426 Clouds -13 1021 66 10000 4 340 13:22 18.02.2021
2427 Clouds -13 1021 72 10000 3 320 12:55 18.02.2021
2428 Clouds -13 1021 72 10000 4 320 12:33 18.02.2021
2429 Clouds -13 1021 72 10000 3 330 11:47 18.02.2021
2430 Clouds -13 1021 72 10000 3 330 11:47 18.02.2021
2431 Clouds -13 1021 72 10000 3 330 11:28 18.02.2021
2432 Clouds -14 1021 78 10000 3 330 10:58 18.02.2021
2433 Clouds -14 1021 85 10000 3 320 10:37 18.02.2021
2434 Clouds -15 1021 85 10000 3 320 10:19 18.02.2021
2435 Clouds -16 1021 78 10000 3 320 09:32 18.02.2021
2436 Clouds -17 1020 85 10000 3 320 08:59 18.02.2021
2437 Clouds -19 1020 84 10000 3 330 08:31 18.02.2021
2438 Clouds -19 1020 78 9000 3 340 07:49 18.02.2021
2439 Clouds -19 1019 84 9000 3 340 07:24 18.02.2021
2440 Clouds -18 1019 84 9000 3 340 06:18 18.02.2021
2441 Snow -15 1016 85 10000 2 360 00:40 18.02.2021
2442 Snow -15 1016 78 10000 4 20 23:46 17.02.2021
2443 Snow -15 1016 85 10000 3 360 23:19 17.02.2021
2444 Snow -14 1016 78 10000 3 360 22:40 17.02.2021
2445 Snow -14 1016 78 10000 3 360 22:22 17.02.2021
2446 Snow -14 1015 78 10000 3 350 21:46 17.02.2021
2447 Snow -14 1015 78 10000 3 350 21:21 17.02.2021
2448 Snow -13 1015 85 10000 3 350 20:43 17.02.2021
2449 Snow -13 1015 85 10000 3 340 20:24 17.02.2021
2450 Snow -13 1015 85 8000 4 330 19:38 17.02.2021
2451 Snow -13 1015 85 8000 4 330 19:19 17.02.2021
2452 Snow -12 1015 78 10000 3 330 18:41 17.02.2021
2453 Snow -12 1015 78 10000 3 320 18:18 17.02.2021
2454 Snow -11 1015 78 10000 3 320 17:37 17.02.2021
2455 Snow -11 1014 78 10000 4 330 17:18 17.02.2021
2456 Snow -11 1014 79 9000 4 330 16:43 17.02.2021
2457 Snow -10 1014 85 9000 3 330 16:22 17.02.2021
2458 Snow -10 1014 85 9000 3 330 15:44 17.02.2021
2459 Snow -10 1014 73 9000 4 330 15:23 17.02.2021
2460 Snow -9 1013 79 9000 4 330 14:45 17.02.2021
2461 Snow -9 1013 79 9000 4 330 14:26 17.02.2021
2462 Snow -8 1013 73 10000 3 330 13:45 17.02.2021
2463 Snow -8 1013 73 10000 3 330 13:27 17.02.2021
2464 Snow -8 1013 73 10000 3 330 12:47 17.02.2021
2465 Snow -9 1012 79 9000 3 340 12:23 17.02.2021
2466 Snow -8 1012 79 9000 3 340 11:42 17.02.2021
2467 Snow -8 1012 79 9000 3 340 11:19 17.02.2021
2468 Snow -8 1012 79 8000 3 350 10:45 17.02.2021
2469 Snow -9 1012 79 5000 3 340 10:25 17.02.2021
2470 Snow -9 1012 73 9000 2 10 09:45 17.02.2021
2471 Snow -10 1012 79 9000 2 10 09:26 17.02.2021
2472 Snow -10 1011 79 10000 2 320 08:44 17.02.2021
2473 Snow -11 1011 85 10000 3 250 08:22 17.02.2021
2474 Snow -11 1011 85 7000 2 180 07:34 17.02.2021
2475 Snow -12 1011 85 9000 1 0 06:35 17.02.2021
2476 Snow -12 1011 85 3500 4 200 02:44 17.02.2021
2477 Snow -12 1011 85 3500 4 200 02:21 17.02.2021
2478 Snow -12 1011 85 2000 4 200 00:35 17.02.2021
2479 Snow -12 1011 85 5000 4 190 23:57 16.02.2021
2480 Snow -12 1011 85 3500 3 190 23:38 16.02.2021
2481 Snow -12 1012 85 4800 5 200 22:45 16.02.2021
2482 Snow -12 1012 85 4800 5 200 22:25 16.02.2021
2483 Snow -12 1012 85 4200 5 200 21:58 16.02.2021
2484 Snow -12 1012 79 5000 5 200 21:39 16.02.2021
2485 Snow -12 1012 79 5000 5 200 21:20 16.02.2021
2486 Snow -12 1012 79 4300 6 200 20:45 16.02.2021
2487 Snow -12 1012 79 4300 6 200 20:20 16.02.2021
2488 Snow -12 1013 79 3700 6 200 19:47 16.02.2021
2489 Snow -12 1013 79 3700 6 200 19:27 16.02.2021
2490 Snow -12 1013 79 8000 6 200 18:42 16.02.2021
2491 Snow -12 1013 79 8000 6 200 18:23 16.02.2021
2492 Snow -12 1014 79 4300 6 200 17:53 16.02.2021
2493 Snow -12 1014 79 3400 6 200 17:27 16.02.2021
2494 Snow -12 1014 79 4200 7 200 16:52 16.02.2021
2495 Snow -12 1014 79 9000 7 200 16:30 16.02.2021
2496 Snow -12 1014 79 9000 7 200 16:30 16.02.2021
2497 Snow -12 1014 79 1700 6 200 15:57 16.02.2021
2498 Snow -12 1014 79 5000 7 190 15:36 16.02.2021
2499 Snow -12 1014 79 5000 7 190 15:18 16.02.2021
2500 Snow -12 1015 72 3200 7 200 14:39 16.02.2021
2501 Snow -12 1015 72 3200 7 200 14:21 16.02.2021
2502 Snow -12 1016 67 8000 7 200 13:44 16.02.2021
2503 Snow -12 1017 72 5000 7 210 12:59 16.02.2021
2504 Snow -12 1017 56 10000 6 200 12:40 16.02.2021
2505 Snow -13 1018 61 10000 7 200 12:19 16.02.2021
2506 Snow -13 1018 56 10000 8 210 11:39 16.02.2021
2507 Snow -13 1018 56 10000 8 210 11:20 16.02.2021
2508 Snow -14 1018 61 10000 8 210 10:46 16.02.2021
2509 Clear -15 1019 66 10000 6 210 10:27 16.02.2021
2510 Clear -15 1019 66 10000 6 210 09:53 16.02.2021
2511 Clear -18 1020 71 10000 5 230 09:26 16.02.2021
2512 Snow -18 1020 71 10000 5 230 08:51 16.02.2021
2513 Clear -20 1021 78 10000 6 230 08:28 16.02.2021
2514 Clear -20 1021 84 10000 5 220 07:45 16.02.2021
2515 Clear -22 1021 84 10000 4 220 06:55 16.02.2021
2516 Clear -23 1023 84 10000 3 240 02:42 16.02.2021
2517 Clear -22 1024 77 9000 2 250 23:55 15.02.2021
2518 Clear -22 1024 77 10000 1 230 23:29 15.02.2021
2519 Clear -21 1024 84 9000 1 180 22:50 15.02.2021
2520 Clear -21 1024 77 10000 2 230 22:29 15.02.2021
2521 Clear -21 1024 84 10000 3 240 21:48 15.02.2021
2522 Clear -21 1024 84 10000 1 0 21:25 15.02.2021
2523 Clear -21 1024 78 10000 3 240 20:57 15.02.2021
2524 Clear -20 1024 78 10000 2 240 20:39 15.02.2021
2525 Clear -20 1024 71 10000 3 300 19:51 15.02.2021
2526 Clear -19 1024 78 10000 3 300 19:30 15.02.2021
2527 Clear -17 1024 78 10000 3 310 18:58 15.02.2021
2528 Clear -18 1024 78 10000 2 300 18:30 15.02.2021
2529 Clear -16 1024 72 10000 2 310 17:59 15.02.2021
2530 Clear -16 1024 72 10000 3 300 17:40 15.02.2021
2531 Clear -16 1024 72 10000 3 300 17:21 15.02.2021
2532 Clear -16 1024 66 10000 3 300 16:46 15.02.2021
2533 Clear -15 1023 66 10000 3 340 16:22 15.02.2021
2534 Clear -14 1023 61 10000 4 340 15:44 15.02.2021
2535 Clear -14 1023 56 10000 3 340 15:20 15.02.2021
2536 Clear -14 1023 56 10000 4 340 14:49 15.02.2021
2537 Clear -13 1023 61 10000 4 350 14:21 15.02.2021
2538 Clear -13 1023 61 10000 4 350 13:49 15.02.2021
2539 Clear -14 1023 61 10000 3 340 13:27 15.02.2021
2540 Clear -14 1023 61 10000 4 310 12:52 15.02.2021
2541 Clear -14 1022 61 10000 4 300 12:33 15.02.2021
2542 Clear -15 1022 66 10000 3 280 11:54 15.02.2021
2543 Clear -15 1022 72 10000 3 320 11:27 15.02.2021
2544 Clear -15 1022 72 10000 3 310 10:58 15.02.2021
2545 Clear -15 1022 72 10000 4 320 10:40 15.02.2021
2546 Clear -16 1022 72 10000 4 320 10:21 15.02.2021
2547 Clear -17 1022 78 10000 4 340 09:51 15.02.2021
2548 Clear -18 1022 71 10000 5 330 09:32 15.02.2021
2549 Clear -18 1021 78 10000 3 310 08:32 15.02.2021
2550 Clear -20 1021 84 10000 3 290 07:32 15.02.2021
2551 Clear -19 1020 84 10000 3 290 06:42 15.02.2021
2552 Clear -19 1019 84 10000 4 280 04:58 15.02.2021
2553 Clear -18 1018 85 10000 5 290 02:21 15.02.2021
2554 Clear -16 1017 72 10000 6 320 00:24 15.02.2021
2555 Clear -15 1016 66 10000 5 310 23:30 14.02.2021
2556 Clear -15 1016 66 10000 6 310 22:51 14.02.2021
2557 Clear -15 1015 66 10000 5 320 22:30 14.02.2021
2558 Clear -14 1015 66 10000 6 310 21:56 14.02.2021
2559 Clear -14 1014 61 10000 5 310 21:36 14.02.2021
2560 Clear -13 1014 61 10000 6 320 20:56 14.02.2021
2561 Clear -13 1014 66 10000 6 320 20:31 14.02.2021
2562 Clear -13 1013 61 10000 7 320 19:59 14.02.2021
2563 Clear -13 1013 61 10000 7 320 19:36 14.02.2021
2564 Clear -12 1012 56 10000 7 320 18:47 14.02.2021
2565 Clear -12 1012 56 10000 7 320 18:28 14.02.2021
2566 Clear -12 1011 56 10000 7 320 17:45 14.02.2021
2567 Clouds -12 1011 61 10000 7 310 17:26 14.02.2021
2568 Snow -12 1010 72 10000 6 310 16:42 14.02.2021
2569 Snow -12 1010 72 9000 6 320 16:23 14.02.2021
2570 Snow -12 1009 79 10000 4 320 15:45 14.02.2021
2571 Snow -12 1009 79 10000 4 320 15:25 14.02.2021
2572 Snow -12 1009 72 10000 8 320 14:33 14.02.2021
2573 Snow -12 1008 67 10000 9 320 13:59 14.02.2021
2574 Snow -13 1008 72 9000 6 320 13:33 14.02.2021
2575 Snow -13 1008 78 7000 6 310 12:58 14.02.2021
2576 Snow -13 1008 72 8000 5 320 12:23 14.02.2021
2577 Snow -13 1008 72 10000 7 320 11:52 14.02.2021
2578 Snow -13 1007 72 8000 7 320 11:26 14.02.2021
2579 Snow -14 1007 72 8000 6 330 10:59 14.02.2021
2580 Snow -14 1006 78 9000 6 320 10:21 14.02.2021
2581 Snow -14 1006 72 9000 6 320 09:40 14.02.2021
2582 Snow -15 1006 72 8000 6 320 09:21 14.02.2021
2583 Snow -15 1006 72 8000 6 320 08:56 14.02.2021
2584 Snow -15 1005 72 9000 6 320 07:58 14.02.2021
2585 Snow -15 1005 78 9000 6 320 06:54 14.02.2021
2586 Snow -15 1004 78 10000 4 320 05:43 14.02.2021
2587 Snow -15 1004 78 8000 4 330 03:51 14.02.2021
2588 Snow -14 1004 78 10000 5 340 02:29 14.02.2021
2589 Snow -14 1004 78 7000 5 340 00:57 14.02.2021
2590 Snow -14 1004 78 7000 5 340 00:37 14.02.2021
2591 Snow -14 1004 85 7000 5 350 23:49 13.02.2021
2592 Snow -13 1004 78 7000 5 350 23:25 13.02.2021
2593 Snow -14 1004 78 7000 5 350 22:50 13.02.2021
2594 Snow -14 1004 78 4500 5 350 22:21 13.02.2021
2595 Snow -14 1004 78 4500 5 350 21:49 13.02.2021
2596 Snow -13 1004 78 5000 5 350 21:26 13.02.2021
2597 Snow -13 1004 78 9000 5 350 20:44 13.02.2021
2598 Snow -13 1004 85 4500 5 350 20:24 13.02.2021
2599 Snow -13 1004 78 3900 5 350 19:48 13.02.2021
2600 Snow -13 1004 78 3900 5 350 19:23 13.02.2021
2601 Snow -13 1004 78 9000 5 360 18:49 13.02.2021
2602 Snow -13 1004 78 9000 5 360 18:25 13.02.2021
2603 Snow -13 1005 78 9000 4 360 17:44 13.02.2021
2604 Snow -13 1004 78 7000 5 360 17:24 13.02.2021
2605 Snow -13 1004 78 7000 5 360 16:52 13.02.2021
2606 Snow -13 1004 78 7000 5 10 16:31 13.02.2021
2607 Snow -13 1004 72 9000 5 20 15:43 13.02.2021
2608 Snow -13 1004 72 9000 5 20 15:24 13.02.2021
2609 Snow -13 1004 72 5000 6 20 14:40 13.02.2021
2610 Snow -13 1004 72 5000 6 20 13:49 13.02.2021
2611 Snow -13 1004 78 3800 5 20 13:27 13.02.2021
2612 Snow -13 1004 78 1700 6 30 12:52 13.02.2021
2613 Snow -13 1004 78 2800 6 20 12:21 13.02.2021
2614 Snow -13 1004 78 4100 6 30 11:55 13.02.2021
2615 Snow -13 1004 78 5000 7 30 11:22 13.02.2021
2616 Snow -13 1004 78 4800 6 30 10:58 13.02.2021
2617 Snow -14 1004 78 2400 5 30 10:40 13.02.2021
2618 Snow -14 1004 78 2400 5 30 10:21 13.02.2021
2619 Snow -14 1004 78 1200 7 30 09:45 13.02.2021
2620 Snow -14 1004 78 1200 7 30 09:22 13.02.2021
2621 Snow -14 1004 78 1200 8 30 08:42 13.02.2021
2622 Snow -14 1004 78 3500 7 30 08:18 13.02.2021
2623 Snow -15 1003 72 3900 9 30 06:50 13.02.2021
2624 Snow -15 1003 72 3900 9 30 06:22 13.02.2021
2625 Snow -15 1004 78 1000 9 20 04:27 13.02.2021
2626 Snow -15 1005 78 1200 9 20 02:36 13.02.2021
2627 Snow -15 1007 78 750 9 20 00:54 13.02.2021
2628 Snow -15 1007 78 750 9 20 00:54 13.02.2021
2629 Snow -15 1007 85 1300 9 20 23:57 12.02.2021
2630 Snow -15 1008 85 2300 9 20 23:39 12.02.2021
2631 Snow -15 1008 85 2300 9 20 23:18 12.02.2021
2632 Snow -15 1009 78 1700 8 20 22:31 12.02.2021
2633 Snow -15 1009 78 1400 9 20 21:56 12.02.2021
2634 Snow -15 1009 78 1000 10 10 21:37 12.02.2021
2635 Snow -15 1009 78 1000 10 10 21:18 12.02.2021
2636 Snow -15 1010 78 900 8 10 20:39 12.02.2021
2637 Snow -15 1010 78 900 8 10 20:20 12.02.2021
2638 Snow -15 1011 78 7000 9 10 19:49 12.02.2021
2639 Snow -15 1011 78 7000 9 10 19:26 12.02.2021
2640 Snow -14 1011 78 1100 8 10 18:31 12.02.2021
2641 Snow -14 1011 78 1300 8 10 17:53 12.02.2021
2642 Snow -14 1011 85 1500 8 10 17:35 12.02.2021
2643 Snow -14 1011 78 1000 7 10 16:43 12.02.2021
2644 Snow -14 1011 78 1700 7 10 15:48 12.02.2021
2645 Snow -14 1011 78 2400 8 10 15:24 12.02.2021
2646 Snow -14 1011 78 3800 8 10 14:59 12.02.2021
2647 Snow -14 1011 78 1900 7 10 14:34 12.02.2021
2648 Snow -14 1011 78 2600 8 10 13:47 12.02.2021
2649 Snow -14 1012 78 3100 8 10 13:28 12.02.2021
2650 Snow -14 1012 72 9000 8 10 12:53 12.02.2021
2651 Snow -14 1012 78 9000 7 10 12:35 12.02.2021
2652 Snow -14 1013 78 5000 8 10 11:47 12.02.2021
2653 Snow -14 1013 72 1500 8 10 11:20 12.02.2021
2654 Snow -14 1013 72 1500 8 10 10:47 12.02.2021
2655 Snow -15 1014 78 1400 7 20 09:59 12.02.2021
2656 Snow -15 1014 78 1400 7 20 09:39 12.02.2021
2657 Snow -15 1014 78 1400 8 20 09:21 12.02.2021
2658 Snow -15 1014 78 4500 7 20 08:44 12.02.2021
2659 Snow -15 1014 78 4500 7 20 08:21 12.02.2021
2660 Snow -15 1015 78 4700 6 30 07:51 12.02.2021
2661 Snow -15 1015 78 4700 6 30 07:51 12.02.2021
2662 Snow -15 1015 78 6000 6 20 07:21 12.02.2021
2663 Snow -15 1015 78 6000 7 10 06:49 12.02.2021
2664 Snow -15 1015 78 1500 6 10 05:29 12.02.2021
2665 Snow -15 1016 78 4700 6 10 03:32 12.02.2021
2666 Snow -14 1018 78 3300 3 350 00:32 12.02.2021
2667 Snow -14 1018 78 2200 3 360 23:38 11.02.2021
2668 Snow -14 1018 78 2200 3 360 23:18 11.02.2021
2669 Snow -14 1017 78 8000 3 10 22:42 11.02.2021
2670 Snow -14 1017 78 8000 3 10 22:22 11.02.2021
2671 Snow -14 1018 78 10000 4 20 21:43 11.02.2021
2672 Snow -14 1018 78 10000 4 20 21:24 11.02.2021
2673 Snow -14 1018 78 10000 4 20 20:54 11.02.2021
2674 Snow -14 1018 78 10000 3 360 20:36 11.02.2021
2675 Snow -14 1018 78 10000 3 340 20:18 11.02.2021
2676 Snow -14 1018 78 10000 3 10 19:45 11.02.2021
2677 Snow -14 1018 78 10000 3 10 19:23 11.02.2021
2678 Clear -15 1017 85 10000 3 350 18:41 11.02.2021
2679 Clear -14 1017 85 10000 3 360 18:19 11.02.2021
2680 Clear -14 1017 78 10000 3 10 17:43 11.02.2021
2681 Clear -14 1017 78 10000 3 10 17:20 11.02.2021
2682 Clear -14 1017 85 10000 4 360 16:44 11.02.2021
2683 Clear -14 1017 85 10000 4 360 16:25 11.02.2021
2684 Clouds -13 1017 78 9000 3 350 15:45 11.02.2021
2685 Snow -12 1016 78 10000 3 10 15:26 11.02.2021
2686 Snow -12 1016 78 10000 3 10 14:53 11.02.2021
2687 Snow -12 1016 78 10000 3 20 14:31 11.02.2021
2688 Snow -11 1016 78 9000 2 50 13:42 11.02.2021
2689 Snow -11 1016 78 9000 2 50 13:20 11.02.2021
2690 Snow -12 1016 78 9000 2 20 12:56 11.02.2021
2691 Snow -13 1016 85 10000 2 350 12:32 11.02.2021
2692 Snow -13 1016 85 10000 2 350 11:48 11.02.2021
2693 Snow -13 1015 85 10000 2 70 11:27 11.02.2021
2694 Snow -13 1016 85 8000 2 80 10:46 11.02.2021
2695 Snow -13 1016 85 8000 2 80 10:27 11.02.2021
2696 Snow -14 1016 85 7000 2 70 09:59 11.02.2021
2697 Snow -14 1015 85 6000 3 70 09:36 11.02.2021
2698 Snow -14 1016 85 4100 2 60 09:18 11.02.2021
2699 Snow -15 1016 85 2600 3 70 08:43 11.02.2021
2700 Snow -15 1016 85 6000 3 60 07:43 11.02.2021
2701 Snow -15 1015 85 9000 4 70 06:43 11.02.2021
2702 Snow -15 1015 78 9000 4 70 05:54 11.02.2021
2703 Snow -16 1015 85 8000 4 70 03:43 11.02.2021
2704 Snow -16 1015 85 8000 3 70 02:21 11.02.2021
2705 Snow -15 1015 78 10000 4 60 00:23 11.02.2021
2706 Snow -15 1015 78 10000 4 60 23:48 10.02.2021
2707 Snow -15 1015 85 10000 4 70 23:20 10.02.2021
2708 Snow -15 1015 85 10000 4 70 22:43 10.02.2021
2709 Snow -15 1015 85 10000 4 70 22:23 10.02.2021
2710 Snow -15 1015 85 9000 5 60 21:40 10.02.2021
2711 Snow -15 1015 85 9000 5 60 21:20 10.02.2021
2712 Snow -15 1015 85 9000 4 70 20:51 10.02.2021
2713 Clouds -15 1015 85 9000 3 70 20:28 10.02.2021
2714 Snow -15 1015 92 10000 4 70 19:50 10.02.2021
2715 Clouds -14 1015 85 10000 4 60 19:28 10.02.2021
2716 Snow -14 1015 85 8000 6 70 18:49 10.02.2021
2717 Snow -14 1015 85 8000 6 70 18:27 10.02.2021
2718 Snow -13 1015 78 4700 6 70 17:59 10.02.2021
2719 Snow -13 1015 85 3200 6 60 17:40 10.02.2021
2720 Snow -13 1015 85 2100 5 60 17:20 10.02.2021
2721 Snow -13 1015 85 2100 5 60 16:46 10.02.2021
2722 Snow -13 1015 85 3200 6 60 16:24 10.02.2021
2723 Snow -12 1015 78 10000 5 60 15:25 10.02.2021
2724 Snow -12 1015 78 10000 5 60 14:58 10.02.2021
2725 Snow -12 1014 78 10000 5 60 14:39 10.02.2021
2726 Snow -12 1014 78 9000 5 60 13:55 10.02.2021
2727 Snow -12 1014 72 10000 5 50 13:31 10.02.2021
2728 Snow -12 1014 72 10000 5 50 12:55 10.02.2021
2729 Snow -12 1014 72 10000 5 50 12:31 10.02.2021
2730 Snow -12 1015 78 10000 4 50 11:59 10.02.2021
2731 Snow -13 1015 78 10000 4 60 11:40 10.02.2021
2732 Clouds -13 1015 78 10000 4 60 11:22 10.02.2021
2733 Snow -13 1014 78 10000 5 60 10:37 10.02.2021
2734 Snow -13 1014 78 10000 5 60 10:18 10.02.2021
2735 Clouds -13 1014 78 10000 5 70 09:37 10.02.2021
2736 Snow -14 1013 78 10000 5 70 09:18 10.02.2021
2737 Snow -14 1014 85 10000 5 70 08:42 10.02.2021
2738 Snow -14 1014 85 10000 5 70 07:52 10.02.2021
2739 Snow -15 1014 85 10000 4 70 06:52 10.02.2021
2740 Snow -14 1013 78 7000 5 50 03:43 10.02.2021
2741 Snow -13 1014 78 5000 6 70 00:31 10.02.2021
2742 Snow -13 1014 78 3200 6 70 23:35 09.02.2021
2743 Snow -13 1014 78 3300 7 70 22:55 09.02.2021
2744 Snow -13 1014 78 1900 7 70 22:25 09.02.2021
2745 Snow -13 1014 78 2300 8 70 21:53 09.02.2021
2746 Snow -13 1014 78 2300 8 70 21:34 09.02.2021
2747 Snow -13 1014 78 6000 7 70 20:50 09.02.2021
2748 Snow -13 1014 78 7000 7 70 20:27 09.02.2021
2749 Snow -13 1015 85 3400 7 70 19:59 09.02.2021
2750 Snow -13 1015 85 3400 7 70 19:59 09.02.2021
2751 Snow -13 1015 85 3100 7 70 19:38 09.02.2021
2752 Snow -13 1015 85 1700 7 70 18:59 09.02.2021
2753 Snow -13 1016 85 2100 6 70 18:39 09.02.2021
2754 Snow -13 1016 85 1500 6 70 17:58 09.02.2021
2755 Snow -13 1016 85 1900 6 70 17:40 09.02.2021
2756 Snow -13 1016 85 2200 7 80 17:21 09.02.2021
2757 Snow -13 1017 85 3200 7 70 16:42 09.02.2021
2758 Snow -13 1017 85 3200 7 70 16:19 09.02.2021
2759 Snow -13 1017 78 2600 5 80 15:50 09.02.2021
2760 Snow -13 1017 78 2600 5 80 15:26 09.02.2021
2761 Snow -13 1017 72 10000 6 80 14:55 09.02.2021
2762 Snow -13 1018 72 10000 5 70 14:28 09.02.2021
2763 Snow -13 1018 72 10000 6 70 13:53 09.02.2021
2764 Snow -13 1018 72 10000 6 70 13:28 09.02.2021
2765 Snow -13 1019 72 10000 6 80 12:54 09.02.2021
2766 Snow -13 1019 72 10000 6 80 12:36 09.02.2021
2767 Snow -13 1019 72 10000 6 90 11:59 09.02.2021
2768 Snow -13 1019 72 10000 6 90 11:59 09.02.2021
2769 Snow -13 1019 72 10000 6 80 11:40 09.02.2021
2770 Snow -13 1019 72 10000 6 80 11:20 09.02.2021
2771 Snow -13 1019 72 10000 6 80 11:20 09.02.2021
2772 Snow -14 1020 85 9000 4 70 10:50 09.02.2021
2773 Snow -14 1020 85 7000 5 70 10:19 09.02.2021
2774 Snow -14 1020 85 7000 5 70 09:43 09.02.2021
2775 Snow -14 1020 85 7000 4 70 09:25 09.02.2021
2776 Snow -16 1020 85 7000 4 70 08:47 09.02.2021
2777 Snow -15 1020 85 7000 4 70 08:26 09.02.2021
2778 Clouds -16 1020 84 9000 4 70 06:55 09.02.2021
2779 Clouds -18 1021 77 9000 2 80 04:55 09.02.2021
2780 Clear -18 1022 77 10000 1 70 03:42 09.02.2021
2781 Clouds -18 1022 77 9000 1 120 00:44 09.02.2021
2782 Clear -18 1021 84 10000 0.93 116 23:57 08.02.2021
2783 Clear -17 1021 84 10000 1 0 23:22 08.02.2021
2784 Mist -17 1021 84 10000 1 10 22:45 08.02.2021
2785 Mist -17 1021 84 10000 1 10 22:26 08.02.2021
2786 Mist -17 1021 77 10000 1 0 21:58 08.02.2021
2787 Clear -16 1021 85 10000 1 0 21:38 08.02.2021
2788 Clear -16 1022 85 10000 1 310 21:18 08.02.2021
2789 Clear -15 1021 85 10000 1 0 20:42 08.02.2021
2790 Clear -15 1021 85 10000 1 0 20:22 08.02.2021
2791 Clear -14 1021 85 10000 2 300 19:48 08.02.2021
2792 Clear -14 1021 85 10000 2 300 19:26 08.02.2021
2793 Clear -13 1021 78 10000 2 20 18:49 08.02.2021
2794 Clear -13 1021 85 10000 2 350 18:25 08.02.2021
2795 Clear -13 1020 78 10000 2 360 17:47 08.02.2021
2796 Clear -12 1020 72 10000 3 350 17:26 08.02.2021
2797 Snow -12 1020 72 10000 3 360 16:57 08.02.2021
2798 Snow -11 1020 67 10000 3 330 16:39 08.02.2021
2799 Snow -11 1020 73 10000 3 340 16:18 08.02.2021
2800 Snow -11 1019 73 10000 4 320 15:37 08.02.2021
2801 Snow -10 1019 67 10000 4 310 15:18 08.02.2021
2802 Snow -10 1019 67 10000 4 310 14:48 08.02.2021
2803 Clouds -10 1019 73 10000 4 300 14:28 08.02.2021
2804 Snow -11 1018 85 2200 4 280 13:46 08.02.2021
2805 Snow -11 1018 85 2200 4 280 13:27 08.02.2021
2806 Clouds -11 1018 67 10000 5 290 12:39 08.02.2021
2807 Clouds -12 1018 72 10000 5 250 12:19 08.02.2021
2808 Clouds -13 1018 72 10000 5 240 11:38 08.02.2021
2809 Clouds -13 1018 72 10000 4 230 10:47 08.02.2021
2810 Snow -14 1018 78 9000 4 230 10:26 08.02.2021
2811 Clouds -15 1018 78 10000 4 220 09:56 08.02.2021
2812 Clouds -16 1018 78 10000 4 220 09:36 08.02.2021
2813 Clouds -17 1018 78 9000 5 220 08:57 08.02.2021
2814 Snow -18 1018 84 9000 4 240 08:26 08.02.2021
2815 Snow -18 1018 84 9000 4 240 07:47 08.02.2021
2816 Snow -20 1018 84 8000 2 190 06:39 08.02.2021
2817 Clear -20 1018 78 10000 3 290 05:18 08.02.2021
2818 Clear -17 1017 78 10000 3 310 02:27 08.02.2021
2819 Clouds -15 1015 78 10000 4 310 00:26 08.02.2021
2820 Clouds -14 1015 78 10000 5 330 23:55 07.02.2021
2821 Clouds -14 1015 78 10000 4 330 23:30 07.02.2021
2822 Clouds -14 1014 72 10000 5 320 22:59 07.02.2021
2823 Clouds -14 1014 72 9000 5 320 22:41 07.02.2021
2824 Clouds -14 1014 72 9000 5 320 22:41 07.02.2021
2825 Snow -14 1013 78 10000 5 330 22:22 07.02.2021
2826 Snow -14 1013 78 10000 5 330 21:50 07.02.2021
2827 Snow -13 1013 78 5000 5 330 21:25 07.02.2021
2828 Snow -13 1013 85 7000 5 320 20:51 07.02.2021
2829 Snow -13 1012 85 8000 6 320 20:32 07.02.2021
2830 Snow -13 1012 78 9000 5 300 19:54 07.02.2021
2831 Snow -12 1012 79 10000 6 290 19:30 07.02.2021
2832 Snow -12 1011 72 8000 4 300 18:52 07.02.2021
2833 Snow -12 1011 72 10000 5 300 18:34 07.02.2021
2834 Snow -12 1011 72 8000 7 320 17:59 07.02.2021
2835 Snow -12 1011 85 2300 6 280 17:40 07.02.2021
2836 Snow -12 1010 85 2900 6 270 17:18 07.02.2021
2837 Snow -12 1010 85 2900 6 270 17:18 07.02.2021
2838 Snow -12 1010 79 9000 7 270 16:44 07.02.2021
2839 Snow -12 1010 79 9000 7 270 16:22 07.02.2021
2840 Snow -12 1010 79 4900 7 260 16:22 07.02.2021
2841 Snow -12 1010 79 4900 7 260 15:47 07.02.2021
2842 Clouds -12 1010 72 9000 7 270 15:28 07.02.2021
2843 Clouds -12 1009 72 8000 8 250 14:47 07.02.2021
2844 Clouds -12 1009 72 8000 8 250 14:29 07.02.2021
2845 Clouds -12 1009 67 10000 6 270 13:52 07.02.2021
2846 Clouds -12 1010 67 10000 8 250 13:34 07.02.2021
2847 Clear -12 1010 67 10000 8 250 12:45 07.02.2021
2848 Clear -12 1010 72 10000 8 260 12:22 07.02.2021
2849 Clear -12 1010 67 10000 7 270 11:50 07.02.2021
2850 Clear -13 1010 72 10000 7 280 11:27 07.02.2021
2851 Clear -13 1010 72 10000 7 280 10:51 07.02.2021
2852 Clouds -13 1010 72 10000 6 300 10:26 07.02.2021
2853 Snow -14 1010 78 1500 7 310 09:49 07.02.2021
2854 Snow -14 1010 78 1500 7 310 09:21 07.02.2021
2855 Snow -15 1010 85 5000 5 290 08:31 07.02.2021
2856 Snow -16 1010 78 9000 6 270 07:38 07.02.2021
2857 Snow -16 1010 78 9000 6 270 05:57 07.02.2021
2858 Snow -18 1010 78 6000 5 260 03:54 07.02.2021
2859 Snow -19 1010 78 9000 4 290 01:37 07.02.2021
2860 Clouds -19 1010 78 9000 5 290 00:36 07.02.2021
2861 Snow -18 1009 78 10000 4 290 23:47 06.02.2021
2862 Snow -18 1009 71 10000 5 290 22:48 06.02.2021
2863 Snow -17 1009 71 10000 5 310 21:43 06.02.2021
2864 Snow -17 1009 71 10000 5 310 21:23 06.02.2021
2865 Snow -17 1009 71 10000 5 330 20:53 06.02.2021
2866 Snow -17 1008 71 10000 7 330 20:26 06.02.2021
2867 Snow -17 1008 71 10000 6 310 19:58 06.02.2021
2868 Snow -17 1008 78 8000 5 300 19:34 06.02.2021
2869 Clouds -17 1008 78 10000 5 290 18:59 06.02.2021
2870 Clouds -16 1008 71 10000 6 290 18:41 06.02.2021
2871 Snow -16 1008 71 10000 5 300 18:20 06.02.2021
2872 Snow -16 1008 71 10000 5 300 17:40 06.02.2021
2873 Snow -16 1008 71 10000 5 300 17:20 06.02.2021
2874 Snow -16 1008 71 10000 6 310 16:42 06.02.2021
2875 Snow -16 1008 71 10000 6 310 16:24 06.02.2021
2876 Mist -16 1007 78 6000 6 320 15:50 06.02.2021
2877 Snow -15 1007 72 9000 6 300 15:29 06.02.2021
2878 Snow -15 1007 66 10000 7 300 14:49 06.02.2021
2879 Snow -15 1007 66 10000 7 300 14:29 06.02.2021
2880 Snow -15 1006 66 9000 8 300 13:57 06.02.2021
2881 Snow -15 1006 66 10000 7 300 13:38 06.02.2021
2882 Clouds -15 1006 66 10000 8 300 12:24 06.02.2021
2883 Clouds -15 1006 61 10000 7 290 11:58 06.02.2021
2884 Snow -15 1006 72 10000 6 310 11:40 06.02.2021
2885 Snow -15 1006 72 9000 6 310 11:19 06.02.2021
2886 Snow -15 1006 72 8000 6 310 10:49 06.02.2021
2887 Snow -15 1006 72 9000 6 310 10:25 06.02.2021
2888 Snow -15 1006 72 10000 6 300 09:38 06.02.2021
2889 Snow -15 1006 72 10000 6 300 09:19 06.02.2021
2890 Snow -15 1006 72 10000 6 300 08:56 06.02.2021
2891 Snow -15 1006 78 8000 5 290 08:29 06.02.2021
2892 Snow -16 1006 78 9000 5 290 06:51 06.02.2021
2893 Snow -15 1006 78 7000 6 280 05:41 06.02.2021
2894 Snow -14 1006 72 10000 5 280 02:44 06.02.2021
2895 Snow -13 1007 72 10000 6 290 00:58 06.02.2021
2896 Snow -13 1007 72 5000 6 300 00:40 06.02.2021
2897 Snow -12 1007 72 9000 6 300 00:18 06.02.2021
2898 Clouds -12 1007 66 10000 6 300 23:34 05.02.2021
2899 Clouds -12 1006 72 10000 7 300 22:51 05.02.2021
2900 Snow -12 1006 72 10000 7 300 22:25 05.02.2021
2901 Clouds -12 1006 67 10000 7 310 21:57 05.02.2021
2902 Snow -12 1006 67 10000 6 300 21:37 05.02.2021
2903 Snow -12 1006 72 10000 5 310 20:58 05.02.2021
2904 Snow -12 1006 79 10000 6 320 20:34 05.02.2021
2905 Snow -11 1006 85 8000 5 310 19:46 05.02.2021
2906 Snow -11 1006 73 10000 5 310 19:18 05.02.2021
2907 Snow -11 1006 73 10000 6 300 18:43 05.02.2021
2908 Snow -11 1006 73 10000 6 290 18:19 05.02.2021
2909 Snow -11 1006 73 10000 8 290 17:42 05.02.2021
2910 Snow -11 1006 73 10000 8 290 17:20 05.02.2021
2911 Snow -11 1006 73 10000 6 280 16:43 05.02.2021
2912 Snow -11 1006 73 10000 6 290 16:21 05.02.2021
2913 Snow -11 1006 73 10000 6 280 15:50 05.02.2021
2914 Snow -11 1006 73 10000 6 280 15:23 05.02.2021
2915 Clouds -11 1006 73 10000 6 290 14:40 05.02.2021
2916 Clouds -10 1006 73 10000 6 290 14:21 05.02.2021
2917 Clouds -10 1005 73 10000 7 290 13:53 05.02.2021
2918 Clouds -10 1005 73 10000 8 280 13:33 05.02.2021
2919 Clouds -10 1005 67 10000 5 280 12:46 05.02.2021
2920 Clouds -10 1005 67 10000 7 290 12:25 05.02.2021
2921 Clouds -10 1005 73 10000 6 310 11:40 05.02.2021
2922 Clouds -10 1005 73 10000 6 300 11:21 05.02.2021
2923 Clouds -10 1005 73 10000 6 300 10:54 05.02.2021
2924 Clouds -11 1005 73 10000 7 300 10:26 05.02.2021
2925 Snow -12 1005 79 10000 6 300 09:45 05.02.2021
2926 Snow -12 1005 79 10000 6 300 09:26 05.02.2021
2927 Snow -12 1005 79 10000 7 290 08:51 05.02.2021
2928 Snow -12 1004 79 9000 6 300 08:20 05.02.2021
2929 Snow -12 1004 85 9000 5 300 07:36 05.02.2021
2930 Snow -12 1004 79 10000 6 310 06:49 05.02.2021
2931 Snow -10 1003 79 10000 6 320 05:37 05.02.2021
2932 Snow -8 1002 79 10000 7 330 02:52 05.02.2021
2933 Snow -8 1002 79 10000 7 330 02:24 05.02.2021
2934 Snow -7 1001 86 6000 6 350 00:40 05.02.2021
2935 Snow -7 1001 86 6000 6 350 00:20 05.02.2021
2936 Snow -7 1001 86 2200 7 340 23:55 04.02.2021
2937 Snow -7 1001 86 4000 6 340 23:37 04.02.2021
2938 Snow -7 1001 86 4000 6 340 23:19 04.02.2021
2939 Snow -7 1001 93 3100 5 350 22:49 04.02.2021
2940 Snow -7 1001 93 3100 5 350 22:25 04.02.2021
2941 Snow -6 1001 86 1400 5 350 21:42 04.02.2021
2942 Snow -6 1001 86 8000 5 360 21:19 04.02.2021
2943 Snow -6 1001 86 8000 5 360 20:48 04.02.2021
2944 Snow -6 1001 79 8000 5 360 20:29 04.02.2021
2945 Snow -5 1001 73 10000 5 360 19:43 04.02.2021
2946 Snow -4 1001 79 10000 4 360 18:57 04.02.2021
2947 Snow -4 1001 79 10000 5 360 18:26 04.02.2021
2948 Snow -4 1001 74 9000 5 350 17:53 04.02.2021
2949 Snow -3 1001 80 10000 3 10 17:27 04.02.2021
2950 Snow -3 1001 80 10000 3 10 16:57 04.02.2021
2951 Snow -3 1001 80 9000 3 360 16:38 04.02.2021
2952 Snow -3 1001 80 9000 3 360 16:18 04.02.2021
2953 Snow -3 1001 86 7000 3 350 15:40 04.02.2021
2954 Snow -3 1002 86 5000 3 360 15:20 04.02.2021
2955 Snow -3 1002 86 5000 3 360 15:20 04.02.2021
2956 Snow -3 1002 86 5000 3 360 14:48 04.02.2021
2957 Snow -2 1001 86 4900 4 330 14:21 04.02.2021
2958 Snow -2 1001 80 9000 3 320 13:45 04.02.2021
2959 Snow -2 1001 80 9000 3 320 13:26 04.02.2021
2960 Snow -2 1001 86 5000 3 320 12:54 04.02.2021
2961 Snow -1 1002 74 10000 4 250 11:57 04.02.2021
2962 Snow -1 1002 74 10000 5 250 11:37 04.02.2021
2963 Snow -1 1002 80 10000 4 250 11:18 04.02.2021
2964 Snow -1 1002 80 10000 5 240 10:35 04.02.2021
2965 Clouds -2 1002 80 9000 5 240 09:46 04.02.2021
2966 Clouds -2 1002 80 9000 5 240 09:23 04.02.2021
2967 Snow -2 1002 86 7000 5 240 08:57 04.02.2021
2968 Snow -2 1002 93 6000 4 240 08:26 04.02.2021
2969 Clouds -2 1002 93 6000 4 240 07:58 04.02.2021
2970 Snow -2 1002 86 6000 4 230 07:35 04.02.2021
2971 Clouds -2 1002 93 7000 5 240 06:53 04.02.2021
2972 Mist -2 1001 93 5000 4 240 06:34 04.02.2021
2973 Snow -2 1002 100 4100 4 220 02:41 04.02.2021
2974 Snow -2 1002 100 3500 5 220 02:23 04.02.2021
2975 Snow -2 1002 93 2100 4 200 00:31 04.02.2021
2976 Snow -3 1002 93 6000 4 200 23:39 03.02.2021
2977 Snow -3 1003 93 5000 4 200 22:41 03.02.2021
2978 Snow -3 1003 93 5000 4 200 22:21 03.02.2021
2979 Snow -4 1003 93 4200 3 200 21:55 03.02.2021
2980 Snow -4 1003 93 5000 3 190 21:25 03.02.2021
2981 Snow -4 1003 93 3000 3 190 20:58 03.02.2021
2982 Snow -4 1003 93 5000 3 190 20:38 03.02.2021
2983 Snow -4 1003 93 5000 3 190 20:18 03.02.2021
2984 Snow -4 1004 86 3100 4 170 19:41 03.02.2021
2985 Snow -4 1004 86 3100 4 170 19:18 03.02.2021
2986 Snow -4 1004 93 5000 4 180 18:41 03.02.2021
2987 Snow -5 1004 86 7000 4 170 18:19 03.02.2021
2988 Snow -5 1004 86 7000 4 170 17:49 03.02.2021
2989 Snow -5 1004 86 6000 4 160 17:30 03.02.2021
2990 Snow -5 1004 86 2300 4 160 16:53 03.02.2021
2991 Snow -5 1005 86 6000 4 160 16:29 03.02.2021
2992 Snow -5 1005 86 5000 3 130 15:45 03.02.2021
2993 Snow -5 1005 86 6000 3 160 15:25 03.02.2021
2994 Snow -5 1006 86 8000 4 140 14:53 03.02.2021
2995 Snow -5 1006 86 8000 4 140 14:53 03.02.2021
2996 Snow -5 1006 86 6000 3 160 14:26 03.02.2021
2997 Snow -5 1006 80 9000 4 160 13:54 03.02.2021
2998 Snow -5 1006 86 8000 3 160 13:28 03.02.2021
2999 Snow -5 1007 86 1300 3 160 12:49 03.02.2021
3000 Snow -6 1007 79 9000 4 150 12:27 03.02.2021
3001 Snow -6 1007 79 10000 4 150 11:54 03.02.2021
3002 Snow -6 1008 79 10000 4 140 11:36 03.02.2021
3003 Snow -6 1008 79 10000 4 140 10:56 03.02.2021
3004 Clouds -7 1008 79 10000 4 130 10:22 03.02.2021
3005 Clouds -7 1009 73 10000 5 130 09:48 03.02.2021
3006 Clouds -7 1009 73 10000 5 130 09:29 03.02.2021
3007 Clouds -7 1010 79 10000 6 140 08:54 03.02.2021
3008 Clouds -8 1010 79 10000 4 130 08:34 03.02.2021
3009 Clear -8 1011 73 10000 5 140 07:41 03.02.2021
3010 Snow -9 1011 86 10000 5 120 06:41 03.02.2021
3011 Snow -10 1013 85 10000 3 80 04:55 03.02.2021
3012 Snow -10 1013 85 9000 4 80 04:34 03.02.2021
3013 Clouds -10 1014 85 7000 3 80 03:40 03.02.2021
3014 Snow -10 1014 92 7000 3 80 02:37 03.02.2021
3015 Clouds -9 1015 92 6000 2 90 01:19 03.02.2021
3016 Snow -11 1016 92 6000 1 50 00:20 03.02.2021
3017 Clouds -10 1016 85 6000 1 110 23:40 02.02.2021
3018 Mist -11 1016 85 5000 1 0 23:22 02.02.2021
3019 Mist -11 1016 92 4900 1 100 22:37 02.02.2021
3020 Mist -11 1016 92 4900 1 100 22:18 02.02.2021
3021 Clouds -10 1016 92 6000 1 0 21:44 02.02.2021
3022 Clouds -10 1016 86 7000 1 150 21:22 02.02.2021
3023 Clouds -10 1016 86 7000 1 150 20:48 02.02.2021
3024 Mist -9 1016 86 9000 1 0 20:21 02.02.2021
3025 Clouds -8 1016 86 9000 1 190 19:49 02.02.2021
3026 Clouds -8 1016 86 9000 1 190 19:30 02.02.2021
3027 Clouds -8 1016 86 9000 1 190 19:30 02.02.2021
3028 Clouds -8 1016 86 9000 1 190 19:30 02.02.2021
3029 Clear -9 1017 79 10000 1 0 18:46 02.02.2021
3030 Clear -9 1017 79 10000 1 0 18:26 02.02.2021
3031 Clear -9 1017 79 10000 1 0 18:26 02.02.2021
3032 Mist -9 1017 79 10000 1 180 17:59 02.02.2021
3033 Clear -8 1017 79 10000 1 0 17:36 02.02.2021
3034 Clear -8 1017 79 10000 1 0 17:18 02.02.2021
3035 Clear -6 1016 79 10000 1 190 16:42 02.02.2021
3036 Clear -6 1016 79 10000 1 190 16:23 02.02.2021
3037 Clear -5 1016 74 10000 2 200 15:42 02.02.2021
3038 Clear -6 1016 74 10000 2 230 15:22 02.02.2021
3039 Clear -6 1016 74 10000 2 210 14:49 02.02.2021
3040 Clear -6 1016 74 10000 2 210 14:28 02.02.2021
3041 Clear -4 1016 74 10000 2 250 13:56 02.02.2021
3042 Clear -4 1016 74 10000 2 230 13:37 02.02.2021
3043 Clear -4 1016 74 10000 3 240 13:19 02.02.2021
3044 Clear -4 1016 74 10000 3 230 12:41 02.02.2021
3045 Clear -6 1016 80 10000 3 240 11:45 02.02.2021
3046 Clear -6 1016 79 10000 2 230 11:24 02.02.2021
3047 Clear -7 1015 86 10000 2 240 10:56 02.02.2021
3048 Clear -8 1015 86 10000 2 240 10:27 02.02.2021
3049 Clear -9 1015 86 10000 2 200 09:47 02.02.2021
3050 Clear -10 1015 86 10000 2 200 09:26 02.02.2021
3051 Clear -11 1015 85 10000 3 240 08:59 02.02.2021
3052 Clear -12 1014 85 10000 3 220 08:32 02.02.2021
3053 Clear -12 1014 92 10000 3 220 07:41 02.02.2021
3054 Clear -13 1014 85 10000 2 210 06:45 02.02.2021
3055 Clouds -12 1013 92 10000 2 200 06:21 02.02.2021
3056 Clouds -13 1013 92 10000 2 230 05:46 02.02.2021
3057 Mist -12 1011 92 10000 1.62 262 02:45 02.02.2021
3058 Mist -11 1011 92 10000 2 200 02:23 02.02.2021
3059 Clear -11 1011 92 10000 4 230 00:37 02.02.2021
3060 Clear -8 1011 86 10000 4 230 23:37 01.02.2021
3061 Clear -8 1010 86 10000 3 220 22:51 01.02.2021
3062 Clear -8 1010 86 10000 3 220 22:33 01.02.2021
3063 Clear -7 1010 79 10000 4 210 21:53 01.02.2021
3064 Clear -7 1010 79 10000 4 210 21:35 01.02.2021
3065 Clear -7 1010 74 10000 4 210 20:58 01.02.2021
3066 Clear -7 1010 80 10000 5 210 20:40 01.02.2021
3067 Clear -6 1010 80 10000 4 200 20:22 01.02.2021
3068 Clear -6 1010 74 10000 3 200 19:41 01.02.2021
3069 Clear -5 1010 68 10000 3 200 19:21 01.02.2021
3070 Clear -4 1010 68 10000 4 200 18:49 01.02.2021
3071 Clear -4 1010 68 10000 4 200 18:28 01.02.2021
3072 Clear -4 1009 68 10000 5 190 17:48 01.02.2021
3073 Clear -3 1009 64 10000 4 200 17:25 01.02.2021
3074 Clear -3 1009 64 10000 4 200 16:56 01.02.2021
3075 Clear -3 1009 64 10000 5 190 16:29 01.02.2021
3076 Clear -2 1009 69 10000 5 200 15:47 01.02.2021
3077 Clear -2 1009 64 10000 6 200 15:19 01.02.2021
3078 Clear -1 1008 64 10000 6 200 14:52 01.02.2021
3079 Clear -1 1008 64 10000 6 200 14:33 01.02.2021
3080 Snow -1 1008 64 10000 6 200 13:50 01.02.2021
3081 Snow -1 1008 64 10000 6 200 13:27 01.02.2021
3082 Snow -1 1008 64 10000 7 210 12:58 01.02.2021
3083 Snow -1 1008 69 10000 6 210 12:40 01.02.2021
3084 Clear -1 1008 69 10000 6 210 12:21 01.02.2021
3085 Snow -2 1007 69 10000 5 210 11:40 01.02.2021
3086 Clouds -2 1007 69 10000 6 210 11:19 01.02.2021
3087 Clouds -2 1007 80 10000 7 220 10:44 01.02.2021
3088 Clouds -3 1007 80 10000 9 220 10:19 01.02.2021
3089 Clouds -3 1006 80 10000 7 220 09:43 01.02.2021
3090 Snow -3 1006 80 10000 7 210 09:20 01.02.2021
3091 Snow -3 1006 86 10000 6 210 08:44 01.02.2021
3092 Snow -4 1005 80 10000 7 220 07:37 01.02.2021
3093 Snow -3 1004 74 10000 9 230 06:20 01.02.2021
3094 Snow -3 1000 86 7000 8 220 03:21 01.02.2021
3095 Snow -4 999 86 9000 7 210 00:58 01.02.2021
3096 Clouds -4 998 80 10000 7 210 23:42 31.01.2021
3097 Clouds -4 997 80 10000 8 230 22:44 31.01.2021
3098 Clouds -4 997 80 10000 8 230 22:24 31.01.2021
3099 Clouds -4 997 80 10000 8 230 21:52 31.01.2021
3100 Snow -4 996 80 10000 9 230 21:25 31.01.2021
3101 Snow -4 996 80 10000 9 230 20:57 31.01.2021
3102 Snow -4 995 86 10000 8 230 20:37 31.01.2021
3103 Snow -4 995 86 6000 8 230 20:18 31.01.2021
3104 Snow -4 994 86 8000 7 230 19:37 31.01.2021
3105 Snow -4 994 86 8000 7 230 19:19 31.01.2021
3106 Snow -4 994 86 10000 6 230 18:41 31.01.2021
3107 Snow -4 994 86 10000 6 230 18:41 31.01.2021
3108 Snow -4 993 80 10000 6 240 18:21 31.01.2021
3109 Snow -4 993 80 10000 7 230 17:47 31.01.2021
3110 Snow -4 993 80 10000 7 230 17:24 31.01.2021
3111 Snow -4 992 86 10000 6 230 16:52 31.01.2021
3112 Snow -4 992 86 10000 6 230 16:34 31.01.2021
3113 Snow -4 992 86 10000 7 250 15:54 31.01.2021
3114 Snow -4 992 86 10000 7 250 15:35 31.01.2021
3115 Snow -4 992 86 5000 6 250 14:50 31.01.2021
3116 Snow -3 991 80 10000 6 250 14:26 31.01.2021
3117 Snow -3 991 86 9000 5 250 13:57 31.01.2021
3118 Snow -3 991 86 8000 4 250 13:38 31.01.2021
3119 Snow -3 991 86 6000 5 270 12:56 31.01.2021
3120 Snow -3 991 86 6000 3 270 12:37 31.01.2021
3121 Snow -3 991 80 6000 3 300 12:19 31.01.2021
3122 Snow -3 991 80 10000 4 280 11:38 31.01.2021
3123 Snow -4 991 80 10000 4 280 11:19 31.01.2021
3124 Snow -3 990 86 9000 3 290 10:44 31.01.2021
3125 Snow -3 990 86 9000 3 290 10:25 31.01.2021
3126 Snow -3 991 86 2700 2 280 09:34 31.01.2021
3127 Snow -4 991 93 3200 2 310 08:34 31.01.2021
3128 Snow -4 991 93 4700 2 330 07:50 31.01.2021
3129 Snow -4 991 93 1900 2 10 06:25 31.01.2021
3130 Snow -4 994 86 10000 2 150 02:19 31.01.2021
3131 Snow -4 995 80 10000 4 180 00:28 31.01.2021
3132 Snow -4 995 80 8000 4 180 23:43 30.01.2021
3133 Snow -4 995 80 10000 4 180 23:22 30.01.2021
3134 Snow -4 995 80 10000 6 180 22:37 30.01.2021
3135 Snow -4 995 80 10000 5 180 21:45 30.01.2021
3136 Snow -3 995 80 10000 5 190 21:24 30.01.2021
3137 Snow -3 995 80 10000 5 190 20:58 30.01.2021
3138 Snow -3 995 74 10000 6 190 20:38 30.01.2021
3139 Snow -3 995 74 10000 6 190 19:59 30.01.2021
3140 Snow -3 995 80 10000 6 190 19:40 30.01.2021
3141 Snow -3 995 80 10000 6 190 19:19 30.01.2021
3142 Snow -3 995 80 10000 6 180 19:19 30.01.2021
3143 Snow -3 995 80 9000 6 190 18:40 30.01.2021
3144 Snow -3 994 80 10000 7 190 18:20 30.01.2021
3145 Snow -3 994 80 10000 7 190 17:47 30.01.2021
3146 Snow -3 994 80 10000 6 190 17:19 30.01.2021
3147 Snow -3 994 74 10000 6 200 16:41 30.01.2021
3148 Snow -3 993 80 10000 6 200 16:22 30.01.2021
3149 Snow -3 993 80 9000 6 200 15:49 30.01.2021
3150 Snow -3 993 80 9000 6 200 15:25 30.01.2021
3151 Snow -3 993 86 9000 6 200 14:58 30.01.2021
3152 Snow -2 992 80 9000 7 200 14:38 30.01.2021
3153 Snow -2 992 74 10000 7 200 14:18 30.01.2021
3154 Snow -2 992 80 10000 6 200 13:23 30.01.2021
3155 Snow -2 991 86 4500 6 190 12:46 30.01.2021
3156 Snow -2 991 86 4500 6 190 12:27 30.01.2021
3157 Snow -3 991 80 5000 7 190 11:47 30.01.2021
3158 Snow -3 990 80 10000 6 190 11:21 30.01.2021
3159 Snow -3 990 80 7000 6 180 10:29 30.01.2021
3160 Snow -3 990 80 9000 6 190 09:43 30.01.2021
3161 Snow -3 990 80 9000 6 190 09:24 30.01.2021
3162 Snow -3 989 86 9000 5 190 08:45 30.01.2021
3163 Snow -3 989 86 4800 5 180 07:44 30.01.2021
3164 Snow -4 989 80 6000 5 160 06:35 30.01.2021
3165 Snow -3 989 74 10000 5 160 03:57 30.01.2021
3166 Snow -3 989 74 10000 5 160 03:33 30.01.2021
3167 Snow -2 989 74 10000 4 150 02:23 30.01.2021
3168 Snow -2 989 80 4800 4 150 00:58 30.01.2021
3169 Snow -2 989 93 4100 5 150 00:35 30.01.2021
3170 Snow -2 990 86 5000 5 160 23:55 29.01.2021
3171 Snow -2 990 80 8000 6 160 23:28 29.01.2021
3172 Snow -2 990 80 7000 7 160 22:56 29.01.2021
3173 Snow -2 990 74 10000 6 160 22:37 29.01.2021
3174 Snow -1 990 74 10000 5 160 21:59 29.01.2021
3175 Snow -1 990 80 10000 5 160 21:28 29.01.2021
3176 Snow -1 990 80 10000 7 160 20:45 29.01.2021
3177 Snow -1 990 80 10000 6 160 20:24 29.01.2021
3178 Snow -1 990 93 6000 6 130 19:42 29.01.2021
3179 Snow 0 990 93 6000 6 130 19:22 29.01.2021
3180 Snow 0 990 80 10000 6 140 18:57 29.01.2021
3181 Snow 0 990 80 10000 7 130 17:59 29.01.2021
3182 Snow 0 990 80 10000 7 130 17:37 29.01.2021
3183 Snow 0 990 80 10000 7 130 17:18 29.01.2021
3184 Snow 0 990 80 10000 8 120 16:39 29.01.2021
3185 Snow 0 990 80 10000 8 120 16:21 29.01.2021
3186 Snow 0 990 80 10000 7 120 16:21 29.01.2021
3187 Snow 0 991 80 10000 7 120 15:42 29.01.2021
3188 Snow 0 991 80 10000 7 120 15:23 29.01.2021
3189 Snow 0 991 80 10000 8 130 14:31 29.01.2021
3190 Snow 0 991 69 10000 7 130 13:59 29.01.2021
3191 Snow 1 992 69 10000 6 150 13:36 29.01.2021
3192 Snow 1 992 69 10000 6 130 12:49 29.01.2021
3193 Snow 1 992 80 9000 6 120 12:22 29.01.2021
3194 Snow 1 993 80 10000 7 130 11:46 29.01.2021
3195 Snow 1 993 80 10000 7 130 11:19 29.01.2021
3196 Snow 1 993 80 10000 7 130 11:19 29.01.2021
3197 Snow 1 993 80 10000 7 130 10:48 29.01.2021
3198 Clouds 1 993 80 10000 6 140 10:27 29.01.2021
3199 Mist 1 994 93 5000 5 130 09:45 29.01.2021
3200 Snow 1 994 93 5000 6 130 08:57 29.01.2021
3201 Clouds 0 994 93 9000 5 140 08:33 29.01.2021
3202 Snow 0 995 93 9000 6 130 07:58 29.01.2021
3203 Clouds 0 995 93 9000 5 120 07:39 29.01.2021
3204 Clouds 0 995 93 9000 5 120 07:39 29.01.2021
3205 Rain 0 995 93 3800 5 120 07:19 29.01.2021
3206 Snow 0 995 93 6000 6 110 05:20 29.01.2021
3207 Snow 0 996 93 7000 5 120 03:33 29.01.2021
3208 Snow 0 998 93 6000 5 120 00:40 29.01.2021
3209 Snow 0 999 93 4000 5 110 00:22 29.01.2021
3210 Snow 0 999 93 4000 5 110 23:43 28.01.2021
3211 Snow 0 999 100 1600 4 120 23:24 28.01.2021
3212 Snow 0 999 93 3500 5 130 22:46 28.01.2021
3213 Snow 0 999 93 5000 5 140 22:26 28.01.2021
3214 Snow 1 999 93 7000 6 140 21:57 28.01.2021
3215 Snow 1 999 100 5000 6 130 21:34 28.01.2021
3216 Snow 1 999 100 4600 6 130 20:59 28.01.2021
3217 Snow 1 1000 100 3200 5 140 20:39 28.01.2021
3218 Mist 1 1000 93 4300 6 130 20:18 28.01.2021
3219 Mist 1 1000 93 5000 5 140 19:41 28.01.2021
3220 Mist 1 1000 93 5000 5 140 19:23 28.01.2021
3221 Snow 1 1000 93 8000 5 110 18:43 28.01.2021
3222 Snow 1 1000 93 6000 5 120 18:20 28.01.2021
3223 Snow 1 1000 93 10000 6 120 17:46 28.01.2021
3224 Snow 1 1000 93 10000 6 120 17:27 28.01.2021
3225 Snow 1 1001 100 4800 4 110 16:45 28.01.2021
3226 Snow 1 1001 100 6000 5 100 16:24 28.01.2021
3227 Rain 1 1001 100 6000 5 90 15:51 28.01.2021
3228 Snow 1 1001 100 9000 6 90 15:20 28.01.2021
3229 Rain 1 1001 100 9000 6 90 14:42 28.01.2021
3230 Snow 1 1002 100 4800 6 80 14:23 28.01.2021
3231 Snow 1 1002 100 2400 4 80 13:49 28.01.2021
3232 Snow 1 1002 100 2400 4 80 13:19 28.01.2021
3233 Snow 1 1002 93 2400 4 70 12:45 28.01.2021
3234 Snow 1 1003 93 2800 4 80 12:21 28.01.2021
3235 Snow 0 1003 93 1700 4 80 11:44 28.01.2021
3236 Snow 0 1003 100 2300 5 70 11:20 28.01.2021
3237 Snow 0 1003 100 2300 5 70 10:54 28.01.2021
3238 Snow 0 1003 93 5000 5 60 10:35 28.01.2021
3239 Snow 0 1004 93 3200 5 60 09:59 28.01.2021
3240 Snow 0 1004 93 1600 5 60 09:30 28.01.2021
3241 Snow 0 1004 93 1900 5 60 08:57 28.01.2021
3242 Snow 0 1005 93 2100 5 60 08:39 28.01.2021
3243 Snow -1 1005 100 1600 4 50 07:46 28.01.2021
3244 Snow -1 1005 86 10000 4 70 06:51 28.01.2021
3245 Snow -1 1005 86 10000 4 70 06:31 28.01.2021
3246 Snow -1 1005 86 10000 3 70 04:30 28.01.2021
3247 Snow -1 1006 74 10000 0.79 109 01:41 28.01.2021
3248 Snow -1 1006 74 10000 0.79 109 01:41 28.01.2021
3249 Snow 0 1006 74 10000 2 200 23:56 27.01.2021
3250 Clouds 0 1006 74 10000 2 190 23:24 27.01.2021
3251 Snow 0 1006 74 10000 2 210 22:44 27.01.2021
3252 Snow 0 1006 74 10000 2 200 22:25 27.01.2021
3253 Snow 0 1006 74 10000 3 200 21:55 27.01.2021
3254 Snow 0 1006 69 10000 2 180 21:37 27.01.2021
3255 Snow 1 1006 69 10000 2 190 21:19 27.01.2021
3256 Snow 1 1006 69 10000 4 210 20:39 27.01.2021
3257 Snow 1 1006 69 10000 4 210 19:57 27.01.2021
3258 Snow 1 1006 69 10000 4 210 19:38 27.01.2021
3259 Snow 1 1006 69 10000 4 200 19:20 27.01.2021
3260 Snow 1 1005 69 10000 5 210 18:41 27.01.2021
3261 Snow 1 1005 69 10000 5 210 18:22 27.01.2021
3262 Clouds 1 1005 69 10000 4 200 17:45 27.01.2021
3263 Clouds 1 1005 69 10000 4 200 17:21 27.01.2021
3264 Clouds 1 1005 69 10000 7 220 16:48 27.01.2021
3265 Clouds 1 1005 69 10000 7 210 16:28 27.01.2021
3266 Clouds 1 1004 69 10000 6 210 15:50 27.01.2021
3267 Clouds 1 1004 69 10000 6 210 15:31 27.01.2021
3268 Clouds 2 1004 64 10000 8 200 14:43 27.01.2021
3269 Snow 2 1004 64 10000 6 200 14:22 27.01.2021
3270 Clouds 2 1003 64 10000 7 200 13:45 27.01.2021
3271 Snow 2 1004 64 10000 6 200 13:45 27.01.2021
3272 Snow 2 1003 64 10000 7 200 12:58 27.01.2021
3273 Snow 2 1002 64 10000 7 200 12:39 27.01.2021
3274 Rain 2 1002 64 10000 7 200 12:18 27.01.2021
3275 Clouds 2 1002 64 10000 8 190 11:44 27.01.2021
3276 Clouds 2 1001 64 10000 7 180 11:21 27.01.2021
3277 Clouds 2 1001 64 10000 9 180 10:39 27.01.2021
3278 Clouds 2 1001 69 10000 8 180 10:19 27.01.2021
3279 Snow 2 1000 69 10000 8 170 09:41 27.01.2021
3280 Clouds 1 1000 69 10000 8 170 08:59 27.01.2021
3281 Snow 2 1000 64 10000 10 170 08:31 27.01.2021
3282 Clouds 1 999 64 10000 8 170 07:43 27.01.2021
3283 Clouds 1 999 64 10000 8 170 07:19 27.01.2021
3284 Snow 2 999 64 10000 9 170 06:19 27.01.2021
3285 Clouds 2 999 60 10000 8 170 05:43 27.01.2021
3286 Clouds 2 1000 80 6000 5 180 03:35 27.01.2021
3287 Clouds 2 1000 80 8000 7 140 02:23 27.01.2021
3288 Rain 2 1001 80 10000 7 140 01:50 27.01.2021
3289 Clouds 2 1002 75 10000 8 130 00:34 27.01.2021
3290 Rain 2 1002 75 10000 7 130 23:49 26.01.2021
3291 Clouds 2 1003 75 10000 6 140 23:30 26.01.2021
3292 Clouds 2 1003 75 10000 6 150 22:50 26.01.2021
3293 Rain 2 1003 75 10000 6 140 22:24 26.01.2021
3294 Clouds 2 1003 75 10000 7 140 21:54 26.01.2021
3295 Clouds 2 1003 75 10000 6 140 21:34 26.01.2021
3296 Clouds 2 1003 75 10000 7 150 20:59 26.01.2021
3297 Snow 2 1004 75 10000 7 150 20:40 26.01.2021
3298 Rain 2 1004 75 10000 5 150 20:21 26.01.2021
3299 Rain 2 1004 75 10000 5 150 19:46 26.01.2021
3300 Clouds 2 1003 86 10000 6 160 19:24 26.01.2021
3301 Clouds 2 1003 93 9000 7 150 18:49 26.01.2021
3302 Snow 2 1003 93 9000 7 150 18:28 26.01.2021
3303 Snow 2 1004 80 10000 7 150 17:58 26.01.2021
3304 Rain 2 1003 87 10000 6 150 17:40 26.01.2021
3305 Snow 2 1003 93 10000 8 130 17:19 26.01.2021
3306 Snow 2 1003 93 10000 8 120 16:40 26.01.2021
3307 Snow 2 1003 93 6000 9 120 16:19 26.01.2021
3308 Snow 2 1003 93 6000 9 120 15:47 26.01.2021
3309 Snow 1 1003 93 9000 8 120 15:26 26.01.2021
3310 Snow 2 1003 93 9000 9 120 14:48 26.01.2021
3311 Snow 2 1004 93 10000 10 120 14:29 26.01.2021
3312 Snow 1 1004 93 10000 8 120 13:37 26.01.2021
3313 Snow 1 1004 86 5000 7 110 13:19 26.01.2021
3314 Snow 1 1004 86 5000 7 110 12:43 26.01.2021
3315 Snow 2 1005 80 10000 8 120 12:24 26.01.2021
3316 Snow 2 1005 80 10000 8 120 11:57 26.01.2021
3317 Snow 2 1005 80 10000 8 120 11:57 26.01.2021
3318 Snow 1 1006 86 10000 7 120 11:38 26.01.2021
3319 Snow 1 1006 86 10000 6 110 10:45 26.01.2021
3320 Snow 1 1006 86 10000 7 100 10:27 26.01.2021
3321 Snow 1 1007 93 6000 7 110 09:42 26.01.2021
3322 Clouds 1 1007 93 6000 7 110 09:23 26.01.2021
3323 Mist 1 1007 93 5000 8 110 08:52 26.01.2021
3324 Snow 1 1007 93 4100 6 110 08:29 26.01.2021
3325 Snow 0 1008 93 2700 7 110 07:43 26.01.2021
3326 Snow 0 1008 93 1300 6 120 06:21 26.01.2021
3327 Snow 0 1009 100 1600 7 120 05:42 26.01.2021
3328 Drizzle 0 1009 93 1900 8 120 04:23 26.01.2021
3329 Mist 0 1010 93 3400 6 110 02:44 26.01.2021
3330 Drizzle 0 1010 93 3300 6 120 00:56 26.01.2021
3331 Snow 1 1011 93 5000 7 120 23:39 25.01.2021
3332 Clouds 1 1011 93 8000 6 110 22:57 25.01.2021
3333 Clouds 1 1011 93 7000 7 120 22:38 25.01.2021
3334 Clouds 1 1011 93 8000 6 130 21:52 25.01.2021
3335 Clouds 1 1011 93 8000 6 130 21:33 25.01.2021
3336 Clouds 1 1011 86 9000 6 130 20:52 25.01.2021
3337 Clouds 1 1011 86 9000 6 130 20:33 25.01.2021
3338 Clouds 1 1011 86 10000 5 140 19:52 25.01.2021
3339 Clouds 1 1011 86 10000 6 130 19:32 25.01.2021
3340 Clouds 1 1011 86 9000 6 130 18:49 25.01.2021
3341 Clouds 1 1011 86 9000 6 130 18:28 25.01.2021
3342 Clouds 1 1011 86 10000 6 130 17:59 25.01.2021
3343 Clouds 1 1011 86 10000 6 130 17:41 25.01.2021
3344 Clouds 1 1011 86 10000 7 140 17:23 25.01.2021
3345 Clouds 1 1011 86 10000 6 130 16:41 25.01.2021
3346 Clouds 1 1011 86 10000 6 130 16:22 25.01.2021
3347 Clouds 1 1011 80 10000 5 140 15:50 25.01.2021
3348 Clouds 1 1011 86 10000 5 130 15:50 25.01.2021
3349 Clouds 1 1011 80 10000 5 140 15:31 25.01.2021
3350 Clouds 1 1011 80 10000 7 140 14:50 25.01.2021
3351 Clouds 2 1011 80 10000 6 140 14:20 25.01.2021
3352 Clouds 2 1011 80 10000 6 140 13:54 25.01.2021
3353 Clouds 2 1011 80 10000 6 140 13:35 25.01.2021
3354 Clouds 2 1011 80 10000 5 140 12:49 25.01.2021
3355 Rain 2 1011 80 10000 6 150 12:24 25.01.2021
3356 Clouds 2 1011 80 10000 6 150 11:57 25.01.2021
3357 Rain 2 1011 75 10000 5 150 11:22 25.01.2021
3358 Rain 2 1010 75 10000 5 150 10:44 25.01.2021
3359 Rain 2 1010 75 10000 5 140 10:21 25.01.2021
3360 Rain 2 1010 75 10000 5 140 09:47 25.01.2021
3361 Rain 2 1010 75 10000 4 140 09:28 25.01.2021
3362 Rain 2 1010 75 10000 5 140 08:33 25.01.2021
3363 Clear 2 1010 75 10000 5 140 07:46 25.01.2021
3364 Clear 2 1010 75 10000 5 140 07:27 25.01.2021
3365 Rain 2 1010 70 10000 5 140 06:25 25.01.2021
3366 Rain 3 1010 75 10000 5 160 01:37 25.01.2021
3367 Rain 3 1010 87 10000 5 150 00:35 25.01.2021
3368 Mist 3 1010 100 4500 4 140 23:20 24.01.2021
3369 Rain 3 1010 100 4500 4 140 22:47 24.01.2021
3370 Rain 3 1010 93 4100 4 140 22:28 24.01.2021
3371 Rain 3 1010 93 3900 4 140 22:27 24.01.2021
3372 Rain 3 1010 93 3900 4 140 22:27 24.01.2021
3373 Rain 3 1010 93 3900 4 140 22:27 24.01.2021
3374 Rain 3 1010 93 4100 4 140 21:55 24.01.2021
3375 Rain 3 1010 93 3800 4 140 21:27 24.01.2021
3376 Rain 3 1010 100 2600 4 150 20:47 24.01.2021
3377 Rain 2 1010 100 2400 4 150 20:23 24.01.2021
3378 Rain 2 1010 100 2400 4 150 19:57 24.01.2021
3379 Rain 2 1010 100 2500 5 150 19:39 24.01.2021
3380 Mist 2 1010 100 2500 5 150 19:19 24.01.2021
3381 Drizzle 2 1010 100 2400 5 140 18:54 24.01.2021
3382 Drizzle 2 1010 93 2600 5 140 18:36 24.01.2021
3383 Drizzle 2 1010 93 2600 5 140 18:18 24.01.2021
3384 Drizzle 2 1010 93 2200 5 140 17:42 24.01.2021
3385 Drizzle 2 1010 93 2400 6 130 17:18 24.01.2021
3386 Drizzle 2 1010 93 2800 5 130 16:41 24.01.2021
3387 Drizzle 2 1010 93 2800 5 130 16:21 24.01.2021
3388 Drizzle 1 1010 100 2500 4 110 15:46 24.01.2021
3389 Snow 1 1010 100 2500 4 120 15:21 24.01.2021
3390 Mist 1 1011 100 2400 4 140 14:57 24.01.2021
3391 Snow 1 1011 100 2300 5 130 14:33 24.01.2021
3392 Snow 1 1011 100 2400 4 120 13:40 24.01.2021
3393 Mist 1 1011 100 2400 4 120 13:18 24.01.2021
3394 Mist 1 1011 93 3400 4 160 12:40 24.01.2021
3395 Mist 1 1011 93 3400 4 160 12:19 24.01.2021
3396 Mist 1 1011 100 3200 5 160 11:46 24.01.2021
3397 Fog 1 1011 100 2200 4 160 11:23 24.01.2021
3398 Mist 0 1011 100 2100 5 140 10:42 24.01.2021
3399 Fog 0 1011 100 1500 4 150 09:57 24.01.2021
3400 Fog 0 1011 100 700 5 150 09:22 24.01.2021
3401 Fog 0 1011 100 350 4 150 08:52 24.01.2021
3402 Fog 0 1011 100 250 3 140 07:22 24.01.2021
3403 Fog 0 1010 100 350 4 180 02:39 24.01.2021
3404 Fog 0 1011 100 650 4 190 01:00 24.01.2021
3405 Fog 1 1010 93 800 4 200 00:24 24.01.2021
3406 Fog 1 1010 93 800 4 200 23:47 23.01.2021
3407 Fog 1 1010 93 800 4 200 23:26 23.01.2021
3408 Fog 1 1010 93 800 4 200 23:26 23.01.2021
3409 Fog 1 1010 93 450 3 190 22:51 23.01.2021
3410 Fog 1 1010 100 750 4 190 22:32 23.01.2021
3411 Fog 1 1010 100 250 3 200 21:51 23.01.2021
3412 Fog 1 1010 100 200 3 210 21:22 23.01.2021
3413 Fog 1 1010 100 200 3 210 20:47 23.01.2021
3414 Fog 1 1010 93 750 3 210 20:24 23.01.2021
3415 Fog 1 1010 93 750 3 210 19:47 23.01.2021
3416 Fog 1 1010 93 750 3 210 19:47 23.01.2021
3417 Fog 1 1010 93 650 4 200 19:23 23.01.2021
3418 Mist 1 1010 93 1800 4 210 18:49 23.01.2021
3419 Mist 1 1010 93 1800 4 210 18:26 23.01.2021
3420 Mist 1 1010 93 2500 4 210 17:54 23.01.2021
3421 Mist 1 1009 93 2500 4 210 17:27 23.01.2021
3422 Mist 1 1009 93 3200 4 200 16:50 23.01.2021
3423 Mist 1 1009 93 3200 4 200 16:30 23.01.2021
3424 Mist 1 1009 93 3200 4 200 15:48 23.01.2021
3425 Mist 1 1009 93 3200 4 200 15:26 23.01.2021
3426 Mist 1 1008 93 3300 4 190 14:37 23.01.2021
3427 Mist 1 1008 93 3300 4 190 14:19 23.01.2021
3428 Mist 1 1008 93 3400 4 190 13:40 23.01.2021
3429 Mist 1 1008 93 3500 3 200 13:21 23.01.2021
3430 Mist 1 1008 93 3500 3 190 12:41 23.01.2021
3431 Mist 1 1008 93 3600 3 190 12:21 23.01.2021
3432 Mist 1 1008 93 3600 3 200 11:34 23.01.2021
3433 Mist 1 1008 93 3400 3 190 10:52 23.01.2021
3434 Mist 1 1008 93 2900 3 190 10:22 23.01.2021
3435 Mist 0 1008 100 2500 3 200 09:49 23.01.2021
3436 Snow 0 1007 100 2100 3 190 08:57 23.01.2021
3437 Snow 0 1007 93 2000 3 170 08:37 23.01.2021
3438 Fog 0 1007 93 1000 3 160 07:37 23.01.2021
3439 Mist -1 1007 100 2100 3 170 05:44 23.01.2021
3440 Mist -1 1008 93 5000 4 160 00:56 23.01.2021
3441 Snow -1 1008 93 5000 4 160 23:53 22.01.2021
3442 Mist -1 1008 93 5000 4 160 23:34 22.01.2021
3443 Snow -1 1008 93 5000 3 150 22:40 22.01.2021
3444 Snow -2 1008 93 5000 3 160 21:51 22.01.2021
3445 Snow -2 1008 93 5000 3 170 21:32 22.01.2021
3446 Snow -2 1008 93 4700 4 160 20:59 22.01.2021
3447 Snow -2 1008 93 4300 4 190 20:39 22.01.2021
3448 Mist -2 1008 93 3800 4 190 19:59 22.01.2021
3449 Mist -2 1008 93 2900 5 180 19:26 22.01.2021
3450 Mist -2 1009 100 3100 5 180 18:59 22.01.2021
3451 Mist -2 1009 100 2900 4 190 18:41 22.01.2021
3452 Mist -2 1008 100 2800 4 190 18:22 22.01.2021
3453 Mist -2 1008 100 2800 5 190 17:43 22.01.2021
3454 Mist -2 1008 100 2800 5 190 17:24 22.01.2021
3455 Mist -2 1008 100 3600 3 180 16:44 22.01.2021
3456 Mist -2 1008 93 3800 4 190 16:23 22.01.2021
3457 Mist -2 1008 100 3000 3 170 15:30 22.01.2021
3458 Mist -2 1008 100 3000 3 170 15:30 22.01.2021
3459 Mist -2 1008 100 3000 3 170 14:59 22.01.2021
3460 Mist -2 1008 93 3000 3 160 14:31 22.01.2021
3461 Mist -1 1008 93 2700 3 160 13:51 22.01.2021
3462 Mist -2 1008 93 2700 3 170 13:31 22.01.2021
3463 Mist -2 1008 100 2600 3 170 12:52 22.01.2021
3464 Mist -2 1008 93 2300 2 150 12:23 22.01.2021
3465 Snow -2 1008 93 2300 2 150 11:47 22.01.2021
3466 Snow -3 1009 93 2300 2 150 11:22 22.01.2021
3467 Snow -3 1009 93 2100 3 160 10:45 22.01.2021
3468 Snow -5 1009 100 1900 3 130 10:20 22.01.2021
3469 Fog -5 1009 93 1900 3 120 09:35 22.01.2021
3470 Snow -5 1009 93 1200 3 130 08:51 22.01.2021
3471 Snow -6 1009 93 1600 3 130 08:30 22.01.2021
3472 Snow -7 1009 93 1100 3 120 07:38 22.01.2021
3473 Snow -8 1009 86 2900 2 100 03:40 22.01.2021
3474 Snow -8 1010 86 3900 1 0 00:41 22.01.2021
3475 Snow -8 1010 86 2500 2 170 23:56 21.01.2021
3476 Snow -8 1010 79 7000 2 180 23:38 21.01.2021
3477 Snow -8 1010 79 8000 1 0 22:57 21.01.2021
3478 Snow -9 1010 85 9000 2 190 22:38 21.01.2021
3479 Snow -9 1010 85 9000 3 190 21:44 21.01.2021
3480 Clouds -9 1010 85 9000 3 190 21:22 21.01.2021
3481 Clouds -9 1010 85 9000 2 200 20:55 21.01.2021
3482 Snow -9 1010 85 9000 2 230 20:36 21.01.2021
3483 Clouds -9 1009 85 9000 3 240 20:18 21.01.2021
3484 Clouds -9 1009 85 9000 3 240 19:43 21.01.2021
3485 Clouds -9 1009 85 9000 3 240 19:23 21.01.2021
3486 Clouds -9 1009 79 9000 4 230 18:41 21.01.2021
3487 Clouds -9 1009 79 10000 5 230 18:21 21.01.2021
3488 Clouds -9 1009 79 10000 5 230 17:57 21.01.2021
3489 Clouds -10 1009 79 10000 5 230 17:21 21.01.2021
3490 Clouds -10 1009 79 10000 5 230 16:55 21.01.2021
3491 Clouds -10 1009 79 10000 5 230 16:37 21.01.2021
3492 Snow -10 1009 79 9000 4 220 16:18 21.01.2021
3493 Snow -10 1009 79 9000 4 220 15:45 21.01.2021
3494 Snow -10 1009 79 9000 4 210 15:22 21.01.2021
3495 Snow -11 1009 85 8000 5 220 14:44 21.01.2021
3496 Snow -10 1009 85 8000 5 220 14:23 21.01.2021
3497 Snow -11 1009 85 2500 4 190 13:43 21.01.2021
3498 Snow -11 1009 85 3200 4 190 13:23 21.01.2021
3499 Snow -11 1009 85 1600 4 180 12:42 21.01.2021
3500 Snow -11 1009 85 1600 4 180 12:24 21.01.2021
3501 Snow -11 1010 85 1700 3 170 11:51 21.01.2021
3502 Snow -11 1010 85 1500 4 160 11:30 21.01.2021
3503 Snow -11 1010 85 1400 4 160 10:52 21.01.2021
3504 Snow -11 1011 79 2000 5 160 10:33 21.01.2021
3505 Snow -11 1012 85 2600 5 170 09:45 21.01.2021
3506 Snow -12 1012 85 2600 5 170 09:26 21.01.2021
3507 Snow -12 1012 79 3500 4 170 08:48 21.01.2021
3508 Snow -12 1013 67 10000 4 190 08:27 21.01.2021
3509 Snow -13 1013 72 10000 4 190 07:43 21.01.2021
3510 Snow -14 1014 72 10000 4 190 07:20 21.01.2021
3511 Clear -14 1015 78 10000 4 200 05:24 21.01.2021
3512 Clear -15 1017 78 10000 4 220 02:59 21.01.2021
3513 Clear -16 1017 85 10000 3 200 01:25 21.01.2021
3514 Clear -16 1018 85 10000 2 210 00:40 21.01.2021
3515 Clear -15 1018 78 10000 5 220 23:39 20.01.2021
3516 Clear -15 1018 78 10000 5 220 23:21 20.01.2021
3517 Clear -14 1018 85 10000 5 210 22:48 20.01.2021
3518 Clear -14 1018 85 10000 5 210 22:28 20.01.2021
3519 Clear -13 1018 85 10000 4 210 21:48 20.01.2021
3520 Clear -12 1018 85 10000 5 220 21:22 20.01.2021
3521 Clear -11 1018 85 10000 4 230 20:50 20.01.2021
3522 Clear -11 1018 85 10000 4 230 20:21 20.01.2021
3523 Clear -9 1018 79 10000 4 230 19:47 20.01.2021
3524 Clear -9 1018 79 10000 4 230 19:27 20.01.2021
3525 Clear -8 1018 86 10000 5 240 18:43 20.01.2021
3526 Clear -8 1018 86 10000 5 240 18:20 20.01.2021
3527 Clear -8 1018 79 10000 4 230 17:44 20.01.2021
3528 Clouds -8 1018 79 10000 5 240 17:26 20.01.2021
3529 Clouds -8 1018 79 10000 5 240 16:47 20.01.2021
3530 Clear -7 1017 79 10000 4 240 16:20 20.01.2021
3531 Clear -7 1017 73 10000 4 260 15:38 20.01.2021
3532 Clouds -7 1017 68 10000 5 260 14:57 20.01.2021
3533 Clouds -7 1016 68 10000 5 260 14:38 20.01.2021
3534 Clouds -7 1016 73 10000 5 260 14:18 20.01.2021
3535 Snow -7 1016 73 10000 6 260 13:37 20.01.2021
3536 Snow -7 1016 73 10000 5 260 12:55 20.01.2021
3537 Snow -7 1016 73 10000 6 270 12:22 20.01.2021
3538 Snow -7 1016 79 10000 6 280 11:41 20.01.2021
3539 Snow -7 1016 79 10000 6 280 11:20 20.01.2021
3540 Snow -7 1016 79 5000 5 290 10:46 20.01.2021
3541 Clouds -8 1016 73 10000 4 290 10:25 20.01.2021
3542 Snow -9 1015 73 10000 4 270 09:38 20.01.2021
3543 Snow -9 1015 73 10000 4 270 09:19 20.01.2021
3544 Snow -10 1015 79 10000 4 250 08:43 20.01.2021
3545 Snow -10 1015 79 10000 5 280 08:22 20.01.2021
3546 Snow -10 1015 79 10000 5 280 07:48 20.01.2021
3547 Snow -10 1015 79 10000 4 260 07:20 20.01.2021
3548 Clear -11 1014 85 10000 3 240 04:33 20.01.2021
3549 Clear -12 1014 85 10000 3 250 02:34 20.01.2021
3550 Clear -12 1014 85 10000 3 260 00:58 20.01.2021
3551 Clouds -12 1014 85 10000 3 270 23:57 19.01.2021
3552 Snow -12 1014 85 10000 2 270 23:38 19.01.2021
3553 Snow -12 1014 92 7000 3 250 22:59 19.01.2021
3554 Snow -12 1014 92 8000 3 270 22:40 19.01.2021
3555 Snow -12 1014 92 8000 3 270 22:21 19.01.2021
3556 Snow -12 1014 85 3300 4 270 21:55 19.01.2021
3557 Snow -13 1014 85 6000 4 280 21:35 19.01.2021
3558 Snow -13 1014 85 10000 3 280 20:50 19.01.2021
3559 Snow -12 1014 85 10000 3 280 20:30 19.01.2021
3560 Snow -13 1014 85 9000 3 280 19:56 19.01.2021
3561 Snow -13 1014 85 9000 3 260 19:37 19.01.2021
3562 Snow -12 1014 85 9000 3 260 19:19 19.01.2021
3563 Snow -12 1014 85 10000 3 240 18:39 19.01.2021
3564 Snow -12 1014 85 5000 2 240 18:20 19.01.2021
3565 Snow -13 1014 79 9000 3 260 17:44 19.01.2021
3566 Snow -13 1014 79 9000 3 260 17:22 19.01.2021
3567 Snow -13 1014 79 10000 3 260 16:41 19.01.2021
3568 Snow -13 1014 79 10000 3 260 16:23 19.01.2021
3569 Snow -12 1014 85 9000 3 240 15:54 19.01.2021
3570 Clear -12 1013 79 10000 3 260 15:34 19.01.2021
3571 Snow -13 1014 79 9000 2 310 14:50 19.01.2021
3572 Snow -13 1014 79 9000 2 310 14:29 19.01.2021
3573 Snow -13 1014 85 8000 3 310 13:52 19.01.2021
3574 Snow -13 1014 78 5000 2 270 13:28 19.01.2021
3575 Snow -13 1014 78 8000 2 230 12:58 19.01.2021
3576 Snow -14 1014 85 9000 2 230 12:35 19.01.2021
3577 Snow -14 1014 78 9000 2 240 11:59 19.01.2021
3578 Snow -14 1014 78 10000 2 220 11:40 19.01.2021
3579 Snow -14 1014 78 10000 2 220 11:21 19.01.2021
3580 Snow -15 1015 78 9000 2 300 10:47 19.01.2021
3581 Snow -15 1015 78 9000 2 300 10:27 19.01.2021
3582 Snow -14 1015 85 8000 2 300 09:51 19.01.2021
3583 Snow -15 1015 78 7000 2 310 09:20 19.01.2021
3584 Snow -15 1015 85 8000 1 0 08:45 19.01.2021
3585 Snow -15 1015 85 7000 1 0 07:57 19.01.2021
3586 Snow -16 1015 78 8000 1 30 07:19 19.01.2021
3587 Snow -16 1015 78 9000 0.64 337 04:50 19.01.2021
3588 Snow -17 1015 84 8000 1 20 02:24 19.01.2021
3589 Snow -17 1015 78 6000 1 20 00:47 19.01.2021
3590 Snow -18 1016 84 7000 1 0 23:57 18.01.2021
3591 Snow -17 1016 78 6000 1 0 23:29 18.01.2021
3592 Snow -17 1016 84 6000 1 160 22:46 18.01.2021
3593 Snow -18 1016 84 7000 1 80 22:24 18.01.2021
3594 Snow -17 1016 84 6000 1 0 21:49 18.01.2021
3595 Mist -18 1016 84 8000 1 0 21:24 18.01.2021
3596 Clouds -18 1016 84 9000 1 0 20:58 18.01.2021
3597 Clouds -18 1016 84 7000 1 0 20:37 18.01.2021
3598 Clouds -18 1016 84 7000 1 10 20:19 18.01.2021
3599 Snow -18 1016 78 7000 2 360 19:42 18.01.2021
3600 Clouds -18 1016 78 7000 2 360 19:24 18.01.2021
3601 Clouds -18 1016 78 7000 1 0 18:43 18.01.2021
3602 Mist -18 1016 84 7000 1 0 18:21 18.01.2021
3603 Clouds -18 1016 78 8000 0.06 145 17:40 18.01.2021
3604 Clouds -18 1016 85 8000 1 160 17:18 18.01.2021
3605 Clouds -18 1016 85 9000 0.23 259 16:41 18.01.2021
3606 Clouds -18 1016 85 9000 0.99 322 16:19 18.01.2021
3607 Clouds -18 1016 85 7000 0.99 322 15:41 18.01.2021
3608 Clouds -18 1016 85 7000 1 0 15:19 18.01.2021
3609 Clouds -17 1016 78 6000 2 360 14:43 18.01.2021
3610 Clouds -17 1016 78 6000 2 360 14:25 18.01.2021
3611 Clouds -18 1016 78 9000 1 0 13:45 18.01.2021
3612 Clouds -17 1016 78 9000 1 0 13:26 18.01.2021
3613 Clouds -16 1016 85 10000 1 0 12:51 18.01.2021
3614 Clouds -17 1016 85 10000 1 0 12:20 18.01.2021
3615 Clouds -18 1016 78 9000 1 0 11:53 18.01.2021
3616 Clouds -20 1016 84 10000 2 40 11:30 18.01.2021
3617 Clouds -20 1017 78 8000 1 0 10:57 18.01.2021
3618 Clouds -20 1017 84 7000 1 120 10:39 18.01.2021
3619 Mist -20 1017 84 8000 0.64 217 09:43 18.01.2021
3620 Mist -20 1017 84 8000 0.64 217 09:43 18.01.2021
3621 Clouds -21 1017 84 8000 1 0 09:24 18.01.2021
3622 Clouds -23 1017 84 9000 1 210 08:50 18.01.2021
3623 Clouds -23 1017 84 8000 1 170 07:56 18.01.2021
3624 Clouds -23 1016 77 9000 1 0 07:27 18.01.2021
3625 Clouds -24 1017 77 9000 1 0 05:32 18.01.2021
3626 Clouds -24 1017 84 9000 2 300 04:33 18.01.2021
3627 Clouds -24 1016 77 9000 2 330 03:59 18.01.2021
3628 Clouds -24 1016 77 9000 1 250 03:41 18.01.2021
3629 Clouds -24 1016 77 9000 1 250 03:19 18.01.2021
3630 Clouds -23 1017 84 9000 2 260 02:37 18.01.2021
3631 Clouds -24 1016 77 9000 0.71 350 00:49 18.01.2021
3632 Clouds -23 1016 77 9000 1.06 360 00:30 18.01.2021
3633 Clouds -22 1016 84 10000 1.06 360 23:48 17.01.2021
3634 Clouds -23 1016 84 9000 1.52 5 23:20 17.01.2021
3635 Mist -22 1016 77 9000 1 0 22:41 17.01.2021
3636 Mist -22 1016 77 9000 1 0 22:22 17.01.2021
3637 Clear -22 1016 84 10000 2 10 21:40 17.01.2021
3638 Clear -22 1016 84 10000 2 10 21:22 17.01.2021
3639 Clear -22 1016 77 10000 1 0 20:49 17.01.2021
3640 Mist -22 1016 84 9000 1 0 20:29 17.01.2021
3641 Clear -21 1016 77 10000 1 0 19:43 17.01.2021
3642 Clear -21 1016 77 10000 1 0 19:24 17.01.2021
3643 Clear -21 1016 77 10000 2 320 18:49 17.01.2021
3644 Clear -21 1016 77 10000 2 330 18:27 17.01.2021
3645 Clear -21 1015 84 10000 2 330 17:49 17.01.2021
3646 Clear -20 1015 84 10000 2 330 17:28 17.01.2021
3647 Clear -20 1015 77 10000 2 330 16:44 17.01.2021
3648 Clear -20 1015 77 10000 1 0 16:24 17.01.2021
3649 Clear -19 1014 78 10000 3 340 15:44 17.01.2021
3650 Clear -19 1014 78 10000 3 340 15:25 17.01.2021
3651 Clear -19 1014 78 10000 3 340 14:50 17.01.2021
3652 Clear -19 1014 78 10000 3 320 14:26 17.01.2021
3653 Clear -18 1013 71 10000 3 310 13:58 17.01.2021
3654 Clear -18 1013 71 10000 2 310 13:36 17.01.2021
3655 Clear -18 1013 71 10000 2 310 13:18 17.01.2021
3656 Clear -18 1013 78 10000 3 320 12:37 17.01.2021
3657 Clear -18 1013 78 10000 3 320 12:18 17.01.2021
3658 Clear -19 1012 77 10000 4 340 11:25 17.01.2021
3659 Clear -19 1012 71 10000 4 350 10:50 17.01.2021
3660 Clear -20 1012 71 10000 4 350 10:24 17.01.2021
3661 Clear -20 1012 77 10000 3 340 09:46 17.01.2021
3662 Clear -21 1011 77 10000 4 340 08:47 17.01.2021
3663 Clouds -21 1010 77 10000 4 330 07:51 17.01.2021
3664 Snow -19 1008 77 10000 5 310 04:29 17.01.2021
3665 Snow -18 1008 71 10000 6 330 02:49 17.01.2021
3666 Snow -17 1006 78 8000 5 310 00:52 17.01.2021
3667 Snow -17 1006 78 10000 5 320 00:20 17.01.2021
3668 Snow -17 1006 78 10000 4 310 23:52 16.01.2021
3669 Snow -16 1006 78 10000 6 320 23:20 16.01.2021
3670 Snow -16 1005 78 10000 5 320 22:52 16.01.2021
3671 Snow -16 1005 78 9000 5 310 22:18 16.01.2021
3672 Snow -16 1005 78 9000 6 310 21:43 16.01.2021
3673 Snow -16 1005 78 9000 6 310 21:22 16.01.2021
3674 Snow -16 1004 78 10000 5 310 20:47 16.01.2021
3675 Snow -16 1004 78 3500 5 320 20:23 16.01.2021
3676 Snow -16 1004 78 1000 6 330 19:48 16.01.2021
3677 Snow -16 1004 78 1400 5 320 19:29 16.01.2021
3678 Snow -16 1004 85 1300 6 310 18:45 16.01.2021
3679 Snow -16 1004 78 2700 5 310 18:26 16.01.2021
3680 Snow -16 1003 85 1400 5 300 17:50 16.01.2021
3681 Snow -16 1003 85 1400 5 300 17:30 16.01.2021
3682 Snow -16 1003 85 1600 5 300 16:51 16.01.2021
3683 Snow -16 1003 85 1500 4 310 16:33 16.01.2021
3684 Snow -16 1003 85 1400 4 310 15:55 16.01.2021
3685 Snow -15 1003 78 1900 5 300 15:36 16.01.2021
3686 Snow -15 1002 78 1300 5 320 14:31 16.01.2021
3687 Snow -15 1002 78 6000 6 320 13:52 16.01.2021
3688 Snow -15 1002 78 6000 6 320 13:30 16.01.2021
3689 Snow -15 1002 78 3300 6 320 12:47 16.01.2021
3690 Snow -15 1003 78 1300 5 320 12:23 16.01.2021
3691 Snow -15 1003 78 1800 4 320 11:55 16.01.2021
3692 Snow -15 1003 78 1800 4 310 11:26 16.01.2021
3693 Snow -15 1003 78 1800 4 310 10:54 16.01.2021
3694 Snow -15 1003 78 4800 5 310 10:35 16.01.2021
3695 Snow -15 1003 78 2500 4 320 09:54 16.01.2021
3696 Snow -15 1004 78 5000 5 320 09:20 16.01.2021
3697 Snow -15 1004 78 5000 5 320 08:19 16.01.2021
3698 Snow -16 1005 78 2100 4 330 06:49 16.01.2021
3699 Snow -15 1005 78 4400 4 330 04:53 16.01.2021
3700 Snow -15 1006 78 10000 4 340 03:38 16.01.2021
3701 Snow -15 1006 85 10000 3 340 02:42 16.01.2021
3702 Snow -15 1007 78 10000 4 360 00:46 16.01.2021
3703 Snow -15 1008 78 10000 3 360 00:23 16.01.2021
3704 Snow -15 1008 85 10000 4 340 23:39 15.01.2021
3705 Snow -15 1008 85 10000 3 360 22:41 15.01.2021
3706 Snow -15 1008 85 10000 3 360 22:21 15.01.2021
3707 Snow -14 1008 85 10000 3 340 21:43 15.01.2021
3708 Snow -14 1009 85 10000 4 50 20:49 15.01.2021
3709 Snow -14 1009 85 10000 4 50 20:24 15.01.2021
3710 Clear -14 1009 85 10000 4 40 19:58 15.01.2021
3711 Clear -14 1009 78 10000 5 30 19:39 15.01.2021
3712 Clear -14 1009 78 10000 5 30 19:21 15.01.2021
3713 Clouds -14 1009 78 10000 4 10 18:42 15.01.2021
3714 Snow -14 1009 85 10000 3 360 18:18 15.01.2021
3715 Snow -14 1009 85 10000 3 10 17:41 15.01.2021
3716 Snow -14 1009 85 10000 3 10 17:21 15.01.2021
3717 Snow -14 1009 85 10000 4 360 16:46 15.01.2021
3718 Clouds -14 1009 78 10000 4 10 16:24 15.01.2021
3719 Snow -13 1009 78 10000 2 20 15:41 15.01.2021
3720 Clouds -14 1009 78 10000 3 50 15:21 15.01.2021
3721 Clouds -14 1009 78 10000 3 50 14:46 15.01.2021
3722 Clouds -14 1009 78 10000 4 50 14:27 15.01.2021
3723 Clouds -14 1009 78 10000 3 70 13:43 15.01.2021
3724 Clouds -14 1009 78 10000 4 70 13:23 15.01.2021
3725 Clear -15 1009 78 10000 3 80 12:58 15.01.2021
3726 Clear -14 1009 72 10000 3 80 12:33 15.01.2021
3727 Clear -14 1009 72 10000 2 80 11:59 15.01.2021
3728 Clear -14 1009 72 10000 2 80 11:41 15.01.2021
3729 Clear -16 1009 78 10000 2 70 10:57 15.01.2021
3730 Clouds -17 1009 78 10000 2 80 10:39 15.01.2021
3731 Clouds -18 1009 78 10000 1 0 10:19 15.01.2021
3732 Clear -18 1008 84 10000 3 20 09:45 15.01.2021
3733 Clear -18 1008 84 10000 3 20 09:27 15.01.2021
3734 Clear -19 1009 84 10000 1 0 08:27 15.01.2021
3735 Clouds -20 1008 77 10000 1 0 07:41 15.01.2021
3736 Clouds -20 1008 77 10000 1 0 07:20 15.01.2021
3737 Clouds -19 1007 84 10000 1 0 05:36 15.01.2021
3738 Snow -16 1006 78 10000 2 330 02:19 15.01.2021
3739 Snow -15 1006 78 10000 3 340 00:20 15.01.2021
3740 Snow -15 1006 85 10000 2 320 23:29 14.01.2021
3741 Snow -15 1005 85 9000 3 340 22:50 14.01.2021
3742 Snow -14 1006 85 9000 3 340 22:27 14.01.2021
3743 Snow -14 1006 85 9000 3 340 21:56 14.01.2021
3744 Snow -14 1005 78 10000 4 350 21:37 14.01.2021
3745 Snow -14 1005 78 10000 4 350 21:19 14.01.2021
3746 Snow -14 1005 78 9000 4 350 20:42 14.01.2021
3747 Snow -14 1004 78 9000 3 360 19:57 14.01.2021
3748 Snow -14 1005 78 9000 3 360 19:36 14.01.2021
3749 Snow -14 1005 78 9000 4 350 18:57 14.01.2021
3750 Snow -14 1005 85 9000 3 340 18:36 14.01.2021
3751 Snow -14 1005 78 3000 4 350 17:55 14.01.2021
3752 Snow -14 1005 78 8000 4 10 17:29 14.01.2021
3753 Snow -14 1005 78 5000 4 30 16:54 14.01.2021
3754 Snow -14 1005 78 8000 4 10 16:30 14.01.2021
3755 Snow -14 1005 78 8000 4 30 15:54 14.01.2021
3756 Snow -13 1005 72 8000 5 20 15:30 14.01.2021
3757 Snow -13 1004 78 6000 4 20 14:44 14.01.2021
3758 Snow -13 1004 78 6000 4 20 14:24 14.01.2021
3759 Snow -13 1004 78 8000 5 30 13:55 14.01.2021
3760 Snow -13 1004 72 7000 5 40 13:24 14.01.2021
3761 Snow -13 1004 78 5000 6 40 12:57 14.01.2021
3762 Snow -13 1004 78 5000 5 40 12:22 14.01.2021
3763 Snow -13 1004 72 7000 6 50 11:58 14.01.2021
3764 Snow -13 1004 72 6000 6 40 11:38 14.01.2021
3765 Snow -13 1004 72 5000 5 40 11:19 14.01.2021
3766 Snow -14 1004 78 5000 6 50 10:40 14.01.2021
3767 Snow -14 1004 78 6000 7 50 10:19 14.01.2021
3768 Snow -14 1005 78 5000 7 60 09:42 14.01.2021
3769 Snow -14 1005 78 5000 7 60 09:21 14.01.2021
3770 Snow -14 1005 78 8000 7 60 08:34 14.01.2021
3771 Snow -14 1005 78 1300 7 60 07:58 14.01.2021
3772 Snow -14 1005 85 2300 7 60 07:39 14.01.2021
3773 Snow -14 1005 78 2500 8 60 06:38 14.01.2021
3774 Snow -14 1006 85 800 8 60 04:59 14.01.2021
3775 Snow -12 1010 85 800 10 70 00:34 14.01.2021
3776 Snow -12 1011 78 1200 9 60 23:33 13.01.2021
3777 Snow -12 1012 85 1900 9 60 22:51 13.01.2021
3778 Snow -13 1012 85 2500 10 70 22:26 13.01.2021
3779 Snow -12 1013 78 10000 9 70 21:48 13.01.2021
3780 Snow -12 1013 78 10000 9 70 21:24 13.01.2021
3781 Snow -12 1014 78 10000 9 60 20:51 13.01.2021
3782 Snow -12 1014 78 10000 9 70 20:28 13.01.2021
3783 Snow -12 1015 85 10000 8 70 19:56 13.01.2021
3784 Snow -12 1016 85 10000 8 70 19:31 13.01.2021
3785 Snow -12 1016 85 10000 7 70 18:58 13.01.2021
3786 Snow -12 1016 85 10000 8 70 18:36 13.01.2021
3787 Snow -12 1016 85 10000 8 70 17:51 13.01.2021
3788 Snow -12 1017 85 10000 8 70 17:23 13.01.2021
3789 Snow -12 1017 85 10000 6 70 16:50 13.01.2021
3790 Snow -12 1017 85 10000 6 70 16:21 13.01.2021
3791 Snow -12 1017 85 10000 6 70 16:21 13.01.2021
3792 Snow -12 1018 85 10000 6 80 15:52 13.01.2021
3793 Clear -12 1018 85 10000 6 70 15:32 13.01.2021
3794 Clouds -12 1018 85 10000 6 70 14:43 13.01.2021
3795 Snow -11 1018 85 10000 7 70 13:51 13.01.2021
3796 Snow -11 1017 85 9000 7 60 13:27 13.01.2021
3797 Snow -12 1018 85 9000 7 70 12:47 13.01.2021
3798 Snow -11 1018 79 8000 5 70 12:28 13.01.2021
3799 Snow -11 1019 85 8000 6 80 11:53 13.01.2021
3800 Snow -11 1019 79 9000 6 90 11:35 13.01.2021
3801 Snow -11 1019 85 9000 6 90 10:55 13.01.2021
3802 Snow -11 1019 85 8000 6 90 10:37 13.01.2021
3803 Snow -11 1019 79 9000 6 90 09:55 13.01.2021
3804 Snow -11 1019 85 10000 6 90 09:30 13.01.2021
3805 Snow -12 1020 85 7000 6 90 08:51 13.01.2021
3806 Snow -12 1020 85 7000 6 90 08:31 13.01.2021
3807 Snow -12 1019 85 10000 6 90 07:35 13.01.2021
3808 Snow -12 1018 85 7000 6 90 06:54 13.01.2021
3809 Snow -11 1018 85 10000 6 80 04:20 13.01.2021
3810 Snow -11 1018 85 10000 6 80 03:45 13.01.2021
3811 Snow -12 1019 85 9000 5 80 03:27 13.01.2021
3812 Snow -11 1019 85 10000 5 80 01:19 13.01.2021
3813 Snow -11 1019 85 8000 5 90 00:29 13.01.2021
3814 Snow -11 1019 85 7000 5 80 23:22 12.01.2021
3815 Snow -11 1019 85 7000 5 90 22:46 12.01.2021
3816 Snow -11 1019 85 6000 5 80 22:46 12.01.2021
3817 Snow -11 1019 85 6000 5 80 22:24 12.01.2021
3818 Snow -11 1019 85 7000 5 80 21:51 12.01.2021
3819 Snow -11 1019 85 7000 5 80 21:30 12.01.2021
3820 Snow -11 1018 85 5000 6 80 20:49 12.01.2021
3821 Snow -11 1018 85 5000 6 80 20:27 12.01.2021
3822 Snow -10 1019 85 7000 6 80 19:55 12.01.2021
3823 Snow -10 1018 85 8000 6 80 19:35 12.01.2021
3824 Snow -10 1018 85 9000 6 80 18:46 12.01.2021
3825 Snow -10 1018 85 9000 5 80 18:24 12.01.2021
3826 Snow -10 1018 85 9000 5 80 17:44 12.01.2021
3827 Snow -10 1018 85 10000 4 80 17:25 12.01.2021
3828 Clouds -10 1018 85 9000 4 90 16:44 12.01.2021
3829 Clouds -10 1018 85 9000 4 90 16:24 12.01.2021
3830 Clouds -10 1019 85 9000 5 70 15:45 12.01.2021
3831 Clouds -10 1019 85 9000 5 70 15:21 12.01.2021
3832 Snow -10 1019 92 7000 5 70 14:44 12.01.2021
3833 Snow -10 1018 85 4100 4 70 14:25 12.01.2021
3834 Snow -10 1019 85 7000 3 80 13:52 12.01.2021
3835 Snow -10 1019 85 7000 3 80 13:22 12.01.2021
3836 Snow -10 1019 79 6000 3 70 12:26 12.01.2021
3837 Snow -10 1019 85 6000 2 70 11:41 12.01.2021
3838 Clouds -10 1019 85 7000 3 80 10:55 12.01.2021
3839 Clouds -10 1019 85 7000 3 80 10:55 12.01.2021
3840 Clouds -11 1019 85 7000 3 80 10:26 12.01.2021
3841 Clouds -11 1019 85 7000 3 70 09:59 12.01.2021
3842 Clouds -11 1019 85 7000 3 70 09:39 12.01.2021
3843 Clouds -12 1019 85 7000 3 70 09:20 12.01.2021
3844 Snow -12 1019 85 7000 3 80 08:26 12.01.2021
3845 Snow -13 1018 92 7000 3 70 07:37 12.01.2021
3846 Snow -12 1018 85 9000 3 70 06:59 12.01.2021
3847 Snow -11 1018 85 8000 2 60 05:35 12.01.2021
3848 Snow -10 1018 85 3700 2 360 03:33 12.01.2021
3849 Snow -10 1018 85 4600 2 10 02:21 12.01.2021
3850 Snow -10 1018 85 9000 2 10 01:36 12.01.2021
3851 Snow -9 1018 85 9000 2 10 00:30 12.01.2021
3852 Snow -9 1018 85 9000 1 0 23:39 11.01.2021
3853 Snow -9 1018 85 10000 2 60 23:18 11.01.2021
3854 Snow -9 1018 85 9000 1.22 312 22:45 11.01.2021
3855 Snow -9 1018 85 9000 1.42 295 22:27 11.01.2021
3856 Clouds -9 1018 85 10000 1 0 21:45 11.01.2021
3857 Snow -9 1018 85 10000 2 10 21:25 11.01.2021
3858 Snow -9 1018 85 10000 2 360 20:56 11.01.2021
3859 Snow -9 1018 85 10000 3 360 20:36 11.01.2021
3860 Snow -9 1018 85 10000 3 360 20:18 11.01.2021
3861 Snow -9 1018 85 10000 2 350 19:41 11.01.2021
3862 Snow -9 1018 85 10000 2 350 19:21 11.01.2021
3863 Snow -9 1018 86 9000 3 350 18:42 11.01.2021
3864 Clouds -9 1018 86 10000 2 330 18:23 11.01.2021
3865 Clouds -9 1018 86 10000 3 360 17:42 11.01.2021
3866 Clouds -9 1018 86 10000 3 360 17:24 11.01.2021
3867 Snow -9 1018 86 9000 2 360 16:47 11.01.2021
3868 Snow -9 1018 86 9000 2 360 16:28 11.01.2021
3869 Snow -8 1018 92 10000 2 310 15:53 11.01.2021
3870 Snow -8 1018 86 10000 3 300 15:33 11.01.2021
3871 Snow -8 1018 86 10000 2 360 14:45 11.01.2021
3872 Snow -8 1018 86 10000 2 360 14:26 11.01.2021
3873 Snow -8 1018 79 10000 2 350 13:45 11.01.2021
3874 Snow -8 1018 79 10000 2 350 13:22 11.01.2021
3875 Clouds -8 1017 86 10000 2 10 12:42 11.01.2021
3876 Clouds -8 1017 86 10000 2 10 12:24 11.01.2021
3877 Snow -8 1018 86 10000 2 320 11:45 11.01.2021
3878 Snow -8 1018 86 10000 3 290 10:58 11.01.2021
3879 Snow -9 1018 86 9000 2 300 10:38 11.01.2021
3880 Snow -9 1018 86 9000 2 320 09:54 11.01.2021
3881 Snow -9 1018 86 7000 2 300 09:36 11.01.2021
3882 Snow -9 1018 86 7000 2 310 08:52 11.01.2021
3883 Snow -9 1019 86 5000 2 310 08:34 11.01.2021
3884 Snow -9 1018 86 7000 2 300 07:48 11.01.2021
3885 Snow -9 1018 86 7000 2 300 07:25 11.01.2021
3886 Snow -9 1018 86 8000 2 300 06:49 11.01.2021
3887 Snow -9 1018 85 9000 3 290 02:52 11.01.2021
3888 Snow -9 1018 85 10000 3 300 00:57 11.01.2021
3889 Snow -9 1018 85 9000 3 320 23:48 10.01.2021
3890 Snow -9 1018 85 9000 3 300 23:23 10.01.2021
3891 Snow -9 1017 85 9000 4 290 22:44 10.01.2021
3892 Snow -10 1017 85 9000 3 290 22:20 10.01.2021
3893 Snow -10 1017 85 10000 3 300 21:41 10.01.2021
3894 Snow -9 1017 85 10000 3 320 21:20 10.01.2021
3895 Snow -9 1017 85 10000 3 320 20:50 10.01.2021
3896 Clouds -9 1017 92 10000 3 310 20:29 10.01.2021
3897 Clouds -9 1017 85 10000 4 320 19:42 10.01.2021
3898 Clouds -9 1017 85 10000 4 320 19:24 10.01.2021
3899 Clouds -9 1016 85 10000 4 330 18:46 10.01.2021
3900 Clouds -9 1016 92 10000 4 300 18:21 10.01.2021
3901 Clouds -9 1016 86 10000 4 320 17:27 10.01.2021
3902 Clouds -8 1016 86 10000 5 320 16:58 10.01.2021
3903 Clouds -8 1016 86 10000 4 320 16:32 10.01.2021
3904 Clouds -8 1016 86 10000 3 330 15:48 10.01.2021
3905 Clouds -8 1016 86 10000 3 330 15:25 10.01.2021
3906 Clouds -8 1015 86 10000 3 330 14:44 10.01.2021
3907 Clouds -8 1015 86 10000 3 330 14:25 10.01.2021
3908 Snow -8 1014 86 10000 4 310 13:54 10.01.2021
3909 Snow -8 1014 86 10000 3 330 13:36 10.01.2021
3910 Snow -8 1014 86 10000 3 330 13:36 10.01.2021
3911 Snow -8 1014 86 10000 3 330 13:18 10.01.2021
3912 Clouds -8 1014 86 10000 4 320 12:42 10.01.2021
3913 Clouds -9 1014 86 10000 4 310 11:58 10.01.2021
3914 Snow -9 1013 86 10000 4 310 11:22 10.01.2021
3915 Snow -9 1013 86 10000 4 310 10:58 10.01.2021
3916 Snow -9 1013 86 10000 3 330 10:30 10.01.2021
3917 Snow -9 1013 79 10000 3 330 09:58 10.01.2021
3918 Snow -9 1013 85 10000 3 340 09:24 10.01.2021
3919 Snow -9 1013 85 10000 4 340 08:20 10.01.2021
3920 Snow -9 1012 85 5000 4 330 07:29 10.01.2021
3921 Snow -8 1011 85 5000 4 340 06:19 10.01.2021
3922 Snow -9 1011 85 6000 4 330 05:36 10.01.2021
3923 Mist -7 1011 86 5000 4 340 02:56 10.01.2021
3924 Snow -7 1010 86 8000 4 360 00:52 10.01.2021
3925 Snow -7 1010 86 10000 4 360 23:48 09.01.2021
3926 Snow -7 1010 93 10000 4 360 23:29 09.01.2021
3927 Snow -7 1011 93 9000 4 360 22:48 09.01.2021
3928 Snow -6 1011 86 9000 5 10 22:19 09.01.2021
3929 Snow -6 1011 86 9000 5 10 21:57 09.01.2021
3930 Snow -6 1011 86 9000 5 10 21:38 09.01.2021
3931 Snow -6 1011 86 9000 5 10 21:18 09.01.2021
3932 Snow -6 1011 86 8000 4 10 20:44 09.01.2021
3933 Snow -6 1011 86 10000 4 10 19:45 09.01.2021
3934 Snow -6 1011 86 10000 4 10 19:22 09.01.2021
3935 Snow -6 1011 86 10000 4 10 18:52 09.01.2021
3936 Snow -6 1011 86 7000 4 10 18:33 09.01.2021
3937 Snow -6 1011 86 9000 4 10 17:48 09.01.2021
3938 Mist -6 1011 86 7000 5 10 17:30 09.01.2021
3939 Snow -6 1011 86 6000 4 10 16:36 09.01.2021
3940 Snow -6 1011 93 7000 4 10 15:52 09.01.2021
3941 Snow -6 1011 93 8000 4 20 15:33 09.01.2021
3942 Snow -6 1011 93 8000 4 10 14:41 09.01.2021
3943 Snow -6 1011 93 9000 4 20 14:20 09.01.2021
3944 Snow -6 1011 86 9000 5 20 13:49 09.01.2021
3945 Snow -6 1011 86 9000 5 20 13:31 09.01.2021
3946 Snow -6 1011 86 9000 5 30 12:50 09.01.2021
3947 Snow -6 1012 86 10000 4 20 12:25 09.01.2021
3948 Snow -6 1012 86 9000 5 20 11:56 09.01.2021
3949 Snow -6 1012 86 9000 4 30 11:33 09.01.2021
3950 Snow -6 1012 86 9000 4 30 10:55 09.01.2021
3951 Snow -6 1013 86 9000 4 30 10:36 09.01.2021
3952 Snow -6 1013 86 5000 5 50 09:54 09.01.2021
3953 Snow -6 1013 86 9000 4 40 09:29 09.01.2021
3954 Snow -6 1013 86 9000 4 30 09:00 09.01.2021
3955 Snow -6 1013 86 9000 4 30 07:43 09.01.2021
3956 Snow -6 1013 86 9000 5 40 06:40 09.01.2021
3957 Snow -6 1012 86 10000 4 20 04:54 09.01.2021
3958 Snow -6 1012 86 10000 4 30 03:47 09.01.2021
3959 Snow -6 1012 86 7000 4 20 02:39 09.01.2021
3960 Snow -5 1013 86 7000 4 20 02:19 09.01.2021
3961 Snow -5 1012 86 6000 4 20 00:49 09.01.2021
3962 Snow -5 1012 86 4900 4 10 00:23 09.01.2021
3963 Snow -5 1012 93 9000 4 20 23:38 08.01.2021
3964 Snow -5 1012 86 10000 5 40 22:38 08.01.2021
3965 Snow -5 1012 86 7000 4 20 21:47 08.01.2021
3966 Snow -4 1012 86 6000 4 20 20:59 08.01.2021
3967 Snow -4 1012 93 6000 5 30 20:33 08.01.2021
3968 Snow -4 1011 93 6000 5 20 19:57 08.01.2021
3969 Snow -4 1011 93 7000 5 20 19:24 08.01.2021
3970 Snow -4 1011 93 3500 5 20 18:53 08.01.2021
3971 Snow -4 1011 86 4300 5 10 18:31 08.01.2021
3972 Snow -4 1011 86 3200 5 20 17:50 08.01.2021
3973 Snow -4 1011 93 7000 5 20 17:24 08.01.2021
3974 Snow -3 1011 93 10000 5 20 16:47 08.01.2021
3975 Clouds -3 1011 93 10000 5 20 15:48 08.01.2021
3976 Snow -3 1011 93 10000 5 20 15:27 08.01.2021
3977 Clouds -3 1011 93 10000 6 20 14:37 08.01.2021
3978 Snow -3 1011 93 10000 6 20 13:48 08.01.2021
3979 Snow -3 1011 93 10000 4 20 13:21 08.01.2021
3980 Snow -3 1011 93 10000 4 20 12:50 08.01.2021
3981 Snow -3 1011 93 10000 5 40 12:20 08.01.2021
3982 Snow -3 1011 93 10000 6 40 11:46 08.01.2021
3983 Clouds -3 1011 93 9000 6 40 11:28 08.01.2021
3984 Clouds -3 1012 93 9000 5 40 10:55 08.01.2021
3985 Clouds -3 1012 86 9000 5 50 10:37 08.01.2021
3986 Clouds -4 1012 93 9000 5 50 09:53 08.01.2021
3987 Clouds -4 1012 93 9000 5 50 09:32 08.01.2021
3988 Clouds -4 1013 93 9000 6 70 08:39 08.01.2021
3989 Clouds -4 1013 93 8000 6 70 07:29 08.01.2021
3990 Clouds -5 1013 93 8000 5 70 06:21 08.01.2021
3991 Snow -5 1015 93 6000 5 80 00:24 08.01.2021
3992 Clouds -5 1015 93 6000 5 80 23:41 07.01.2021
3993 Mist -5 1016 93 5000 5 80 22:47 07.01.2021
3994 Clouds -5 1016 93 6000 5 80 22:47 07.01.2021
3995 Mist -5 1016 93 5000 5 80 22:26 07.01.2021
3996 Mist -5 1016 93 5000 4 90 21:49 07.01.2021
3997 Clouds -5 1016 93 6000 5 90 21:27 07.01.2021
3998 Snow -5 1017 86 7000 4 80 20:48 07.01.2021
3999 Clouds -5 1017 86 7000 4 80 20:29 07.01.2021
4000 Snow -5 1017 86 8000 4 80 19:47 07.01.2021
4001 Snow -5 1017 86 7000 4 80 19:23 07.01.2021
4002 Snow -5 1017 86 5000 4 80 18:46 07.01.2021
4003 Snow -5 1017 86 6000 4 80 18:20 07.01.2021
4004 Snow -5 1017 86 5000 4 80 17:32 07.01.2021
4005 Snow -5 1017 86 6000 5 80 16:55 07.01.2021
4006 Snow -5 1017 86 6000 4 80 16:32 07.01.2021
4007 Snow -5 1018 86 7000 4 90 15:48 07.01.2021
4008 Snow -5 1018 86 6000 4 90 15:48 07.01.2021
4009 Snow -5 1018 86 6000 4 90 15:30 07.01.2021
4010 Snow -5 1017 86 8000 3 80 14:31 07.01.2021
4011 Snow -5 1018 86 5000 4 80 13:50 07.01.2021
4012 Snow -5 1018 86 6000 4 80 13:28 07.01.2021
4013 Clouds -5 997 34 6012 1.56 113 12:55 07.01.2021
4014 Clouds -5 1018 79 9000 4 80 12:23 07.01.2021
4015 Snow -4 1018 79 8000 4 80 11:39 07.01.2021
4016 Snow -6 1019 85 9000 4 80 10:56 07.01.2021
4017 Snow -6 1019 85 9000 4 80 10:37 07.01.2021
4018 Snow -6 1019 85 8000 4 80 09:57 07.01.2021
4019 Snow -6 1019 85 9000 4 80 09:38 07.01.2021
4020 Snow -6 1019 85 3800 5 90 08:40 07.01.2021
4021 Snow -6 1019 92 3600 4 80 08:21 07.01.2021
4022 Snow -6 1019 92 4300 4 80 07:42 07.01.2021
4023 Snow -6 1019 92 2600 3 110 06:46 07.01.2021
4024 Snow -5 1020 92 2400 3 80 02:18 07.01.2021
4025 Snow -5 1021 92 3700 4 80 23:58 06.01.2021
4026 Snow -5 1021 79 9000 4 80 23:25 06.01.2021
4027 Snow -5 1022 79 10000 4 80 22:29 06.01.2021
4028 Snow -5 1022 79 10000 4 100 21:41 06.01.2021
4029 Snow -5 1021 85 10000 4 80 21:22 06.01.2021
4030 Snow -5 1021 85 10000 4 80 20:47 06.01.2021
4031 Snow -4 1021 85 10000 4 70 20:22 06.01.2021
4032 Snow -4 1021 85 10000 4 70 19:48 06.01.2021
4033 Snow -4 1021 85 10000 4 70 19:28 06.01.2021
4034 Clouds -4 1021 85 10000 4 70 18:50 06.01.2021
4035 Clouds -4 1022 85 10000 4 70 18:31 06.01.2021
4036 Clouds -4 1022 92 10000 4 70 17:47 06.01.2021
4037 Clouds -4 1022 92 10000 4 70 17:28 06.01.2021
4038 Clouds -4 1022 92 10000 4 70 16:57 06.01.2021
4039 Clouds -4 1022 92 10000 4 60 16:21 06.01.2021
4040 Clouds -4 1022 92 10000 4 60 15:59 06.01.2021
4041 Clouds -4 1022 85 10000 5 60 15:39 06.01.2021
4042 Clouds -4 1022 85 10000 4 60 15:21 06.01.2021
4043 Clouds -4 1022 85 10000 3 70 14:32 06.01.2021
4044 Clouds -4 1022 85 10000 3 70 13:55 06.01.2021
4045 Clouds -4 1022 85 10000 3 70 13:27 06.01.2021
4046 Clouds -4 1022 85 10000 3 70 12:58 06.01.2021
4047 Snow -3 1022 85 10000 4 70 12:30 06.01.2021
4048 Snow -4 1022 85 6000 3 60 11:44 06.01.2021
4049 Snow -4 1022 85 6000 3 70 11:21 06.01.2021
4050 Snow -3 1023 92 8000 3 60 10:39 06.01.2021
4051 Snow -4 1023 92 6000 3 70 09:52 06.01.2021
4052 Snow -4 1023 85 8000 3 60 09:31 06.01.2021
4053 Snow -4 1023 85 10000 4 80 08:52 06.01.2021
4054 Snow -4 1023 85 10000 4 70 08:19 06.01.2021
4055 Snow -4 1023 85 10000 5 70 07:51 06.01.2021
4056 Snow -4 1023 85 10000 4 60 06:44 06.01.2021
4057 Snow -4 1023 85 9000 4 70 05:29 06.01.2021
4058 Snow -4 1024 85 10000 4 90 03:21 06.01.2021
4059 Snow -4 1024 92 10000 5 70 02:42 06.01.2021
4060 Snow -4 1025 92 10000 4 80 02:20 06.01.2021
4061 Clouds -4 1025 92 10000 5 90 23:51 05.01.2021
4062 Clouds -3 1026 86 10000 5 80 22:57 05.01.2021
4063 Clouds -3 1026 86 10000 5 80 22:38 05.01.2021
4064 Clouds -3 1026 86 9000 4 90 22:19 05.01.2021
4065 Clouds -3 1026 86 9000 5 80 21:27 05.01.2021
4066 Clouds -3 1026 92 8000 4 110 20:31 05.01.2021
4067 Clouds -3 1026 92 8000 4 110 19:59 05.01.2021
4068 Clouds -3 1026 92 10000 4 120 19:40 05.01.2021
4069 Clouds -3 1026 92 9000 4 120 19:20 05.01.2021
4070 Clouds -3 1026 92 7000 4 110 18:42 05.01.2021
4071 Clouds -2 1026 100 6000 5 90 18:19 05.01.2021
4072 Mist -3 1026 100 5000 5 100 17:42 05.01.2021
4073 Mist -2 1027 92 4100 4 90 17:21 05.01.2021
4074 Mist -2 1026 92 4800 5 90 16:45 05.01.2021
4075 Mist -2 1027 92 4100 5 90 16:21 05.01.2021
4076 Mist -2 1027 100 3400 3 110 15:49 05.01.2021
4077 Snow -2 1027 100 2300 5 90 14:49 05.01.2021
4078 Snow -2 1027 92 4500 4 100 14:20 05.01.2021
4079 Snow -2 1027 92 4200 4 120 13:46 05.01.2021
4080 Mist -2 1027 92 4600 3 120 13:21 05.01.2021
4081 Mist -1 1027 92 4800 4 100 12:47 05.01.2021
4082 Snow -1 1027 92 4300 3 100 12:22 05.01.2021
4083 Mist -1 1027 92 3400 3 110 11:39 05.01.2021
4084 Fog -1 1027 100 1600 3 70 10:46 05.01.2021
4085 Mist -1 1027 100 2000 3 80 10:27 05.01.2021
4086 Snow -1 1028 100 2700 3 80 09:49 05.01.2021
4087 Snow -1 1028 100 2700 3 80 09:49 05.01.2021
4088 Mist -1 1027 100 3100 3 80 09:28 05.01.2021
4089 Mist -2 1027 92 3600 4 80 08:27 05.01.2021
4090 Mist -2 1027 92 3500 4 80 07:45 05.01.2021
4091 Mist -2 1027 92 3300 3 70 04:55 05.01.2021
4092 Snow -2 1027 100 4500 2 70 00:51 05.01.2021
4093 Snow -2 1027 92 4800 2 140 23:46 04.01.2021
4094 Mist -2 1027 92 4500 2 140 23:26 04.01.2021
4095 Mist -2 1027 86 4900 2 140 22:54 04.01.2021
4096 Mist -2 1027 86 4900 2 140 22:34 04.01.2021
4097 Snow -2 1027 86 5000 2 170 21:52 04.01.2021
4098 Snow -2 1027 86 5000 2 170 21:34 04.01.2021
4099 Mist -2 1027 86 5000 3 160 20:51 04.01.2021
4100 Mist -2 1027 86 5000 2 170 20:31 04.01.2021
4101 Mist -2 1027 92 4800 2 150 19:53 04.01.2021
4102 Mist -2 1026 92 4200 2 120 19:28 04.01.2021
4103 Mist -2 1026 92 4200 2 120 18:58 04.01.2021
4104 Snow -2 1027 92 3600 3 160 18:25 04.01.2021
4105 Snow -2 1027 92 2300 2 150 17:44 04.01.2021
4106 Snow -2 1027 100 1800 3 160 17:25 04.01.2021
4107 Snow -2 1027 92 1800 3 170 16:48 04.01.2021
4108 Snow -2 1027 86 3600 3 160 16:27 04.01.2021
4109 Snow -2 1027 86 3600 3 160 15:51 04.01.2021
4110 Snow -2 1027 86 5000 3 160 15:32 04.01.2021
4111 Snow -1 1026 86 6000 4 160 14:48 04.01.2021
4112 Snow -2 1026 92 5000 2 160 13:51 04.01.2021
4113 Snow -1 1026 92 2000 2 140 13:26 04.01.2021
4114 Snow -1 1026 92 1900 3 150 12:49 04.01.2021
4115 Snow -2 1026 92 6000 4 170 11:59 04.01.2021
4116 Snow -1 1026 92 6000 4 150 11:29 04.01.2021
4117 Snow -1 1026 92 6000 4 150 10:54 04.01.2021
4118 Snow -1 1027 92 6000 5 170 10:29 04.01.2021
4119 Snow -1 1026 92 6000 3 180 09:58 04.01.2021
4120 Snow -1 1026 92 6000 5 170 09:22 04.01.2021
4121 Snow -1 1026 100 5000 4 180 08:48 04.01.2021
4122 Snow -1 1026 100 4800 3 150 08:18 04.01.2021
4123 Snow -1 1026 100 5000 3 170 07:44 04.01.2021
4124 Snow 0 1026 98 5000 3 150 05:34 04.01.2021
4125 Snow 0 1026 98 5000 5 160 04:44 04.01.2021
4126 Snow 0 1027 98 7000 4 170 01:26 04.01.2021
4127 Clouds 0 1027 98 7000 5 190 23:51 03.01.2021
4128 Mist 0 1027 98 4500 3 160 23:26 03.01.2021
4129 Snow 0 1027 98 4500 4 160 22:57 03.01.2021
4130 Snow 0 1027 98 4500 4 160 22:38 03.01.2021
4131 Snow 0 1027 98 4800 3 150 22:18 03.01.2021
4132 Snow 0 1027 98 5000 3 160 21:34 03.01.2021
4133 Snow 0 1027 98 2200 4 160 20:56 03.01.2021
4134 Mist 0 1027 98 2800 3 160 20:38 03.01.2021
4135 Clouds 0 1027 98 8000 3 170 19:59 03.01.2021
4136 Snow 0 1027 98 9000 2 160 19:37 03.01.2021
4137 Snow 0 1027 98 9000 3 160 19:19 03.01.2021
4138 Snow 0 1027 98 9000 3 150 18:42 03.01.2021
4139 Snow 0 1027 99 3200 3 150 18:21 03.01.2021
4140 Snow 0 1027 99 2600 3 140 17:51 03.01.2021
4141 Snow 0 1027 99 2600 3 140 17:26 03.01.2021
4142 Snow 0 1027 99 4400 2 150 16:54 03.01.2021
4143 Snow 0 1027 99 7000 2 160 16:36 03.01.2021
4144 Snow 0 1027 99 7000 2 160 16:18 03.01.2021
4145 Snow 0 1028 92 9000 2 170 15:39 03.01.2021
4146 Snow 0 1027 92 10000 3 190 14:58 03.01.2021
4147 Snow 0 1027 86 10000 3 190 14:33 03.01.2021
4148 Snow 0 1027 99 10000 3 200 13:48 03.01.2021
4149 Snow 1 1027 99 10000 3 190 13:24 03.01.2021
4150 Snow 0 1027 99 10000 3 190 13:24 03.01.2021
4151 Snow 0 1027 99 10000 3 200 12:55 03.01.2021
4152 Clouds 1 1027 98 10000 4 220 11:44 03.01.2021
4153 Clouds 1 1027 98 10000 4 220 11:26 03.01.2021
4154 Snow 0 1027 92 10000 3 210 10:56 03.01.2021
4155 Clouds 0 1027 92 10000 4 210 10:31 03.01.2021
4156 Clouds 0 1026 86 10000 4 200 09:43 03.01.2021
4157 Snow 0 1026 86 10000 4 230 09:23 03.01.2021
4158 Clouds -1 1025 86 10000 4 230 07:59 03.01.2021
4159 Snow -1 1025 92 8000 4 220 06:25 03.01.2021
4160 Snow 0 1023 98 10000 5 220 02:59 03.01.2021
4161 Clouds 0 1023 98 10000 5 250 02:22 03.01.2021
4162 Snow 0 1022 98 10000 5 230 00:25 03.01.2021
4163 Clouds 0 1021 98 10000 5 230 23:33 02.01.2021
4164 Clouds 0 1021 98 10000 5 240 22:59 02.01.2021
4165 Clouds 0 1020 98 10000 5 240 22:33 02.01.2021
4166 Snow 0 1020 98 10000 6 250 21:59 02.01.2021
4167 Snow 0 1020 98 10000 6 250 21:38 02.01.2021
4168 Clouds 1 1019 86 9000 7 250 21:20 02.01.2021
4169 Snow 0 1019 96 10000 6 240 20:41 02.01.2021
4170 Snow 1 1018 86 10000 7 250 20:21 02.01.2021
4171 Snow 0 1018 96 10000 6 250 19:44 02.01.2021
4172 Snow 0 1018 96 9000 5 240 19:20 02.01.2021
4173 Snow 0 1017 96 5000 5 240 18:43 02.01.2021
4174 Snow 1 1017 98 8000 5 230 18:25 02.01.2021
4175 Snow 0 1017 98 3700 4 220 17:46 02.01.2021
4176 Snow 0 1016 98 3800 3 210 17:26 02.01.2021
4177 Snow 0 1016 98 5000 3 200 16:41 02.01.2021
4178 Snow 0 1016 98 3400 2 190 16:20 02.01.2021
4179 Snow 0 1016 98 3600 2 190 15:43 02.01.2021
4180 Snow 0 1015 98 4800 3 180 15:25 02.01.2021
4181 Snow 0 1015 98 4400 3 180 14:37 02.01.2021
4182 Snow 0 1015 98 6000 2 170 14:18 02.01.2021
4183 Snow -1 1015 100 6000 2 150 13:39 02.01.2021
4184 Snow -1 1014 100 6000 3 140 12:54 02.01.2021
4185 Snow -1 1014 100 6000 3 150 12:32 02.01.2021
4186 Snow -1 1014 100 6000 3 150 11:59 02.01.2021
4187 Snow -1 1014 92 2000 3 130 11:25 02.01.2021
4188 Snow -1 1014 92 3700 3 140 10:58 02.01.2021
4189 Snow -1 1014 92 2100 4 130 10:33 02.01.2021
4190 Snow -1 1014 100 1800 5 130 09:59 02.01.2021
4191 Snow -1 1014 100 1800 5 130 09:39 02.01.2021
4192 Snow -1 1014 92 900 5 130 09:18 02.01.2021
4193 Snow -1 1014 100 900 5 130 08:41 02.01.2021
4194 Snow -1 1014 100 1300 3 140 07:55 02.01.2021
4195 Snow -1 1014 100 1900 4 130 07:22 02.01.2021
4196 Snow -1 1014 100 3500 6 130 06:57 02.01.2021
4197 Snow -1 1014 100 2000 5 120 05:54 02.01.2021
4198 Snow 0 1014 98 2800 6 130 01:58 02.01.2021
4199 Snow 0 1014 98 3000 5 130 00:38 02.01.2021
4200 Mist 0 1014 96 2900 6 120 23:58 01.01.2021
4201 Mist 0 1014 95 2700 5 130 23:24 01.01.2021
4202 Mist 0 1014 95 2700 5 130 22:57 01.01.2021
4203 Mist 0 1014 95 2700 5 130 22:57 01.01.2021
4204 Mist 0 1014 95 2500 5 130 22:37 01.01.2021
4205 Mist 0 1014 95 2800 5 120 22:18 01.01.2021
4206 Mist 0 1014 95 3300 4 130 21:42 01.01.2021
4207 Mist 0 1014 96 3600 5 120 21:20 01.01.2021
4208 Snow 0 1014 96 4100 5 120 20:50 01.01.2021
4209 Snow 0 1014 95 4300 6 130 20:18 01.01.2021
4210 Rain 0 1014 95 4100 7 120 19:42 01.01.2021
4211 Snow 0 1014 96 3900 5 130 19:22 01.01.2021
4212 Snow 0 1014 97 3600 6 130 18:47 01.01.2021
4213 Snow 0 1014 97 4500 4 130 18:28 01.01.2021
4214 Snow 0 1014 97 4200 4 130 17:50 01.01.2021
4215 Mist 0 1014 97 5000 6 130 17:24 01.01.2021
4216 Rain 0 1015 97 4500 5 130 16:52 01.01.2021
4217 Rain 0 1015 97 3600 6 130 16:28 01.01.2021
4218 Rain 0 1015 97 2900 5 130 15:42 01.01.2021
4219 Snow 0 1015 97 5000 4 120 14:50 01.01.2021
4220 Snow 0 1015 97 5000 4 120 14:31 01.01.2021
4221 Snow 0 1015 97 4000 5 120 13:42 01.01.2021
4222 Mist 0 1015 98 3900 6 120 13:23 01.01.2021
4223 Mist 0 1015 97 4300 5 120 12:39 01.01.2021
4224 Mist 0 1016 98 4500 5 140 12:18 01.01.2021
4225 Snow 0 1016 98 5000 7 130 11:39 01.01.2021
4226 Mist -1 1016 100 4600 4 140 11:18 01.01.2021
4227 Mist -1 1016 100 4600 5 140 10:34 01.01.2021
4228 Mist -1 1016 92 4300 7 130 09:47 01.01.2021
4229 Mist -1 1016 92 4000 6 130 09:20 01.01.2021
4230 Mist -1 1016 92 3600 5 140 08:25 01.01.2021
4231 Snow -1 1016 92 4500 5 130 04:53 01.01.2021
4232 Snow -1 1016 92 3800 4 130 02:44 01.01.2021
4233 Snow -1 1017 92 3200 5 130 01:35 01.01.2021
4234 Snow -1 1017 92 3000 5 120 00:28 01.01.2021
4235 Snow -2 1017 86 4200 5 120 23:36 31.12.2020
4236 Snow -2 1017 92 4500 5 130 23:18 31.12.2020
4237 Snow -2 1017 92 4600 6 130 22:38 31.12.2020
4238 Snow -2 1017 92 4500 6 130 22:19 31.12.2020
4239 Snow -2 1017 92 4100 5 130 21:47 31.12.2020
4240 Snow -2 1017 92 4100 5 120 21:24 31.12.2020
4241 Snow -1 1016 98 3900 5 150 20:54 31.12.2020
4242 Snow -1 1016 98 3600 4 130 20:18 31.12.2020
4243 Snow -1 1016 98 3400 4 130 19:47 31.12.2020
4244 Snow -1 1016 98 3400 4 130 19:28 31.12.2020
4245 Mist -1 1016 98 2500 4 140 18:50 31.12.2020
4246 Mist -1 1016 95 2800 4 130 18:24 31.12.2020
4247 Mist 0 1016 95 2500 4 130 17:45 31.12.2020
4248 Mist 0 1016 96 2000 4 130 17:23 31.12.2020
4249 Snow 0 1016 96 2100 4 130 16:44 31.12.2020
4250 Rain 0 1016 97 2100 4 130 16:25 31.12.2020
4251 Snow 0 1016 97 2100 4 130 15:54 31.12.2020
4252 Snow 0 1016 98 2100 4 130 15:36 31.12.2020
4253 Rain 0 1016 98 2900 4 130 15:18 31.12.2020
4254 Rain 0 1016 98 3100 4 130 14:39 31.12.2020
4255 Snow 0 1016 97 2900 5 130 14:21 31.12.2020
4256 Snow 0 1016 100 4200 4 120 13:42 31.12.2020
4257 Rain -1 1016 92 3400 4 120 13:24 31.12.2020
4258 Snow -1 1016 92 3000 5 130 12:55 31.12.2020
4259 Snow -1 1016 100 2500 5 130 12:37 31.12.2020
4260 Snow -1 1017 100 3400 5 130 11:53 31.12.2020
4261 Snow -1 1017 100 3400 5 130 11:32 31.12.2020
4262 Snow -1 1017 92 3200 5 130 10:52 31.12.2020
4263 Mist -2 1017 100 2900 4 130 10:31 31.12.2020
4264 Mist -2 1017 100 2900 5 120 09:59 31.12.2020
4265 Mist -2 1017 100 2900 5 120 09:39 31.12.2020
4266 Snow -2 1017 92 3600 5 120 09:21 31.12.2020
4267 Mist -2 1017 92 4500 5 110 08:46 31.12.2020
4268 Snow -3 1017 92 5000 6 130 08:27 31.12.2020
4269 Snow -3 1018 100 6000 6 120 07:52 31.12.2020
4270 Snow -3 1018 92 5000 5 120 06:50 31.12.2020
4271 Rain -4 1018 92 1800 6 130 05:30 31.12.2020
4272 Snow -4 1017 92 1800 6 120 05:30 31.12.2020
4273 Snow -4 1018 92 2400 7 120 03:24 31.12.2020
4274 Snow -4 1019 92 2100 6 120 02:26 31.12.2020
4275 Mist -4 1019 92 2400 7 120 01:53 31.12.2020
4276 Snow -4 1019 92 2900 6 120 01:33 31.12.2020
4277 Snow -4 1019 92 3100 6 120 00:55 31.12.2020
4278 Snow -4 1020 92 3300 5 120 00:24 31.12.2020
4279 Mist -4 1020 92 3400 6 130 23:21 30.12.2020
4280 Mist -4 1020 92 3800 5 130 22:59 30.12.2020
4281 Mist -4 1020 92 3800 5 130 22:34 30.12.2020
4282 Mist -4 1020 100 4200 5 110 21:52 30.12.2020
4283 Mist -4 1021 92 4100 5 130 21:27 30.12.2020
4284 Mist -4 1021 100 3800 5 120 20:53 30.12.2020
4285 Mist -4 1021 100 3200 5 120 20:28 30.12.2020
4286 Mist -4 1021 100 3000 6 120 19:58 30.12.2020
4287 Mist -4 1021 100 3000 6 120 19:37 30.12.2020
4288 Mist -4 1021 100 3000 6 120 19:37 30.12.2020
4289 Mist -4 1021 100 3000 6 110 19:18 30.12.2020
4290 Mist -3 1021 92 2600 5 110 18:39 30.12.2020
4291 Mist -3 1021 92 3000 4 120 18:20 30.12.2020
4292 Mist -3 1021 92 3000 4 120 17:48 30.12.2020
4293 Mist -3 1022 92 4000 4 110 17:29 30.12.2020
4294 Mist -3 1021 86 4300 4 110 16:45 30.12.2020
4295 Mist -3 1021 86 4300 4 110 16:20 30.12.2020
4296 Mist -3 1021 86 4200 3 130 15:42 30.12.2020
4297 Mist -3 1021 86 4200 4 130 15:24 30.12.2020
4298 Mist -3 1021 86 3900 4 120 14:42 30.12.2020
4299 Mist -3 1021 92 3500 5 130 14:19 30.12.2020
4300 Mist -3 1021 92 3900 4 130 13:19 30.12.2020
4301 Mist -3 1021 92 4200 4 140 12:27 30.12.2020
4302 Mist -3 1021 92 4200 4 130 11:48 30.12.2020
4303 Mist -3 1021 92 4600 4 130 11:22 30.12.2020
4304 Mist -3 1021 92 4600 4 130 10:58 30.12.2020
4305 Mist -3 1021 92 4500 4 150 10:38 30.12.2020
4306 Mist -3 1021 92 4700 5 150 10:18 30.12.2020
4307 Mist -3 1021 92 5000 4 140 09:44 30.12.2020
4308 Mist -3 1021 86 7000 4 160 08:55 30.12.2020
4309 Clouds -4 1020 86 7000 4 160 07:59 30.12.2020
4310 Clouds -4 1020 92 8000 4 150 07:28 30.12.2020
4311 Clouds -4 1019 92 9000 4 160 06:42 30.12.2020
4312 Clouds -4 1019 92 9000 4 160 05:50 30.12.2020
4313 Clouds -4 1019 92 9000 4 160 05:30 30.12.2020
4314 Snow -4 1019 85 10000 4 140 03:44 30.12.2020
4315 Snow -4 1019 85 9000 4 140 03:24 30.12.2020
4316 Snow -4 1019 92 4500 4 140 02:36 30.12.2020
4317 Snow -5 1018 92 1200 5 150 01:49 30.12.2020
4318 Snow -4 1018 92 1200 5 150 01:30 30.12.2020
4319 Snow -5 1018 85 9000 5 150 00:46 30.12.2020
4320 Snow -5 1018 85 9000 5 150 00:26 30.12.2020
4321 Snow -5 1018 92 10000 5 140 23:52 29.12.2020
4322 Snow -5 1018 85 8000 6 130 23:34 29.12.2020
4323 Snow -5 1018 85 3600 6 140 22:50 29.12.2020
4324 Snow -5 1018 85 3600 6 140 22:31 29.12.2020
4325 Snow -5 1019 85 10000 8 130 21:56 29.12.2020
4326 Snow -5 1019 85 10000 7 140 21:38 29.12.2020
4327 Snow -5 1019 85 10000 7 140 21:20 29.12.2020
4328 Snow -5 1019 85 10000 8 130 20:43 29.12.2020
4329 Snow -5 1019 79 10000 8 130 20:25 29.12.2020
4330 Snow -5 1020 85 10000 7 140 19:45 29.12.2020
4331 Snow -5 1020 85 10000 8 120 19:22 29.12.2020
4332 Snow -5 1020 85 10000 8 120 18:53 29.12.2020
4333 Snow -5 1020 85 10000 7 140 18:28 29.12.2020
4334 Snow -5 1020 79 10000 9 130 17:47 29.12.2020
4335 Clouds -5 1021 79 10000 7 130 17:23 29.12.2020
4336 Snow -6 1021 79 10000 8 130 16:56 29.12.2020
4337 Snow -6 1021 79 10000 9 120 16:27 29.12.2020
4338 Snow -6 1021 79 10000 8 130 15:51 29.12.2020
4339 Clouds -6 1022 79 10000 8 140 15:33 29.12.2020
4340 Clouds -5 1022 79 10000 9 120 14:45 29.12.2020
4341 Clouds -5 1022 79 10000 9 130 14:27 29.12.2020
4342 Clouds -5 1022 79 10000 8 130 13:59 29.12.2020
4343 Clouds -5 1023 79 10000 9 120 13:25 29.12.2020
4344 Snow -5 1023 79 10000 8 120 12:56 29.12.2020
4345 Clouds -5 1023 79 10000 8 120 12:36 29.12.2020
4346 Snow -5 1024 79 10000 7 120 12:18 29.12.2020
4347 Snow -5 1024 79 10000 7 120 11:45 29.12.2020
4348 Clouds -6 1024 85 10000 7 120 11:24 29.12.2020
4349 Clouds -6 1025 79 10000 8 130 10:22 29.12.2020
4350 Snow -7 1025 79 10000 8 120 09:41 29.12.2020
4351 Clouds -7 1025 79 10000 8 120 09:19 29.12.2020
4352 Clouds -7 1025 79 10000 8 120 08:49 29.12.2020
4353 Clear -8 1025 85 10000 7 120 07:41 29.12.2020
4354 Clear -8 1026 85 10000 6 110 07:20 29.12.2020
4355 Clear -9 1026 85 10000 5 100 05:54 29.12.2020
4356 Clouds -11 1028 92 8000 4 100 02:41 29.12.2020
4357 Mist -10 1029 85 5000 7 80 00:43 29.12.2020
4358 Mist -10 1029 92 5000 5 100 23:39 28.12.2020
4359 Mist -10 1029 85 5000 5 100 22:56 28.12.2020
4360 Clouds -10 1029 85 6000 5 90 22:22 28.12.2020
4361 Clouds -10 1029 92 7000 5 100 21:42 28.12.2020
4362 Clouds -10 1030 92 8000 5 100 21:21 28.12.2020
4363 Clouds -10 1030 92 8000 4 100 20:40 28.12.2020
4364 Clouds -10 1030 92 8000 5 80 20:21 28.12.2020
4365 Clouds -9 1030 92 9000 4 100 19:42 28.12.2020
4366 Clouds -9 1030 92 10000 5 90 19:23 28.12.2020
4367 Clouds -9 1030 85 10000 4 90 18:50 28.12.2020
4368 Clear -8 1030 92 10000 4 90 18:28 28.12.2020
4369 Clear -8 1029 85 10000 4 120 17:44 28.12.2020
4370 Clear -8 1030 92 10000 4 100 17:25 28.12.2020
4371 Clouds -8 1030 85 10000 5 100 16:45 28.12.2020
4372 Clear -8 1030 85 10000 4 100 16:24 28.12.2020
4373 Clouds -8 1030 85 9000 4 90 15:50 28.12.2020
4374 Clear -7 1030 85 10000 4 80 14:58 28.12.2020
4375 Clouds -6 1030 79 10000 4 100 13:59 28.12.2020
4376 Clouds -7 1030 85 10000 4 100 13:35 28.12.2020
4377 Clouds -6 1030 79 9000 4 100 12:57 28.12.2020
4378 Clouds -6 1030 79 8000 3 120 12:24 28.12.2020
4379 Mist -7 1030 92 5000 3 130 11:47 28.12.2020
4380 Mist -7 1030 92 5000 3 130 11:47 28.12.2020
4381 Mist -7 1030 92 4500 3 130 11:26 28.12.2020
4382 Mist -7 1030 92 4700 4 110 10:52 28.12.2020
4383 Mist -7 1030 92 4700 4 110 10:28 28.12.2020
4384 Clouds -8 1030 92 7000 4 130 09:52 28.12.2020
4385 Clouds -8 1030 92 8000 3 160 09:21 28.12.2020
4386 Clouds -8 1030 92 8000 3 160 08:58 28.12.2020
4387 Clouds -8 1029 92 10000 3 190 06:52 28.12.2020
4388 Clouds -8 1029 92 10000 2 180 04:56 28.12.2020
4389 Clouds -8 1028 85 10000 2 200 03:21 28.12.2020
4390 Clouds -8 1028 85 10000 3 200 01:52 28.12.2020
4391 Clouds -7 1028 85 10000 3 240 23:52 27.12.2020
4392 Clouds -7 1027 85 10000 2 200 23:20 27.12.2020
4393 Clouds -7 1027 79 10000 3 230 22:28 27.12.2020
4394 Snow -7 1026 79 10000 1 0 21:47 27.12.2020
4395 Clouds -7 1026 85 10000 1 0 21:20 27.12.2020
4396 Clouds -7 1025 79 10000 3 300 19:59 27.12.2020
4397 Clouds -7 1025 79 10000 3 310 19:24 27.12.2020
4398 Clouds -7 1024 79 10000 3 300 18:49 27.12.2020
4399 Clouds -6 1024 79 10000 4 310 18:20 27.12.2020
4400 Clouds -6 1024 79 10000 3 300 17:57 27.12.2020
4401 Clouds -6 1024 79 10000 3 300 17:35 27.12.2020
4402 Clouds -7 1023 79 10000 5 280 16:56 27.12.2020
4403 Snow -6 1022 79 10000 4 310 16:23 27.12.2020
4404 Snow -6 1022 79 10000 3 300 15:34 27.12.2020
4405 Snow -6 1021 79 10000 5 320 14:53 27.12.2020
4406 Snow -6 1021 73 10000 5 300 14:35 27.12.2020
4407 Snow -6 1020 73 10000 4 300 13:36 27.12.2020
4408 Snow -6 1019 73 10000 5 280 12:56 27.12.2020
4409 Clouds -5 1018 73 10000 6 270 12:26 27.12.2020
4410 Clouds -6 1018 79 10000 5 280 11:42 27.12.2020
4411 Snow -5 1017 79 9000 5 280 11:20 27.12.2020
4412 Snow -5 1017 79 9000 5 280 11:20 27.12.2020
4413 Snow -5 1017 79 6000 5 270 10:45 27.12.2020
4414 Snow -6 1017 85 4200 5 270 10:19 27.12.2020
4415 Snow -5 1016 85 4500 5 260 09:39 27.12.2020
4416 Snow -6 1014 79 10000 5 290 08:28 27.12.2020
4417 Snow -6 1013 79 10000 5 290 07:29 27.12.2020
4418 Snow -6 1012 73 10000 6 290 06:48 27.12.2020
4419 Snow -5 1010 79 9000 6 280 05:38 27.12.2020
4420 Snow -4 1009 85 9000 6 250 03:26 27.12.2020
4421 Snow -4 1008 79 9000 6 260 02:30 27.12.2020
4422 Clouds -3 1007 73 10000 7 250 00:58 27.12.2020
4423 Snow -2 1006 92 9000 6 230 23:44 26.12.2020
4424 Snow -2 1005 92 8000 5 230 23:26 26.12.2020
4425 Snow -2 1005 86 8000 5 220 22:46 26.12.2020
4426 Snow -2 1005 86 6000 5 220 22:20 26.12.2020
4427 Snow -2 1005 86 2600 5 240 21:54 26.12.2020
4428 Snow -2 1005 86 2600 5 240 21:31 26.12.2020
4429 Snow -2 1005 86 8000 5 210 20:46 26.12.2020
4430 Snow -2 1005 86 8000 5 210 20:26 26.12.2020
4431 Snow -2 1005 86 10000 6 210 19:57 26.12.2020
4432 Snow -2 1004 86 10000 7 210 19:24 26.12.2020
4433 Snow -2 1005 80 10000 6 220 18:37 26.12.2020
4434 Clouds -2 1005 80 10000 6 210 18:18 26.12.2020
4435 Snow -2 1005 80 10000 6 210 17:40 26.12.2020
4436 Snow -2 1005 80 10000 6 200 17:19 26.12.2020
4437 Snow -1 1005 80 9000 6 210 16:32 26.12.2020
4438 Snow -1 1005 98 10000 7 220 15:26 26.12.2020
4439 Snow 0 1004 98 10000 5 220 14:46 26.12.2020
4440 Snow 0 1004 98 10000 5 210 14:27 26.12.2020
4441 Clouds 0 1004 98 10000 5 220 13:43 26.12.2020
4442 Clouds 0 1004 98 10000 5 220 13:25 26.12.2020
4443 Clouds 0 1004 97 10000 6 220 12:44 26.12.2020
4444 Clouds 0 1004 92 10000 6 230 12:22 26.12.2020
4445 Clouds -1 1004 86 10000 6 220 11:51 26.12.2020
4446 Clouds -1 1004 86 10000 6 210 11:22 26.12.2020
4447 Clouds -1 1004 86 10000 5 230 10:54 26.12.2020
4448 Clouds -1 1004 86 10000 5 230 10:27 26.12.2020
4449 Clouds -1 1004 86 10000 5 240 09:50 26.12.2020
4450 Clouds -1 1004 86 10000 5 240 09:28 26.12.2020
4451 Clouds -1 1004 86 10000 5 230 08:33 26.12.2020
4452 Clouds -1 1003 92 10000 5 250 07:52 26.12.2020
4453 Snow -1 1002 92 9000 4 190 06:31 26.12.2020
4454 Mist -1 1002 92 2900 4 180 03:19 26.12.2020
4455 Snow -2 1002 100 1800 4 170 01:35 26.12.2020
4456 Snow -2 1002 92 3700 4 170 00:27 26.12.2020
4457 Snow -2 1002 92 9000 4 160 23:41 25.12.2020
4458 Snow -2 1003 92 7000 5 160 23:23 25.12.2020
4459 Snow -3 1003 100 4700 5 160 22:45 25.12.2020
4460 Snow -3 1002 92 3100 5 150 21:58 25.12.2020
4461 Mist -3 1002 92 3600 4 160 21:35 25.12.2020
4462 Snow -3 1002 92 7000 4 170 20:57 25.12.2020
4463 Snow -4 1002 92 7000 4 170 20:37 25.12.2020
4464 Snow -4 1002 85 10000 5 150 19:49 25.12.2020
4465 Snow -4 1002 85 9000 5 150 19:26 25.12.2020
4466 Snow -4 1002 92 6000 5 150 18:39 25.12.2020
4467 Snow -5 1002 92 1200 5 160 17:54 25.12.2020
4468 Snow -5 1002 92 1200 5 160 17:34 25.12.2020
4469 Snow -5 1003 85 7000 5 160 16:38 25.12.2020
4470 Snow -5 1002 85 7000 6 160 16:19 25.12.2020
4471 Snow -5 1002 85 6000 6 150 15:36 25.12.2020
4472 Snow -5 1003 79 8000 7 150 14:58 25.12.2020
4473 Snow -5 1003 85 9000 6 170 14:30 25.12.2020
4474 Snow -5 1003 85 4400 7 150 13:46 25.12.2020
4475 Snow -5 1003 92 2100 6 150 13:26 25.12.2020
4476 Snow -5 1003 92 3000 6 150 12:47 25.12.2020
4477 Snow -5 1003 85 3900 7 150 12:27 25.12.2020
4478 Snow -5 1003 85 4300 5 150 11:46 25.12.2020
4479 Snow -5 1004 85 1800 8 150 11:22 25.12.2020
4480 Snow -4 1004 92 1600 7 150 10:35 25.12.2020
4481 Snow -4 1004 86 1500 6 130 09:49 25.12.2020
4482 Snow -3 1005 92 1300 6 140 08:53 25.12.2020
4483 Snow -3 1005 92 1300 6 140 08:35 25.12.2020
4484 Snow -2 1006 92 3300 6 140 06:51 25.12.2020
4485 Snow -2 1006 92 5000 5 160 05:38 25.12.2020
4486 Snow -3 1009 86 8000 5 150 02:21 25.12.2020
4487 Snow -3 1010 86 9000 5 160 00:32 25.12.2020
4488 Snow -3 1010 86 9000 6 160 23:32 24.12.2020
4489 Snow -3 1011 86 8000 5 150 22:55 24.12.2020
4490 Snow -3 1012 86 8000 4 140 22:25 24.12.2020
4491 Snow -3 1012 86 8000 4 160 21:52 24.12.2020
4492 Snow -3 1012 86 8000 4 180 21:25 24.12.2020
4493 Snow -3 1013 86 6000 5 160 19:56 24.12.2020
4494 Mist -4 1013 85 5000 5 170 18:22 24.12.2020
4495 Snow -4 1014 85 7000 4 160 17:45 24.12.2020
4496 Snow -4 1014 85 7000 4 180 17:26 24.12.2020
4497 Mist -4 1014 85 4800 4 170 16:27 24.12.2020
4498 Snow -5 1015 92 6000 4 160 15:49 24.12.2020
4499 Snow -5 1015 92 6000 4 160 15:29 24.12.2020
4500 Snow -5 1015 85 8000 4 180 14:58 24.12.2020
4501 Snow -5 1015 85 8000 4 180 14:40 24.12.2020
4502 Snow -5 1015 85 9000 4 180 14:22 24.12.2020
4503 Snow -5 1015 85 9000 4 160 13:39 24.12.2020
4504 Snow -5 1016 85 9000 4 170 13:19 24.12.2020
4505 Snow -4 1015 85 9000 4 170 12:41 24.12.2020
4506 Snow -5 1016 85 9000 4 170 12:19 24.12.2020
4507 Snow -4 1016 79 8000 4 190 11:39 24.12.2020
4508 Snow -5 1016 79 9000 4 180 11:20 24.12.2020
4509 Clouds -5 1016 85 10000 4 180 10:46 24.12.2020
4510 Clouds -5 1016 85 9000 4 190 10:28 24.12.2020
4511 Clouds -6 1016 79 9000 4 170 09:51 24.12.2020
4512 Clouds -6 1016 79 9000 4 190 09:23 24.12.2020
4513 Snow -7 1016 85 7000 3 180 07:59 24.12.2020
4514 Clouds -7 1016 85 10000 4 190 07:38 24.12.2020
4515 Snow -7 1017 85 8000 4 190 06:52 24.12.2020
4516 Clouds -8 1017 79 10000 4 180 04:24 24.12.2020
4517 Snow -8 1017 85 2100 5 170 01:53 24.12.2020
4518 Snow -8 1017 85 2600 5 160 01:30 24.12.2020
4519 Snow -8 1017 85 2600 5 160 00:56 24.12.2020
4520 Snow -8 1017 85 5000 5 170 00:20 24.12.2020
4521 Snow -8 1017 85 10000 4 180 23:40 23.12.2020
4522 Clouds -8 1018 85 10000 5 170 23:22 23.12.2020
4523 Clouds -8 1018 85 10000 6 160 22:52 23.12.2020
4524 Clouds -8 1018 85 10000 5 170 22:29 23.12.2020
4525 Clouds -8 1018 79 10000 5 170 21:49 23.12.2020
4526 Clouds -8 1017 79 10000 5 180 21:24 23.12.2020
4527 Clouds -8 1017 73 10000 7 160 20:49 23.12.2020
4528 Clouds -8 1017 73 10000 7 160 20:49 23.12.2020
4529 Clouds -8 1018 79 10000 7 160 20:31 23.12.2020
4530 Clouds -8 1018 79 10000 6 180 19:59 23.12.2020
4531 Clouds -8 1018 79 10000 6 180 19:38 23.12.2020
4532 Clouds -7 1018 79 10000 8 170 19:19 23.12.2020
4533 Clouds -7 1018 73 10000 8 170 18:46 23.12.2020
4534 Clouds -7 1018 73 10000 8 170 18:21 23.12.2020
4535 Clear -6 1018 73 10000 6 170 17:39 23.12.2020
4536 Clear -6 1018 73 10000 6 170 17:20 23.12.2020
4537 Clear -6 1018 73 10000 6 160 16:43 23.12.2020
4538 Clouds -6 1018 79 10000 5 150 16:25 23.12.2020
4539 Clouds -5 1018 79 10000 6 160 15:54 23.12.2020
4540 Clouds -5 1018 79 10000 6 170 15:29 23.12.2020
4541 Clouds -5 1018 79 10000 6 170 14:59 23.12.2020
4542 Clouds -5 1018 79 10000 7 160 14:39 23.12.2020
4543 Clouds -5 1018 79 10000 7 160 14:20 23.12.2020
4544 Clouds -5 1019 73 10000 7 160 13:43 23.12.2020
4545 Clouds -5 1019 73 10000 7 160 13:19 23.12.2020
4546 Clouds -4 1019 73 10000 7 170 12:53 23.12.2020
4547 Clouds -4 1019 73 10000 7 170 12:28 23.12.2020
4548 Clouds -5 1019 79 10000 7 190 11:53 23.12.2020
4549 Clouds -5 1020 73 10000 7 170 11:21 23.12.2020
4550 Clouds -5 1020 73 10000 7 180 10:50 23.12.2020
4551 Clouds -5 1020 73 10000 7 180 10:32 23.12.2020
4552 Clouds -4 1020 79 10000 6 180 09:36 23.12.2020
4553 Clouds -4 1020 79 10000 5 190 08:51 23.12.2020
4554 Clouds -4 1020 86 10000 5 180 08:22 23.12.2020
4555 Clouds -4 1020 79 10000 6 200 07:43 23.12.2020
4556 Clouds -3 1020 79 10000 6 200 06:41 23.12.2020
4557 Clouds -3 1021 79 10000 6 200 05:55 23.12.2020
4558 Clouds -3 1021 79 10000 5 190 05:20 23.12.2020
4559 Clouds -3 1023 86 10000 4 190 01:38 23.12.2020
4560 Clouds -3 1024 86 10000 6 210 00:32 23.12.2020
4561 Clouds -3 1024 86 10000 4 200 23:41 22.12.2020
4562 Clouds -3 1024 86 10000 5 190 23:22 22.12.2020
4563 Clouds -3 1024 86 10000 4 200 22:42 22.12.2020
4564 Clouds -3 1025 92 10000 3 190 22:24 22.12.2020
4565 Clouds -3 1025 92 10000 4 210 21:50 22.12.2020
4566 Clouds -4 1025 85 10000 5 200 21:20 22.12.2020
4567 Clouds -4 1025 85 10000 5 210 20:54 22.12.2020
4568 Clouds -4 1025 85 10000 5 210 20:35 22.12.2020
4569 Clouds -4 1025 85 9000 4 210 19:56 22.12.2020
4570 Clouds -4 1025 85 9000 4 210 19:37 22.12.2020
4571 Snow -4 1025 85 6000 5 210 19:19 22.12.2020
4572 Clouds -4 1026 85 9000 5 200 18:43 22.12.2020
4573 Clouds -4 1026 92 9000 5 210 18:24 22.12.2020
4574 Clouds -5 1026 92 10000 4 200 17:38 22.12.2020
4575 Clouds -5 1026 92 9000 5 210 17:18 22.12.2020
4576 Clouds -5 1026 92 10000 5 220 16:47 22.12.2020
4577 Clouds -4 1026 92 10000 5 220 16:21 22.12.2020
4578 Clouds -4 1027 92 9000 5 190 15:47 22.12.2020
4579 Clouds -4 1027 92 9000 5 190 15:29 22.12.2020
4580 Clouds -4 1027 92 10000 5 200 14:58 22.12.2020
4581 Clouds -4 1027 92 10000 5 200 14:39 22.12.2020
4582 Clouds -4 1027 92 10000 5 210 14:20 22.12.2020
4583 Clouds -4 1027 92 8000 6 230 13:44 22.12.2020
4584 Clouds -4 1027 92 8000 6 230 13:19 22.12.2020
4585 Clouds -4 1027 92 7000 6 230 12:52 22.12.2020
4586 Clouds -4 1027 92 7000 6 230 12:33 22.12.2020
4587 Mist -4 1027 92 4300 6 220 11:58 22.12.2020
4588 Mist -3 1027 92 4300 6 220 11:39 22.12.2020
4589 Mist -3 1027 92 3900 5 210 11:20 22.12.2020
4590 Mist -3 1028 100 4000 5 210 10:52 22.12.2020
4591 Clouds -2 1028 92 6000 6 200 10:24 22.12.2020
4592 Clouds -2 1028 92 6000 6 200 09:57 22.12.2020
4593 Clouds -2 1028 98 7000 5 200 09:24 22.12.2020
4594 Clouds -2 1028 98 6000 6 200 08:53 22.12.2020
4595 Clouds -2 1028 98 6000 6 200 08:53 22.12.2020
4596 Mist -2 1028 98 5000 5 190 08:32 22.12.2020
4597 Mist -2 1028 98 3900 5 200 07:55 22.12.2020
4598 Mist -2 1028 98 3900 5 200 07:55 22.12.2020
4599 Mist -1 1028 98 3700 5 190 07:19 22.12.2020
4600 Mist -1 1029 98 4300 5 200 05:48 22.12.2020
4601 Mist -1 1029 98 4300 5 200 05:48 22.12.2020
4602 Mist 0 1029 99 3200 5 210 03:46 22.12.2020
4603 Clouds 1 1030 97 10000 4 210 01:35 22.12.2020
4604 Clouds 1 1030 86 10000 6 230 23:56 21.12.2020
4605 Clouds 1 1030 86 10000 6 230 23:37 21.12.2020
4606 Clouds 1 1030 86 10000 6 230 23:18 21.12.2020
4607 Clouds 1 1030 86 10000 5 230 22:36 21.12.2020
4608 Clouds 1 1030 97 10000 6 220 22:18 21.12.2020
4609 Clouds 1 1030 97 10000 5 230 21:42 21.12.2020
4610 Clouds 1 1030 96 10000 5 230 21:24 21.12.2020
4611 Clouds 1 1030 96 10000 5 230 20:42 21.12.2020
4612 Clouds 1 1030 95 10000 6 240 20:20 21.12.2020
4613 Clouds 1 1030 95 10000 6 230 19:46 21.12.2020
4614 Clouds 1 1030 94 10000 5 230 19:20 21.12.2020
4615 Clouds 1 1030 94 10000 6 230 18:54 21.12.2020
4616 Clouds 1 1030 96 10000 5 230 18:36 21.12.2020
4617 Clouds 1 1030 96 10000 5 230 18:18 21.12.2020
4618 Clouds 1 1030 96 10000 6 220 17:41 21.12.2020
4619 Clouds 1 1030 96 10000 6 220 17:22 21.12.2020
4620 Clouds 1 1029 96 10000 5 210 16:39 21.12.2020
4621 Clouds 1 1029 96 10000 5 230 16:18 21.12.2020
4622 Clouds 1 1030 96 10000 5 210 15:41 21.12.2020
4623 Clouds 1 1029 96 10000 4 220 14:57 21.12.2020
4624 Clouds 1 1029 96 10000 5 230 14:22 21.12.2020
4625 Clouds 1 1029 86 10000 6 210 13:49 21.12.2020
4626 Clouds 1 1029 86 10000 6 210 13:31 21.12.2020
4627 Clouds 1 1029 86 10000 6 210 12:57 21.12.2020
4628 Clouds 1 1029 86 10000 6 210 12:37 21.12.2020
4629 Clouds 1 1029 86 10000 6 220 12:18 21.12.2020
4630 Clouds 1 1029 86 10000 6 220 11:42 21.12.2020
4631 Clouds 1 1029 98 10000 6 220 11:22 21.12.2020
4632 Clouds 1 1029 98 10000 6 210 10:55 21.12.2020
4633 Clouds 1 1029 98 10000 6 210 10:37 21.12.2020
4634 Clouds 1 1029 98 10000 4 210 09:55 21.12.2020
4635 Clouds 1 1029 98 10000 4 210 09:37 21.12.2020
4636 Clouds 1 1029 98 10000 4 200 09:18 21.12.2020
4637 Clouds 1 1029 98 10000 4 210 08:21 21.12.2020
4638 Clouds 0 1029 97 8000 4 210 06:48 21.12.2020
4639 Clouds 1 1029 97 7000 5 200 04:59 21.12.2020
4640 Clouds 1 1029 97 7000 5 210 04:27 21.12.2020
4641 Drizzle 1 1029 96 4900 4 190 00:36 21.12.2020
4642 Drizzle 0 1029 96 5000 4 200 23:39 20.12.2020
4643 Drizzle 1 1029 96 4000 4 200 23:20 20.12.2020
4644 Mist 0 1029 96 5000 4 200 22:43 20.12.2020
4645 Mist 0 1029 96 5000 5 210 22:23 20.12.2020
4646 Drizzle 0 1029 96 2600 4 200 21:42 20.12.2020
4647 Mist 0 1029 97 2200 4 200 21:24 20.12.2020
4648 Mist 0 1029 97 2300 3 200 20:59 20.12.2020
4649 Mist 0 1029 97 2300 3 200 20:40 20.12.2020
4650 Mist 0 1029 97 2600 3 180 20:21 20.12.2020
4651 Mist 0 1029 97 3000 3 180 19:42 20.12.2020
4652 Mist 0 1029 97 2800 4 200 19:20 20.12.2020
4653 Mist 0 1029 97 3600 3 200 18:54 20.12.2020
4654 Snow 0 1029 98 3600 3 200 18:35 20.12.2020
4655 Mist 0 1029 98 1700 3 200 17:47 20.12.2020
4656 Mist 0 1029 99 1500 3 190 17:28 20.12.2020
4657 Fog 0 1029 99 800 3 190 16:49 20.12.2020
4658 Fog 0 1029 99 900 3 190 16:30 20.12.2020
4659 Mist 0 1029 99 1200 3 200 15:52 20.12.2020
4660 Mist 0 1029 99 1200 3 200 15:30 20.12.2020
4661 Mist 0 1029 99 1600 3 190 14:58 20.12.2020
4662 Mist 0 1029 99 2200 3 190 14:38 20.12.2020
4663 Mist 0 1028 99 3700 4 200 14:19 20.12.2020
4664 Mist -1 1028 99 4600 4 210 13:41 20.12.2020
4665 Mist -1 1028 99 4200 4 200 13:21 20.12.2020
4666 Snow -1 1028 99 2700 4 200 12:49 20.12.2020
4667 Mist 0 1028 99 4100 4 190 12:22 20.12.2020
4668 Mist -1 1028 100 4200 3 210 11:49 20.12.2020
4669 Mist 0 1028 100 4100 4 210 11:26 20.12.2020
4670 Mist -1 1028 100 3000 4 190 10:49 20.12.2020
4671 Mist -1 1028 92 2800 3 190 10:22 20.12.2020
4672 Mist -1 1028 92 2800 3 190 09:56 20.12.2020
4673 Snow -1 1028 92 1800 3 190 09:37 20.12.2020
4674 Fog -2 1028 92 600 3 190 09:18 20.12.2020
4675 Snow -2 1028 100 1200 2 180 08:47 20.12.2020
4676 Snow -2 1028 100 1000 3 170 08:28 20.12.2020
4677 Snow -2 1027 100 1100 2 160 07:21 20.12.2020
4678 Mist -2 1027 92 2400 3 180 03:44 20.12.2020
4679 Clouds -2 1027 92 8000 2 180 01:29 20.12.2020
4680 Snow -2 1026 86 8000 3 170 23:58 19.12.2020
4681 Clouds -2 1026 86 8000 4 170 23:18 19.12.2020
4682 Clouds -2 1026 86 8000 4 150 22:44 19.12.2020
4683 Clouds -2 1026 86 8000 4 170 22:25 19.12.2020
4684 Clouds -2 1026 86 8000 4 170 21:58 19.12.2020
4685 Clouds -2 1026 86 8000 4 160 21:39 19.12.2020
4686 Clouds -2 1026 86 8000 3 160 21:21 19.12.2020
4687 Clouds -2 1026 86 9000 3 150 20:39 19.12.2020
4688 Clouds -3 1026 92 9000 4 130 20:18 19.12.2020
4689 Clouds -2 1026 86 9000 4 130 19:49 19.12.2020
4690 Clouds -2 1026 86 9000 4 130 19:24 19.12.2020
4691 Clouds -2 1026 86 9000 4 140 18:37 19.12.2020
4692 Snow -2 1025 86 9000 5 140 18:19 19.12.2020
4693 Clouds -2 1025 86 10000 4 140 17:44 19.12.2020
4694 Clouds -2 1025 86 10000 4 130 17:22 19.12.2020
4695 Snow -2 1025 86 9000 4 140 16:43 19.12.2020
4696 Snow -2 1025 86 9000 4 140 16:25 19.12.2020
4697 Snow -2 1025 86 10000 4 140 15:55 19.12.2020
4698 Snow -2 1025 86 10000 4 140 15:33 19.12.2020
4699 Clouds -2 1025 86 10000 4 140 14:40 19.12.2020
4700 Clouds -2 1025 86 10000 5 120 14:21 19.12.2020
4701 Clouds -2 1024 86 10000 5 130 13:41 19.12.2020
4702 Clouds -2 1024 86 10000 5 130 13:20 19.12.2020
4703 Snow -2 1024 86 10000 4 140 12:44 19.12.2020
4704 Snow -2 1024 86 10000 4 140 12:25 19.12.2020
4705 Snow -2 1024 92 9000 5 140 11:57 19.12.2020
4706 Snow -2 1024 92 9000 5 140 11:57 19.12.2020
4707 Snow -2 1024 92 9000 5 140 11:35 19.12.2020
4708 Snow -2 1025 92 5000 5 130 10:43 19.12.2020
4709 Snow -2 1025 92 3200 5 140 10:24 19.12.2020
4710 Snow -2 1025 92 2500 5 140 09:53 19.12.2020
4711 Snow -2 1025 92 2400 4 130 09:35 19.12.2020
4712 Snow -2 1024 92 2300 5 130 08:36 19.12.2020
4713 Snow -2 1024 92 1800 4 140 07:25 19.12.2020
4714 Snow -2 1024 92 1700 5 140 06:54 19.12.2020
4715 Snow -2 1024 92 1300 5 140 06:21 19.12.2020
4716 Snow -2 1024 92 5000 6 130 05:19 19.12.2020
4717 Mist -2 1025 92 3400 5 120 03:20 19.12.2020
4718 Snow -2 1025 92 3900 4 130 00:41 19.12.2020
4719 Snow -2 1025 92 3600 4 120 00:18 19.12.2020
4720 Snow -2 1025 92 3600 4 120 23:48 18.12.2020
4721 Snow -2 1025 92 9000 4 130 23:23 18.12.2020
4722 Snow -2 1025 92 9000 5 130 22:47 18.12.2020
4723 Snow -2 1025 92 10000 5 130 22:24 18.12.2020
4724 Snow -2 1025 86 10000 4 100 21:50 18.12.2020
4725 Snow -2 1025 86 10000 3 110 21:31 18.12.2020
4726 Snow -2 1025 86 10000 3 110 21:31 18.12.2020
4727 Snow -2 1025 86 10000 6 110 20:43 18.12.2020
4728 Snow -2 1025 86 10000 5 110 20:22 18.12.2020
4729 Clouds -2 1025 86 10000 5 100 19:46 18.12.2020
4730 Clouds -2 1026 79 10000 4 110 19:22 18.12.2020
4731 Clouds -2 1026 79 10000 3 110 18:45 18.12.2020
4732 Clouds -2 1026 79 10000 3 110 18:25 18.12.2020
4733 Clouds -1 1026 79 10000 4 120 17:36 18.12.2020
4734 Clouds -1 1026 79 10000 3 90 16:57 18.12.2020
4735 Clouds -1 1026 79 10000 3 90 16:38 18.12.2020
4736 Clouds -1 1026 79 10000 4 90 16:20 18.12.2020
4737 Clouds -1 1025 86 10000 4 80 15:44 18.12.2020
4738 Clouds -1 1026 86 10000 2 90 15:25 18.12.2020
4739 Clouds -1 1025 86 10000 3 90 14:57 18.12.2020
4740 Clouds -1 1025 86 10000 3 80 14:24 18.12.2020
4741 Clouds -1 1025 80 10000 2 30 13:53 18.12.2020
4742 Clouds -1 1025 86 10000 2 60 13:32 18.12.2020
4743 Snow -1 1025 80 10000 1 0 12:57 18.12.2020
4744 Clouds -1 1025 80 10000 2 20 12:34 18.12.2020
4745 Clouds -1 1025 80 10000 3 320 11:28 18.12.2020
4746 Clouds -1 1024 80 10000 2 320 10:41 18.12.2020
4747 Clouds -1 1024 80 10000 2 320 10:41 18.12.2020
4748 Clouds -1 1024 80 10000 2 340 10:21 18.12.2020
4749 Clouds -1 1024 80 10000 2 340 09:59 18.12.2020
4750 Clouds 0 1024 80 10000 4 300 09:37 18.12.2020
4751 Clouds 0 1024 80 10000 3 300 09:19 18.12.2020
4752 Clouds 0 1024 86 10000 3 320 08:46 18.12.2020
4753 Snow -1 1023 86 6000 4 340 08:21 18.12.2020
4754 Clouds 0 1023 86 10000 3 310 07:20 18.12.2020
4755 Clouds 0 1023 86 10000 3 310 06:59 18.12.2020
4756 Clouds 0 1022 98 10000 4 280 05:45 18.12.2020
4757 Clouds 0 1022 97 10000 5 290 05:26 18.12.2020
4758 Clouds 0 1022 97 10000 4 290 04:42 18.12.2020
4759 Snow 0 1021 96 5000 4 310 01:47 18.12.2020
4760 Snow 0 1021 96 5000 4 310 01:47 18.12.2020
4761 Snow 0 1021 96 5000 4 310 01:47 18.12.2020
4762 Snow 0 1021 96 5000 4 310 01:47 18.12.2020
4763 Snow 1 1021 80 9000 4 300 00:55 18.12.2020
4764 Snow 1 1021 80 5000 7 310 23:55 17.12.2020
4765 Snow 1 1020 80 10000 6 300 23:25 17.12.2020
4766 Snow 1 1020 86 10000 5 280 22:49 17.12.2020
4767 Snow 1 1020 86 10000 5 280 22:28 17.12.2020
4768 Snow 1 1019 86 9000 5 290 21:47 17.12.2020
4769 Clouds 1 1019 86 10000 6 280 21:25 17.12.2020
4770 Clouds 1 1019 86 10000 6 280 20:59 17.12.2020
4771 Clouds 1 1019 86 10000 6 280 20:41 17.12.2020
4772 Clouds 1 1019 86 10000 7 280 20:18 17.12.2020
4773 Clouds 1 1018 86 10000 7 280 19:45 17.12.2020
4774 Snow 1 1018 86 10000 7 270 19:23 17.12.2020
4775 Clouds 1 1018 86 10000 7 270 18:41 17.12.2020
4776 Clouds 1 1018 93 10000 7 270 18:23 17.12.2020
4777 Clouds 1 1018 93 10000 7 270 18:23 17.12.2020
4778 Clouds 1 1018 93 10000 7 270 17:53 17.12.2020
4779 Clouds 1 1017 95 10000 7 270 17:32 17.12.2020
4780 Clouds 1 1017 95 10000 6 260 16:45 17.12.2020
4781 Clouds 1 1017 94 10000 6 270 16:26 17.12.2020
4782 Clouds 1 1017 94 10000 7 250 15:52 17.12.2020
4783 Clouds 1 1017 94 10000 7 250 15:52 17.12.2020
4784 Snow 1 1017 94 10000 7 250 15:34 17.12.2020
4785 Clouds 1 1017 93 10000 7 250 14:55 17.12.2020
4786 Snow 1 1017 93 10000 6 260 14:34 17.12.2020
4787 Snow 1 1017 93 10000 6 260 13:58 17.12.2020
4788 Clouds 1 1017 93 10000 6 260 13:39 17.12.2020
4789 Rain 2 1017 93 10000 6 250 12:49 17.12.2020
4790 Snow 2 1017 95 9000 7 250 12:27 17.12.2020
4791 Clouds 2 1016 95 10000 7 250 11:46 17.12.2020
4792 Clouds 1 1017 95 10000 7 250 11:26 17.12.2020
4793 Clouds 1 1017 95 10000 7 250 10:57 17.12.2020
4794 Clouds 1 1017 94 10000 7 250 10:30 17.12.2020
4795 Snow 1 1016 95 7000 7 250 09:35 17.12.2020
4796 Snow 1 1016 95 8000 7 250 08:39 17.12.2020
4797 Clouds 0 1016 96 10000 7 250 07:40 17.12.2020
4798 Clouds 0 1015 97 10000 6 240 07:18 17.12.2020
4799 Snow 0 1015 97 9000 7 250 06:44 17.12.2020
4800 Snow 0 1015 97 3400 7 250 06:26 17.12.2020
4801 Snow -2 1016 100 1200 6 210 01:41 17.12.2020
4802 Snow -2 1017 92 2700 6 220 23:58 16.12.2020
4803 Snow -2 1017 92 10000 5 210 23:38 16.12.2020
4804 Snow -2 1017 92 3800 4 210 23:18 16.12.2020
4805 Snow -2 1017 92 7000 5 220 22:47 16.12.2020
4806 Snow -2 1017 92 9000 5 220 22:27 16.12.2020
4807 Snow -2 1018 92 8000 7 210 21:41 16.12.2020
4808 Snow -2 1018 92 6000 6 210 21:21 16.12.2020
4809 Snow -2 1018 92 6000 5 210 20:46 16.12.2020
4810 Snow -2 1018 92 6000 5 200 20:20 16.12.2020
4811 Snow -2 1018 92 6000 5 200 19:38 16.12.2020
4812 Snow -2 1018 92 6000 5 200 19:18 16.12.2020
4813 Snow -2 1019 92 6000 5 190 18:44 16.12.2020
4814 Snow -2 1019 92 6000 5 190 18:22 16.12.2020
4815 Snow -2 1019 92 6000 4 190 17:36 16.12.2020
4816 Snow -2 1020 92 5000 5 200 16:46 16.12.2020
4817 Snow -3 1020 100 5000 4 190 16:28 16.12.2020
4818 Snow -3 1020 100 5000 4 190 15:58 16.12.2020
4819 Mist -3 1020 100 5000 4 190 15:39 16.12.2020
4820 Clouds -3 1021 100 6000 4 210 15:18 16.12.2020
4821 Snow -3 1021 92 5000 5 200 14:44 16.12.2020
4822 Snow -3 1021 92 6000 5 230 14:25 16.12.2020
4823 Snow -3 1021 92 7000 4 190 13:41 16.12.2020
4824 Snow -3 1021 92 7000 4 190 13:20 16.12.2020
4825 Mist -3 1021 92 5000 3 210 12:43 16.12.2020
4826 Snow -3 1022 92 7000 4 190 11:51 16.12.2020
4827 Snow -3 1022 92 6000 4 190 11:31 16.12.2020
4828 Snow -3 1022 92 6000 4 190 10:56 16.12.2020
4829 Snow -4 1023 92 3200 4 200 10:32 16.12.2020
4830 Mist -4 1023 92 2500 3 230 09:56 16.12.2020
4831 Mist -5 1023 100 3000 4 210 09:29 16.12.2020
4832 Mist -5 1023 92 2000 3 240 08:22 16.12.2020
4833 Mist -5 1023 92 3800 3 230 07:45 16.12.2020
4834 Snow -5 1023 100 2200 3 240 07:20 16.12.2020
4835 Mist -5 1022 92 5000 3 250 03:37 16.12.2020
4836 Mist -4 1022 92 5000 2 230 01:59 16.12.2020
4837 Mist -4 1022 85 5000 1 260 23:50 15.12.2020
4838 Mist -4 1022 85 5000 1 260 23:32 15.12.2020
4839 Clouds -4 1022 85 6000 2 280 22:42 15.12.2020
4840 Mist -5 1022 85 5000 3 300 22:22 15.12.2020
4841 Mist -4 1021 85 4700 2 270 21:48 15.12.2020
4842 Clouds -4 1021 85 7000 2 300 21:24 15.12.2020
4843 Clouds -4 1022 85 6000 2 290 20:46 15.12.2020
4844 Clouds -4 1021 85 7000 2 290 20:27 15.12.2020
4845 Clouds -4 1021 85 7000 2 290 19:55 15.12.2020
4846 Mist -4 1021 85 5000 2 290 19:34 15.12.2020
4847 Clouds -4 1021 85 6000 1.33 298 18:55 15.12.2020
4848 Clouds -4 1021 85 6000 1.49 299 18:36 15.12.2020
4849 Mist -4 1021 85 5000 1 310 18:18 15.12.2020
4850 Mist -4 1021 85 5000 1 310 17:41 15.12.2020
4851 Mist -4 1021 85 5000 1 280 17:20 15.12.2020
4852 Mist -4 1020 85 5000 1 0 16:34 15.12.2020
4853 Mist -4 1020 85 5000 1 340 15:59 15.12.2020
4854 Mist -4 1020 85 5000 1 0 15:33 15.12.2020
4855 Mist -4 1020 85 5000 1 0 14:51 15.12.2020
4856 Clouds -4 1020 85 6000 0.73 288 14:27 15.12.2020
4857 Snow -4 1020 85 5000 1 0 13:59 15.12.2020
4858 Snow -3 1020 85 5000 1 0 13:40 15.12.2020
4859 Snow -3 1020 85 4700 2 330 13:22 15.12.2020
4860 Snow -3 1019 85 4700 1 0 12:43 15.12.2020
4861 Snow -3 1019 85 4300 1 0 12:18 15.12.2020
4862 Snow -4 1019 85 5000 1 0 11:43 15.12.2020
4863 Snow -4 1019 85 6000 1 0 11:20 15.12.2020
4864 Snow -4 1019 92 6000 2 60 10:44 15.12.2020
4865 Mist -4 1019 92 5000 3 80 10:19 15.12.2020
4866 Snow -5 1019 92 4500 3 90 09:39 15.12.2020
4867 Snow -5 1019 92 2800 3 80 09:21 15.12.2020
4868 Snow -5 1019 92 3100 3 80 08:39 15.12.2020
4869 Snow -5 1019 92 3600 3 80 08:20 15.12.2020
4870 Snow -5 1019 92 3800 3 80 07:41 15.12.2020
4871 Snow -5 1019 92 3400 3 90 06:51 15.12.2020
4872 Snow -5 1019 92 6000 3 110 05:27 15.12.2020
4873 Snow -5 1020 92 1100 3 110 00:39 15.12.2020
4874 Snow -5 1020 100 1500 4 120 23:48 14.12.2020
4875 Snow -6 1020 100 1000 3 110 23:19 14.12.2020
4876 Snow -5 1020 85 1000 3 120 22:40 14.12.2020
4877 Snow -6 1020 92 3300 4 110 21:56 14.12.2020
4878 Snow -6 1020 92 3300 4 110 21:36 14.12.2020
4879 Mist -6 1021 92 3900 4 130 21:18 14.12.2020
4880 Snow -6 1021 92 3700 4 120 20:43 14.12.2020
4881 Snow -6 1021 92 3500 4 130 20:24 14.12.2020
4882 Snow -6 1021 92 3300 4 130 19:41 14.12.2020
4883 Snow -6 1021 92 3200 4 140 19:23 14.12.2020
4884 Snow -6 1021 92 3400 5 120 18:43 14.12.2020
4885 Snow -6 1021 92 3900 4 130 18:23 14.12.2020
4886 Mist -6 1021 92 3900 4 140 17:38 14.12.2020
4887 Mist -6 1022 92 3700 5 120 17:19 14.12.2020
4888 Mist -6 1022 92 3700 5 120 16:42 14.12.2020
4889 Mist -6 1022 92 3100 4 120 16:23 14.12.2020
4890 Snow -6 1022 92 3400 4 120 15:33 14.12.2020
4891 Mist -6 1022 92 4300 5 120 14:51 14.12.2020
4892 Mist -6 1022 92 4100 5 120 14:32 14.12.2020
4893 Snow -6 1023 92 4800 5 120 13:57 14.12.2020
4894 Snow -5 1023 85 7000 5 120 13:35 14.12.2020
4895 Snow -5 1023 85 8000 5 120 12:58 14.12.2020
4896 Snow -5 1023 85 8000 5 120 12:40 14.12.2020
4897 Snow -5 1023 85 9000 5 120 12:20 14.12.2020
4898 Snow -6 1023 85 9000 4 120 11:30 14.12.2020
4899 Snow -5 1023 85 10000 4 130 10:29 14.12.2020
4900 Clouds -5 1023 85 10000 5 120 09:53 14.12.2020
4901 Clouds -6 1023 85 10000 5 110 09:25 14.12.2020
4902 Snow -5 1024 85 10000 5 120 08:45 14.12.2020
4903 Snow -5 1024 85 10000 5 110 08:25 14.12.2020
4904 Clouds -5 1024 79 10000 4 130 07:22 14.12.2020
4905 Snow -5 1024 79 10000 4 130 06:44 14.12.2020
4906 Snow -5 1024 79 10000 4 130 06:44 14.12.2020
4907 Clouds -5 1024 79 10000 4 120 04:19 14.12.2020
4908 Clouds -5 1024 79 10000 5 130 02:25 14.12.2020
4909 Snow -5 1025 79 10000 4 130 00:52 14.12.2020
4910 Snow -5 1025 79 10000 4 130 00:30 14.12.2020
4911 Snow -5 1025 79 10000 4 130 23:46 13.12.2020
4912 Snow -5 1025 79 10000 4 140 23:20 13.12.2020
4913 Snow -5 1025 79 10000 5 130 22:43 13.12.2020
4914 Snow -5 1025 85 10000 5 130 22:18 13.12.2020
4915 Snow -5 1025 85 10000 5 140 21:42 13.12.2020
4916 Snow -5 1025 79 10000 6 130 21:22 13.12.2020
4917 Snow -5 1025 79 10000 5 140 20:35 13.12.2020
4918 Snow -5 1025 79 10000 5 130 19:51 13.12.2020
4919 Snow -5 1025 79 10000 5 130 19:30 13.12.2020
4920 Snow -5 1025 79 10000 6 130 18:58 13.12.2020
4921 Snow -5 1026 79 10000 6 130 18:39 13.12.2020
4922 Snow -5 1026 79 10000 5 130 18:19 13.12.2020
4923 Snow -5 1026 79 10000 5 130 17:46 13.12.2020
4924 Snow -5 1026 85 5000 5 120 17:20 13.12.2020
4925 Snow -5 1026 85 4100 5 130 16:54 13.12.2020
4926 Snow -5 1026 85 9000 5 130 16:36 13.12.2020
4927 Snow -5 1026 85 5000 5 120 15:57 13.12.2020
4928 Snow -5 1026 85 5000 5 120 15:38 13.12.2020
4929 Snow -5 1026 85 3800 4 130 15:18 13.12.2020
4930 Snow -5 1026 92 2200 5 130 14:42 13.12.2020
4931 Snow -5 1026 85 2400 4 130 14:19 13.12.2020
4932 Snow -5 1026 85 2800 4 130 13:41 13.12.2020
4933 Snow -6 1026 79 5000 5 130 13:22 13.12.2020
4934 Snow -6 1026 79 7000 5 130 12:39 13.12.2020
4935 Snow -6 1026 85 4800 5 120 12:20 13.12.2020
4936 Snow -6 1026 85 2700 5 120 11:35 13.12.2020
4937 Snow -6 1026 85 2700 5 130 10:49 13.12.2020
4938 Snow -7 1026 85 2700 5 130 10:30 13.12.2020
4939 Snow -7 1026 85 2800 6 130 09:54 13.12.2020
4940 Snow -7 1026 79 10000 6 120 08:58 13.12.2020
4941 Snow -7 1026 79 10000 6 120 08:33 13.12.2020
4942 Snow -7 1026 79 9000 6 120 07:29 13.12.2020
4943 Snow -6 1026 79 10000 5 120 04:23 13.12.2020
4944 Snow -6 1027 79 10000 4 110 02:40 13.12.2020
4945 Snow -7 1028 85 10000 5 100 01:37 13.12.2020
4946 Snow -7 1028 85 10000 5 100 01:37 13.12.2020
4947 Snow -7 1028 85 10000 5 100 01:37 13.12.2020
4948 Snow -7 1027 78 10000 6 100 00:48 13.12.2020
4949 Snow -8 1028 85 6000 6 100 23:55 12.12.2020
4950 Snow -8 1028 85 6000 6 100 23:31 12.12.2020
4951 Snow -8 1028 78 10000 6 100 22:49 12.12.2020
4952 Snow -9 1028 78 10000 6 90 21:59 12.12.2020
4953 Clear -9 1029 78 10000 6 90 21:34 12.12.2020
4954 Clear -9 1029 78 10000 6 100 20:55 12.12.2020
4955 Clouds -9 1029 78 10000 5 80 20:29 12.12.2020
4956 Clouds -9 1029 78 10000 5 100 19:57 12.12.2020
4957 Clouds -9 1029 78 10000 5 100 19:39 12.12.2020
4958 Clouds -9 1029 78 9000 5 100 19:20 12.12.2020
4959 Clouds -9 1029 78 9000 6 110 18:42 12.12.2020
4960 Clouds -9 1029 78 10000 6 100 18:23 12.12.2020
4961 Clouds -9 1029 78 10000 6 100 17:47 12.12.2020
4962 Clear -9 1029 78 10000 4 100 16:55 12.12.2020
4963 Clear -9 1029 72 10000 5 100 16:20 12.12.2020
4964 Clear -10 1029 72 10000 6 90 15:45 12.12.2020
4965 Clear -10 1029 72 9000 6 90 15:27 12.12.2020
4966 Clear -9 1029 72 9000 5 90 14:45 12.12.2020
4967 Clear -8 1029 72 9000 4 110 13:55 12.12.2020
4968 Clear -8 1029 72 9000 4 110 13:36 12.12.2020
4969 Clear -8 1029 67 10000 5 100 12:53 12.12.2020
4970 Clouds -8 1029 73 9000 4 110 11:48 12.12.2020
4971 Clouds -8 1029 72 6000 4 90 10:53 12.12.2020
4972 Clouds -9 1029 85 6000 3 70 09:46 12.12.2020
4973 Clear -10 1030 78 7000 3 80 08:54 12.12.2020
4974 Clear -11 1029 85 10000 3 80 02:56 12.12.2020
4975 Clear -10 1030 78 10000 3 110 23:54 11.12.2020
4976 Clear -9 1030 78 10000 3 120 22:28 11.12.2020
4977 Clear -9 1030 78 10000 3 110 20:48 11.12.2020
4978 Clear -8 1030 72 10000 3 90 18:26 11.12.2020
4979 Clear -7 1030 73 10000 4 100 15:54 11.12.2020
4980 Clear -6 1030 79 10000 4 100 13:59 11.12.2020
4981 Clear -5 1031 73 10000 4 120 13:23 11.12.2020
4982 Clear -4 1031 62 10000 4 120 12:19 11.12.2020
4983 Clear -5 1031 67 10000 4 120 11:51 11.12.2020
4984 Clear -6 1031 67 10000 3 100 10:46 11.12.2020
4985 Clear -8 1032 78 10000 4 90 08:48 11.12.2020
4986 Clear -9 1031 78 10000 4 100 05:42 11.12.2020
4987 Clear -9 1031 78 10000 4 100 05:18 11.12.2020
4988 Clear -9 1032 78 10000 4 100 02:18 11.12.2020
4989 Clear -8 1033 72 10000 3 90 00:23 11.12.2020
4990 Clear -8 1033 72 10000 4 100 22:55 10.12.2020
4991 Clear -8 1033 72 10000 4 90 21:36 10.12.2020
4992 Clear -8 1033 72 10000 5 80 20:46 10.12.2020
4993 Clouds -8 1033 72 10000 4 100 19:44 10.12.2020
4994 Clouds -7 1034 67 10000 4 100 18:57 10.12.2020
4995 Clouds -7 1034 72 10000 4 100 18:21 10.12.2020
4996 Clear -7 1034 67 10000 4 90 16:40 10.12.2020
4997 Clear -7 1034 72 10000 4 100 15:44 10.12.2020
4998 Clear -7 1034 67 10000 4 90 14:52 10.12.2020
4999 Clear -7 1034 67 10000 4 100 14:28 10.12.2020
5000 Clear -7 1034 62 10000 4 90 13:20 10.12.2020
5001 Clear -7 1035 67 10000 4 90 11:41 10.12.2020
5002 Clear -9 1036 72 10000 4 90 08:57 10.12.2020
5003 Clear -10 1036 78 10000 4 90 07:59 10.12.2020
5004 Clear -11 1036 78 10000 5 80 06:46 10.12.2020
5005 Clear -10 1036 72 10000 4 80 03:40 10.12.2020
5006 Clear -10 1037 78 10000 5 80 02:24 10.12.2020
5007 Clear -9 1037 78 10000 4 80 00:28 10.12.2020
5008 Clear -9 1038 78 10000 5 80 22:58 09.12.2020
5009 Clear -8 1038 78 10000 5 90 20:37 09.12.2020
5010 Clear -7 1038 78 10000 5 90 19:34 09.12.2020
5011 Clear -7 1039 72 10000 5 80 17:53 09.12.2020
5012 Clear -7 1039 72 10000 4 90 16:52 09.12.2020
5013 Clear -6 1039 67 10000 5 80 16:24 09.12.2020
5014 Clear -6 1039 67 10000 4 90 15:37 09.12.2020
5015 Clear -6 1039 67 10000 5 90 14:43 09.12.2020
5016 Clear -5 1039 62 10000 4 90 14:23 09.12.2020
5017 Clear -5 1039 62 10000 4 90 13:19 09.12.2020
5018 Clear -5 1039 62 10000 4 100 12:46 09.12.2020
5019 Clear -5 1040 67 10000 4 80 11:54 09.12.2020
5020 Clear -5 1040 62 10000 4 90 11:27 09.12.2020
5021 Clear -8 1040 72 10000 4 80 09:39 09.12.2020
5022 Clear -9 1040 78 10000 5 80 08:26 09.12.2020
5023 Clear -10 1040 85 10000 4 80 05:57 09.12.2020
5024 Clear -9 1040 85 10000 4 60 04:21 09.12.2020
5025 Clear -9 1040 85 10000 2 60 02:22 09.12.2020
5026 Clear -9 1041 85 10000 4 70 23:45 08.12.2020
5027 Clear -9 1041 85 9000 5 70 23:21 08.12.2020
5028 Clear -9 1041 78 9000 3 90 21:35 08.12.2020
5029 Clear -8 1041 85 9000 4 70 19:46 08.12.2020
5030 Clear -8 1041 78 9000 3 70 19:25 08.12.2020
5031 Clear -7 1041 72 8000 3 60 18:27 08.12.2020
5032 Clear -8 1041 72 9000 4 80 16:27 08.12.2020
5033 Clear -7 1041 67 10000 4 80 14:35 08.12.2020
5034 Clear -6 1041 67 9000 3 80 13:40 08.12.2020
5035 Clear -6 1041 62 10000 4 90 12:37 08.12.2020
5036 Clear -6 1041 67 9000 4 70 11:52 08.12.2020
5037 Clear -7 1041 73 9000 3 80 10:52 08.12.2020
5038 Clear -7 1041 73 9000 3 80 10:31 08.12.2020
5039 Clear -8 1041 78 8000 3 70 09:34 08.12.2020
5040 Clear -11 1041 85 7000 4 80 07:34 08.12.2020
5041 Clear -10 1040 85 8000 3 80 04:22 08.12.2020
5042 Clear -9 1041 85 8000 3 80 01:38 08.12.2020
5043 Clear -9 1042 85 7000 3 80 00:44 08.12.2020
5044 Clear -9 1042 85 8000 3 70 22:56 07.12.2020
5045 Clear -8 1042 85 7000 3 80 22:18 07.12.2020
5046 Clear -8 1041 78 7000 4 80 20:47 07.12.2020
5047 Clear -7 1042 73 10000 3 110 18:58 07.12.2020
5048 Clear -7 1042 73 10000 3 100 17:38 07.12.2020
5049 Clear -7 1042 72 10000 3 100 17:18 07.12.2020
5050 Clear -6 1042 62 10000 2 110 16:23 07.12.2020
5051 Clear -6 1042 53 10000 3 140 15:24 07.12.2020
5052 Clear -5 1042 53 10000 2 180 14:28 07.12.2020
5053 Clear -5 1042 53 10000 2 170 13:35 07.12.2020
5054 Clear -5 1042 53 10000 3 180 11:58 07.12.2020
5055 Clear -5 1042 57 10000 4 210 11:58 07.12.2020
5056 Clear -6 1042 57 10000 4 210 11:38 07.12.2020
5057 Clear -6 1043 49 10000 3 180 10:23 07.12.2020
5058 Clear -8 1043 57 10000 3 170 08:56 07.12.2020
5059 Clear -9 1042 67 10000 3 150 07:30 07.12.2020
5060 Clear -9 1042 78 10000 3 140 05:26 07.12.2020
5061 Clear -9 1042 72 10000 3 150 03:45 07.12.2020
5062 Clear -9 1042 78 10000 2 140 00:39 07.12.2020
5063 Clear -8 1042 67 10000 2 130 22:48 06.12.2020
5064 Clear -7 1042 62 10000 3 130 21:44 06.12.2020
5065 Clear -7 1042 62 10000 3 130 21:44 06.12.2020
5066 Clouds -7 1042 73 9000 3 120 20:43 06.12.2020
5067 Clouds -7 1042 72 9000 2 110 20:22 06.12.2020
5068 Clear -6 1042 62 10000 2 100 19:26 06.12.2020
5069 Clear -6 1042 53 10000 3 130 17:31 06.12.2020
5070 Clear -5 1042 53 10000 3 130 16:33 06.12.2020
5071 Clear -4 1041 38 10000 2 160 14:49 06.12.2020
5072 Clear -3 1041 39 10000 3 180 13:21 06.12.2020
5073 Clear -3 1041 39 10000 3 170 12:30 06.12.2020
5074 Clear -3 1041 42 10000 3 190 11:42 06.12.2020
5075 Clear -4 1041 45 10000 4 200 11:23 06.12.2020
5076 Clear -5 1041 45 10000 3 200 10:35 06.12.2020
5077 Clear -6 1041 49 10000 2 190 09:23 06.12.2020
5078 Clear -8 1040 61 10000 2 160 07:29 06.12.2020
5079 Clear -9 1039 57 10000 2 150 04:47 06.12.2020
5080 Clear -7 1038 53 10000 3 170 00:45 06.12.2020
5081 Clear -7 1038 53 10000 3 170 00:26 06.12.2020
5082 Clear -7 1038 53 10000 4 170 23:56 05.12.2020
5083 Clear -7 1038 62 10000 3 180 22:25 05.12.2020
5084 Clear -7 1038 57 10000 4 140 21:55 05.12.2020
5085 Clear -7 1037 62 10000 3 140 21:30 05.12.2020
5086 Clear -6 1037 57 10000 3 130 19:54 05.12.2020
5087 Clear -6 1037 57 10000 3 130 18:46 05.12.2020
5088 Clear -6 1037 57 10000 4 130 17:51 05.12.2020
5089 Clear -5 1037 53 10000 3 160 16:45 05.12.2020
5090 Clear -5 1037 53 10000 3 160 16:26 05.12.2020
5091 Clear -5 1036 62 10000 4 130 14:52 05.12.2020
5092 Clear -4 1036 58 10000 4 130 13:25 05.12.2020
5093 Clear -4 1035 63 10000 4 170 11:50 05.12.2020
5094 Clear -5 1036 73 10000 5 160 10:39 05.12.2020
5095 Clouds -6 1036 79 9000 4 170 09:31 05.12.2020
5096 Clouds -7 1035 85 9000 4 160 07:48 05.12.2020
5097 Clouds -6 1034 92 9000 4 170 05:34 05.12.2020
5098 Clouds -4 1034 92 9000 5 170 00:55 05.12.2020
5099 Clouds -4 1034 79 10000 5 170 23:39 04.12.2020
5100 Clouds -4 1034 79 10000 4 170 21:37 04.12.2020
5101 Clouds -4 1033 85 9000 5 170 19:35 04.12.2020
5102 Clouds -4 1033 92 9000 5 160 18:40 04.12.2020
5103 Clouds -4 1033 92 8000 5 160 17:48 04.12.2020
5104 Clouds -4 1033 85 9000 4 160 16:52 04.12.2020
5105 Clouds -4 1032 85 9000 4 140 15:26 04.12.2020
5106 Clouds -4 1032 85 9000 4 160 13:38 04.12.2020
5107 Clouds -4 1032 85 10000 4 170 13:20 04.12.2020
5108 Clouds -4 1032 85 10000 4 160 12:41 04.12.2020
5109 Clouds -5 1032 79 10000 5 160 10:38 04.12.2020
5110 Clouds -5 1032 85 10000 5 160 09:37 04.12.2020
5111 Snow -5 1030 85 9000 5 140 06:41 04.12.2020
5112 Clouds -5 1030 85 9000 4 140 05:20 04.12.2020
5113 Snow -5 1030 85 10000 5 150 01:54 04.12.2020
5114 Snow -5 1031 85 9000 5 160 22:51 03.12.2020
5115 Snow -5 1031 85 4800 4 150 22:18 03.12.2020
5116 Snow -5 1031 79 8000 4 140 20:47 03.12.2020
5117 Snow -5 1030 73 10000 6 140 19:26 03.12.2020
5118 Snow -5 1030 73 10000 5 120 18:49 03.12.2020
5119 Clear -5 1031 73 10000 5 120 17:22 03.12.2020
5120 Clear -5 1031 79 10000 5 120 16:59 03.12.2020
5121 Snow -5 1031 79 10000 5 110 15:39 03.12.2020
5122 Snow -5 1031 79 10000 4 120 15:21 03.12.2020
5123 Snow -5 1031 85 9000 5 110 14:25 03.12.2020
5124 Snow -5 1031 85 9000 5 120 13:24 03.12.2020
5125 Snow -5 1032 85 6000 4 120 12:26 03.12.2020
5126 Snow -6 1032 79 9000 4 130 11:23 03.12.2020
5127 Clouds -7 1032 85 10000 4 130 08:56 03.12.2020
5128 Clouds -8 1032 92 9000 4 100 05:18 03.12.2020
5129 Clouds -8 1033 92 7000 3 70 02:26 03.12.2020
5130 Clouds -8 1033 85 7000 3 110 00:48 03.12.2020
5131 Clouds -7 1034 85 6000 4 90 22:47 02.12.2020
5132 Clouds -7 1034 92 7000 4 90 22:21 02.12.2020
5133 Clouds -7 1034 92 7000 4 80 20:57 02.12.2020
5134 Clouds -7 1034 92 7000 4 90 20:39 02.12.2020
5135 Clouds -7 1034 92 7000 4 100 20:21 02.12.2020
5136 Clouds -6 1034 85 8000 5 90 18:33 02.12.2020
5137 Clouds -6 1034 85 8000 5 90 17:38 02.12.2020
5138 Clouds -6 1034 85 9000 4 90 17:19 02.12.2020
5139 Clear -5 1034 79 10000 5 90 15:18 02.12.2020
5140 Clouds -4 1035 79 9000 4 120 12:45 02.12.2020
5141 Clouds -3 1035 86 9000 3 140 10:29 02.12.2020
5142 Clouds -3 1035 86 9000 4 130 09:22 02.12.2020
5143 Mist -2 1034 92 4700 3 100 04:25 02.12.2020
5144 Mist -2 1034 92 4700 3 100 04:25 02.12.2020
5145 Snow -2 1033 92 6000 1 0 22:21 01.12.2020
5146 Mist -2 1033 92 5000 1 0 21:41 01.12.2020
5147 Snow -2 1032 92 9000 2 170 19:35 01.12.2020
5148 Snow -2 1032 92 3100 2 160 17:58 01.12.2020
5149 Snow -2 1031 92 2400 2 150 16:37 01.12.2020
5150 Snow -2 1030 86 3800 4 120 13:39 01.12.2020
5151 Snow -1 1030 92 5000 4 130 12:25 01.12.2020
5152 Snow -1 1030 92 7000 3 170 11:27 01.12.2020
5153 Snow -1 1029 92 9000 3 160 10:39 01.12.2020
5154 Snow -1 1029 92 3500 4 150 09:26 01.12.2020
5155 Snow -1 1028 92 3400 4 150 07:19 01.12.2020
5156 Snow 0 1027 97 3600 4 150 01:56 01.12.2020
5157 Snow 0 1027 96 10000 4 150 00:57 01.12.2020
5158 Snow 0 1027 96 2000 4 150 23:22 30.11.2020
5159 Snow 0 1027 96 1600 4 150 22:45 30.11.2020
5160 Snow 0 1027 96 1800 4 150 22:26 30.11.2020
5161 Snow 0 1027 96 2700 4 150 21:55 30.11.2020
5162 Snow 0 1027 96 4800 4 140 19:45 30.11.2020
5163 Snow 0 1027 95 3200 4 150 18:40 30.11.2020
5164 Snow 0 1027 95 2600 5 140 18:20 30.11.2020
5165 Snow 0 1027 95 3600 5 130 17:42 30.11.2020
5166 Snow 1 1027 95 4300 5 140 16:44 30.11.2020
5167 Snow 1 1027 95 3900 5 130 14:47 30.11.2020
5168 Snow 1 1027 95 6000 5 140 13:55 30.11.2020
5169 Snow 1 1027 86 9000 7 130 12:40 30.11.2020
5170 Snow 1 1027 86 10000 7 130 12:20 30.11.2020
5171 Rain 1 1027 86 10000 6 140 10:32 30.11.2020
5172 Snow 1 1027 86 10000 8 120 09:53 30.11.2020
5173 Snow 0 1028 86 10000 6 140 07:59 30.11.2020
5174 Drizzle 3 1027 93 8000 8 120 01:23 30.11.2020
5175 Rain 3 1027 93 5000 6 140 23:25 29.11.2020
5176 Rain 3 1027 93 5000 7 120 21:44 29.11.2020
5177 Rain 3 1027 93 4600 8 120 21:25 29.11.2020
5178 Drizzle 3 1027 86 10000 7 140 18:46 29.11.2020
5179 Rain 3 1027 86 10000 8 120 17:34 29.11.2020
5180 Rain 2 1026 91 10000 7 120 13:37 29.11.2020
5181 Rain 2 1026 93 10000 8 110 12:44 29.11.2020
5182 Drizzle 2 1027 93 9000 7 110 11:25 29.11.2020
5183 Clouds 2 1027 93 9000 8 90 08:53 29.11.2020
5184 Rain 1 1027 100 9000 8 90 08:34 29.11.2020
5185 Mist 1 1026 97 5000 6 80 02:31 29.11.2020
5186 Mist 1 1026 96 4100 6 80 22:59 28.11.2020
5187 Mist 1 1026 100 3500 6 80 22:18 28.11.2020
5188 Mist 1 1025 100 3200 4 70 19:58 28.11.2020
5189 Mist 1 1025 100 4000 4 90 19:27 28.11.2020
5190 Fog 1 1025 100 1700 4 110 18:56 28.11.2020
5191 Mist 1 1024 100 1400 4 80 18:20 28.11.2020
5192 Mist 1 1024 100 3700 4 90 16:57 28.11.2020
5193 Mist 1 1023 100 4500 3 110 14:59 28.11.2020
5194 Mist 1 1022 100 3400 3 80 13:54 28.11.2020
5195 Mist 1 1020 99 2500 3 50 11:27 28.11.2020
5196 Snow 1 1020 99 4000 2 90 09:26 28.11.2020
5197 Snow 1 1015 98 6000 2 150 03:44 28.11.2020
5198 Clouds 0 1014 99 3900 2 140 01:53 28.11.2020
5199 Snow 0 1012 99 9000 2 170 23:22 27.11.2020
5200 Clouds 1 1011 99 9000 3 170 22:38 27.11.2020
5201 Clouds 0 1010 99 2200 3 170 20:40 27.11.2020
5202 Snow 0 1010 98 3200 3 190 19:34 27.11.2020
5203 Snow 0 1009 98 5000 2 180 18:57 27.11.2020
5204 Rain 1 1008 97 8000 4 200 16:55 27.11.2020
5205 Rain 1 1008 97 6000 3 190 16:55 27.11.2020
5206 Rain 1 1008 97 6000 3 190 16:55 27.11.2020
5207 Rain 1 1008 95 2300 3 190 14:45 27.11.2020
5208 Rain 1 1007 96 3400 4 190 13:21 27.11.2020
5209 Rain 1 1007 96 5000 4 190 12:47 27.11.2020
5210 Mist 2 1007 95 5000 3 210 11:34 27.11.2020
5211 Rain 2 1008 94 7000 4 210 10:45 27.11.2020
5212 Drizzle 2 1008 94 4300 4 200 09:53 27.11.2020
5213 Rain 2 1008 92 10000 4 180 04:32 27.11.2020
5214 Rain 1 990 34 10000 4.15 204 22:26 26.11.2020
5215 Rain 1 1011 95 3600 4 190 21:56 26.11.2020
5216 Snow 1 1012 97 7000 5 190 20:49 26.11.2020
5217 Rain 0 1013 96 8000 3 190 18:37 26.11.2020
5218 Snow 0 1013 95 9000 3 190 17:41 26.11.2020
5219 Snow -1 1015 92 2300 5 170 14:39 26.11.2020
5220 Rain 0 1016 98 3800 5 170 13:19 26.11.2020
5221 Rain 1 1016 98 5000 5 180 12:41 26.11.2020
5222 Rain 1 1017 96 3500 6 180 11:29 26.11.2020
5223 Clear 1 1017 64 10000 4 190 10:25 26.11.2020
5224 Rain 0 1018 95 10000 4 170 09:39 26.11.2020
5225 Clear 0 1018 96 10000 3 170 09:18 26.11.2020
5226 Clear -1 1018 96 10000 2 170 08:34 26.11.2020
5227 Clouds 0 1019 97 10000 3 280 02:19 26.11.2020
5228 Clouds 0 1018 98 10000 3 300 22:31 25.11.2020
5229 Rain 1 1017 98 10000 3 320 20:38 25.11.2020
5230 Clouds 1 1017 96 10000 3 290 19:29 25.11.2020
5231 Clouds 1 1016 95 10000 3 310 18:23 25.11.2020
5232 Clouds 1 1015 86 10000 3 300 15:56 25.11.2020
5233 Clouds 1 1015 86 10000 3 290 15:35 25.11.2020
5234 Clouds 2 1014 86 10000 3 300 13:47 25.11.2020
5235 Clouds 2 1014 86 10000 3 300 13:29 25.11.2020
5236 Clouds 1 1013 92 10000 3 300 11:44 25.11.2020
5237 Clouds 1 1013 90 10000 2 320 11:18 25.11.2020
5238 Clouds 1 1012 86 10000 3 330 09:18 25.11.2020
5239 Clouds 1 1012 93 10000 3 310 08:40 25.11.2020
5240 Clouds 1 1010 97 9000 3 240 03:58 25.11.2020
5241 Clouds 1 1010 96 10000 3 260 01:52 25.11.2020
5242 Clouds 1 1010 96 10000 5 280 00:22 25.11.2020
5243 Clouds 1 1010 96 10000 5 280 23:36 24.11.2020
5244 Clouds 1 1010 95 10000 4 280 22:58 24.11.2020
5245 Rain 1 1009 94 9000 3 280 21:51 24.11.2020
5246 Rain 1 1009 97 9000 3 280 21:29 24.11.2020
5247 Clouds 1 1008 97 10000 4 270 20:20 24.11.2020
5248 Rain 1 1008 98 10000 3 280 18:39 24.11.2020
5249 Rain 2 1008 97 9000 5 260 17:30 24.11.2020
5250 Rain 2 1007 93 10000 4 240 16:45 24.11.2020
5251 Clouds 2 1007 93 10000 4 240 16:27 24.11.2020
5252 Drizzle 2 1007 93 10000 5 230 15:54 24.11.2020
5253 Clouds 2 1007 95 10000 4 250 15:18 24.11.2020
5254 Clouds 2 1007 93 9000 4 220 14:33 24.11.2020
5255 Clouds 3 1007 86 10000 4 250 12:45 24.11.2020
5256 Clouds 3 1007 93 10000 5 240 12:22 24.11.2020
5257 Clouds 3 1006 93 10000 4 240 11:39 24.11.2020
5258 Clouds 2 1006 93 10000 4 250 10:41 24.11.2020
5259 Clouds 2 1007 93 10000 4 260 10:22 24.11.2020
5260 Rain 2 1007 93 9000 3 260 09:35 24.11.2020
5261 Clouds 2 1006 93 10000 5 230 07:57 24.11.2020
5262 Rain 2 1006 93 9000 5 230 04:21 24.11.2020
5263 Clouds 2 1006 93 9000 6 220 22:34 23.11.2020
5264 Rain 2 1006 93 9000 5 220 21:37 23.11.2020
5265 Rain 2 1006 93 9000 5 220 21:37 23.11.2020
5266 Rain 1 1007 100 7000 5 210 20:54 23.11.2020
5267 Rain 1 1007 100 7000 5 210 20:27 23.11.2020
5268 Mist 1 1007 100 3500 6 210 19:24 23.11.2020
5269 Rain 1 1007 98 7000 5 210 17:26 23.11.2020
5270 Drizzle 1 1007 98 4700 4 200 16:37 23.11.2020
5271 Clouds 0 1008 98 7000 3 200 14:49 23.11.2020
5272 Clouds 0 1007 98 10000 3 200 13:43 23.11.2020
5273 Mist 0 1007 98 3800 3 230 12:38 23.11.2020
5274 Clouds 0 1007 92 10000 5 240 11:49 23.11.2020
5275 Clouds 0 1008 92 10000 5 250 11:25 23.11.2020
5276 Clouds -1 1007 86 9000 3 200 09:42 23.11.2020
5277 Clouds -1 1007 86 10000 3 190 08:49 23.11.2020
5278 Snow -2 1007 92 5000 3 170 07:34 23.11.2020
5279 Rain -2 1009 92 1800 4 170 01:45 23.11.2020
5280 Snow -2 1010 92 8000 6 180 23:41 22.11.2020
5281 Snow -2 1011 92 10000 6 180 22:19 22.11.2020
5282 Snow -2 1012 92 9000 6 190 21:24 22.11.2020
5283 Clouds -2 1012 92 6000 7 190 19:59 22.11.2020
5284 Clouds -2 1013 92 4600 7 190 18:57 22.11.2020
5285 Clouds -2 1013 86 10000 6 190 17:59 22.11.2020
5286 Snow -3 1014 92 4000 5 190 16:25 22.11.2020
5287 Rain -3 1015 92 900 6 180 14:58 22.11.2020
5288 Snow -2 1016 86 9000 7 190 13:23 22.11.2020
5289 Snow -2 1017 79 10000 7 190 12:42 22.11.2020
5290 Rain -2 1018 79 10000 7 200 11:39 22.11.2020
5291 Snow -2 1018 86 10000 6 210 10:50 22.11.2020
5292 Snow -2 1018 86 10000 6 210 10:32 22.11.2020
5293 Clouds -1 1023 79 10000 7 200 04:33 22.11.2020
5294 Clouds -1 1026 80 10000 3 210 23:56 21.11.2020
5295 Clouds -1 1026 80 10000 4 180 22:41 21.11.2020
5296 Clouds -1 1027 97 10000 3 210 21:31 21.11.2020
5297 Clouds -1 1027 97 10000 3 190 20:49 21.11.2020
5298 Clouds 0 1027 97 10000 2 220 20:20 21.11.2020
5299 Clouds 0 1027 97 10000 3 190 19:49 21.11.2020
5300 Clouds 0 1027 97 10000 2 210 19:18 21.11.2020
5301 Clouds 0 1028 97 10000 3 190 17:31 21.11.2020
5302 Clouds 0 1028 97 10000 2 180 16:45 21.11.2020
5303 Clouds 0 1027 98 10000 3 250 15:42 21.11.2020
5304 Clouds 0 1027 98 10000 2 220 15:20 21.11.2020
5305 Clouds 0 1027 98 10000 3 210 14:42 21.11.2020
5306 Clouds 0 1027 97 10000 3 240 12:59 21.11.2020
5307 Clouds 0 1027 97 10000 3 260 12:23 21.11.2020
5308 Clouds 0 1027 97 10000 3 240 11:50 21.11.2020
5309 Rain 0 1027 98 10000 3 230 10:28 21.11.2020
5310 Rain 0 1026 98 10000 3 220 09:19 21.11.2020
5311 Rain 0 1026 98 10000 4 230 08:44 21.11.2020
5312 Rain -1 1024 98 10000 3 210 05:42 21.11.2020
5313 Rain -1 1023 98 10000 3 200 03:36 21.11.2020
5314 Rain -1 1022 98 10000 4 200 00:22 21.11.2020
5315 Rain -1 1022 98 10000 4 210 23:21 20.11.2020
5316 Snow 0 1021 98 10000 5 210 21:46 20.11.2020
5317 Rain -1 1021 98 10000 5 200 21:26 20.11.2020
5318 Rain -1 1021 98 10000 5 210 20:42 20.11.2020
5319 Snow 0 1020 98 10000 4 230 19:33 20.11.2020
5320 Snow -1 1019 98 8000 4 220 18:28 20.11.2020
5321 Snow -1 1019 98 2100 5 210 17:32 20.11.2020
5322 Rain -1 1018 100 1600 5 200 16:48 20.11.2020
5323 Rain -1 1018 100 1600 5 200 16:29 20.11.2020
5324 Rain -1 1017 100 1500 5 190 15:47 20.11.2020
5325 Rain 0 1017 98 1600 5 200 14:18 20.11.2020
5326 Snow -1 1016 98 1900 6 210 13:29 20.11.2020
5327 Snow -1 1016 98 6000 6 200 12:59 20.11.2020
5328 Snow -1 1015 98 3200 6 210 12:25 20.11.2020
5329 Mist -1 1015 98 2800 7 200 11:35 20.11.2020
5330 Drizzle 0 1015 93 4800 9 200 09:56 20.11.2020
5331 Drizzle 0 1014 91 4600 7 190 08:35 20.11.2020
5332 Snow 0 1014 92 4100 8 200 07:52 20.11.2020
5333 Clouds 0 1014 92 10000 9 200 05:19 20.11.2020
5334 Rain 0 1014 91 10000 9 200 03:42 20.11.2020
5335 Clouds 1 1015 86 10000 7 190 22:33 19.11.2020
5336 Clouds 0 1015 86 10000 8 200 21:54 19.11.2020
5337 Clouds 0 1015 86 9000 9 190 20:59 19.11.2020
5338 Clouds 0 1016 86 9000 9 190 20:21 19.11.2020
5339 Clouds 1 1016 86 9000 6 200 19:28 19.11.2020
5340 Rain 0 1017 89 9000 8 190 18:55 19.11.2020
5341 Rain 0 1017 90 9000 8 190 18:55 19.11.2020
5342 Clouds 0 1017 88 7000 8 190 17:35 19.11.2020
5343 Rain 0 1018 88 6000 7 190 16:47 19.11.2020
5344 Clouds 0 1019 86 7000 7 190 15:31 19.11.2020
5345 Clouds 0 1020 87 6000 6 190 13:59 19.11.2020
5346 Mist 0 1020 87 5000 6 200 13:39 19.11.2020
5347 Mist 0 1020 86 4000 7 190 12:57 19.11.2020
5348 Mist 0 1020 87 4300 6 200 12:34 19.11.2020
5349 Mist 0 1021 87 4200 5 210 11:41 19.11.2020
5350 Clouds 0 1021 89 6000 6 210 11:22 19.11.2020
5351 Clouds 0 1021 89 6000 6 210 11:22 19.11.2020
5352 Clouds 0 1021 89 6000 6 210 11:22 19.11.2020
5353 Clouds 0 1021 89 6000 5 210 10:51 19.11.2020
5354 Clouds 0 1022 90 7000 7 200 09:49 19.11.2020
5355 Clouds 0 1022 92 9000 7 210 09:29 19.11.2020
5356 Clouds 0 1022 92 9000 6 210 08:58 19.11.2020
5357 Mist -1 1023 100 5000 6 210 07:59 19.11.2020
5358 Clouds -2 1025 92 10000 6 200 01:50 19.11.2020
5359 Rain -2 1025 92 7000 6 200 00:33 19.11.2020
5360 Snow -2 1026 92 4700 6 200 23:47 18.11.2020
5361 Snow -2 1026 86 9000 5 200 23:23 18.11.2020
5362 Rain -2 1027 86 3700 6 210 22:30 18.11.2020
5363 Rain -2 1027 86 3700 6 210 22:30 18.11.2020
5364 Snow -3 1027 92 3800 7 200 21:45 18.11.2020
5365 Snow -3 1027 92 3800 7 200 21:26 18.11.2020
5366 Snow -3 1027 86 9000 7 190 20:40 18.11.2020
5367 Snow -3 1027 86 9000 7 190 19:44 18.11.2020
5368 Clouds -3 1028 79 9000 7 200 19:24 18.11.2020
5369 Snow -3 1028 79 10000 6 200 18:48 18.11.2020
5370 Snow -3 1029 73 10000 7 190 17:52 18.11.2020
5371 Snow -3 1029 73 10000 7 180 16:58 18.11.2020
5372 Clouds -3 1030 73 10000 7 180 16:21 18.11.2020
5373 Snow -2 1030 63 10000 6 190 14:43 18.11.2020
5374 Clouds -2 1030 63 10000 7 200 14:25 18.11.2020
5375 Clouds -2 1031 68 10000 7 190 13:29 18.11.2020
5376 Clouds -2 1031 68 10000 9 180 12:44 18.11.2020
5377 Clouds -2 1032 73 10000 8 190 11:57 18.11.2020
5378 Clouds -2 1032 73 10000 8 180 11:22 18.11.2020
5379 Clouds -2 1033 73 10000 8 190 10:30 18.11.2020
5380 Clouds -3 1034 73 10000 7 190 08:43 18.11.2020
5381 Clouds -4 1034 79 10000 7 190 07:29 18.11.2020
5382 Clouds -4 1035 73 10000 7 170 04:47 18.11.2020
5383 Clouds -6 1036 73 10000 4 170 00:21 18.11.2020
5384 Clouds -6 1036 79 10000 6 180 23:30 17.11.2020
5385 Clouds -6 1037 79 10000 6 180 22:45 17.11.2020
5386 Clouds -6 1037 79 10000 6 180 22:27 17.11.2020
5387 Clouds -6 1037 73 10000 5 180 21:48 17.11.2020
5388 Clouds -6 1037 73 10000 5 180 21:28 17.11.2020
5389 Clear -6 1037 67 10000 6 180 20:43 17.11.2020
5390 Clear -6 1037 67 10000 5 170 20:23 17.11.2020
5391 Clear -6 1037 67 10000 5 170 20:23 17.11.2020
5392 Clear -6 1037 67 10000 6 170 19:44 17.11.2020
5393 Clear -6 1037 67 10000 4 160 18:23 17.11.2020
5394 Clear -5 1037 62 10000 6 140 17:31 17.11.2020
5395 Clear -5 1037 58 10000 6 150 16:36 17.11.2020
5396 Clear -5 1037 62 10000 5 160 15:58 17.11.2020
5397 Clear -5 1037 62 10000 6 170 15:36 17.11.2020
5398 Clear -5 1037 62 10000 6 170 14:58 17.11.2020
5399 Clear -5 1037 62 10000 6 140 14:30 17.11.2020
5400 Clear -4 1036 58 10000 7 140 13:45 17.11.2020
5401 Clear -3 1037 53 10000 7 150 13:21 17.11.2020
5402 Clear -3 1037 53 10000 6 160 12:42 17.11.2020
5403 Clear -4 1037 58 10000 6 140 11:45 17.11.2020
5404 Clear -4 1037 58 10000 6 170 11:21 17.11.2020
5405 Clear -4 1037 58 10000 6 160 10:39 17.11.2020
5406 Clear -5 1037 62 10000 6 170 09:53 17.11.2020
5407 Clear -5 1037 62 10000 6 170 09:34 17.11.2020
5408 Clear -6 1037 73 10000 5 160 08:26 17.11.2020
5409 Clear -6 1037 73 10000 4 160 07:57 17.11.2020
5410 Clear -7 1037 79 10000 4 130 07:28 17.11.2020
5411 Clear -6 1036 73 10000 4 130 04:30 17.11.2020
5412 Clear -6 1036 67 10000 4 160 03:22 17.11.2020
5413 Clear -5 1036 67 10000 4 150 02:29 17.11.2020
5414 Clear -4 1036 62 10000 4 160 00:56 17.11.2020
5415 Clear -4 1036 62 10000 3 180 23:53 16.11.2020
5416 Clear -4 1036 62 10000 5 160 23:30 16.11.2020
5417 Clear -4 1036 62 10000 4 180 22:55 16.11.2020
5418 Clear -4 1035 58 10000 5 160 22:23 16.11.2020
5419 Clear -4 1035 68 10000 4 170 21:56 16.11.2020
5420 Clouds -4 1035 68 10000 5 170 21:37 16.11.2020
5421 Clear -3 1035 63 10000 4 160 21:18 16.11.2020
5422 Clouds -3 1035 68 10000 5 160 20:26 16.11.2020
5423 Clouds -3 1035 68 10000 6 160 19:50 16.11.2020
5424 Clouds -3 1035 68 10000 6 160 19:28 16.11.2020
5425 Clouds -2 1035 73 10000 5 160 18:50 16.11.2020
5426 Clouds -2 1035 73 10000 6 150 18:18 16.11.2020
5427 Clouds -2 1034 68 10000 6 130 17:27 16.11.2020
5428 Clouds -2 1034 68 10000 6 130 16:57 16.11.2020
5429 Clouds -2 1034 68 10000 6 120 16:39 16.11.2020
5430 Clouds -2 1034 74 10000 5 130 16:19 16.11.2020
5431 Rain -2 1034 79 10000 6 120 15:43 16.11.2020
5432 Snow -2 1034 79 10000 6 110 15:23 16.11.2020
5433 Rain -2 1034 74 10000 6 120 14:47 16.11.2020
5434 Rain -2 1033 80 10000 5 140 13:40 16.11.2020
5435 Rain -1 1033 80 10000 5 130 12:45 16.11.2020
5436 Rain -1 1033 80 10000 5 130 12:45 16.11.2020
5437 Rain -1 1033 80 10000 5 130 12:45 16.11.2020
5438 Rain -2 1033 80 10000 5 140 12:25 16.11.2020
5439 Clouds -1 1033 80 10000 5 130 11:38 16.11.2020
5440 Clouds -1 1033 80 10000 6 130 11:20 16.11.2020
5441 Snow -1 1033 80 10000 5 130 10:42 16.11.2020
5442 Snow -1 1033 80 10000 5 130 10:24 16.11.2020
5443 Snow -1 1033 80 10000 5 160 09:43 16.11.2020
5444 Snow -2 1033 80 10000 4 150 09:23 16.11.2020
5445 Clouds -2 1032 80 10000 5 150 08:41 16.11.2020
5446 Snow -2 1032 80 10000 6 120 07:45 16.11.2020
5447 Snow -1 1032 80 10000 5 140 06:50 16.11.2020
5448 Snow -1 1031 86 10000 4 140 06:24 16.11.2020
5449 Clouds -1 1031 86 10000 5 140 04:48 16.11.2020
5450 Rain -1 1031 96 10000 5 140 03:45 16.11.2020
5451 Snow 0 1031 96 10000 4 140 01:44 16.11.2020
5452 Rain 1 1031 80 10000 5 150 23:58 15.11.2020
5453 Rain 1 1031 80 10000 3 140 23:26 15.11.2020
5454 Rain 0 1031 97 10000 4 170 22:51 15.11.2020
5455 Clouds 1 1031 74 10000 5 130 22:22 15.11.2020
5456 Clouds 0 1031 74 10000 5 140 21:47 15.11.2020
5457 Clouds 1 1031 74 10000 5 140 21:26 15.11.2020
5458 Clouds 0 1030 95 9000 4 140 20:48 15.11.2020
5459 Clouds 0 1030 94 9000 4 100 20:28 15.11.2020
5460 Clouds 0 1030 94 9000 4 100 19:49 15.11.2020
5461 Clouds 0 1030 95 10000 5 90 19:24 15.11.2020
5462 Clouds 0 1030 95 10000 5 90 18:59 15.11.2020
5463 Rain 0 1030 95 10000 4 110 18:41 15.11.2020
5464 Rain 0 1030 95 10000 5 100 18:21 15.11.2020
5465 Rain 0 1030 95 10000 6 90 17:46 15.11.2020
5466 Clouds 0 1030 96 10000 5 90 17:25 15.11.2020
5467 Rain 0 1030 96 10000 5 90 16:51 15.11.2020
5468 Rain 0 1030 96 10000 5 100 16:22 15.11.2020
5469 Clouds 0 1029 96 10000 5 110 15:57 15.11.2020
5470 Clouds 1 1029 93 10000 5 110 15:39 15.11.2020
5471 Clouds 1 1029 93 10000 6 90 15:20 15.11.2020
5472 Clouds 1 1029 80 10000 6 80 14:41 15.11.2020
5473 Rain 1 1029 80 10000 5 90 14:21 15.11.2020
5474 Rain 1 1029 80 10000 6 100 13:40 15.11.2020
5475 Rain 1 1029 80 10000 5 100 12:52 15.11.2020
5476 Rain 1 1029 86 10000 5 120 12:26 15.11.2020
5477 Rain 1 1029 86 10000 5 120 11:58 15.11.2020
5478 Rain 1 1029 86 10000 4 130 11:40 15.11.2020
5479 Rain 1 1029 86 10000 4 130 11:18 15.11.2020
5480 Rain 1 1029 86 10000 4 100 10:46 15.11.2020
5481 Rain 1 1029 86 10000 4 100 10:27 15.11.2020
5482 Clouds 1 1029 86 9000 5 100 09:45 15.11.2020
5483 Clouds 1 1029 86 7000 5 100 09:22 15.11.2020
5484 Clouds 1 1029 86 7000 5 100 08:53 15.11.2020
5485 Clouds 1 1028 86 7000 5 90 08:30 15.11.2020
5486 Drizzle 1 1028 96 6000 5 80 07:43 15.11.2020
5487 Mist 1 1027 86 5000 2 120 05:30 15.11.2020
5488 Mist 1 1027 94 5000 2 120 04:50 15.11.2020
5489 Snow 1 1027 94 4600 1 190 00:56 15.11.2020
5490 Rain 1 1027 93 4000 2 210 00:29 15.11.2020
5491 Rain 1 1027 93 5000 4 90 23:39 14.11.2020
5492 Clouds 1 1027 93 8000 5 90 22:50 14.11.2020
5493 Clouds 1 1027 93 8000 5 90 22:31 14.11.2020
5494 Rain 1 1027 100 8000 4 120 21:44 14.11.2020
5495 Rain 1 1027 100 7000 3 120 21:23 14.11.2020
5496 Rain 1 1027 100 7000 3 120 20:59 14.11.2020
5497 Rain 2 1027 93 6000 4 110 20:30 14.11.2020
5498 Rain 2 1027 93 6000 4 110 20:30 14.11.2020
5499 Rain 2 1026 93 6000 4 100 19:55 14.11.2020
5500 Rain 2 1026 93 4300 4 100 19:35 14.11.2020
5501 Rain 2 1027 93 4400 4 90 18:44 14.11.2020
5502 Rain 2 1027 93 5000 4 80 18:25 14.11.2020
5503 Mist 2 1027 93 5000 4 80 17:59 14.11.2020
5504 Rain 2 1027 93 5000 4 80 17:41 14.11.2020
5505 Rain 2 1026 93 6000 4 80 17:20 14.11.2020
5506 Rain 2 1026 93 6000 3 80 16:44 14.11.2020
5507 Rain 2 1026 93 6000 3 80 16:24 14.11.2020
5508 Rain 2 1026 93 5000 3 100 15:52 14.11.2020
5509 Rain 2 1026 93 5000 3 100 15:29 14.11.2020
5510 Mist 3 1027 86 5000 3 80 14:50 14.11.2020
5511 Rain 3 1027 86 6000 2 90 14:26 14.11.2020
5512 Rain 3 1027 86 7000 3 70 13:49 14.11.2020
5513 Rain 3 1027 86 7000 3 70 13:27 14.11.2020
5514 Clouds 3 1027 86 6000 3 70 12:48 14.11.2020
5515 Clouds 3 1027 86 6000 3 60 12:30 14.11.2020
5516 Clouds 2 1027 93 6000 3 50 11:48 14.11.2020
5517 Clouds 2 1027 93 6000 3 50 11:30 14.11.2020
5518 Rain 2 1028 93 6000 2 80 10:50 14.11.2020
5519 Rain 2 1028 100 6000 2 80 10:27 14.11.2020
5520 Clouds 2 1028 93 6000 2 80 10:27 14.11.2020
5521 Clouds 2 1028 100 6000 2 80 09:56 14.11.2020
5522 Clouds 2 1028 100 6000 2 80 09:38 14.11.2020
5523 Clouds 2 1028 79 6000 2 80 09:19 14.11.2020
5524 Mist 2 1028 81 5000 3 80 08:39 14.11.2020
5525 Clouds 2 1028 81 6000 3 110 07:55 14.11.2020
5526 Mist 2 1028 83 5000 3 100 07:36 14.11.2020
5527 Fog 1 1028 85 1300 4 80 06:37 14.11.2020
5528 Mist 1 1028 84 3300 4 70 06:19 14.11.2020
5529 Mist 2 1028 83 3400 4 80 04:39 14.11.2020
5530 Mist 2 1029 82 4800 4 50 01:29 14.11.2020
5531 Fog 2 1029 82 2200 3 60 23:54 13.11.2020
5532 Fog 2 1029 82 2200 3 60 23:33 13.11.2020
5533 Fog 2 1029 81 450 2 60 22:58 13.11.2020
5534 Fog 2 1029 82 3000 2 60 22:39 13.11.2020
5535 Fog 2 1029 82 7000 2 50 22:19 13.11.2020
5536 Clouds 2 1029 82 9000 2 70 21:43 13.11.2020
5537 Clouds 3 1029 82 10000 1 0 21:22 13.11.2020
5538 Clouds 2 1029 82 10000 2 70 20:51 13.11.2020
5539 Clouds 3 1029 84 10000 1 0 20:28 13.11.2020
5540 Rain 3 1029 93 10000 1 60 19:47 13.11.2020
5541 Clouds 3 1029 84 10000 1 50 19:24 13.11.2020
5542 Clouds 3 1029 86 10000 1.08 56 18:59 13.11.2020
5543 Rain 3 1029 93 10000 1 0 18:32 13.11.2020
5544 Rain 3 1030 86 10000 2 330 17:43 13.11.2020
5545 Clouds 3 1029 86 10000 2 330 17:21 13.11.2020
5546 Rain 3 1030 93 10000 2 350 16:51 13.11.2020
5547 Rain 3 1030 93 10000 2 350 16:25 13.11.2020
5548 Rain 4 1030 93 10000 2 300 15:59 13.11.2020
5549 Rain 4 1030 93 10000 2 300 15:39 13.11.2020
5550 Clouds 4 1030 93 10000 3 310 15:21 13.11.2020
5551 Rain 4 1030 93 10000 2 330 14:37 13.11.2020
5552 Rain 4 1030 93 10000 2 320 14:18 13.11.2020
5553 Rain 4 1030 93 9000 3 330 13:32 13.11.2020
5554 Clouds 4 1030 86 10000 2 310 12:57 13.11.2020
5555 Clouds 4 1030 86 10000 2 310 12:39 13.11.2020
5556 Clouds 4 1030 86 10000 3 300 12:20 13.11.2020
5557 Clouds 4 1030 93 10000 2 300 11:46 13.11.2020
5558 Clouds 4 1030 100 10000 2 260 11:21 13.11.2020
5559 Clouds 4 1030 100 9000 2 260 10:47 13.11.2020
5560 Clouds 4 1030 100 9000 2 260 10:47 13.11.2020
5561 Clouds 4 1030 100 9000 2 260 10:29 13.11.2020
5562 Mist 3 1030 93 4400 2 250 09:48 13.11.2020
5563 Mist 3 1030 93 4400 2 250 09:29 13.11.2020
5564 Mist 3 1030 100 5000 2 210 08:53 13.11.2020
5565 Mist 3 1030 100 4900 2 220 08:27 13.11.2020
5566 Mist 3 1030 100 3600 2 240 07:50 13.11.2020
5567 Mist 3 1030 100 3600 2 240 07:27 13.11.2020
5568 Mist 3 1030 100 3300 2 250 06:56 13.11.2020
5569 Mist 2 1030 100 1700 3 250 06:37 13.11.2020
5570 Fog 2 1030 100 450 3 240 05:41 13.11.2020
5571 Fog 2 1030 100 200 2 240 03:44 13.11.2020
5572 Clouds 3 1030 93 9000 3 250 01:42 13.11.2020
5573 Clouds 3 1030 93 10000 2 210 00:37 13.11.2020
5574 Clouds 3 1030 93 10000 2 250 23:50 12.11.2020
5575 Clouds 2 1030 93 10000 2 290 23:21 12.11.2020
5576 Clouds 2 1030 93 10000 2 290 22:56 12.11.2020
5577 Clouds 2 1030 93 10000 3 310 22:38 12.11.2020
5578 Clouds 3 1030 93 10000 3 320 21:59 12.11.2020
5579 Clouds 3 1030 93 10000 3 310 21:41 12.11.2020
5580 Clouds 3 1030 93 10000 3 300 21:22 12.11.2020
5581 Clouds 3 1030 93 10000 4 280 20:42 12.11.2020
5582 Clouds 3 1030 93 10000 4 290 20:23 12.11.2020
5583 Clouds 3 1030 93 10000 4 290 19:55 12.11.2020
5584 Clouds 3 1030 93 10000 4 290 19:37 12.11.2020
5585 Clouds 3 1029 93 10000 4 290 19:19 12.11.2020
5586 Clouds 2 1029 93 10000 4 280 18:42 12.11.2020
5587 Clouds 2 1029 93 10000 4 290 18:20 12.11.2020
5588 Clouds 2 1029 93 10000 4 280 17:43 12.11.2020
5589 Clouds 2 1029 93 10000 4 270 17:24 12.11.2020
5590 Clouds 2 1029 88 10000 4 260 16:45 12.11.2020
5591 Clouds 2 1029 89 10000 4 270 16:24 12.11.2020
5592 Clouds 2 1029 89 10000 4 280 15:53 12.11.2020
5593 Clouds 2 1029 87 10000 4 280 15:30 12.11.2020
5594 Clouds 2 1030 87 10000 4 280 14:56 12.11.2020
5595 Clouds 2 1030 87 10000 4 270 14:38 12.11.2020
5596 Rain 2 1029 80 10000 4 260 14:19 12.11.2020
5597 Rain 2 1030 80 10000 3 270 13:45 12.11.2020
5598 Rain 2 1030 80 10000 3 290 13:20 12.11.2020
5599 Clouds 2 1030 86 10000 2 310 12:49 12.11.2020
5600 Clouds 2 1030 86 10000 3 270 12:25 12.11.2020
5601 Rain 1 1030 86 10000 3 270 11:57 12.11.2020
5602 Clouds 1 1030 86 10000 3 270 11:39 12.11.2020
5603 Clouds 1 1030 79 10000 3 260 10:54 12.11.2020
5604 Clouds 1 1030 79 10000 3 260 10:35 12.11.2020
5605 Clouds 0 1030 82 10000 3 270 09:58 12.11.2020
5606 Rain 0 1030 82 10000 3 270 09:38 12.11.2020
5607 Snow -1 1030 92 10000 4 250 09:18 12.11.2020
5608 Rain -1 1030 92 10000 3 260 08:40 12.11.2020
5609 Rain -1 1030 92 10000 3 260 08:40 12.11.2020
5610 Rain -1 1030 92 10000 4 240 08:21 12.11.2020
5611 Rain -1 1030 92 10000 4 240 07:56 12.11.2020
5612 Rain -2 1030 92 9000 3 250 07:37 12.11.2020
5613 Rain -2 1030 92 10000 3 220 06:54 12.11.2020
5614 Clouds -2 1030 92 10000 3 240 06:27 12.11.2020
5615 Clouds -2 1030 100 9000 4 290 03:51 12.11.2020
5616 Clouds -2 1030 100 6000 4 280 03:20 12.11.2020
5617 Clear -3 1031 92 10000 3 270 00:49 12.11.2020
5618 Clouds -1 1031 92 10000 3 280 23:46 11.11.2020
5619 Clouds -1 1031 92 10000 2 290 23:25 11.11.2020
5620 Clouds -1 1031 92 10000 2 290 22:57 11.11.2020
5621 Clouds -1 1030 92 10000 3 270 22:38 11.11.2020
5622 Clear -2 1030 92 10000 2 280 22:18 11.11.2020
5623 Clear -2 1030 92 10000 2 300 21:41 11.11.2020
5624 Clouds -2 1030 86 10000 3 290 21:23 11.11.2020
5625 Clouds -2 1030 86 10000 3 290 20:55 11.11.2020
5626 Clouds -2 1030 86 10000 3 290 20:37 11.11.2020
5627 Clouds -2 1030 86 10000 3 290 20:18 11.11.2020
5628 Clouds -1 1030 86 10000 3 290 19:46 11.11.2020
5629 Clouds 0 1030 86 10000 3 290 19:28 11.11.2020
5630 Clear 0 1029 86 10000 4 290 18:47 11.11.2020
5631 Clear 0 1029 92 10000 3 290 18:27 11.11.2020
5632 Clouds 0 1029 92 10000 3 290 17:41 11.11.2020
5633 Clear 0 1029 91 10000 3 290 17:22 11.11.2020
5634 Clouds 1 1029 74 10000 3 290 16:49 11.11.2020
5635 Clouds 1 1029 74 10000 3 290 16:31 11.11.2020
5636 Clouds 1 1029 74 10000 4 290 15:48 11.11.2020
5637 Clouds 1 1029 74 10000 4 290 15:26 11.11.2020
5638 Clouds 2 1029 69 10000 3 290 14:55 11.11.2020
5639 Clouds 2 1029 69 10000 3 290 14:35 11.11.2020
5640 Clear 2 1029 69 10000 3 300 13:56 11.11.2020
5641 Clear 2 1028 69 10000 6 290 13:33 11.11.2020
5642 Clouds 2 1028 64 10000 6 290 12:44 11.11.2020
5643 Clouds 2 1028 69 10000 6 290 12:20 11.11.2020
5644 Clouds 2 1028 64 10000 5 300 11:49 11.11.2020
5645 Clouds 2 1028 74 10000 5 290 11:30 11.11.2020
5646 Clouds 1 1028 74 10000 6 300 10:42 11.11.2020
5647 Clouds 1 1028 74 10000 5 310 10:24 11.11.2020
5648 Clouds 1 1028 74 10000 4 310 09:48 11.11.2020
5649 Clouds 1 1028 74 10000 4 310 09:28 11.11.2020
5650 Clouds 1 1028 69 10000 4 290 08:47 11.11.2020
5651 Clouds 1 1028 69 10000 4 290 08:28 11.11.2020
5652 Clouds 1 1028 87 10000 4 280 07:54 11.11.2020
5653 Clouds 1 1028 88 10000 4 280 07:36 11.11.2020
5654 Clouds 1 1028 91 10000 5 270 06:29 11.11.2020
5655 Clouds 1 1028 80 10000 4 280 04:47 11.11.2020
5656 Clouds 1 1028 80 10000 5 290 01:32 11.11.2020
5657 Clouds 1 1027 80 10000 5 290 00:42 11.11.2020
5658 Clouds 1 1027 80 10000 5 300 23:56 10.11.2020
5659 Clouds 0 1027 80 10000 4 300 23:24 10.11.2020
5660 Clouds 0 1027 80 10000 4 300 22:57 10.11.2020
5661 Clouds 0 1027 80 10000 4 300 22:36 10.11.2020
5662 Clouds 0 1027 80 10000 5 290 22:18 10.11.2020
5663 Clouds 1 1027 80 10000 4 300 21:39 10.11.2020
5664 Clouds 1 1027 80 10000 5 290 21:19 10.11.2020
5665 Clouds 2 1027 74 10000 5 290 20:43 10.11.2020
5666 Clouds 2 1027 74 10000 6 280 20:23 10.11.2020
5667 Clouds 2 1027 74 10000 6 280 19:57 10.11.2020
5668 Clouds 2 1026 74 10000 5 290 19:39 10.11.2020
5669 Clouds 2 1026 74 10000 5 300 19:20 10.11.2020
5670 Clouds 2 1026 74 10000 5 300 18:41 10.11.2020
5671 Clouds 2 1026 74 10000 5 300 18:21 10.11.2020
5672 Clouds 2 1026 74 10000 5 300 17:47 10.11.2020
5673 Clouds 2 1026 74 10000 5 300 17:28 10.11.2020
5674 Clouds 3 1026 74 10000 5 300 16:58 10.11.2020
5675 Clouds 3 1025 74 10000 5 300 16:40 10.11.2020
5676 Clouds 3 1025 69 10000 6 300 16:22 10.11.2020
5677 Clouds 3 1025 69 10000 5 290 15:48 10.11.2020
5678 Clouds 3 1025 69 10000 6 300 15:27 10.11.2020
5679 Clouds 3 1024 69 10000 5 300 14:47 10.11.2020
5680 Clouds 3 1024 69 10000 6 300 14:24 10.11.2020
5681 Clouds 3 1024 69 10000 6 300 14:00 10.11.2020
5682 Clouds 3 1024 69 10000 7 290 13:38 10.11.2020
5683 Clouds 3 1024 69 10000 7 290 13:19 10.11.2020
5684 Clouds 3 1023 69 10000 7 290 12:45 10.11.2020
5685 Clouds 3 1023 69 10000 7 290 12:24 10.11.2020
5686 Clouds 3 1023 69 10000 7 290 12:24 10.11.2020
5687 Clouds 3 1023 74 10000 6 280 11:43 10.11.2020
5688 Clouds 3 1023 74 10000 6 300 11:21 10.11.2020
5689 Clouds 3 1023 74 10000 6 300 10:57 10.11.2020
5690 Rain 3 1023 74 10000 6 300 10:38 10.11.2020
5691 Rain 3 1023 74 10000 6 300 10:19 10.11.2020
5692 Snow 3 1023 80 10000 6 300 09:45 10.11.2020
5693 Clouds 3 1023 74 10000 6 300 09:24 10.11.2020
5694 Clouds 3 1022 74 10000 6 290 08:55 10.11.2020
5695 Clouds 3 1022 74 10000 6 290 08:27 10.11.2020
5696 Clouds 3 1022 82 10000 4 280 07:45 10.11.2020
5697 Clouds 3 1022 83 10000 4 270 07:25 10.11.2020
5698 Clouds 2 1022 84 10000 4 270 06:41 10.11.2020
5699 Clouds 2 1021 86 10000 4 290 05:49 10.11.2020
5700 Clouds 3 1021 86 10000 5 290 04:59 10.11.2020
5701 Clouds 2 1021 93 10000 5 290 02:37 10.11.2020
5702 Clouds 2 1020 93 10000 6 280 01:31 10.11.2020
5703 Clouds 2 1020 83 10000 6 280 00:22 10.11.2020
5704 Clouds 2 1020 83 10000 6 280 00:22 10.11.2020
5705 Clouds 2 1019 92 10000 6 280 23:36 09.11.2020
5706 Snow 2 1019 92 10000 7 280 22:54 09.11.2020
5707 Clouds 2 1019 92 10000 7 280 22:36 09.11.2020
5708 Clouds 2 1019 93 10000 7 290 22:18 09.11.2020
5709 Clouds 2 1019 84 10000 8 280 21:39 09.11.2020
5710 Rain 2 1019 80 10000 8 280 21:19 09.11.2020
5711 Clouds 2 1019 80 10000 6 280 20:39 09.11.2020
5712 Clouds 1 1019 86 10000 7 240 20:21 09.11.2020
5713 Rain 1 1019 86 10000 7 240 19:42 09.11.2020
5714 Clear 1 1020 80 10000 8 250 19:22 09.11.2020
5715 Clouds 1 1020 86 10000 8 250 18:46 09.11.2020
5716 Clouds 1 1021 80 10000 6 270 18:21 09.11.2020
5717 Clouds 1 1021 80 10000 6 270 17:58 09.11.2020
5718 Clouds 1 1021 80 10000 6 250 17:39 09.11.2020
5719 Clouds 2 1021 86 10000 6 260 17:21 09.11.2020
5720 Clouds 2 1021 80 10000 7 260 16:39 09.11.2020
5721 Clouds 2 1022 80 10000 6 270 16:19 09.11.2020
5722 Clouds 2 1022 80 10000 6 270 15:42 09.11.2020
5723 Clouds 2 1022 80 10000 6 260 15:24 09.11.2020
5724 Clouds 2 1022 80 10000 6 270 14:45 09.11.2020
5725 Clouds 2 1022 74 10000 7 270 14:27 09.11.2020
5726 Clouds 2 1022 73 10000 6 280 13:52 09.11.2020
5727 Clouds 2 1022 71 10000 7 290 13:24 09.11.2020
5728 Clouds 2 1023 74 10000 5 290 12:57 09.11.2020
5729 Clouds 3 1023 74 10000 5 290 12:37 09.11.2020
5730 Clouds 3 1023 74 10000 6 260 12:19 09.11.2020
5731 Clouds 2 1023 80 10000 5 280 11:41 09.11.2020
5732 Clouds 10 1023 80 10000 6 290 11:22 09.11.2020
5733 Clouds 10 1023 86 10000 5 280 10:43 09.11.2020
5734 Clouds 10 1023 80 10000 4 280 10:25 09.11.2020
5735 Clouds 9 1023 74 10000 5 280 09:52 09.11.2020
5736 Clouds 9 1023 78 10000 5 280 09:28 09.11.2020
5737 Clear 9 1005 35 10000 4.42 292 08:49 09.11.2020
5738 Clouds 8 1023 83 10000 5 280 08:27 09.11.2020
5739 Clear 8 1022 86 10000 5 270 07:43 09.11.2020
5740 Clear 8 1022 86 10000 5 270 07:22 09.11.2020
5741 Clear 8 1022 86 10000 4 270 06:48 09.11.2020
5742 Clear 8 1021 92 10000 4 280 03:51 09.11.2020
5743 Clear 9 1002 32 10000 4.39 313 01:56 09.11.2020
5744 Clear 8 1002 32 10000 4.39 313 01:38 09.11.2020
5745 Clear 1 1019 81 10000 4 290 00:35 09.11.2020
5746 Clear 9 1000 33 10000 4.71 319 23:40 08.11.2020
5747 Clear 9 1000 33 10000 4.78 322 23:22 08.11.2020
5748 Clear 10 1000 33 10000 4.78 322 22:42 08.11.2020
5749 Clear 10 1000 33 10000 4.86 325 22:21 08.11.2020
5750 Clear 10 1000 33 10000 4.86 325 21:45 08.11.2020
5751 Clear 10 999 33 10000 4.99 328 21:21 08.11.2020
5752 Clear 10 999 33 10000 4.99 328 20:56 08.11.2020
5753 Clear 10 999 33 10000 4.99 328 20:38 08.11.2020
5754 Clear 10 999 33 10000 5.13 331 20:19 08.11.2020
5755 Clear 11 998 33 10000 5.13 331 19:45 08.11.2020
5756 Clouds 11 998 33 10000 5.12 332 19:21 08.11.2020
5757 Clouds 11 997 33 10000 5.12 332 18:55 08.11.2020
5758 Clouds 11 997 33 10000 5.12 332 18:37 08.11.2020
5759 Clouds 11 997 33 10000 4.61 333 18:19 08.11.2020
5760 Clouds 12 996 34 10000 4.61 333 17:41 08.11.2020
5761 Clouds 12 996 35 10000 4.82 332 17:20 08.11.2020
5762 Clouds 13 995 35 10000 4.82 332 16:57 08.11.2020
5763 Clouds 13 995 35 10000 4.82 332 16:37 08.11.2020
5764 Rain 13 995 35 10000 5.85 3 16:18 08.11.2020
5765 Rain 13 994 36 10000 5.85 3 15:44 08.11.2020
5766 Rain 13 993 36 7372 5.19 318 15:26 08.11.2020
5767 Rain 14 993 36 7372 5.19 318 14:42 08.11.2020
5768 Rain 13 992 37 10000 5.99 296 14:23 08.11.2020
5769 Rain 14 992 37 10000 5.99 296 13:56 08.11.2020
5770 Rain 14 992 37 10000 5.99 284 13:25 08.11.2020
5771 Rain 14 991 37 10000 5.99 284 12:55 08.11.2020
5772 Rain 14 991 37 10000 6.35 285 12:37 08.11.2020
5773 Rain 15 991 37 10000 6.44 276 12:18 08.11.2020
5774 Rain 15 991 36 10000 6.44 276 11:41 08.11.2020
5775 Rain 14 992 36 10000 6.5 272 11:22 08.11.2020
5776 Rain 14 992 36 10000 6.5 272 10:53 08.11.2020
5777 Rain 14 992 36 10000 6.27 270 10:21 08.11.2020
5778 Clouds 14 992 36 10000 6.27 270 09:59 08.11.2020
5779 Rain 14 992 36 10000 6.27 270 09:41 08.11.2020
5780 Rain 14 1010 87 8000 7 270 09:18 08.11.2020
5781 Rain 14 1010 93 10000 7 270 08:44 08.11.2020
5782 Clouds 14 1010 87 10000 8 270 08:22 08.11.2020
5783 Clouds 14 1010 87 10000 7 270 07:53 08.11.2020
5784 Clouds 14 1011 87 10000 7 270 07:31 08.11.2020
5785 Drizzle 14 1010 87 10000 7 270 06:27 08.11.2020
5786 Clouds 13 1011 87 8000 7 270 05:54 08.11.2020
5787 Clouds 13 1011 87 10000 6 270 04:51 08.11.2020
5788 Drizzle 12 1012 93 4000 7 240 02:44 08.11.2020
5789 Rain 12 1013 93 10000 7 260 01:19 08.11.2020
5790 Clouds 6 1014 87 10000 8 260 00:31 08.11.2020
5791 Clouds 6 1014 87 10000 8 260 00:31 08.11.2020
5792 Clouds 5 1014 93 10000 6 250 23:56 07.11.2020
5793 Clear 11 1014 86 10000 5 230 23:37 07.11.2020
5794 Clear 12 1014 86 10000 4 230 23:18 07.11.2020
5795 Clear 12 1014 86 10000 5 250 22:39 07.11.2020
5796 Clear 12 1014 86 10000 6 250 22:20 07.11.2020
5797 Clear 12 1014 86 10000 5 230 21:40 07.11.2020
5798 Clear 12 1015 86 10000 5 250 21:19 07.11.2020
5799 Clear 12 1015 86 10000 5 240 20:46 07.11.2020
5800 Clear 12 1015 86 10000 5 240 20:28 07.11.2020
5801 Clear 12 1016 75 10000 4 270 19:49 07.11.2020
5802 Clear 12 1016 75 10000 4 270 19:28 07.11.2020
5803 Clear 13 1017 75 10000 5 260 18:45 07.11.2020
5804 Clear 12 1017 75 10000 5 260 18:27 07.11.2020
5805 Clear 12 1017 80 10000 4 250 17:59 07.11.2020
5806 Clear 13 1017 75 10000 4 270 17:37 07.11.2020
5807 Clear 13 1017 70 10000 4 270 16:57 07.11.2020
5808 Clear 13 1017 70 10000 3 280 16:39 07.11.2020
5809 Clear 13 1017 65 10000 4 280 16:20 07.11.2020
5810 Clear 14 999 33 10000 5.01 307 15:42 07.11.2020
5811 Clear 14 1016 61 10000 5 290 15:22 07.11.2020
5812 Clear 14 1016 61 10000 6 300 14:48 07.11.2020
5813 Clear 14 998 32 10000 5.44 316 14:29 07.11.2020
5814 Clear 14 998 32 10000 5.44 316 13:56 07.11.2020
5815 Clouds 14 998 32 10000 6.11 323 13:31 07.11.2020
5816 Clouds 14 998 32 10000 6.11 323 12:55 07.11.2020
5817 Clouds 14 997 32 10000 6.62 327 12:30 07.11.2020
5818 Clouds 15 997 33 10000 6.62 327 11:45 07.11.2020
5819 Clouds 15 997 32 10000 7.11 331 11:24 07.11.2020
5820 Clouds 14 996 33 10000 7.11 331 10:46 07.11.2020
5821 Clouds 14 996 33 10000 7.59 331 10:28 07.11.2020
5822 Clouds 14 995 33 10000 7.59 331 09:58 07.11.2020
5823 Clouds 13 995 33 10000 7.82 330 09:37 07.11.2020
5824 Clouds 13 995 34 10000 7.82 330 08:58 07.11.2020
5825 Clouds 13 995 34 10000 7.82 330 08:37 07.11.2020
5826 Clouds 13 994 34 10000 7.37 325 08:18 07.11.2020
5827 Clouds 13 993 34 10000 7.37 325 07:37 07.11.2020
5828 Clouds 12 993 34 10000 5.79 310 06:48 07.11.2020
5829 Clouds 12 991 34 10000 5.13 301 05:37 07.11.2020
5830 Clouds 11 992 35 10000 6.42 298 03:25 07.11.2020
5831 Rain 11 992 35 10000 5.98 298 01:45 07.11.2020
5832 Rain 11 992 35 10000 5.97 298 01:25 07.11.2020
5833 Rain 4 1010 80 10000 6 270 00:28 07.11.2020
5834 Clouds 10 993 34 10000 6.02 298 23:30 06.11.2020
5835 Rain 11 993 34 10000 6.02 298 22:46 06.11.2020
5836 Clouds 11 993 34 10000 5.36 305 22:20 06.11.2020
5837 Rain 11 993 33 10000 5.36 305 21:59 06.11.2020
5838 Clouds 12 993 33 10000 5.36 305 21:40 06.11.2020
5839 Clouds 12 993 33 10000 5.26 308 21:18 06.11.2020
5840 Clouds 12 993 33 10000 5.26 308 20:43 06.11.2020
5841 Clouds 12 993 33 10000 5.3 315 20:20 06.11.2020
5842 Clouds 12 993 33 10000 5.3 315 19:45 06.11.2020
5843 Clouds 12 993 33 10000 5.92 322 19:27 06.11.2020
5844 Clouds 12 992 33 10000 5.87 321 18:47 06.11.2020
5845 Clouds 12 992 34 10000 6.28 324 18:28 06.11.2020
5846 Clouds 12 992 34 10000 6.28 324 17:53 06.11.2020
5847 Clouds 12 992 34 10000 6.28 324 17:35 06.11.2020
5848 Clouds 12 991 34 10000 7.1 322 16:59 06.11.2020
5849 Clouds 12 991 34 10000 7.1 322 16:39 06.11.2020
5850 Clouds 12 991 35 10000 7.3 322 16:20 06.11.2020
5851 Clouds 12 990 35 10000 7.3 322 15:41 06.11.2020
5852 Clouds 12 990 35 10000 6.74 317 15:22 06.11.2020
5853 Rain 13 990 35 10000 6.74 317 14:41 06.11.2020
5854 Rain 13 989 36 10000 6.77 315 14:18 06.11.2020
5855 Rain 13 989 36 10000 6.77 315 14:18 06.11.2020
5856 Clouds 13 989 36 10000 6.77 315 13:42 06.11.2020
5857 Clouds 13 988 36 10000 6.3 315 13:20 06.11.2020
5858 Clouds 13 988 36 10000 6.3 315 12:43 06.11.2020
5859 Rain 13 988 36 10000 6.35 316 12:23 06.11.2020
5860 Clouds 13 988 37 10000 6.35 316 11:39 06.11.2020
5861 Rain 12 988 37 10000 6.14 304 11:20 06.11.2020
5862 Clouds 12 988 37 10000 6.14 304 10:36 06.11.2020
5863 Rain 12 988 38 7021 5.76 303 10:18 06.11.2020
5864 Rain 6 1005 80 10000 7 280 09:41 06.11.2020
5865 Clouds 6 1006 86 10000 6 260 09:21 06.11.2020
5866 Snow 6 1006 86 8000 4 300 08:47 06.11.2020
5867 Snow 6 1006 86 8000 4 300 08:28 06.11.2020
5868 Clouds 7 1005 81 10000 9 260 07:44 06.11.2020
5869 Clouds 7 1006 87 10000 6 280 07:21 06.11.2020
5870 Clouds 6 1006 87 10000 6 270 06:48 06.11.2020
5871 Clouds 6 1006 87 10000 8 250 05:40 06.11.2020
5872 Rain 6 1007 93 10000 7 250 02:53 06.11.2020
5873 Drizzle 6 1009 87 10000 8 230 00:43 06.11.2020
5874 Drizzle 6 1009 87 7000 7 240 00:18 06.11.2020
5875 Clouds 6 1010 87 10000 8 250 23:26 05.11.2020
5876 Clouds 6 1010 81 10000 8 240 22:50 05.11.2020
5877 Clouds 6 1010 81 10000 8 240 22:50 05.11.2020
5878 Clouds 6 1011 81 10000 8 240 22:26 05.11.2020
5879 Clouds 6 1011 81 10000 8 240 21:59 05.11.2020
5880 Clouds 6 1012 81 10000 8 220 21:41 05.11.2020
5881 Clouds 6 1012 81 10000 8 230 21:21 05.11.2020
5882 Rain 6 1013 81 10000 8 220 20:44 05.11.2020
5883 Rain 6 1013 81 10000 8 220 20:25 05.11.2020
5884 Rain 6 1013 75 10000 8 220 19:58 05.11.2020
5885 Rain 6 1014 81 10000 8 230 19:40 05.11.2020
5886 Clouds 6 1014 75 10000 8 220 19:20 05.11.2020
5887 Rain 6 1014 75 10000 8 220 18:42 05.11.2020
5888 Rain 6 1015 75 10000 7 220 18:23 05.11.2020
5889 Rain 6 1015 75 10000 7 220 17:51 05.11.2020
5890 Rain 6 1015 75 10000 7 220 17:27 05.11.2020
5891 Clouds 7 1016 75 10000 6 230 16:53 05.11.2020
5892 Clouds 7 1016 75 10000 6 230 16:29 05.11.2020
5893 Clouds 7 1017 70 10000 6 240 15:59 05.11.2020
5894 Clouds 7 1017 70 10000 7 230 15:40 05.11.2020
5895 Clouds 7 1017 75 10000 7 240 15:21 05.11.2020
5896 Clouds 7 1017 75 10000 6 260 14:44 05.11.2020
5897 Clouds 7 1017 75 10000 7 240 14:24 05.11.2020
5898 Clouds 8 1018 70 10000 7 250 13:42 05.11.2020
5899 Clouds 8 1017 75 10000 6 260 13:23 05.11.2020
5900 Clouds 8 1018 87 10000 6 240 12:48 05.11.2020
5901 Clouds 8 1018 81 10000 6 260 12:24 05.11.2020
5902 Rain 8 1018 81 10000 7 250 11:49 05.11.2020
5903 Clouds 8 1018 81 10000 7 250 11:26 05.11.2020
5904 Rain 8 1019 87 10000 6 240 10:53 05.11.2020
5905 Clouds 8 1019 87 10000 6 240 10:30 05.11.2020
5906 Rain 8 1020 87 10000 6 240 09:58 05.11.2020
5907 Clouds 8 1020 87 10000 6 240 09:38 05.11.2020
5908 Clouds 8 1020 87 10000 6 220 09:20 05.11.2020
5909 Rain 7 1020 93 10000 5 220 08:43 05.11.2020
5910 Rain 7 1020 93 10000 6 230 08:24 05.11.2020
5911 Rain 7 1020 93 10000 5 230 07:29 05.11.2020
5912 Rain 7 1021 93 10000 5 240 06:52 05.11.2020
5913 Rain 7 1021 93 10000 5 240 06:33 05.11.2020
5914 Rain 7 1021 93 10000 5 250 04:19 05.11.2020
5915 Clouds 7 1022 93 5000 6 230 01:22 05.11.2020
5916 Clouds 8 1023 81 10000 6 240 00:29 05.11.2020
5917 Clouds 8 1023 81 10000 6 210 23:44 04.11.2020
5918 Clouds 8 1023 81 10000 6 210 23:44 04.11.2020
5919 Clouds 8 1023 81 10000 6 210 23:25 04.11.2020
5920 Clouds 8 1023 81 10000 5 210 22:45 04.11.2020
5921 Clouds 8 1024 81 10000 6 210 22:24 04.11.2020
5922 Clouds 8 1024 81 10000 6 210 21:56 04.11.2020
5923 Clouds 8 1024 81 10000 6 210 21:36 04.11.2020
5924 Clouds 8 1025 81 10000 5 200 21:18 04.11.2020
5925 Clouds 8 1025 81 10000 6 210 20:41 04.11.2020
5926 Clouds 8 1025 81 10000 6 210 20:23 04.11.2020
5927 Clouds 8 1025 81 10000 5 220 19:44 04.11.2020
5928 Clouds 8 1025 81 10000 5 220 19:44 04.11.2020
5929 Clouds 8 1025 81 10000 5 220 19:26 04.11.2020
5930 Clouds 8 1026 81 10000 4 210 18:44 04.11.2020
5931 Clouds 8 1026 81 10000 4 230 18:25 04.11.2020
5932 Clouds 8 1026 81 10000 4 230 18:25 04.11.2020
5933 Clouds 8 1026 81 10000 4 230 17:57 04.11.2020
5934 Clouds 8 1026 81 10000 6 220 17:38 04.11.2020
5935 Clouds 8 1026 81 10000 5 220 17:19 04.11.2020
5936 Clouds 8 1026 81 10000 5 210 16:38 04.11.2020
5937 Clouds 8 1026 81 10000 4 230 16:20 04.11.2020
5938 Clouds 8 1026 81 10000 4 230 15:46 04.11.2020
5939 Clouds 8 1026 81 10000 6 240 15:24 04.11.2020
5940 Clouds 8 1027 81 10000 5 220 14:48 04.11.2020
5941 Clouds 8 1027 81 10000 5 220 14:27 04.11.2020
5942 Clouds 8 1027 81 10000 5 240 13:57 04.11.2020
5943 Clouds 9 1027 81 10000 5 250 13:39 04.11.2020
5944 Clouds 9 1027 81 10000 4 240 13:19 04.11.2020
5945 Clouds 9 1027 81 10000 5 240 12:48 04.11.2020
5946 Clouds 9 1027 81 10000 5 250 12:24 04.11.2020
5947 Clouds 9 1027 81 10000 5 240 11:55 04.11.2020
5948 Clouds 9 1027 81 10000 5 240 11:36 04.11.2020
5949 Clouds 9 1027 81 10000 6 240 11:18 04.11.2020
5950 Clouds 9 1027 81 10000 6 230 10:41 04.11.2020
5951 Clouds 9 1027 87 10000 6 240 10:22 04.11.2020
5952 Clouds 8 1027 87 10000 4 240 09:47 04.11.2020
5953 Clouds 8 1027 81 10000 5 220 09:22 04.11.2020
5954 Clouds 8 1027 87 10000 5 230 08:44 04.11.2020
5955 Clouds 8 1027 87 10000 5 230 08:18 04.11.2020
5956 Clouds 8 1027 81 10000 5 230 07:44 04.11.2020
5957 Clouds 8 1027 81 10000 5 230 07:26 04.11.2020
5958 Clouds 7 1027 93 10000 5 220 06:42 04.11.2020
5959 Clouds 7 1026 93 9000 4 220 05:59 04.11.2020
5960 Clouds 7 1026 87 8000 4 210 02:32 04.11.2020
5961 Clouds 7 1025 93 7000 4 190 01:40 04.11.2020
5962 Clouds 8 1026 93 9000 4 200 00:41 04.11.2020
5963 Clouds 8 1025 93 8000 4 220 23:38 03.11.2020
5964 Clouds 8 1025 93 8000 5 210 23:20 03.11.2020
5965 Clouds 8 1025 93 9000 4 210 22:41 03.11.2020
5966 Clouds 8 1025 93 10000 4 210 22:20 03.11.2020
5967 Clouds 8 1025 93 10000 4 210 21:55 03.11.2020
5968 Clouds 8 1025 87 10000 4 190 21:37 03.11.2020
5969 Clouds 8 1025 87 10000 4 190 21:18 03.11.2020
5970 Clouds 8 1025 87 10000 4 180 20:42 03.11.2020
5971 Clouds 8 1025 87 10000 4 190 20:21 03.11.2020
5972 Clouds 8 1025 87 10000 4 180 19:43 03.11.2020
5973 Clouds 8 1025 87 9000 4 180 19:20 03.11.2020
5974 Clouds 8 1025 93 9000 4 190 18:44 03.11.2020
5975 Clouds 8 1025 87 9000 3 180 18:20 03.11.2020
5976 Clouds 8 1025 87 9000 3 180 17:56 03.11.2020
5977 Clouds 8 1025 87 10000 4 200 17:37 03.11.2020
5978 Clouds 8 1025 87 10000 4 190 17:37 03.11.2020
5979 Clouds 8 1025 87 10000 4 200 17:18 03.11.2020
5980 Clouds 8 1024 87 10000 4 190 16:43 03.11.2020
5981 Clouds 8 1024 87 10000 4 190 16:21 03.11.2020
5982 Clouds 8 1024 87 10000 4 170 15:41 03.11.2020
5983 Clouds 8 1024 87 10000 4 180 15:23 03.11.2020
5984 Clouds 8 1024 87 10000 3 200 14:46 03.11.2020
5985 Clouds 8 1024 87 10000 3 200 14:27 03.11.2020
5986 Clouds 7 1024 93 8000 4 170 13:46 03.11.2020
5987 Clouds 7 1024 93 6000 5 190 13:23 03.11.2020
5988 Clouds 7 1024 93 6000 5 190 12:56 03.11.2020
5989 Clouds 7 1024 93 6000 5 170 12:36 03.11.2020
5990 Drizzle 7 1024 93 4200 4 160 12:18 03.11.2020
5991 Mist 7 1024 93 3900 3 150 11:41 03.11.2020
5992 Mist 7 1024 93 3400 4 160 11:20 03.11.2020
5993 Drizzle 7 1024 93 2700 3 170 10:39 03.11.2020
5994 Mist 6 1024 100 2000 4 170 10:20 03.11.2020
5995 Drizzle 6 1024 100 2000 4 170 09:51 03.11.2020
5996 Drizzle 6 1024 100 2100 4 170 09:32 03.11.2020
5997 Mist 6 1023 100 2500 3 140 08:55 03.11.2020
5998 Mist 6 1023 100 2600 3 150 08:34 03.11.2020
5999 Mist 6 1023 100 3800 3 130 07:49 03.11.2020
6000 Mist 6 1023 93 3800 3 130 07:22 03.11.2020
6001 Drizzle 6 1023 93 2700 3 130 06:46 03.11.2020
6002 Drizzle 6 1022 93 2200 3 110 05:38 03.11.2020
6003 Drizzle 6 1022 93 5000 4 130 02:20 03.11.2020
6004 Clouds 6 1022 93 6000 4 130 00:41 03.11.2020
6005 Mist 6 1022 93 5000 3 120 23:52 02.11.2020
6006 Clouds 6 1022 93 9000 4 120 23:33 02.11.2020
6007 Clouds 6 1022 93 10000 4 120 22:54 02.11.2020
6008 Clouds 6 1022 93 9000 4 120 22:35 02.11.2020
6009 Drizzle 6 1022 93 7000 4 120 21:59 02.11.2020
6010 Drizzle 6 1022 93 4600 4 120 21:38 02.11.2020
6011 Mist 6 1022 93 5000 4 120 21:19 02.11.2020
6012 Rain 6 1022 93 9000 4 120 20:40 02.11.2020
6013 Rain 6 1022 93 10000 5 120 20:20 02.11.2020
6014 Rain 6 1022 93 10000 5 120 19:48 02.11.2020
6015 Rain 6 1022 93 10000 5 120 19:48 02.11.2020
6016 Clouds 6 1022 87 10000 4 120 19:27 02.11.2020
6017 Clouds 6 1022 87 10000 4 120 18:56 02.11.2020
6018 Clouds 6 1022 87 10000 4 120 18:56 02.11.2020
6019 Clouds 6 1022 93 10000 6 110 18:38 02.11.2020
6020 Clouds 6 1022 93 10000 5 100 18:19 02.11.2020
6021 Clouds 6 1022 93 9000 5 100 17:42 02.11.2020
6022 Clouds 6 1021 93 8000 5 90 17:24 02.11.2020
6023 Clouds 6 1021 93 9000 5 100 16:54 02.11.2020
6024 Clouds 6 1021 93 9000 5 100 16:36 02.11.2020
6025 Clouds 6 1021 93 9000 6 100 16:18 02.11.2020
6026 Clouds 6 1022 93 10000 6 90 15:39 02.11.2020
6027 Clouds 6 1022 93 10000 4 110 15:20 02.11.2020
6028 Clouds 6 1022 93 10000 4 110 15:20 02.11.2020
6029 Clouds 6 1022 93 10000 5 100 14:51 02.11.2020
6030 Clouds 6 1021 93 10000 5 100 14:19 02.11.2020
6031 Clouds 6 1021 93 10000 5 100 13:51 02.11.2020
6032 Clouds 6 1022 93 7000 5 90 13:23 02.11.2020
6033 Clouds 6 1021 93 7000 5 100 12:54 02.11.2020
6034 Clouds 6 1021 93 7000 5 100 12:29 02.11.2020
6035 Clouds 6 1022 100 7000 4 90 11:56 02.11.2020
6036 Clouds 6 1022 100 7000 4 90 11:37 02.11.2020
6037 Clouds 6 1022 100 7000 5 100 11:18 02.11.2020
6038 Clouds 6 1022 100 7000 5 90 10:39 02.11.2020
6039 Clouds 6 1022 100 6000 6 100 10:18 02.11.2020
6040 Mist 6 1022 100 5000 6 100 09:42 02.11.2020
6041 Mist 6 1022 100 5000 6 100 09:23 02.11.2020
6042 Mist 6 1022 100 3400 6 80 08:40 02.11.2020
6043 Mist 6 1022 93 1600 5 90 08:20 02.11.2020
6044 Mist 5 1022 93 2000 5 90 07:49 02.11.2020
6045 Mist 5 1022 100 1300 5 100 06:48 02.11.2020
6046 Fog 5 1022 100 1000 6 100 06:23 02.11.2020
6047 Fog 4 1021 100 800 5 100 01:40 02.11.2020
6048 Mist 4 1021 100 1300 5 90 00:44 02.11.2020
6049 Mist 4 1021 100 1300 5 90 00:25 02.11.2020
6050 Mist 4 1021 93 4300 6 100 23:41 01.11.2020
6051 Clouds 4 1021 93 8000 6 100 23:23 01.11.2020
6052 Drizzle 4 1021 93 9000 6 80 22:45 01.11.2020
6053 Drizzle 4 1021 93 9000 6 80 22:25 01.11.2020
6054 Clouds 4 1022 93 7000 6 70 21:46 01.11.2020
6055 Clouds 4 1022 93 7000 6 70 21:27 01.11.2020
6056 Rain 4 1022 93 9000 6 70 20:59 01.11.2020
6057 Rain 4 1022 93 7000 6 70 20:40 01.11.2020
6058 Rain 4 1022 93 10000 6 70 20:20 01.11.2020
6059 Rain 4 1022 93 8000 6 70 19:41 01.11.2020
6060 Rain 4 1022 93 5000 6 60 19:22 01.11.2020
6061 Rain 4 1022 93 4600 7 70 18:42 01.11.2020
6062 Rain 4 1022 93 4600 7 70 18:42 01.11.2020
6063 Rain 4 1022 93 5000 7 60 18:20 01.11.2020
6064 Rain 4 1022 93 5000 7 60 18:20 01.11.2020
6065 Rain 4 1022 93 5000 7 60 17:58 01.11.2020
6066 Rain 4 1023 93 8000 6 60 17:40 01.11.2020
6067 Rain 4 1022 93 5000 6 60 17:21 01.11.2020
6068 Rain 4 1022 93 5000 5 60 16:40 01.11.2020
6069 Rain 4 1022 93 10000 6 60 16:19 01.11.2020
6070 Rain 4 1022 86 10000 5 70 15:41 01.11.2020
6071 Rain 5 1022 80 10000 6 60 15:22 01.11.2020
6072 Rain 5 1022 80 10000 6 60 14:58 01.11.2020
6073 Rain 5 1022 80 10000 7 40 14:39 01.11.2020
6074 Rain 5 1022 80 10000 8 50 14:21 01.11.2020
6075 Rain 5 1022 75 10000 7 30 13:47 01.11.2020
6076 Rain 5 1022 75 10000 7 30 13:28 01.11.2020
6077 Clouds 5 1022 75 10000 7 40 12:43 01.11.2020
6078 Clouds 5 1023 80 10000 7 40 12:23 01.11.2020
6079 Clouds 5 1023 80 10000 6 40 11:51 01.11.2020
6080 Clouds 5 1023 80 10000 6 40 11:19 01.11.2020
6081 Clouds 5 1023 80 10000 6 40 10:55 01.11.2020
6082 Clouds 5 1024 80 10000 7 60 10:37 01.11.2020
6083 Clouds 5 1024 80 10000 7 70 10:19 01.11.2020
6084 Clouds 5 1024 80 10000 6 60 09:43 01.11.2020
6085 Clouds 5 1024 80 10000 7 50 08:47 01.11.2020
6086 Clouds 5 1024 80 10000 7 50 08:24 01.11.2020
6087 Clouds 5 1024 80 10000 7 40 07:43 01.11.2020
6088 Clouds 6 1024 81 10000 7 60 05:23 01.11.2020
6089 Clouds 6 1024 87 10000 7 50 01:52 01.11.2020
6090 Clouds 6 1024 87 10000 5 50 00:53 01.11.2020
6091 Clouds 6 1023 87 10000 4 30 23:29 31.10.2020
6092 Clouds 6 1023 87 10000 4 20 22:59 31.10.2020
6093 Clouds 6 1023 87 10000 4 40 22:41 31.10.2020
6094 Clouds 5 1023 87 10000 4 30 22:22 31.10.2020
6095 Clouds 5 1023 87 10000 5 30 21:44 31.10.2020
6096 Clouds 6 1023 87 10000 4 30 21:20 31.10.2020
6097 Clouds 7 1023 81 10000 4 20 20:39 31.10.2020
6098 Clouds 7 1023 81 10000 4 20 20:19 31.10.2020
6099 Clouds 7 1022 81 10000 3 40 19:43 31.10.2020
6100 Clouds 7 1022 81 10000 4 20 19:24 31.10.2020
6101 Clouds 7 1022 81 10000 5 10 18:52 31.10.2020
6102 Clouds 7 1022 81 10000 5 10 18:34 31.10.2020
6103 Clouds 7 1022 81 10000 4 360 17:43 31.10.2020
6104 Clouds 7 1022 81 10000 4 360 17:24 31.10.2020
6105 Clouds 7 1022 87 9000 3 360 16:55 31.10.2020
6106 Clouds 7 1022 81 10000 3 360 16:33 31.10.2020
6107 Clouds 7 1022 81 9000 3 10 15:55 31.10.2020
6108 Clouds 7 1021 87 9000 3 10 15:26 31.10.2020
6109 Clouds 7 1021 87 9000 3 10 15:26 31.10.2020
6110 Clouds 8 1021 81 9000 3 20 14:53 31.10.2020
6111 Clouds 8 1021 81 9000 3 20 14:32 31.10.2020
6112 Clouds 8 1020 81 9000 2 20 13:55 31.10.2020
6113 Clouds 8 1020 87 9000 3 30 13:37 31.10.2020
6114 Clouds 8 1020 81 9000 3 10 13:18 31.10.2020
6115 Clouds 8 1020 81 10000 3 350 12:25 31.10.2020
6116 Clouds 8 1020 81 9000 2 20 11:42 31.10.2020
6117 Clouds 8 1020 81 10000 3 20 11:23 31.10.2020
6118 Clouds 8 1020 81 10000 3 50 10:53 31.10.2020
6119 Clouds 8 1020 87 10000 3 10 10:32 31.10.2020
6120 Clouds 8 1019 81 9000 2 30 09:41 31.10.2020
6121 Clouds 8 1019 87 9000 2 70 09:20 31.10.2020
6122 Clouds 4 1018 87 9000 3 360 08:28 31.10.2020
6123 Clouds 3 1018 93 8000 1 360 07:48 31.10.2020
6124 Clouds 3 1018 93 8000 1 360 07:26 31.10.2020
6125 Clouds 3 1017 93 8000 1 0 06:38 31.10.2020
6126 Clouds 3 1016 86 9000 2 70 03:50 31.10.2020
6127 Clouds 4 1016 86 10000 2 90 02:51 31.10.2020
6128 Clouds 4 1016 86 10000 1 70 01:23 31.10.2020
6129 Clouds 4 1016 86 10000 1 0 00:46 31.10.2020
6130 Clouds 5 1016 80 10000 1 180 23:49 30.10.2020
6131 Clouds 5 1016 86 10000 1 0 23:23 30.10.2020
6132 Clouds 5 1016 75 10000 1 0 22:43 30.10.2020
6133 Clouds 6 1016 75 10000 1 0 22:24 30.10.2020
6134 Clouds 5 1015 75 10000 2 170 21:52 30.10.2020
6135 Clouds 6 1015 75 10000 2 170 21:30 30.10.2020
6136 Clouds 6 1015 75 10000 2 200 20:59 30.10.2020
6137 Clouds 6 1015 75 10000 2 210 20:37 30.10.2020
6138 Clouds 6 1015 75 10000 2 190 20:19 30.10.2020
6139 Clouds 5 1015 86 10000 2 180 19:44 30.10.2020
6140 Clouds 5 1015 80 9000 2 150 19:19 30.10.2020
6141 Clouds 5 1015 80 9000 2 80 18:49 30.10.2020
6142 Clouds 5 1015 80 9000 2 80 18:27 30.10.2020
6143 Clouds 5 1015 80 10000 2 80 17:49 30.10.2020
6144 Clouds 5 1015 80 10000 2 180 17:23 30.10.2020
6145 Clouds 5 1015 80 10000 2 180 16:57 30.10.2020
6146 Clouds 5 1015 80 10000 3 170 16:37 30.10.2020
6147 Clouds 5 1015 80 10000 3 170 16:37 30.10.2020
6148 Clouds 5 1015 80 10000 2 170 16:18 30.10.2020
6149 Clouds 5 1015 75 10000 2 180 15:40 30.10.2020
6150 Clouds 5 1015 75 10000 2 140 15:19 30.10.2020
6151 Clouds 5 1015 80 10000 2 160 14:44 30.10.2020
6152 Clouds 5 1015 80 10000 2 160 14:25 30.10.2020
6153 Clouds 5 1015 80 10000 2 170 13:46 30.10.2020
6154 Clouds 5 1015 80 10000 3 170 13:21 30.10.2020
6155 Clouds 5 1015 80 10000 3 170 12:54 30.10.2020
6156 Clouds 5 1015 80 10000 3 120 12:23 30.10.2020
6157 Clouds 5 1015 80 10000 3 120 11:56 30.10.2020
6158 Clouds 5 1015 80 10000 2 110 11:23 30.10.2020
6159 Clouds 5 1015 80 10000 2 110 10:56 30.10.2020
6160 Clouds 4 1016 75 10000 3 110 10:37 30.10.2020
6161 Clouds 4 1016 80 10000 3 100 10:19 30.10.2020
6162 Clouds 4 1016 80 10000 3 100 09:43 30.10.2020
6163 Clouds 4 1016 80 10000 2 110 09:20 30.10.2020
6164 Clouds 4 1016 80 10000 3 120 08:39 30.10.2020
6165 Clouds 4 1016 80 10000 3 120 08:20 30.10.2020
6166 Clouds 4 1016 80 10000 3 120 07:46 30.10.2020
6167 Clouds 4 1016 80 10000 4 100 07:27 30.10.2020
6168 Clouds 3 1016 86 10000 3 130 06:21 30.10.2020
6169 Clear 3 1016 80 10000 3 100 04:26 30.10.2020
6170 Clear 3 1017 86 10000 2.34 151 01:43 30.10.2020
6171 Clear 4 1017 80 10000 2 140 00:38 30.10.2020
6172 Clear 5 1018 75 10000 2 150 23:48 29.10.2020
6173 Clear 5 1018 75 10000 2 150 23:30 29.10.2020
6174 Clouds 5 1018 75 10000 2 150 22:50 29.10.2020
6175 Clouds 5 1018 75 10000 2 150 22:29 29.10.2020
6176 Clouds 5 1019 80 10000 3 140 21:56 29.10.2020
6177 Clouds 5 1019 75 10000 3 150 21:36 29.10.2020
6178 Clouds 6 1019 75 10000 3 180 21:18 29.10.2020
6179 Clouds 6 1019 75 10000 3 180 21:18 29.10.2020
6180 Clouds 7 1019 75 10000 4 140 20:40 29.10.2020
6181 Clouds 7 1019 75 10000 4 170 20:19 29.10.2020
6182 Clouds 7 1019 75 10000 4 160 19:42 29.10.2020
6183 Clouds 7 1019 75 10000 4 170 19:21 29.10.2020
6184 Clouds 7 1019 75 10000 4 170 18:48 29.10.2020
6185 Clouds 7 1019 75 10000 4 170 18:29 29.10.2020
6186 Clouds 8 1019 75 10000 5 180 17:56 29.10.2020
6187 Clouds 8 1019 75 10000 5 180 17:37 29.10.2020
6188 Clouds 8 1020 75 10000 4 170 17:18 29.10.2020
6189 Clouds 8 1020 75 10000 4 170 16:45 29.10.2020
6190 Clouds 8 1020 81 10000 3 190 16:19 29.10.2020
6191 Clouds 8 1020 81 10000 5 200 15:56 29.10.2020
6192 Clouds 8 1020 81 10000 5 200 15:37 29.10.2020
6193 Clouds 8 1020 81 10000 5 190 15:18 29.10.2020
6194 Clouds 8 1020 81 10000 6 180 14:44 29.10.2020
6195 Clouds 8 1020 75 10000 5 170 14:22 29.10.2020
6196 Clouds 8 1020 75 10000 6 190 13:47 29.10.2020
6197 Clouds 8 1020 70 10000 6 170 13:27 29.10.2020
6198 Clouds 9 1020 76 10000 5 180 12:44 29.10.2020
6199 Clouds 8 1021 76 10000 4 170 12:20 29.10.2020
6200 Clouds 9 1021 76 10000 4 190 11:56 29.10.2020
6201 Clouds 9 1021 76 10000 4 190 11:38 29.10.2020
6202 Clouds 9 1021 81 9000 4 180 11:20 29.10.2020
6203 Clouds 9 1021 87 9000 3 180 10:37 29.10.2020
6204 Clouds 9 1021 87 9000 3 180 10:37 29.10.2020
6205 Clouds 8 1021 87 9000 4 180 10:18 29.10.2020
6206 Clouds 8 1022 81 9000 3 190 09:48 29.10.2020
6207 Clouds 7 1022 87 9000 3 190 09:24 29.10.2020
6208 Clouds 6 1022 87 9000 3 190 08:46 29.10.2020
6209 Clear 6 1022 87 9000 3 160 08:24 29.10.2020
6210 Clear 6 1022 87 9000 3 160 07:51 29.10.2020
6211 Clear 5 1021 86 9000 3 180 07:21 29.10.2020
6212 Clear 4 1021 93 10000 3 150 06:53 29.10.2020
6213 Clear 4 1021 86 10000 2 170 04:50 29.10.2020
6214 Clear 4 1001 32 10000 2.93 190 02:40 29.10.2020
6215 Clear 4 1001 32 10000 2.85 193 00:45 29.10.2020
6216 Clear 4 1002 9 10000 2.72 197 00:23 29.10.2020
6217 Clear 4 1002 32 10000 2.72 197 23:44 28.10.2020
6218 Clear 5 1002 32 10000 2.93 201 23:20 28.10.2020
6219 Clear 5 1002 32 10000 2.93 201 23:20 28.10.2020
6220 Clouds 6 1022 75 10000 4 200 22:44 28.10.2020
6221 Clouds 6 1022 75 10000 4 200 22:26 28.10.2020
6222 Clouds 6 1022 75 10000 4 200 21:55 28.10.2020
6223 Clouds 7 1022 70 10000 5 200 21:37 28.10.2020
6224 Clouds 6 1022 70 10000 5 190 21:18 28.10.2020
6225 Clouds 7 1022 70 10000 5 190 20:41 28.10.2020
6226 Clouds 8 1022 66 10000 5 190 20:20 28.10.2020
6227 Clouds 8 1022 66 10000 4 180 19:49 28.10.2020
6228 Clouds 8 1022 66 10000 4 180 19:27 28.10.2020
6229 Clouds 8 1022 66 10000 3 190 18:47 28.10.2020
6230 Clouds 8 1022 66 10000 4 180 18:21 28.10.2020
6231 Clouds 8 1022 61 10000 5 170 17:44 28.10.2020
6232 Clouds 8 1022 66 10000 4 190 17:25 28.10.2020
6233 Clouds 8 1022 66 10000 4 190 16:50 28.10.2020
6234 Clouds 9 1022 66 10000 4 190 16:32 28.10.2020
6235 Clouds 9 1022 61 10000 4 200 15:55 28.10.2020
6236 Clouds 10 1022 61 10000 4 190 15:36 28.10.2020
6237 Clear 10 1001 31 10000 4.12 185 15:18 28.10.2020
6238 Clear 10 1021 61 10000 5 180 14:41 28.10.2020
6239 Clear 10 1001 31 10000 4.15 188 14:20 28.10.2020
6240 Clouds 10 1001 6 10000 4.13 193 12:40 28.10.2020
6241 Clouds 10 1002 6 10000 4.59 193 12:21 28.10.2020
6242 Clouds 10 1002 7 10000 4.59 193 11:45 28.10.2020
6243 Clouds 10 1002 7 10000 4.89 194 11:24 28.10.2020
6244 Clear 9 1022 70 10000 5 200 11:00 28.10.2020
6245 Clear 8 1022 70 10000 5 200 10:41 28.10.2020
6246 Clouds 7 1022 81 10000 5 180 10:22 28.10.2020
6247 Clouds 7 1022 81 10000 5 180 09:42 28.10.2020
6248 Clouds 7 1022 75 10000 5 190 09:22 28.10.2020
6249 Clouds 6 1022 81 10000 5 190 08:49 28.10.2020
6250 Clouds 6 1022 81 10000 5 190 08:28 28.10.2020
6251 Clouds 6 1022 86 10000 5 170 07:50 28.10.2020
6252 Clouds 6 1022 86 10000 5 170 07:30 28.10.2020
6253 Clear 6 1022 86 10000 4 170 06:42 28.10.2020
6254 Clear 6 1022 86 10000 5 170 05:53 28.10.2020
6255 Clear 6 1022 86 10000 4 170 05:21 28.10.2020
6256 Clear 6 1022 81 10000 4 170 04:28 28.10.2020
6257 Clear 6 1023 87 10000 4 180 02:26 28.10.2020
6258 Clear 6 1023 87 10000 4 180 01:52 28.10.2020
6259 Clear 7 1023 87 10000 4 170 00:29 28.10.2020
6260 Clear 7 1024 81 10000 5 160 23:47 27.10.2020
6261 Clear 7 1024 81 10000 5 170 23:21 27.10.2020
6262 Clear 7 1024 87 10000 5 170 22:44 27.10.2020
6263 Clear 7 1023 81 10000 5 190 22:19 27.10.2020
6264 Clear 7 1024 81 10000 5 180 21:57 27.10.2020
6265 Clear 7 1024 81 10000 5 180 21:37 27.10.2020
6266 Clear 7 1024 81 10000 5 180 21:19 27.10.2020
6267 Clear 8 1024 81 10000 6 170 20:50 27.10.2020
6268 Clear 7 1024 76 10000 5 170 20:24 27.10.2020
6269 Clear 8 1024 76 10000 5 170 19:55 27.10.2020
6270 Clear 8 1024 76 10000 5 160 19:37 27.10.2020
6271 Clear 8 1024 76 10000 5 170 19:18 27.10.2020
6272 Clear 8 1024 70 10000 5 160 18:44 27.10.2020
6273 Clear 8 1024 70 10000 4 180 18:22 27.10.2020
6274 Clear 8 1024 70 10000 4 180 17:57 27.10.2020
6275 Clear 9 1024 70 10000 4 160 17:38 27.10.2020
6276 Clear 9 1024 70 10000 4 150 17:18 27.10.2020
6277 Clear 9 1024 70 10000 4 150 16:42 27.10.2020
6278 Clear 9 1024 66 10000 4 150 16:23 27.10.2020
6279 Clear 10 1024 70 10000 5 150 15:42 27.10.2020
6280 Clear 10 1024 66 10000 5 170 15:23 27.10.2020
6281 Clear 11 1024 66 10000 5 160 14:49 27.10.2020
6282 Clear 11 1024 66 10000 5 160 14:29 27.10.2020
6283 Clear 11 1025 62 10000 7 170 13:58 27.10.2020
6284 Clouds 11 1025 62 10000 6 160 13:29 27.10.2020
6285 Clear 11 1025 62 10000 7 180 12:46 27.10.2020
6286 Clear 11 1025 62 10000 7 180 12:27 27.10.2020
6287 Clear 11 1025 62 10000 6 160 11:59 27.10.2020
6288 Clear 11 1025 66 10000 6 170 11:41 27.10.2020
6289 Clear 11 1025 66 10000 4 180 11:21 27.10.2020
6290 Clear 11 1025 66 10000 5 170 10:43 27.10.2020
6291 Clear 11 1026 70 10000 5 160 10:20 27.10.2020
6292 Rain 9 1026 66 10000 5 170 09:38 27.10.2020
6293 Rain 9 1026 66 10000 4 170 09:20 27.10.2020
6294 Rain 8 1026 70 10000 4 160 08:33 27.10.2020
6295 Rain 7 1026 70 10000 3 170 07:57 27.10.2020
6296 Clear 7 1026 70 10000 3 170 07:38 27.10.2020
6297 Clear 6 1026 75 10000 3 130 07:20 27.10.2020
6298 Clear 6 1025 75 10000 3 150 06:21 27.10.2020
6299 Clear 6 1025 75 10000 3 160 05:47 27.10.2020
6300 Clear 6 1025 75 10000 3 170 05:28 27.10.2020
6301 Clear 5 1025 86 10000 2 100 03:38 27.10.2020
6302 Clear 5 1026 80 10000 1 100 01:24 27.10.2020
6303 Rain 5 1026 80 10000 2 120 00:45 27.10.2020
6304 Clouds 5 1025 80 10000 1 0 23:40 26.10.2020
6305 Clouds 5 1025 80 10000 1 120 23:19 26.10.2020
6306 Clear 6 1025 70 10000 2 150 22:46 26.10.2020
6307 Clear 6 1025 75 10000 2 160 22:21 26.10.2020
6308 Clear 7 1025 70 10000 2 170 21:42 26.10.2020
6309 Clear 7 1025 70 10000 2 160 21:19 26.10.2020
6310 Clear 7 1025 70 10000 2 160 20:55 26.10.2020
6311 Clear 7 1025 70 10000 2 150 20:37 26.10.2020
6312 Clouds 8 1025 70 9000 2 160 20:18 26.10.2020
6313 Clear 8 1024 70 10000 2 160 19:46 26.10.2020
6314 Clear 8 1024 70 10000 2 170 19:22 26.10.2020
6315 Clear 8 1024 70 10000 2 140 18:44 26.10.2020
6316 Clear 8 1024 65 10000 2 160 18:23 26.10.2020
6317 Clear 9 1024 65 10000 2 170 17:55 26.10.2020
6318 Clear 9 1024 65 10000 2 170 17:37 26.10.2020
6319 Clear 9 1024 65 10000 2 170 17:19 26.10.2020
6320 Clouds 9 1024 65 10000 2 180 16:40 26.10.2020
6321 Clouds 9 1023 61 10000 3 210 16:21 26.10.2020
6322 Clouds 10 1023 61 10000 3 190 15:41 26.10.2020
6323 Clouds 10 1023 57 10000 2 200 15:20 26.10.2020
6324 Clouds 10 1024 57 10000 3 190 14:52 26.10.2020
6325 Clouds 10 1024 57 10000 3 190 14:31 26.10.2020
6326 Clouds 11 1023 57 10000 3 230 13:44 26.10.2020
6327 Clouds 11 1023 57 10000 3 220 13:24 26.10.2020
6328 Clouds 11 1023 61 10000 3 220 12:51 26.10.2020
6329 Clouds 11 1023 61 10000 3 220 12:29 26.10.2020
6330 Clouds 11 1023 57 10000 2 210 11:57 26.10.2020
6331 Clouds 11 1023 57 10000 3 210 11:39 26.10.2020
6332 Clouds 11 1023 61 10000 2 240 11:21 26.10.2020
6333 Clouds 11 1023 71 10000 2 220 10:48 26.10.2020
6334 Clouds 10 1023 76 10000 1 0 10:26 26.10.2020
6335 Clouds 10 1023 81 10000 2 260 09:51 26.10.2020
6336 Clouds 10 1023 81 10000 2 260 09:28 26.10.2020
6337 Clouds 9 1022 87 10000 2 260 08:54 26.10.2020
6338 Clouds 9 1022 87 10000 2 250 08:24 26.10.2020
6339 Clouds 8 1022 81 10000 3 250 07:38 26.10.2020
6340 Clouds 8 1022 81 10000 3 250 07:38 26.10.2020
6341 Clouds 8 1022 81 10000 2 260 07:20 26.10.2020
6342 Clouds 8 1021 87 10000 2 300 05:31 26.10.2020
6343 Clouds 8 1020 81 10000 3 290 04:19 26.10.2020
6344 Clouds 8 1019 81 10000 3 280 03:21 26.10.2020
6345 Clouds 8 1019 81 10000 3 280 03:21 26.10.2020
6346 Clouds 8 1019 87 10000 2 270 01:34 26.10.2020
6347 Clouds 9 1018 81 10000 3 280 00:35 26.10.2020
6348 Clouds 9 1018 81 10000 4 270 23:47 25.10.2020
6349 Clouds 9 1018 87 10000 4 260 23:28 25.10.2020
6350 Clouds 9 1018 81 10000 4 260 22:47 25.10.2020
6351 Clouds 9 1017 87 10000 3 270 22:28 25.10.2020
6352 Clouds 9 1017 87 10000 3 270 21:55 25.10.2020
6353 Clouds 9 1017 87 10000 3 270 21:36 25.10.2020
6354 Clouds 9 1017 81 10000 4 260 21:18 25.10.2020
6355 Clouds 9 1016 87 10000 4 260 20:43 25.10.2020
6356 Clouds 9 1016 81 10000 5 270 20:23 25.10.2020
6357 Clouds 9 1016 81 10000 5 270 19:55 25.10.2020
6358 Clouds 8 1016 87 10000 4 270 19:37 25.10.2020
6359 Clouds 8 1015 81 10000 4 260 19:19 25.10.2020
6360 Clouds 8 1015 81 10000 4 260 18:41 25.10.2020
6361 Clouds 8 1015 81 10000 4 260 18:41 25.10.2020
6362 Clouds 8 1015 87 10000 4 260 18:22 25.10.2020
6363 Clouds 8 1015 87 10000 4 260 18:22 25.10.2020
6364 Clouds 8 1015 87 10000 3 260 17:56 25.10.2020
6365 Clouds 8 1015 87 10000 3 260 17:38 25.10.2020
6366 Clouds 8 1015 81 10000 3 250 17:19 25.10.2020
6367 Clouds 8 1015 81 10000 2 220 16:44 25.10.2020
6368 Clouds 8 1015 81 10000 2 220 16:25 25.10.2020
6369 Clear 8 1014 81 10000 4 250 15:47 25.10.2020
6370 Clouds 8 1014 81 10000 5 250 15:27 25.10.2020
6371 Clouds 8 1014 75 10000 4 250 14:54 25.10.2020
6372 Clouds 9 1014 75 10000 5 280 14:30 25.10.2020
6373 Clouds 9 1014 75 10000 6 250 13:55 25.10.2020
6374 Clouds 9 1014 75 10000 6 250 13:37 25.10.2020
6375 Clouds 9 1013 75 10000 5 260 13:18 25.10.2020
6376 Clouds 9 1013 75 10000 5 250 12:40 25.10.2020
6377 Clouds 10 1013 70 10000 5 250 12:22 25.10.2020
6378 Clouds 9 1013 70 10000 4 250 11:43 25.10.2020
6379 Clouds 9 1013 65 10000 3 250 11:21 25.10.2020
6380 Clouds 9 1012 75 10000 2 270 10:48 25.10.2020
6381 Clouds 8 1012 75 10000 2 200 10:26 25.10.2020
6382 Clouds 8 1012 75 10000 2 200 09:55 25.10.2020
6383 Clouds 8 1012 75 10000 2 240 09:37 25.10.2020
6384 Clouds 8 1012 80 10000 2 230 09:19 25.10.2020
6385 Clouds 7 1012 80 10000 3 310 08:40 25.10.2020
6386 Clouds 6 1012 86 10000 3 310 08:22 25.10.2020
6387 Clouds 6 1011 86 10000 1 270 07:46 25.10.2020
6388 Clouds 5 1011 86 10000 2 290 07:18 25.10.2020
6389 Clear 3 1010 93 10000 3 270 06:36 25.10.2020
6390 Clear 3 1010 78 10000 2 260 05:34 25.10.2020
6391 Clear 5 1009 86 10000 2 340 04:51 25.10.2020
6392 Clear 7 1009 80 10000 4 310 02:45 25.10.2020
6393 Clouds 8 1008 81 10000 4 330 01:32 25.10.2020
6394 Clouds 8 1008 81 10000 3 320 00:48 25.10.2020
6395 Rain 8 1008 87 10000 3 300 00:20 25.10.2020
6396 Rain 8 1008 93 10000 3 260 23:53 24.10.2020
6397 Rain 8 1008 93 10000 3 260 23:26 24.10.2020
6398 Clouds 9 1008 87 10000 3 250 22:55 24.10.2020
6399 Rain 9 1008 87 10000 3 250 22:37 24.10.2020
6400 Rain 9 1008 87 10000 3 250 22:19 24.10.2020
6401 Rain 9 1008 87 10000 4 230 21:41 24.10.2020
6402 Rain 9 1008 87 10000 4 230 21:21 24.10.2020
6403 Rain 9 1008 87 10000 3 240 20:47 24.10.2020
6404 Rain 9 1008 87 10000 4 230 20:23 24.10.2020
6405 Rain 9 1008 87 10000 4 240 19:55 24.10.2020
6406 Rain 9 1008 87 10000 4 240 19:37 24.10.2020
6407 Rain 9 1008 87 10000 4 250 19:19 24.10.2020
6408 Rain 10 1008 87 10000 4 260 18:43 24.10.2020
6409 Rain 10 1008 87 10000 2 260 18:24 24.10.2020
6410 Rain 10 1008 87 10000 2 260 18:24 24.10.2020
6411 Rain 10 1008 87 10000 3 250 17:39 24.10.2020
6412 Rain 10 1008 87 10000 3 250 17:21 24.10.2020
6413 Rain 10 1008 81 10000 3 250 16:45 24.10.2020
6414 Clear 10 1008 76 10000 4 280 16:23 24.10.2020
6415 Rain 11 1008 76 10000 4 280 15:41 24.10.2020
6416 Clouds 11 1008 76 10000 6 280 15:20 24.10.2020
6417 Clouds 11 1008 76 10000 6 280 14:56 24.10.2020
6418 Clouds 12 1008 76 10000 5 280 14:29 24.10.2020
6419 Clouds 12 1008 81 10000 6 270 13:47 24.10.2020
6420 Clouds 12 1008 81 10000 6 270 13:29 24.10.2020
6421 Clouds 12 1008 87 10000 5 260 12:58 24.10.2020
6422 Clouds 11 1007 87 10000 5 260 12:37 24.10.2020
6423 Clouds 11 1007 87 8000 4 240 12:19 24.10.2020
6424 Clouds 11 1007 81 10000 4 270 11:43 24.10.2020
6425 Clouds 11 1007 81 10000 3 260 10:59 24.10.2020
6426 Clouds 11 1007 81 9000 6 280 10:39 24.10.2020
6427 Clouds 10 1006 76 10000 5 280 09:58 24.10.2020
6428 Clouds 10 1007 76 10000 6 280 09:40 24.10.2020
6429 Clouds 10 1007 81 10000 6 270 09:21 24.10.2020
6430 Clouds 10 1006 81 10000 5 280 08:51 24.10.2020
6431 Clouds 10 1006 81 10000 6 270 08:18 24.10.2020
6432 Rain 10 1006 87 10000 4 270 07:48 24.10.2020
6433 Clouds 9 1005 81 10000 6 260 07:19 24.10.2020
6434 Rain 9 1005 87 9000 5 260 06:44 24.10.2020
6435 Clouds 9 1004 87 10000 5 260 04:45 24.10.2020
6436 Clouds 10 1003 81 10000 7 260 02:20 24.10.2020
6437 Clear 10 1003 81 10000 6 260 00:44 24.10.2020
6438 Clear 10 1002 87 10000 6 250 00:23 24.10.2020
6439 Clear 10 1002 87 10000 6 250 23:59 23.10.2020
6440 Clouds 11 1002 81 10000 7 250 23:38 23.10.2020
6441 Clear 11 1002 81 10000 6 260 23:19 23.10.2020
6442 Clear 11 1002 81 10000 7 250 22:42 23.10.2020
6443 Rain 11 1002 81 10000 8 250 22:21 23.10.2020
6444 Rain 11 1002 81 10000 8 250 21:53 23.10.2020
6445 Rain 11 1002 81 10000 6 250 21:53 23.10.2020
6446 Rain 11 1002 81 10000 6 250 21:30 23.10.2020
6447 Rain 11 1002 87 10000 4 250 20:59 23.10.2020
6448 Clouds 11 1002 87 7000 6 260 20:38 23.10.2020
6449 Clouds 12 1002 87 10000 6 260 20:19 23.10.2020
6450 Rain 12 1002 81 9000 8 250 19:44 23.10.2020
6451 Rain 12 1002 81 9000 8 250 19:26 23.10.2020
6452 Rain 13 1002 76 10000 7 230 18:47 23.10.2020
6453 Clouds 13 1002 76 10000 7 220 18:29 23.10.2020
6454 Clouds 13 1002 71 10000 7 210 17:45 23.10.2020
6455 Rain 13 1002 71 10000 5 210 17:22 23.10.2020
6456 Clouds 13 1003 71 10000 4 200 16:51 23.10.2020
6457 Clouds 13 1003 71 10000 4 200 16:33 23.10.2020
6458 Rain 14 1003 71 10000 4 210 15:58 23.10.2020
6459 Clouds 14 1004 71 10000 4 230 15:40 23.10.2020
6460 Rain 14 1004 66 10000 7 230 15:19 23.10.2020
6461 Clouds 14 1004 66 10000 7 240 14:48 23.10.2020
6462 Clouds 14 1004 66 10000 7 240 14:29 23.10.2020
6463 Clouds 14 1004 66 10000 9 240 13:42 23.10.2020
6464 Clouds 14 1004 67 10000 8 250 13:23 23.10.2020
6465 Clouds 14 1004 67 10000 9 250 12:51 23.10.2020
6466 Clouds 14 1004 67 10000 9 250 12:31 23.10.2020
6467 Clouds 14 1005 71 10000 8 250 11:51 23.10.2020
6468 Clouds 13 1005 71 10000 8 250 11:28 23.10.2020
6469 Clouds 12 1004 76 10000 8 240 10:55 23.10.2020
6470 Clouds 12 1004 76 10000 7 250 10:37 23.10.2020
6471 Clouds 12 1004 81 10000 6 260 10:19 23.10.2020
6472 Clouds 12 1004 87 10000 6 250 09:43 23.10.2020
6473 Clouds 11 1004 81 10000 8 250 09:23 23.10.2020
6474 Clouds 11 1004 81 10000 6 260 08:50 23.10.2020
6475 Clouds 11 1004 81 10000 6 260 08:26 23.10.2020
6476 Clouds 10 1003 81 10000 7 260 07:27 23.10.2020
6477 Clouds 10 1003 81 10000 7 270 06:49 23.10.2020
6478 Clouds 10 1003 81 10000 7 260 06:20 23.10.2020
6479 Rain 9 1002 93 4000 7 230 03:44 23.10.2020
6480 Rain 8 1003 87 5000 6 220 02:27 23.10.2020
6481 Rain 8 1004 87 3700 4 200 00:52 23.10.2020
6482 Rain 7 1004 87 3700 4 200 00:32 23.10.2020
6483 Rain 7 1004 93 2700 4 190 23:38 22.10.2020
6484 Rain 7 1005 87 4400 4 180 23:19 22.10.2020
6485 Rain 7 1005 87 4000 4 180 22:45 22.10.2020
6486 Rain 7 1006 87 3600 5 180 22:26 22.10.2020
6487 Rain 7 1006 87 3600 5 180 21:56 22.10.2020
6488 Rain 7 1006 87 3400 5 190 21:37 22.10.2020
6489 Rain 7 1007 87 4400 6 180 21:18 22.10.2020
6490 Rain 7 1008 87 6000 5 180 20:42 22.10.2020
6491 Clouds 6 1008 87 4800 5 180 20:24 22.10.2020
6492 Rain 6 1008 87 4600 6 170 19:43 22.10.2020
6493 Rain 6 1009 87 6000 5 170 19:20 22.10.2020
6494 Rain 6 1009 87 4800 5 160 18:44 22.10.2020
6495 Rain 6 1010 87 3400 5 150 18:22 22.10.2020
6496 Clouds 6 1010 87 3400 5 150 17:58 22.10.2020
6497 Rain 6 1010 87 4100 4 150 17:39 22.10.2020
6498 Rain 6 1011 87 4400 5 150 17:20 22.10.2020
6499 Rain 6 1012 87 4500 3 160 16:42 22.10.2020
6500 Rain 6 1012 81 5000 4 160 16:23 22.10.2020
6501 Rain 6 1013 81 8000 4 170 15:48 22.10.2020
6502 Drizzle 6 1013 81 9000 4 170 15:26 22.10.2020
6503 Rain 6 1013 81 10000 5 170 14:50 22.10.2020
6504 Rain 6 1013 81 10000 5 170 14:29 22.10.2020
6505 Rain 6 1014 86 9000 4 180 13:58 22.10.2020
6506 Rain 6 1014 86 9000 4 180 13:39 22.10.2020
6507 Rain 6 1015 80 9000 5 190 13:20 22.10.2020
6508 Rain 5 1015 80 8000 5 180 12:29 22.10.2020
6509 Clouds 5 1015 80 8000 5 180 11:58 22.10.2020
6510 Clouds 5 1015 80 9000 4 170 11:38 22.10.2020
6511 Clouds 5 1016 86 9000 5 170 11:18 22.10.2020
6512 Clouds 5 1016 86 9000 5 170 10:46 22.10.2020
6513 Clouds 4 1016 86 9000 3 160 10:24 22.10.2020
6514 Clouds 4 1016 86 8000 4 150 09:42 22.10.2020
6515 Clouds 3 1016 93 7000 3 150 09:18 22.10.2020
6516 Clouds 3 1017 86 6000 3 160 08:39 22.10.2020
6517 Mist 3 1017 86 4700 2 160 08:20 22.10.2020
6518 Mist 3 1017 86 5000 2 160 07:43 22.10.2020
6519 Clouds 3 1017 86 7000 2 140 07:18 22.10.2020
6520 Clouds 3 1017 86 6000 2 170 06:41 22.10.2020
6521 Mist 3 1017 93 4000 3 190 06:23 22.10.2020
6522 Mist 2 1017 93 5000 2 190 05:38 22.10.2020
6523 Clouds 2 1017 93 9000 2 170 03:25 22.10.2020
6524 Clouds 2 1017 91 10000 2 190 00:55 22.10.2020
6525 Rain 2 1018 93 10000 2 180 00:22 22.10.2020
6526 Rain 2 1017 91 10000 3 170 23:43 21.10.2020
6527 Rain 2 1018 90 10000 2 160 23:19 21.10.2020
6528 Rain 2 1018 90 9000 2 150 22:38 21.10.2020
6529 Rain 2 1018 91 6000 2 170 22:19 21.10.2020
6530 Rain 2 1018 91 7000 3 180 21:46 21.10.2020
6531 Rain 2 1018 91 10000 2 180 21:20 21.10.2020
6532 Rain 2 1018 91 10000 2 180 20:59 21.10.2020
6533 Rain 2 1018 91 10000 2 180 20:40 21.10.2020
6534 Rain 2 1018 94 10000 2 200 20:18 21.10.2020
6535 Rain 2 1018 90 10000 3 200 19:41 21.10.2020
6536 Rain 2 1018 93 10000 3 190 19:23 21.10.2020
6537 Rain 2 1019 93 10000 3 200 18:53 21.10.2020
6538 Rain 2 1019 93 10000 3 200 18:31 21.10.2020
6539 Clouds 2 1019 93 10000 3 200 17:51 21.10.2020
6540 Rain 2 1019 93 10000 4 210 17:22 21.10.2020
6541 Rain 2 1019 93 10000 4 210 16:59 21.10.2020
6542 Rain 2 1019 92 10000 3 200 16:40 21.10.2020
6543 Rain 2 1019 92 10000 3 200 16:20 21.10.2020
6544 Rain 2 1019 92 10000 3 210 15:48 21.10.2020
6545 Rain 2 1019 87 10000 3 210 15:28 21.10.2020
6546 Rain 3 1019 87 10000 3 210 14:57 21.10.2020
6547 Rain 3 1020 87 9000 4 220 14:38 21.10.2020
6548 Rain 3 1020 77 8000 5 230 14:19 21.10.2020
6549 Rain 3 1020 74 9000 5 240 13:42 21.10.2020
6550 Rain 3 1020 64 10000 5 230 13:21 21.10.2020
6551 Rain 3 1021 69 10000 5 240 12:41 21.10.2020
6552 Rain 4 1021 64 10000 6 250 12:21 21.10.2020
6553 Rain 3 1021 64 10000 5 250 11:47 21.10.2020
6554 Rain 3 1021 69 10000 4 240 11:22 21.10.2020
6555 Rain 3 1021 69 10000 4 240 10:59 21.10.2020
6556 Clouds 3 1020 69 10000 4 220 10:40 21.10.2020
6557 Clouds 3 1020 69 10000 4 240 10:21 21.10.2020
6558 Rain 3 1020 69 10000 4 250 09:44 21.10.2020
6559 Clouds 3 1020 69 10000 4 250 09:25 21.10.2020
6560 Clouds 2 1021 80 10000 4 240 08:42 21.10.2020
6561 Clouds 2 1021 87 10000 4 260 08:23 21.10.2020
6562 Clouds 2 1021 87 10000 4 260 07:56 21.10.2020
6563 Clouds 1 1021 91 10000 4 260 07:24 21.10.2020
6564 Clouds 1 1021 91 10000 3 270 06:47 21.10.2020
6565 Clouds 1 1021 93 10000 4 270 06:25 21.10.2020
6566 Clouds 1 1020 74 10000 5 270 03:48 21.10.2020
6567 Clouds 2 1019 74 10000 5 290 00:49 21.10.2020
6568 Clouds 2 1018 80 10000 5 280 23:37 20.10.2020
6569 Clouds 2 1018 80 10000 6 290 22:49 20.10.2020
6570 Clouds 2 1018 80 10000 6 290 22:25 20.10.2020
6571 Clouds 2 1017 80 10000 5 290 21:48 20.10.2020
6572 Clouds 2 1017 80 10000 5 290 21:20 20.10.2020
6573 Clouds 2 1016 80 10000 5 290 20:44 20.10.2020
6574 Clouds 2 1016 80 10000 5 290 20:25 20.10.2020
6575 Clouds 2 1016 80 10000 5 280 19:57 20.10.2020
6576 Clouds 2 1016 80 10000 6 280 19:39 20.10.2020
6577 Clouds 2 1016 80 10000 6 280 19:21 20.10.2020
6578 Clouds 2 1015 86 10000 5 280 18:46 20.10.2020
6579 Clouds 2 1015 86 10000 5 280 18:26 20.10.2020
6580 Clouds 2 1014 80 10000 6 280 17:42 20.10.2020
6581 Clouds 2 1014 80 10000 5 280 17:24 20.10.2020
6582 Clouds 3 1014 80 10000 6 290 16:48 20.10.2020
6583 Clouds 3 1013 74 10000 6 270 16:26 20.10.2020
6584 Clouds 3 1013 74 10000 5 290 15:50 20.10.2020
6585 Clouds 3 1013 74 10000 5 290 15:32 20.10.2020
6586 Clouds 3 1012 74 10000 6 290 14:59 20.10.2020
6587 Clouds 4 1012 74 10000 7 300 14:39 20.10.2020
6588 Clouds 4 1012 74 10000 6 310 14:21 20.10.2020
6589 Clouds 4 1011 81 10000 6 310 13:44 20.10.2020
6590 Clouds 4 1011 90 10000 7 310 13:23 20.10.2020
6591 Rain 4 1011 90 10000 7 310 12:58 20.10.2020
6592 Rain 4 1010 86 7000 9 270 12:40 20.10.2020
6593 Rain 4 1009 80 10000 9 250 12:21 20.10.2020
6594 Rain 4 1009 80 10000 8 250 11:40 20.10.2020
6595 Rain 5 1009 80 10000 8 250 11:20 20.10.2020
6596 Rain 5 1009 80 10000 8 240 10:37 20.10.2020
6597 Rain 5 1009 80 10000 8 240 10:19 20.10.2020
6598 Rain 4 1009 80 10000 8 250 09:38 20.10.2020
6599 Clouds 4 1009 75 10000 8 240 09:18 20.10.2020
6600 Rain 4 1009 75 10000 7 240 08:37 20.10.2020
6601 Clouds 3 1009 76 10000 7 240 07:53 20.10.2020
6602 Rain 3 1008 79 10000 6 240 07:26 20.10.2020
6603 Rain 3 1009 74 10000 7 240 06:31 20.10.2020
6604 Clouds 3 1009 74 10000 7 240 05:43 20.10.2020
6605 Clouds 2 1008 80 10000 8 240 03:58 20.10.2020
6606 Clouds 3 1008 80 10000 8 240 02:25 20.10.2020
6607 Clouds 2 1008 80 10000 7 230 00:59 20.10.2020
6608 Clouds 2 1008 74 10000 8 230 00:41 20.10.2020
6609 Clouds 2 1008 80 10000 7 230 00:21 20.10.2020
6610 Clouds 2 1008 74 10000 6 230 23:47 19.10.2020
6611 Clouds 2 1008 74 10000 6 220 23:24 19.10.2020
6612 Clear 2 1009 80 10000 4 220 22:44 19.10.2020
6613 Clear 2 1009 74 10000 5 230 22:24 19.10.2020
6614 Clear 2 1009 80 10000 6 220 21:49 19.10.2020
6615 Clear 3 1009 80 10000 6 230 21:23 19.10.2020
6616 Clear 3 1009 80 10000 6 220 20:52 19.10.2020
6617 Clear 4 1009 80 10000 6 220 20:33 19.10.2020
6618 Clouds 4 1009 69 10000 7 250 19:56 19.10.2020
6619 Clouds 4 1009 69 10000 7 250 19:38 19.10.2020
6620 Clouds 4 1009 74 10000 8 250 19:18 19.10.2020
6621 Clouds 5 1009 69 10000 5 210 18:42 19.10.2020
6622 Rain 5 1009 74 10000 3 200 18:19 19.10.2020
6623 Clouds 5 1009 69 10000 4 210 17:45 19.10.2020
6624 Clouds 5 1009 69 10000 5 220 17:25 19.10.2020
6625 Clouds 6 1009 65 10000 5 220 16:48 19.10.2020
6626 Clouds 6 1009 65 10000 5 220 16:28 19.10.2020
6627 Clouds 6 989 7 10000 4.91 244 15:44 19.10.2020
6628 Clouds 6 989 34 10000 4.86 246 15:25 19.10.2020
6629 Clouds 6 989 34 10000 4.86 246 14:52 19.10.2020
6630 Clouds 7 989 33 10000 5.02 250 14:27 19.10.2020
6631 Clouds 7 989 6 10000 5.02 250 13:55 19.10.2020
6632 Clouds 6 989 6 10000 4.77 250 13:36 19.10.2020
6633 Clouds 6 989 6 10000 4.97 258 13:18 19.10.2020
6634 Rain 6 989 7 10000 4.97 258 12:43 19.10.2020
6635 Rain 6 989 7 10000 5.22 262 12:25 19.10.2020
6636 Rain 6 988 34 10000 5.22 262 11:42 19.10.2020
6637 Clouds 5 1008 75 10000 6 250 11:21 19.10.2020
6638 Clouds 5 1008 75 10000 6 250 10:44 19.10.2020
6639 Clouds 6 1008 80 10000 5 240 10:21 19.10.2020
6640 Clouds 5 1008 80 10000 6 250 09:52 19.10.2020
6641 Rain 5 1008 86 8000 8 260 09:23 19.10.2020
6642 Clouds 5 1007 80 10000 6 220 08:49 19.10.2020
6643 Clouds 4 1007 80 10000 4 220 08:24 19.10.2020
6644 Clouds 4 1007 80 10000 4 220 07:56 19.10.2020
6645 Clouds 4 1007 80 10000 5 220 07:20 19.10.2020
6646 Clouds 3 1006 80 10000 6 230 06:20 19.10.2020
6647 Drizzle 3 1005 86 8000 6 230 04:47 19.10.2020
6648 Rain 3 1005 86 7000 6 220 03:44 19.10.2020
6649 Clouds 2 1005 80 10000 5 210 01:28 19.10.2020
6650 Clouds 2 1004 80 10000 5 220 00:26 19.10.2020
6651 Clouds 1 1005 86 10000 5 210 23:56 18.10.2020
6652 Clouds 1 1005 86 10000 5 210 23:37 18.10.2020
6653 Clouds 1 1004 86 10000 5 220 23:18 18.10.2020
6654 Clouds 1 1004 80 10000 5 220 22:43 18.10.2020
6655 Clouds 1 1004 80 10000 6 220 22:18 18.10.2020
6656 Clouds 1 1004 80 10000 7 230 21:38 18.10.2020
6657 Rain 2 1004 80 10000 8 240 21:20 18.10.2020
6658 Rain 2 1004 86 10000 7 240 20:43 18.10.2020
6659 Clouds 2 1003 77 10000 7 240 20:22 18.10.2020
6660 Drizzle 3 1003 77 10000 7 240 19:49 18.10.2020
6661 Drizzle 3 1003 77 10000 7 240 19:26 18.10.2020
6662 Clouds 3 1002 77 10000 8 250 18:51 18.10.2020
6663 Rain 3 1002 82 10000 8 250 18:30 18.10.2020
6664 Rain 3 1001 82 10000 8 250 17:59 18.10.2020
6665 Rain 3 1001 82 10000 8 250 17:41 18.10.2020
6666 Rain 3 1001 82 10000 8 250 17:41 18.10.2020
6667 Rain 3 1000 80 10000 8 250 17:21 18.10.2020
6668 Rain 3 1000 80 10000 8 250 16:42 18.10.2020
6669 Rain 3 999 86 10000 8 250 16:23 18.10.2020
6670 Rain 4 999 80 10000 8 250 15:43 18.10.2020
6671 Rain 5 998 80 10000 8 240 15:19 18.10.2020
6672 Rain 5 998 80 10000 8 240 14:57 18.10.2020
6673 Rain 6 998 80 8000 10 240 14:31 18.10.2020
6674 Drizzle 7 997 81 10000 10 240 13:59 18.10.2020
6675 Rain 7 997 81 9000 10 240 13:40 18.10.2020
6676 Mist 8 996 87 4000 7 230 13:22 18.10.2020
6677 Mist 8 996 93 5000 6 220 12:43 18.10.2020
6678 Rain 8 996 93 8000 5 220 12:23 18.10.2020
6679 Rain 9 997 93 9000 4 210 11:46 18.10.2020
6680 Rain 9 997 93 9000 4 210 11:28 18.10.2020
6681 Drizzle 8 997 93 2800 2 190 10:55 18.10.2020
6682 Mist 7 997 93 4300 3 140 10:37 18.10.2020
6683 Rain 6 997 86 3200 3 130 10:18 18.10.2020
6684 Rain 5 998 86 4700 4 130 09:42 18.10.2020
6685 Rain 5 998 86 4700 4 130 09:42 18.10.2020
6686 Rain 4 998 93 7000 4 120 09:20 18.10.2020
6687 Rain 4 998 93 4300 4 120 08:45 18.10.2020
6688 Drizzle 4 998 93 4300 4 120 08:25 18.10.2020
6689 Rain 3 999 93 3300 4 110 07:48 18.10.2020
6690 Rain 3 1001 93 7000 5 110 05:57 18.10.2020
6691 Rain 2 1004 93 9000 7 90 03:46 18.10.2020
6692 Rain 2 1006 92 10000 6 100 02:53 18.10.2020
6693 Rain 2 1008 94 5000 8 100 01:31 18.10.2020
6694 Rain 2 1010 86 9000 6 100 00:43 18.10.2020
6695 Rain 2 1011 86 9000 5 110 00:20 18.10.2020
6696 Rain 2 1012 86 9000 6 110 23:41 17.10.2020
6697 Rain 2 1013 80 10000 6 100 23:21 17.10.2020
6698 Rain 2 1013 80 10000 6 100 22:57 17.10.2020
6699 Rain 2 1013 80 10000 6 100 22:38 17.10.2020
6700 Rain 3 1014 74 10000 6 100 22:18 17.10.2020
6701 Rain 3 1015 74 10000 6 100 21:43 17.10.2020
6702 Clouds 2 1015 74 10000 6 90 21:21 17.10.2020
6703 Clouds 2 1016 74 10000 4 110 20:46 17.10.2020
6704 Clouds 3 1016 74 10000 5 100 20:21 17.10.2020
6705 Clouds 3 1017 69 10000 5 100 19:45 17.10.2020
6706 Clouds 3 1017 74 10000 4 120 19:24 17.10.2020
6707 Clouds 3 1017 74 10000 5 110 18:47 17.10.2020
6708 Clouds 4 1018 74 10000 5 90 18:28 17.10.2020
6709 Clouds 4 1018 74 10000 5 90 17:58 17.10.2020
6710 Clouds 5 1018 74 10000 5 90 17:39 17.10.2020
6711 Clouds 4 1018 74 10000 5 90 17:20 17.10.2020
6712 Clouds 4 1018 64 10000 4 80 16:47 17.10.2020
6713 Clouds 5 1018 69 10000 4 90 16:22 17.10.2020
6714 Clouds 5 1019 64 10000 3 110 15:43 17.10.2020
6715 Clouds 5 1019 64 10000 2 160 15:23 17.10.2020
6716 Clouds 5 1019 64 10000 2 160 14:59 17.10.2020
6717 Clouds 5 1020 60 10000 2 150 14:38 17.10.2020
6718 Clouds 6 1020 60 10000 1 0 14:19 17.10.2020
6719 Clouds 5 1020 69 10000 2 110 13:47 17.10.2020
6720 Clouds 4 1020 69 10000 1 0 13:29 17.10.2020
6721 Clouds 5 1020 69 10000 1 0 12:59 17.10.2020
6722 Clouds 4 1021 69 10000 1 0 12:38 17.10.2020
6723 Clouds 5 1021 69 10000 1 0 12:19 17.10.2020
6724 Clouds 4 1021 74 10000 1 0 11:47 17.10.2020
6725 Clouds 3 1021 74 10000 2 360 11:22 17.10.2020
6726 Clouds 3 1021 80 10000 2 180 10:33 17.10.2020
6727 Clouds 3 1021 74 10000 2 320 09:52 17.10.2020
6728 Clouds 2 1021 74 10000 2 20 09:33 17.10.2020
6729 Clouds 1 1021 74 10000 2 290 08:58 17.10.2020
6730 Clouds 1 1021 74 10000 2 330 08:27 17.10.2020
6731 Clouds 0 1020 74 10000 3 350 07:46 17.10.2020
6732 Clouds 0 1020 74 10000 3 350 07:27 17.10.2020
6733 Clouds 2 1019 86 10000 3 300 05:37 17.10.2020
6734 Clouds 2 1019 78 10000 2 330 03:29 17.10.2020
6735 Clouds 2 1018 77 10000 2 250 02:26 17.10.2020
6736 Clouds 2 1018 76 10000 2 290 00:53 17.10.2020
6737 Clouds 2 1018 74 10000 2 320 00:18 17.10.2020
6738 Clouds 2 1017 72 10000 2 310 23:24 16.10.2020
6739 Clouds 2 1017 72 10000 2 320 22:47 16.10.2020
6740 Clouds 2 1017 74 10000 2 270 22:25 16.10.2020
6741 Clouds 2 1017 74 10000 2 270 21:57 16.10.2020
6742 Clouds 2 1016 74 10000 2 280 21:39 16.10.2020
6743 Clouds 2 1016 80 10000 2 330 21:20 16.10.2020
6744 Clouds 3 1016 80 10000 2 280 20:44 16.10.2020
6745 Clouds 3 1015 67 10000 3 320 20:24 16.10.2020
6746 Clouds 4 1015 67 10000 3 330 19:45 16.10.2020
6747 Clouds 4 1015 66 10000 3 330 19:27 16.10.2020
6748 Clouds 4 1015 66 10000 3 330 18:56 16.10.2020
6749 Clouds 4 1015 68 10000 3 330 18:34 16.10.2020
6750 Clouds 5 1014 68 10000 3 340 17:49 16.10.2020
6751 Clouds 5 1014 65 10000 3 340 17:29 16.10.2020
6752 Clouds 5 1014 80 10000 4 340 16:57 16.10.2020
6753 Clouds 5 1013 65 10000 3 350 16:38 16.10.2020
6754 Clouds 6 1013 75 10000 4 350 16:19 16.10.2020
6755 Clouds 6 1013 80 10000 4 360 15:24 16.10.2020
6756 Rain 6 1013 80 10000 4 360 14:58 16.10.2020
6757 Rain 6 1012 80 10000 3 10 14:39 16.10.2020
6758 Rain 6 1012 80 10000 3 20 14:18 16.10.2020
6759 Rain 6 1012 80 10000 3 30 13:44 16.10.2020
6760 Rain 6 1012 80 10000 3 30 13:25 16.10.2020
6761 Rain 6 1012 80 10000 4 20 12:57 16.10.2020
6762 Rain 6 1012 80 10000 4 40 12:26 16.10.2020
6763 Rain 6 1012 80 10000 4 40 11:58 16.10.2020
6764 Rain 6 1012 86 10000 4 30 11:39 16.10.2020
6765 Rain 7 1012 86 10000 4 20 11:19 16.10.2020
6766 Rain 7 1011 86 10000 4 20 10:47 16.10.2020
6767 Rain 7 1011 86 10000 4 20 10:27 16.10.2020
6768 Drizzle 8 1011 86 10000 3 40 09:40 16.10.2020
6769 Clouds 8 1011 86 10000 3 60 09:22 16.10.2020
6770 Clouds 8 1011 86 10000 3 60 09:22 16.10.2020
6771 Clouds 7 1011 86 10000 3 50 08:46 16.10.2020
6772 Clouds 7 1011 86 10000 3 80 08:28 16.10.2020
6773 Clouds 7 1010 93 10000 3 30 07:44 16.10.2020
6774 Clouds 7 1010 87 10000 4 20 07:19 16.10.2020
6775 Clouds 7 1010 87 7000 3 10 06:34 16.10.2020
6776 Rain 8 1010 87 10000 3 20 03:53 16.10.2020
6777 Clouds 10 1010 81 10000 2 280 01:48 16.10.2020
6778 Clouds 10 1010 81 10000 2 280 01:48 16.10.2020
6779 Clouds 10 1010 70 10000 3 290 00:50 16.10.2020
6780 Clouds 10 1010 70 10000 3 300 00:18 16.10.2020
6781 Clouds 10 1010 66 10000 5 310 23:40 15.10.2020
6782 Clouds 10 1009 66 10000 5 260 23:19 15.10.2020
6783 Clouds 10 1009 61 10000 5 260 22:46 15.10.2020
6784 Clouds 11 1010 57 10000 6 250 22:22 15.10.2020
6785 Clouds 11 1010 57 10000 6 240 21:54 15.10.2020
6786 Clouds 10 1010 57 10000 6 240 21:36 15.10.2020
6787 Clouds 10 1009 57 10000 6 240 21:18 15.10.2020
6788 Rain 11 1009 57 10000 5 240 20:41 15.10.2020
6789 Rain 11 1009 61 10000 5 240 20:20 15.10.2020
6790 Clouds 11 1010 57 10000 4 240 19:42 15.10.2020
6791 Clouds 11 1010 53 10000 5 240 19:21 15.10.2020
6792 Clouds 11 1010 53 10000 5 230 18:43 15.10.2020
6793 Clouds 11 1010 53 10000 5 230 18:43 15.10.2020
6794 Clear 11 1010 57 10000 5 250 18:25 15.10.2020
6795 Clear 11 1010 57 10000 7 250 17:48 15.10.2020
6796 Clear 12 1010 54 10000 8 250 17:25 15.10.2020
6797 Clear 13 1010 47 10000 8 240 16:50 15.10.2020
6798 Clear 13 1010 47 10000 8 240 16:26 15.10.2020
6799 Clear 14 1010 47 10000 10 250 15:59 15.10.2020
6800 Clear 14 1010 47 10000 10 250 15:40 15.10.2020
6801 Clear 14 1010 47 10000 9 250 15:21 15.10.2020
6802 Clear 14 1010 47 10000 11 250 14:48 15.10.2020
6803 Clear 14 1010 50 10000 11 250 14:24 15.10.2020
6804 Clouds 14 1010 47 10000 10 240 13:47 15.10.2020
6805 Clouds 14 1010 50 10000 10 250 13:25 15.10.2020
6806